<?xml version='1.0' encoding='UTF-8'?><gpx version="1.1" creator="JPX - https://github.com/jenetics/jpx" xmlns="http://www.topografix.com/GPX/1/1"><trk><trkseg><trkpt lat="47.34461912953455" lon="5.185730700299288"><ele>216.0</ele><time>2026-04-06T12:27:12.999Z</time></trkpt><trkpt lat="47.344686176753335" lon="5.1856874418091365"><ele>216.0</ele><time>2026-04-06T12:27:15.999Z</time></trkpt><trkpt lat="47.344753284931194" lon="5.185649097260512"><ele>216.0</ele><time>2026-04-06T12:27:17.999Z</time></trkpt><trkpt lat="47.34481827366164" lon="5.1856022085296685"><ele>216.0</ele><time>2026-04-06T12:27:19.999Z</time></trkpt><trkpt lat="47.34489476467251" lon="5.185548153603432"><ele>216.0</ele><time>2026-04-06T12:27:21.999Z</time></trkpt><trkpt lat="47.34498630875803" lon="5.185492812755306"><ele>216.0</ele><time>2026-04-06T12:27:23.999Z</time></trkpt><trkpt lat="47.34509133207204" lon="5.185466241837934"><ele>216.25</ele><time>2026-04-06T12:27:25.999Z</time></trkpt><trkpt lat="47.345205231118854" lon="5.185484211392227"><ele>216.5</ele><time>2026-04-06T12:27:27.999Z</time></trkpt><trkpt lat="47.345318089033434" lon="5.185562526981933"><ele>216.75</ele><time>2026-04-06T12:27:29.999Z</time></trkpt><trkpt lat="47.34541472853634" lon="5.1856509768831645"><ele>217.0</ele><time>2026-04-06T12:27:31.999Z</time></trkpt><trkpt lat="47.34550763813516" lon="5.185737621436435"><ele>217.39999999999998</ele><time>2026-04-06T12:27:33.999Z</time></trkpt><trkpt lat="47.34560225022532" lon="5.185812768212503"><ele>217.79999999999998</ele><time>2026-04-06T12:27:35.999Z</time></trkpt><trkpt lat="47.34569807245263" lon="5.185884508700334"><ele>218.2</ele><time>2026-04-06T12:27:37.999Z</time></trkpt><trkpt lat="47.34578909752974" lon="5.185964835854297"><ele>218.6</ele><time>2026-04-06T12:27:39.999Z</time></trkpt><trkpt lat="47.34587212267771" lon="5.186065572456523"><ele>219.0</ele><time>2026-04-06T12:27:41.999Z</time></trkpt><trkpt lat="47.345927653727365" lon="5.186206473301089"><ele>219.0</ele><time>2026-04-06T12:27:43.999Z</time></trkpt><trkpt lat="47.345956643585936" lon="5.186357106910721"><ele>218.99999999999997</ele><time>2026-04-06T12:27:45.999Z</time></trkpt><trkpt lat="47.345949523815065" lon="5.18651504206541"><ele>218.99999999999997</ele><time>2026-04-06T12:27:47.999Z</time></trkpt><trkpt lat="47.34588488262456" lon="5.186638855382093"><ele>219.0</ele><time>2026-04-06T12:27:49.999Z</time></trkpt><trkpt lat="47.34583808663454" lon="5.186775703104879"><ele>219.0</ele><time>2026-04-06T12:27:51.999Z</time></trkpt><trkpt lat="47.34580823332953" lon="5.186916545673003"><ele>219.2</ele><time>2026-04-06T12:27:53.999Z</time></trkpt><trkpt lat="47.34576278980612" lon="5.18706166983656"><ele>219.39999999999998</ele><time>2026-04-06T12:27:55.999Z</time></trkpt><trkpt lat="47.34572834883989" lon="5.187200717221524"><ele>219.6</ele><time>2026-04-06T12:27:57.999Z</time></trkpt><trkpt lat="47.34567584143415" lon="5.187349094418094"><ele>219.8</ele><time>2026-04-06T12:27:59.999Z</time></trkpt><trkpt lat="47.34563901142061" lon="5.187492236863332"><ele>220.0</ele><time>2026-04-06T12:28:01.999Z</time></trkpt><trkpt lat="47.34560663876839" lon="5.187618828808553"><ele>220.0</ele><time>2026-04-06T12:28:03.999Z</time></trkpt><trkpt lat="47.345554232442794" lon="5.18775705145387"><ele>220.0</ele><time>2026-04-06T12:28:05.999Z</time></trkpt><trkpt lat="47.3455056462575" lon="5.187896646356872"><ele>220.0</ele><time>2026-04-06T12:28:07.999Z</time></trkpt><trkpt lat="47.345481119214725" lon="5.188017477105712"><ele>220.0</ele><time>2026-04-06T12:28:09.999Z</time></trkpt><trkpt lat="47.345445471170414" lon="5.188130015468872"><ele>220.0</ele><time>2026-04-06T12:28:11.999Z</time></trkpt><trkpt lat="47.345419688080916" lon="5.188260081785556"><ele>219.75</ele><time>2026-04-06T12:28:13.999Z</time></trkpt><trkpt lat="47.345382015361736" lon="5.188402456466872"><ele>219.5</ele><time>2026-04-06T12:28:15.999Z</time></trkpt><trkpt lat="47.34532690081971" lon="5.1885418289880745"><ele>219.25</ele><time>2026-04-06T12:28:17.999Z</time></trkpt><trkpt lat="47.34526929011167" lon="5.188697814350021"><ele>219.0</ele><time>2026-04-06T12:28:19.999Z</time></trkpt><trkpt lat="47.34521094012041" lon="5.188848375329717"><ele>219.0</ele><time>2026-04-06T12:28:21.999Z</time></trkpt><trkpt lat="47.345179288339004" lon="5.188928787656246"><ele>218.99999999999997</ele><time>2026-04-06T12:28:22.999Z</time></trkpt><trkpt lat="47.34512083305977" lon="5.189088010542076"><ele>218.99999999999997</ele><time>2026-04-06T12:28:24.999Z</time></trkpt><trkpt lat="47.34505797727503" lon="5.189242650994674"><ele>219.0</ele><time>2026-04-06T12:28:26.998Z</time></trkpt><trkpt lat="47.34500114870724" lon="5.1894003423937285"><ele>219.0</ele><time>2026-04-06T12:28:28.998Z</time></trkpt><trkpt lat="47.344949183630995" lon="5.189557939711742"><ele>218.75</ele><time>2026-04-06T12:28:30.998Z</time></trkpt><trkpt lat="47.344899843123535" lon="5.189719852925273"><ele>218.5</ele><time>2026-04-06T12:28:32.998Z</time></trkpt><trkpt lat="47.344858251777104" lon="5.18988560924672"><ele>218.25</ele><time>2026-04-06T12:28:34.998Z</time></trkpt><trkpt lat="47.3448278064763" lon="5.19005187206434"><ele>218.0</ele><time>2026-04-06T12:28:36.998Z</time></trkpt><trkpt lat="47.344798817901896" lon="5.19021129122259"><ele>218.0</ele><time>2026-04-06T12:28:38.998Z</time></trkpt><trkpt lat="47.34477636378234" lon="5.190302127555221"><ele>218.0</ele><time>2026-04-06T12:28:39.998Z</time></trkpt><trkpt lat="47.34475051993062" lon="5.190466146998206"><ele>218.0</ele><time>2026-04-06T12:28:41.998Z</time></trkpt><trkpt lat="47.344714605292175" lon="5.1906146776387"><ele>218.0</ele><time>2026-04-06T12:28:43.998Z</time></trkpt><trkpt lat="47.34470725987653" lon="5.190708950510678"><ele>218.0</ele><time>2026-04-06T12:28:44.998Z</time></trkpt><trkpt lat="47.344675377209896" lon="5.190852737860776"><ele>218.2</ele><time>2026-04-06T12:28:46.998Z</time></trkpt><trkpt lat="47.34465997499837" lon="5.190999762667007"><ele>218.4</ele><time>2026-04-06T12:28:48.998Z</time></trkpt><trkpt lat="47.34465432381569" lon="5.191147111529802"><ele>218.59999999999997</ele><time>2026-04-06T12:28:50.998Z</time></trkpt><trkpt lat="47.34472891827655" lon="5.191222093125862"><ele>218.79999999999998</ele><time>2026-04-06T12:28:52.998Z</time></trkpt><trkpt lat="47.34479209158859" lon="5.19122113380649"><ele>219.0</ele><time>2026-04-06T12:28:53.998Z</time></trkpt><trkpt lat="47.34489701460026" lon="5.191244988395385"><ele>219.0</ele><time>2026-04-06T12:28:55.998Z</time></trkpt><trkpt lat="47.345013900996584" lon="5.191274171472353"><ele>219.0</ele><time>2026-04-06T12:28:57.998Z</time></trkpt><trkpt lat="47.34512375019721" lon="5.191307363913372"><ele>219.0</ele><time>2026-04-06T12:28:59.998Z</time></trkpt><trkpt lat="47.34522113119756" lon="5.191372921352608"><ele>219.0</ele><time>2026-04-06T12:29:01.998Z</time></trkpt><trkpt lat="47.34532901866375" lon="5.191458446352718"><ele>219.0</ele><time>2026-04-06T12:29:03.998Z</time></trkpt><trkpt lat="47.34542498227468" lon="5.191554295062209"><ele>218.99999999999997</ele><time>2026-04-06T12:29:05.998Z</time></trkpt><trkpt lat="47.34551625328856" lon="5.191634595607052"><ele>218.99999999999997</ele><time>2026-04-06T12:29:07.998Z</time></trkpt><trkpt lat="47.34560678201941" lon="5.191724496220056"><ele>219.0</ele><time>2026-04-06T12:29:09.998Z</time></trkpt><trkpt lat="47.34568848994977" lon="5.191818384109767"><ele>219.0</ele><time>2026-04-06T12:29:11.998Z</time></trkpt><trkpt lat="47.345780834546304" lon="5.19190646584249"><ele>219.2</ele><time>2026-04-06T12:29:13.998Z</time></trkpt><trkpt lat="47.345882463629316" lon="5.191963744533633"><ele>219.39999999999998</ele><time>2026-04-06T12:29:15.998Z</time></trkpt><trkpt lat="47.34597315349403" lon="5.192009550505135"><ele>219.6</ele><time>2026-04-06T12:29:17.998Z</time></trkpt><trkpt lat="47.346058437392294" lon="5.192075314319568"><ele>219.8</ele><time>2026-04-06T12:29:19.998Z</time></trkpt><trkpt lat="47.346101936804175" lon="5.192203653606503"><ele>220.0</ele><time>2026-04-06T12:29:21.998Z</time></trkpt><trkpt lat="47.3460991016968" lon="5.192358459741246"><ele>220.0</ele><time>2026-04-06T12:29:23.998Z</time></trkpt><trkpt lat="47.346102481555214" lon="5.192495211742195"><ele>220.0</ele><time>2026-04-06T12:29:25.998Z</time></trkpt><trkpt lat="47.34612905756862" lon="5.1926160889684185"><ele>220.0</ele><time>2026-04-06T12:29:27.998Z</time></trkpt><trkpt lat="47.34622781668124" lon="5.192658997062023"><ele>220.0</ele><time>2026-04-06T12:29:29.998Z</time></trkpt><trkpt lat="47.34632973274188" lon="5.19266419587199"><ele>220.0</ele><time>2026-04-06T12:29:31.998Z</time></trkpt><trkpt lat="47.346420085482954" lon="5.192708013906071"><ele>220.0</ele><time>2026-04-06T12:29:33.998Z</time></trkpt><trkpt lat="47.346513407196944" lon="5.192748201803366"><ele>220.0</ele><time>2026-04-06T12:29:35.998Z</time></trkpt><trkpt lat="47.34659944661508" lon="5.192801411245525"><ele>220.0</ele><time>2026-04-06T12:29:37.998Z</time></trkpt><trkpt lat="47.34669166004768" lon="5.192850161275913"><ele>220.0</ele><time>2026-04-06T12:29:39.998Z</time></trkpt><trkpt lat="47.34677256510087" lon="5.19292767554637"><ele>220.0</ele><time>2026-04-06T12:29:41.998Z</time></trkpt><trkpt lat="47.346831254106576" lon="5.193004135788126"><ele>219.99999999999997</ele><time>2026-04-06T12:29:43.998Z</time></trkpt><trkpt lat="47.34688726569933" lon="5.193099124429548"><ele>220.0</ele><time>2026-04-06T12:29:45.998Z</time></trkpt><trkpt lat="47.3469018210386" lon="5.193229143748554"><ele>220.0</ele><time>2026-04-06T12:29:47.998Z</time></trkpt><trkpt lat="47.346894009844576" lon="5.193359590454498"><ele>220.0</ele><time>2026-04-06T12:29:49.998Z</time></trkpt><trkpt lat="47.34691861114408" lon="5.193485929646792"><ele>219.99999999999997</ele><time>2026-04-06T12:29:51.998Z</time></trkpt><trkpt lat="47.34694092633423" lon="5.193621654319074"><ele>220.0</ele><time>2026-04-06T12:29:53.998Z</time></trkpt><trkpt lat="47.34695015715905" lon="5.193755951651793"><ele>219.8</ele><time>2026-04-06T12:29:55.998Z</time></trkpt><trkpt lat="47.34695406133065" lon="5.193889930386706"><ele>219.6</ele><time>2026-04-06T12:29:57.998Z</time></trkpt><trkpt lat="47.346963164794694" lon="5.194027038592955"><ele>219.39999999999998</ele><time>2026-04-06T12:29:59.998Z</time></trkpt><trkpt lat="47.34697983963943" lon="5.1941658086165425"><ele>219.2</ele><time>2026-04-06T12:30:01.998Z</time></trkpt><trkpt lat="47.34699685569961" lon="5.1943105178557305"><ele>219.0</ele><time>2026-04-06T12:30:03.998Z</time></trkpt><trkpt lat="47.347018277845336" lon="5.194449804796494"><ele>219.0</ele><time>2026-04-06T12:30:05.998Z</time></trkpt><trkpt lat="47.34704698865851" lon="5.194585194250258"><ele>218.99999999999997</ele><time>2026-04-06T12:30:07.998Z</time></trkpt><trkpt lat="47.3470779779253" lon="5.194712889215414"><ele>218.99999999999997</ele><time>2026-04-06T12:30:09.998Z</time></trkpt><trkpt lat="47.34710744563259" lon="5.194843483831461"><ele>219.0</ele><time>2026-04-06T12:30:11.998Z</time></trkpt><trkpt lat="47.34714780182263" lon="5.194962711244888"><ele>219.0</ele><time>2026-04-06T12:30:13.998Z</time></trkpt><trkpt lat="47.347225738211144" lon="5.195020638207147"><ele>219.0</ele><time>2026-04-06T12:30:15.998Z</time></trkpt><trkpt lat="47.34733690673543" lon="5.1949839611940725"><ele>219.0</ele><time>2026-04-06T12:30:17.998Z</time></trkpt><trkpt lat="47.34744520093455" lon="5.194944467509853"><ele>219.0</ele><time>2026-04-06T12:30:19.998Z</time></trkpt><trkpt lat="47.347562278855925" lon="5.194918646922404"><ele>219.0</ele><time>2026-04-06T12:30:21.997Z</time></trkpt><trkpt lat="47.34767421617606" lon="5.19490924215567"><ele>219.0</ele><time>2026-04-06T12:30:23.997Z</time></trkpt><trkpt lat="47.34778731293341" lon="5.194910436931789"><ele>219.0</ele><time>2026-04-06T12:30:25.997Z</time></trkpt><trkpt lat="47.34790317790006" lon="5.194907738821508"><ele>219.0</ele><time>2026-04-06T12:30:27.997Z</time></trkpt><trkpt lat="47.348012668722625" lon="5.194907875653064"><ele>219.0</ele><time>2026-04-06T12:30:29.997Z</time></trkpt><trkpt lat="47.34812661096709" lon="5.1949041796702105"><ele>219.0</ele><time>2026-04-06T12:30:31.997Z</time></trkpt><trkpt lat="47.34823968099748" lon="5.194901532055369"><ele>219.0</ele><time>2026-04-06T12:30:33.997Z</time></trkpt><trkpt lat="47.34835748787204" lon="5.194896089720323"><ele>219.0</ele><time>2026-04-06T12:30:35.997Z</time></trkpt><trkpt lat="47.34847676366664" lon="5.1948841710623"><ele>219.0</ele><time>2026-04-06T12:30:37.997Z</time></trkpt><trkpt lat="47.3485944861866" lon="5.194880273764329"><ele>219.0</ele><time>2026-04-06T12:30:39.997Z</time></trkpt><trkpt lat="47.34871512076076" lon="5.1948673293627"><ele>219.0</ele><time>2026-04-06T12:30:41.997Z</time></trkpt><trkpt lat="47.3488342394843" lon="5.194857255424026"><ele>219.0</ele><time>2026-04-06T12:30:43.997Z</time></trkpt><trkpt lat="47.348954220599566" lon="5.194852277269596"><ele>219.0</ele><time>2026-04-06T12:30:45.997Z</time></trkpt><trkpt lat="47.34907280998175" lon="5.194848497049268"><ele>219.0</ele><time>2026-04-06T12:30:47.997Z</time></trkpt><trkpt lat="47.349190788092386" lon="5.194847035397917"><ele>219.0</ele><time>2026-04-06T12:30:49.997Z</time></trkpt><trkpt lat="47.349310044945234" lon="5.19483932072586"><ele>219.0</ele><time>2026-04-06T12:30:51.997Z</time></trkpt><trkpt lat="47.34942084478369" lon="5.194828464214008"><ele>219.0</ele><time>2026-04-06T12:30:53.997Z</time></trkpt><trkpt lat="47.34952571784525" lon="5.194828960795364"><ele>219.0</ele><time>2026-04-06T12:30:55.997Z</time></trkpt><trkpt lat="47.349619286150336" lon="5.194838086018419"><ele>219.0</ele><time>2026-04-06T12:30:57.997Z</time></trkpt><trkpt lat="47.34970897306664" lon="5.194830182356248"><ele>219.0</ele><time>2026-04-06T12:30:59.997Z</time></trkpt><trkpt lat="47.349794734785505" lon="5.19482348260435"><ele>219.0</ele><time>2026-04-06T12:31:01.997Z</time></trkpt><trkpt lat="47.34987942606368" lon="5.1948339551870335"><ele>219.0</ele><time>2026-04-06T12:31:03.997Z</time></trkpt><trkpt lat="47.349961955883614" lon="5.194837823182466"><ele>219.0</ele><time>2026-04-06T12:31:05.997Z</time></trkpt><trkpt lat="47.35005756385788" lon="5.194845572790292"><ele>219.33333333333334</ele><time>2026-04-06T12:31:07.997Z</time></trkpt><trkpt lat="47.350143485890854" lon="5.194866204202744"><ele>219.66666666666669</ele><time>2026-04-06T12:31:09.997Z</time></trkpt><trkpt lat="47.35022647380241" lon="5.194895139302286"><ele>220.0</ele><time>2026-04-06T12:31:11.997Z</time></trkpt><trkpt lat="47.350295122445885" lon="5.1949230604427035"><ele>220.33333333333334</ele><time>2026-04-06T12:31:13.997Z</time></trkpt><trkpt lat="47.35037715637284" lon="5.1949454640918065"><ele>220.66666666666669</ele><time>2026-04-06T12:31:15.997Z</time></trkpt><trkpt lat="47.35047607517602" lon="5.194964814014518"><ele>221.0</ele><time>2026-04-06T12:31:17.997Z</time></trkpt><trkpt lat="47.35056629281234" lon="5.195004388698054"><ele>221.0</ele><time>2026-04-06T12:31:19.997Z</time></trkpt><trkpt lat="47.35067225488155" lon="5.195035187590531"><ele>221.00000000000003</ele><time>2026-04-06T12:31:21.997Z</time></trkpt><trkpt lat="47.35077125684275" lon="5.195073801092627"><ele>221.00000000000003</ele><time>2026-04-06T12:31:23.997Z</time></trkpt><trkpt lat="47.350876748367696" lon="5.1951075424719315"><ele>221.0</ele><time>2026-04-06T12:31:25.997Z</time></trkpt><trkpt lat="47.35097899799943" lon="5.1951422099534454"><ele>221.0</ele><time>2026-04-06T12:31:27.997Z</time></trkpt><trkpt lat="47.351077640405535" lon="5.195159560240696"><ele>221.00000000000003</ele><time>2026-04-06T12:31:29.997Z</time></trkpt><trkpt lat="47.35115919744787" lon="5.195193891644241"><ele>221.0</ele><time>2026-04-06T12:31:31.997Z</time></trkpt><trkpt lat="47.35123200361443" lon="5.195241845881094"><ele>221.0</ele><time>2026-04-06T12:31:33.997Z</time></trkpt><trkpt lat="47.35128971704078" lon="5.195282850145402"><ele>221.0</ele><time>2026-04-06T12:31:47.997Z</time></trkpt><trkpt lat="47.35136593079991" lon="5.195318899290219"><ele>221.00000000000003</ele><time>2026-04-06T12:31:52.997Z</time></trkpt><trkpt lat="47.35142811831081" lon="5.195351682098551"><ele>221.0</ele><time>2026-04-06T12:31:54.997Z</time></trkpt><trkpt lat="47.35150135588873" lon="5.19539940405629"><ele>221.60000000000002</ele><time>2026-04-06T12:31:56.997Z</time></trkpt><trkpt lat="47.351576830604756" lon="5.1954594784986625"><ele>222.20000000000002</ele><time>2026-04-06T12:31:58.997Z</time></trkpt><trkpt lat="47.35165870250977" lon="5.195538194094359"><ele>222.79999999999998</ele><time>2026-04-06T12:32:00.997Z</time></trkpt><trkpt lat="47.3517395259015" lon="5.195605662262821"><ele>223.39999999999998</ele><time>2026-04-06T12:32:02.997Z</time></trkpt><trkpt lat="47.35181809342642" lon="5.195672710840344"><ele>224.0</ele><time>2026-04-06T12:32:04.997Z</time></trkpt><trkpt lat="47.35189676458982" lon="5.195746274767305"><ele>224.0</ele><time>2026-04-06T12:32:06.997Z</time></trkpt><trkpt lat="47.35197748754246" lon="5.195811396728971"><ele>223.99999999999997</ele><time>2026-04-06T12:32:08.997Z</time></trkpt><trkpt lat="47.352051142650545" lon="5.195877699863368"><ele>223.99999999999997</ele><time>2026-04-06T12:32:10.997Z</time></trkpt><trkpt lat="47.35212619309028" lon="5.1959576900458115"><ele>224.0</ele><time>2026-04-06T12:32:12.997Z</time></trkpt><trkpt lat="47.352206734436486" lon="5.196025013249961"><ele>224.0</ele><time>2026-04-06T12:32:14.997Z</time></trkpt><trkpt lat="47.35228863503957" lon="5.196100126140522"><ele>224.39999999999998</ele><time>2026-04-06T12:32:16.996Z</time></trkpt><trkpt lat="47.35237744246522" lon="5.196172630519438"><ele>224.79999999999998</ele><time>2026-04-06T12:32:18.996Z</time></trkpt><trkpt lat="47.35246952529958" lon="5.196243264538825"><ele>225.20000000000002</ele><time>2026-04-06T12:32:20.996Z</time></trkpt><trkpt lat="47.35256027639221" lon="5.196319044181482"><ele>225.60000000000002</ele><time>2026-04-06T12:32:22.996Z</time></trkpt><trkpt lat="47.35265087966853" lon="5.1963836443305125"><ele>226.0</ele><time>2026-04-06T12:32:24.996Z</time></trkpt><trkpt lat="47.352741358136576" lon="5.196437708056979"><ele>226.0</ele><time>2026-04-06T12:32:26.996Z</time></trkpt><trkpt lat="47.35283199422165" lon="5.196483541971348"><ele>226.00000000000003</ele><time>2026-04-06T12:32:28.996Z</time></trkpt><trkpt lat="47.352925309622414" lon="5.196525905620867"><ele>226.00000000000003</ele><time>2026-04-06T12:32:30.996Z</time></trkpt><trkpt lat="47.35302046487696" lon="5.1965566861023476"><ele>226.0</ele><time>2026-04-06T12:32:32.996Z</time></trkpt><trkpt lat="47.353115645741816" lon="5.19658406489007"><ele>226.0</ele><time>2026-04-06T12:32:34.996Z</time></trkpt><trkpt lat="47.35321674660087" lon="5.196623742675453"><ele>226.0</ele><time>2026-04-06T12:32:36.996Z</time></trkpt><trkpt lat="47.353319471287186" lon="5.196648786701573"><ele>226.00000000000003</ele><time>2026-04-06T12:32:38.996Z</time></trkpt><trkpt lat="47.353414868558566" lon="5.19668218999587"><ele>226.00000000000003</ele><time>2026-04-06T12:32:40.996Z</time></trkpt><trkpt lat="47.353516469245356" lon="5.196707609145095"><ele>226.0</ele><time>2026-04-06T12:32:42.996Z</time></trkpt><trkpt lat="47.353604736363856" lon="5.1967327646534125"><ele>226.0</ele><time>2026-04-06T12:32:44.996Z</time></trkpt><trkpt lat="47.35369656304838" lon="5.196767760804498"><ele>226.0</ele><time>2026-04-06T12:32:46.996Z</time></trkpt><trkpt lat="47.35378931322858" lon="5.196802051922943"><ele>226.00000000000003</ele><time>2026-04-06T12:32:48.996Z</time></trkpt><trkpt lat="47.35388346893889" lon="5.196824425532046"><ele>226.00000000000003</ele><time>2026-04-06T12:32:50.996Z</time></trkpt><trkpt lat="47.353976563653" lon="5.19685465128832"><ele>226.0</ele><time>2026-04-06T12:32:52.996Z</time></trkpt><trkpt lat="47.354065992937116" lon="5.196883253104237"><ele>226.0</ele><time>2026-04-06T12:32:54.996Z</time></trkpt><trkpt lat="47.35415919673756" lon="5.196913014025615"><ele>226.60000000000002</ele><time>2026-04-06T12:32:56.996Z</time></trkpt><trkpt lat="47.354254633132875" lon="5.196941752819858"><ele>227.20000000000002</ele><time>2026-04-06T12:32:58.996Z</time></trkpt><trkpt lat="47.35434846918562" lon="5.19696544979595"><ele>227.79999999999998</ele><time>2026-04-06T12:33:00.996Z</time></trkpt><trkpt lat="47.354443673374085" lon="5.196993143249021"><ele>228.39999999999998</ele><time>2026-04-06T12:33:02.996Z</time></trkpt><trkpt lat="47.3545402939027" lon="5.1970286892151725"><ele>229.0</ele><time>2026-04-06T12:33:04.996Z</time></trkpt><trkpt lat="47.35463645048516" lon="5.19706775691486"><ele>228.79999999999998</ele><time>2026-04-06T12:33:06.996Z</time></trkpt><trkpt lat="47.35473294345433" lon="5.197102144846756"><ele>228.59999999999997</ele><time>2026-04-06T12:33:08.996Z</time></trkpt><trkpt lat="47.354827786150715" lon="5.197137349318091"><ele>228.4</ele><time>2026-04-06T12:33:10.996Z</time></trkpt><trkpt lat="47.35492810981104" lon="5.1971692890530345"><ele>228.2</ele><time>2026-04-06T12:33:12.996Z</time></trkpt><trkpt lat="47.35502272398883" lon="5.197208328754776"><ele>228.0</ele><time>2026-04-06T12:33:14.996Z</time></trkpt><trkpt lat="47.35512237662439" lon="5.197238232989484"><ele>228.0</ele><time>2026-04-06T12:33:16.996Z</time></trkpt><trkpt lat="47.35522131204249" lon="5.197273540826031"><ele>228.0</ele><time>2026-04-06T12:33:18.996Z</time></trkpt><trkpt lat="47.35531878384699" lon="5.197307207705157"><ele>228.0</ele><time>2026-04-06T12:33:20.996Z</time></trkpt><trkpt lat="47.35541745336719" lon="5.197340759583609"><ele>228.0</ele><time>2026-04-06T12:33:22.996Z</time></trkpt><trkpt lat="47.35551448851555" lon="5.197367448975443"><ele>228.0</ele><time>2026-04-06T12:33:24.996Z</time></trkpt><trkpt lat="47.355608216295835" lon="5.197410260246404"><ele>228.4</ele><time>2026-04-06T12:33:26.996Z</time></trkpt><trkpt lat="47.35570434229165" lon="5.197441964083634"><ele>228.8</ele><time>2026-04-06T12:33:28.996Z</time></trkpt><trkpt lat="47.35580102744307" lon="5.197473717509904"><ele>229.2</ele><time>2026-04-06T12:33:30.996Z</time></trkpt><trkpt lat="47.35589310626207" lon="5.197509409511125"><ele>229.6</ele><time>2026-04-06T12:33:32.996Z</time></trkpt><trkpt lat="47.355988598859796" lon="5.197534704772121"><ele>230.0</ele><time>2026-04-06T12:33:34.996Z</time></trkpt><trkpt lat="47.35609288454593" lon="5.19757047842511"><ele>230.0</ele><time>2026-04-06T12:33:36.996Z</time></trkpt><trkpt lat="47.35619148127541" lon="5.197606285970196"><ele>230.0</ele><time>2026-04-06T12:33:38.996Z</time></trkpt><trkpt lat="47.356293892609266" lon="5.197638947523359"><ele>230.0</ele><time>2026-04-06T12:33:40.996Z</time></trkpt><trkpt lat="47.35639943134947" lon="5.197671328953265"><ele>230.0</ele><time>2026-04-06T12:33:42.996Z</time></trkpt><trkpt lat="47.35649920647788" lon="5.197698879647916"><ele>230.0</ele><time>2026-04-06T12:33:44.996Z</time></trkpt><trkpt lat="47.35660139155744" lon="5.197744359708245"><ele>230.0</ele><time>2026-04-06T12:33:46.996Z</time></trkpt><trkpt lat="47.35670561353725" lon="5.1977743363670665"><ele>230.0</ele><time>2026-04-06T12:33:48.996Z</time></trkpt><trkpt lat="47.35680915381094" lon="5.197812557234735"><ele>230.0</ele><time>2026-04-06T12:33:50.996Z</time></trkpt><trkpt lat="47.35691305785151" lon="5.197843929397128"><ele>230.0</ele><time>2026-04-06T12:33:52.996Z</time></trkpt><trkpt lat="47.3570171182371" lon="5.197882773790376"><ele>230.0</ele><time>2026-04-06T12:33:54.996Z</time></trkpt><trkpt lat="47.357121794813104" lon="5.197917917460376"><ele>230.0</ele><time>2026-04-06T12:33:56.996Z</time></trkpt><trkpt lat="47.35723000128085" lon="5.197958021105756"><ele>230.0</ele><time>2026-04-06T12:33:58.996Z</time></trkpt><trkpt lat="47.357338536260364" lon="5.198000428228342"><ele>230.0</ele><time>2026-04-06T12:34:00.996Z</time></trkpt><trkpt lat="47.357447171697345" lon="5.198043710682354"><ele>230.0</ele><time>2026-04-06T12:34:02.996Z</time></trkpt><trkpt lat="47.357557401095654" lon="5.198089592013953"><ele>230.0</ele><time>2026-04-06T12:34:04.996Z</time></trkpt><trkpt lat="47.357672701795586" lon="5.198128798910057"><ele>230.0</ele><time>2026-04-06T12:34:06.996Z</time></trkpt><trkpt lat="47.35778975638504" lon="5.198168526643749"><ele>230.0</ele><time>2026-04-06T12:34:08.996Z</time></trkpt><trkpt lat="47.35790009112853" lon="5.198213083659792"><ele>230.0</ele><time>2026-04-06T12:34:10.996Z</time></trkpt><trkpt lat="47.3580147318575" lon="5.198253728910932"><ele>229.75</ele><time>2026-04-06T12:34:12.995Z</time></trkpt><trkpt lat="47.358130395630944" lon="5.19829243936166"><ele>229.5</ele><time>2026-04-06T12:34:14.995Z</time></trkpt><trkpt lat="47.35824261046464" lon="5.198329381788846"><ele>229.25</ele><time>2026-04-06T12:34:16.995Z</time></trkpt><trkpt lat="47.35835841076655" lon="5.1983658954285215"><ele>229.0</ele><time>2026-04-06T12:34:18.995Z</time></trkpt><trkpt lat="47.358469069502235" lon="5.198397600866818"><ele>229.0</ele><time>2026-04-06T12:34:20.995Z</time></trkpt><trkpt lat="47.358579221248334" lon="5.198432152563043"><ele>228.99999999999997</ele><time>2026-04-06T12:34:22.995Z</time></trkpt><trkpt lat="47.35868771625483" lon="5.198467349836109"><ele>228.99999999999997</ele><time>2026-04-06T12:34:24.995Z</time></trkpt><trkpt lat="47.35879521368565" lon="5.198487028424068"><ele>229.0</ele><time>2026-04-06T12:34:26.995Z</time></trkpt><trkpt lat="47.358898810105906" lon="5.198515706367636"><ele>229.0</ele><time>2026-04-06T12:34:28.995Z</time></trkpt><trkpt lat="47.35900122576478" lon="5.198534190521422"><ele>229.39999999999998</ele><time>2026-04-06T12:34:30.995Z</time></trkpt><trkpt lat="47.3591038332498" lon="5.1985497445331"><ele>229.79999999999998</ele><time>2026-04-06T12:34:32.995Z</time></trkpt><trkpt lat="47.35920631039549" lon="5.198561027769221"><ele>230.20000000000002</ele><time>2026-04-06T12:34:34.995Z</time></trkpt><trkpt lat="47.359307964314006" lon="5.198574411710203"><ele>230.60000000000002</ele><time>2026-04-06T12:34:36.995Z</time></trkpt><trkpt lat="47.35942394278188" lon="5.198583362721836"><ele>231.0</ele><time>2026-04-06T12:34:38.995Z</time></trkpt><trkpt lat="47.35953368603608" lon="5.198598404721612"><ele>231.0</ele><time>2026-04-06T12:34:40.995Z</time></trkpt><trkpt lat="47.359649794934434" lon="5.198608270895592"><ele>231.0</ele><time>2026-04-06T12:34:42.995Z</time></trkpt><trkpt lat="47.35977048638934" lon="5.198623609095408"><ele>231.0</ele><time>2026-04-06T12:34:44.995Z</time></trkpt><trkpt lat="47.35988789859037" lon="5.198640850900671"><ele>231.0</ele><time>2026-04-06T12:34:46.995Z</time></trkpt><trkpt lat="47.36001067338031" lon="5.198655529642738"><ele>230.66666666666666</ele><time>2026-04-06T12:34:48.995Z</time></trkpt><trkpt lat="47.36007536495214" lon="5.198661928486758"><ele>230.33333333333331</ele><time>2026-04-06T12:34:49.995Z</time></trkpt><trkpt lat="47.36020323283934" lon="5.1986761234081085"><ele>230.0</ele><time>2026-04-06T12:34:51.995Z</time></trkpt><trkpt lat="47.36027062861646" lon="5.198687421091514"><ele>229.66666666666666</ele><time>2026-04-06T12:34:52.995Z</time></trkpt><trkpt lat="47.360338967990074" lon="5.198696781529056"><ele>229.33333333333331</ele><time>2026-04-06T12:34:53.995Z</time></trkpt><trkpt lat="47.360409810397755" lon="5.198701770078703"><ele>229.0</ele><time>2026-04-06T12:34:54.995Z</time></trkpt><trkpt lat="47.36047963349633" lon="5.198711223459742"><ele>228.71428571428572</ele><time>2026-04-06T12:34:55.995Z</time></trkpt><trkpt lat="47.36055090161721" lon="5.198716114516064"><ele>228.42857142857144</ele><time>2026-04-06T12:34:56.995Z</time></trkpt><trkpt lat="47.36062296424969" lon="5.198720433612016"><ele>228.14285714285717</ele><time>2026-04-06T12:34:57.995Z</time></trkpt><trkpt lat="47.3606894632892" lon="5.198731741283857"><ele>227.85714285714286</ele><time>2026-04-06T12:34:58.995Z</time></trkpt><trkpt lat="47.360758993277095" lon="5.198739903719754"><ele>227.5714285714286</ele><time>2026-04-06T12:34:59.995Z</time></trkpt><trkpt lat="47.360824693860145" lon="5.1987496523516485"><ele>227.2857142857143</ele><time>2026-04-06T12:35:00.995Z</time></trkpt><trkpt lat="47.36089149502573" lon="5.198758155130006"><ele>227.0</ele><time>2026-04-06T12:35:01.995Z</time></trkpt><trkpt lat="47.36095673686102" lon="5.198770932016301"><ele>227.0</ele><time>2026-04-06T12:35:02.995Z</time></trkpt><trkpt lat="47.3610220428851" lon="5.198775232687738"><ele>227.0</ele><time>2026-04-06T12:35:03.995Z</time></trkpt><trkpt lat="47.361145003848044" lon="5.198795256911986"><ele>227.0</ele><time>2026-04-06T12:35:05.995Z</time></trkpt><trkpt lat="47.36126576569474" lon="5.198810103981687"><ele>227.0</ele><time>2026-04-06T12:35:07.995Z</time></trkpt><trkpt lat="47.36137227611288" lon="5.198825761523085"><ele>227.0</ele><time>2026-04-06T12:35:09.995Z</time></trkpt><trkpt lat="47.36146728664326" lon="5.19884302870717"><ele>227.2</ele><time>2026-04-06T12:35:11.995Z</time></trkpt><trkpt lat="47.36155937281741" lon="5.198856819005191"><ele>227.39999999999998</ele><time>2026-04-06T12:35:13.995Z</time></trkpt><trkpt lat="47.36165570348586" lon="5.198880096125921"><ele>227.60000000000002</ele><time>2026-04-06T12:35:15.995Z</time></trkpt><trkpt lat="47.36175036961257" lon="5.198883372497179"><ele>227.8</ele><time>2026-04-06T12:35:17.995Z</time></trkpt><trkpt lat="47.36185167513795" lon="5.198900283672455"><ele>228.0</ele><time>2026-04-06T12:35:19.995Z</time></trkpt><trkpt lat="47.36194792950732" lon="5.198916807256186"><ele>228.0</ele><time>2026-04-06T12:35:21.995Z</time></trkpt><trkpt lat="47.362047098769494" lon="5.1989296736457655"><ele>228.0</ele><time>2026-04-06T12:35:23.995Z</time></trkpt><trkpt lat="47.36214841710023" lon="5.198946930721384"><ele>228.0</ele><time>2026-04-06T12:35:25.995Z</time></trkpt><trkpt lat="47.362257009673385" lon="5.198958091516683"><ele>228.0</ele><time>2026-04-06T12:35:27.995Z</time></trkpt><trkpt lat="47.36236165963717" lon="5.1989762697377175"><ele>228.0</ele><time>2026-04-06T12:35:29.995Z</time></trkpt><trkpt lat="47.36247108066587" lon="5.19899509173779"><ele>228.5</ele><time>2026-04-06T12:35:31.995Z</time></trkpt><trkpt lat="47.362588262874596" lon="5.199008116139304"><ele>229.0</ele><time>2026-04-06T12:35:33.995Z</time></trkpt><trkpt lat="47.362651520516394" lon="5.1990193724132965"><ele>229.5</ele><time>2026-04-06T12:35:34.995Z</time></trkpt><trkpt lat="47.362775169734135" lon="5.199041923009611"><ele>230.0</ele><time>2026-04-06T12:35:36.995Z</time></trkpt><trkpt lat="47.36283900420291" lon="5.199045452785802"><ele>230.5</ele><time>2026-04-06T12:35:37.995Z</time></trkpt><trkpt lat="47.36290170449657" lon="5.199057330954361"><ele>231.0</ele><time>2026-04-06T12:35:38.995Z</time></trkpt><trkpt lat="47.36296518512196" lon="5.1990651665092"><ele>231.0</ele><time>2026-04-06T12:35:39.995Z</time></trkpt><trkpt lat="47.363030852814916" lon="5.199071588277479"><ele>231.0</ele><time>2026-04-06T12:35:40.995Z</time></trkpt><trkpt lat="47.36309830831278" lon="5.199083419583685"><ele>231.0</ele><time>2026-04-06T12:35:41.995Z</time></trkpt><trkpt lat="47.36317115866849" lon="5.199091936723759"><ele>231.0</ele><time>2026-04-06T12:35:42.995Z</time></trkpt><trkpt lat="47.36329954725723" lon="5.199113768138935"><ele>231.0</ele><time>2026-04-06T12:35:44.995Z</time></trkpt><trkpt lat="47.36336355494122" lon="5.19912209255163"><ele>231.0</ele><time>2026-04-06T12:35:45.995Z</time></trkpt><trkpt lat="47.363434038553834" lon="5.199130666024946"><ele>230.5</ele><time>2026-04-06T12:35:46.995Z</time></trkpt><trkpt lat="47.36349896872322" lon="5.199140947936213"><ele>230.0</ele><time>2026-04-06T12:35:47.995Z</time></trkpt><trkpt lat="47.3635642316549" lon="5.199149038055364"><ele>229.5</ele><time>2026-04-06T12:35:48.995Z</time></trkpt><trkpt lat="47.363627771263275" lon="5.19916124513983"><ele>229.0</ele><time>2026-04-06T12:35:49.995Z</time></trkpt><trkpt lat="47.36369272282666" lon="5.199171376287324"><ele>228.5</ele><time>2026-04-06T12:35:50.995Z</time></trkpt><trkpt lat="47.363815972891466" lon="5.199189208662049"><ele>228.0</ele><time>2026-04-06T12:35:52.995Z</time></trkpt><trkpt lat="47.36394181209831" lon="5.199196874123649"><ele>228.0</ele><time>2026-04-06T12:35:54.995Z</time></trkpt><trkpt lat="47.364005259198144" lon="5.199207326393985"><ele>228.0</ele><time>2026-04-06T12:35:55.995Z</time></trkpt><trkpt lat="47.36412640934574" lon="5.199223280364632"><ele>228.0</ele><time>2026-04-06T12:35:57.995Z</time></trkpt><trkpt lat="47.36424193349913" lon="5.199231163590626"><ele>228.0</ele><time>2026-04-06T12:35:59.995Z</time></trkpt><trkpt lat="47.36435244728893" lon="5.199235486214708"><ele>228.0</ele><time>2026-04-06T12:36:01.995Z</time></trkpt><trkpt lat="47.36445167622065" lon="5.19923202823386"><ele>228.0</ele><time>2026-04-06T12:36:03.995Z</time></trkpt><trkpt lat="47.36454877828417" lon="5.19921615785692"><ele>228.0</ele><time>2026-04-06T12:36:05.995Z</time></trkpt><trkpt lat="47.36463468681044" lon="5.199199580864363"><ele>228.0</ele><time>2026-04-06T12:36:07.994Z</time></trkpt><trkpt lat="47.36472140414078" lon="5.199188423253549"><ele>228.0</ele><time>2026-04-06T12:36:09.994Z</time></trkpt><trkpt lat="47.36481371717173" lon="5.199165673379327"><ele>228.0</ele><time>2026-04-06T12:36:11.994Z</time></trkpt><trkpt lat="47.36491077840179" lon="5.199134998117892"><ele>228.2</ele><time>2026-04-06T12:36:13.994Z</time></trkpt><trkpt lat="47.3650145208992" lon="5.199095129652347"><ele>228.4</ele><time>2026-04-06T12:36:15.994Z</time></trkpt><trkpt lat="47.365118221803584" lon="5.19904871750988"><ele>228.59999999999997</ele><time>2026-04-06T12:36:17.994Z</time></trkpt><trkpt lat="47.365221035876374" lon="5.199004260503001"><ele>228.79999999999998</ele><time>2026-04-06T12:36:19.994Z</time></trkpt><trkpt lat="47.36531682383515" lon="5.198959544596126"><ele>229.0</ele><time>2026-04-06T12:36:21.994Z</time></trkpt><trkpt lat="47.36541548201284" lon="5.198900181515578"><ele>228.6</ele><time>2026-04-06T12:36:23.994Z</time></trkpt><trkpt lat="47.3655173841082" lon="5.198839056051833"><ele>228.2</ele><time>2026-04-06T12:36:25.994Z</time></trkpt><trkpt lat="47.365620565578546" lon="5.198764774073868"><ele>227.79999999999998</ele><time>2026-04-06T12:36:27.994Z</time></trkpt><trkpt lat="47.365732901045476" lon="5.198680579608174"><ele>227.39999999999998</ele><time>2026-04-06T12:36:29.994Z</time></trkpt><trkpt lat="47.365789354674085" lon="5.19863234186355"><ele>227.0</ele><time>2026-04-06T12:36:30.994Z</time></trkpt><trkpt lat="47.36584883614984" lon="5.198579564142168"><ele>226.83333333333334</ele><time>2026-04-06T12:36:31.994Z</time></trkpt><trkpt lat="47.36590371987063" lon="5.198521966206207"><ele>226.66666666666669</ele><time>2026-04-06T12:36:32.994Z</time></trkpt><trkpt lat="47.36596512825507" lon="5.198464848208827"><ele>226.5</ele><time>2026-04-06T12:36:33.994Z</time></trkpt><trkpt lat="47.36603155517823" lon="5.198413633750618"><ele>226.33333333333331</ele><time>2026-04-06T12:36:34.994Z</time></trkpt><trkpt lat="47.36609530868379" lon="5.198351695453247"><ele>226.16666666666666</ele><time>2026-04-06T12:36:35.994Z</time></trkpt><trkpt lat="47.36616010649627" lon="5.19828755690876"><ele>226.0</ele><time>2026-04-06T12:36:36.994Z</time></trkpt><trkpt lat="47.366231041804525" lon="5.198230004758695"><ele>225.99999999999997</ele><time>2026-04-06T12:36:37.994Z</time></trkpt><trkpt lat="47.36630055190844" lon="5.198180825674498"><ele>226.0</ele><time>2026-04-06T12:36:38.994Z</time></trkpt><trkpt lat="47.36637550285866" lon="5.198125389542404"><ele>226.0</ele><time>2026-04-06T12:36:39.994Z</time></trkpt><trkpt lat="47.36644722323901" lon="5.1980718497355145"><ele>226.0</ele><time>2026-04-06T12:36:40.994Z</time></trkpt><trkpt lat="47.36651880372438" lon="5.198021370835897"><ele>225.99999999999997</ele><time>2026-04-06T12:36:41.994Z</time></trkpt><trkpt lat="47.36660152531329" lon="5.197992191709007"><ele>226.0</ele><time>2026-04-06T12:36:42.994Z</time></trkpt><trkpt lat="47.366677033084486" lon="5.197969413257543"><ele>225.66666666666666</ele><time>2026-04-06T12:36:43.994Z</time></trkpt><trkpt lat="47.36675420438923" lon="5.19796176687132"><ele>225.33333333333331</ele><time>2026-04-06T12:36:44.994Z</time></trkpt><trkpt lat="47.36683375621141" lon="5.197971846510983"><ele>225.0</ele><time>2026-04-06T12:36:45.994Z</time></trkpt><trkpt lat="47.36691119380162" lon="5.197984307055081"><ele>224.66666666666669</ele><time>2026-04-06T12:36:46.994Z</time></trkpt><trkpt lat="47.3669839207991" lon="5.197997402520408"><ele>224.33333333333334</ele><time>2026-04-06T12:36:47.994Z</time></trkpt><trkpt lat="47.36706042844747" lon="5.198004011830971"><ele>224.0</ele><time>2026-04-06T12:36:48.994Z</time></trkpt><trkpt lat="47.36713404506369" lon="5.198006025644126"><ele>224.14285714285714</ele><time>2026-04-06T12:36:49.994Z</time></trkpt><trkpt lat="47.36719903510289" lon="5.1980077985874935"><ele>224.28571428571428</ele><time>2026-04-06T12:36:50.994Z</time></trkpt><trkpt lat="47.36726691691059" lon="5.197996656736672"><ele>224.42857142857144</ele><time>2026-04-06T12:36:51.994Z</time></trkpt><trkpt lat="47.36733560453691" lon="5.197981717813885"><ele>224.57142857142858</ele><time>2026-04-06T12:36:52.994Z</time></trkpt><trkpt lat="47.36739957997474" lon="5.197953009352026"><ele>224.71428571428572</ele><time>2026-04-06T12:36:53.994Z</time></trkpt><trkpt lat="47.36745990067619" lon="5.197912664954836"><ele>224.8571428571429</ele><time>2026-04-06T12:36:54.994Z</time></trkpt><trkpt lat="47.36751815823624" lon="5.197867607235617"><ele>225.00000000000003</ele><time>2026-04-06T12:36:55.994Z</time></trkpt><trkpt lat="47.3675771838656" lon="5.197820400660119"><ele>225.0</ele><time>2026-04-06T12:36:56.994Z</time></trkpt><trkpt lat="47.367639250822414" lon="5.197785492109839"><ele>225.0</ele><time>2026-04-06T12:36:57.994Z</time></trkpt><trkpt lat="47.36776352418402" lon="5.197823564289446"><ele>225.0</ele><time>2026-04-06T12:36:59.994Z</time></trkpt><trkpt lat="47.36786099754108" lon="5.197915482907351"><ele>225.0</ele><time>2026-04-06T12:37:01.994Z</time></trkpt><trkpt lat="47.367959639742026" lon="5.197985818429574"><ele>225.0</ele><time>2026-04-06T12:37:03.994Z</time></trkpt><trkpt lat="47.36806057367256" lon="5.198040881949102"><ele>226.0</ele><time>2026-04-06T12:37:05.994Z</time></trkpt><trkpt lat="47.368155076273545" lon="5.1981003916122095"><ele>227.0</ele><time>2026-04-06T12:37:07.994Z</time></trkpt><trkpt lat="47.36822333998679" lon="5.198161112422093"><ele>228.0</ele><time>2026-04-06T12:37:09.994Z</time></trkpt><trkpt lat="47.368328161390174" lon="5.198205535774132"><ele>229.0</ele><time>2026-04-06T12:37:11.994Z</time></trkpt><trkpt lat="47.368422279041866" lon="5.198266778841115"><ele>230.0</ele><time>2026-04-06T12:37:13.994Z</time></trkpt><trkpt lat="47.36849940370808" lon="5.198347845062507"><ele>230.4</ele><time>2026-04-06T12:37:15.994Z</time></trkpt><trkpt lat="47.36856056880286" lon="5.198372695332549"><ele>230.8</ele><time>2026-04-06T12:37:16.994Z</time></trkpt><trkpt lat="47.36864593616602" lon="5.198450408415729"><ele>231.2</ele><time>2026-04-06T12:37:18.994Z</time></trkpt><trkpt lat="47.36873619530638" lon="5.1985316412353235"><ele>231.6</ele><time>2026-04-06T12:37:20.994Z</time></trkpt><trkpt lat="47.368834154480844" lon="5.198606727420494"><ele>232.0</ele><time>2026-04-06T12:37:22.994Z</time></trkpt><trkpt lat="47.36890940471904" lon="5.19868946243635"><ele>231.99999999999997</ele><time>2026-04-06T12:37:24.994Z</time></trkpt><trkpt lat="47.36898610373285" lon="5.1987673643340955"><ele>232.0</ele><time>2026-04-06T12:37:26.994Z</time></trkpt><trkpt lat="47.369055797591464" lon="5.198845566548379"><ele>232.0</ele><time>2026-04-06T12:37:28.994Z</time></trkpt><trkpt lat="47.369125713925584" lon="5.198927842859657"><ele>232.0</ele><time>2026-04-06T12:37:30.994Z</time></trkpt><trkpt lat="47.36918787999234" lon="5.1990151742214525"><ele>231.99999999999997</ele><time>2026-04-06T12:37:32.994Z</time></trkpt><trkpt lat="47.36924676605686" lon="5.1991072799017015"><ele>232.0</ele><time>2026-04-06T12:37:34.994Z</time></trkpt><trkpt lat="47.36930763935185" lon="5.199191252694697"><ele>231.99999999999997</ele><time>2026-04-06T12:37:36.994Z</time></trkpt><trkpt lat="47.36936347564896" lon="5.1992855171957"><ele>232.0</ele><time>2026-04-06T12:37:38.994Z</time></trkpt><trkpt lat="47.36941732048692" lon="5.199370250737726"><ele>232.0</ele><time>2026-04-06T12:37:40.994Z</time></trkpt><trkpt lat="47.36946883536909" lon="5.199458517076072"><ele>232.0</ele><time>2026-04-06T12:37:42.994Z</time></trkpt><trkpt lat="47.36952510923517" lon="5.199541700943253"><ele>231.99999999999997</ele><time>2026-04-06T12:37:44.994Z</time></trkpt><trkpt lat="47.369577220608974" lon="5.1996282262438385"><ele>232.0</ele><time>2026-04-06T12:37:46.994Z</time></trkpt><trkpt lat="47.3696257621046" lon="5.199725194856996"><ele>231.99999999999997</ele><time>2026-04-06T12:37:48.994Z</time></trkpt><trkpt lat="47.36968191161522" lon="5.199810518940442"><ele>232.0</ele><time>2026-04-06T12:37:50.994Z</time></trkpt><trkpt lat="47.369735633497484" lon="5.199901499898378"><ele>232.0</ele><time>2026-04-06T12:37:52.994Z</time></trkpt><trkpt lat="47.36979032470817" lon="5.199990375594029"><ele>232.0</ele><time>2026-04-06T12:37:54.994Z</time></trkpt><trkpt lat="47.36984058672096" lon="5.200082035414684"><ele>231.99999999999997</ele><time>2026-04-06T12:37:56.994Z</time></trkpt><trkpt lat="47.36989848969852" lon="5.20016829648783"><ele>232.0</ele><time>2026-04-06T12:37:58.994Z</time></trkpt><trkpt lat="47.36995171646948" lon="5.200250104995307"><ele>232.33333333333331</ele><time>2026-04-06T12:38:00.994Z</time></trkpt><trkpt lat="47.370013051119365" lon="5.200329537454101"><ele>232.66666666666666</ele><time>2026-04-06T12:38:02.993Z</time></trkpt><trkpt lat="47.37007336395364" lon="5.200401775367409"><ele>233.0</ele><time>2026-04-06T12:38:04.993Z</time></trkpt><trkpt lat="47.370135280070144" lon="5.200483901579785"><ele>233.33333333333331</ele><time>2026-04-06T12:38:06.993Z</time></trkpt><trkpt lat="47.37020138503485" lon="5.200565666049009"><ele>233.66666666666666</ele><time>2026-04-06T12:38:08.993Z</time></trkpt><trkpt lat="47.370261611683965" lon="5.200660287066349"><ele>234.0</ele><time>2026-04-06T12:38:10.993Z</time></trkpt><trkpt lat="47.37032569620297" lon="5.200734779982444"><ele>234.0</ele><time>2026-04-06T12:38:12.993Z</time></trkpt><trkpt lat="47.370386439923024" lon="5.200812802883466"><ele>233.99999999999997</ele><time>2026-04-06T12:38:14.993Z</time></trkpt><trkpt lat="47.370459923270055" lon="5.200881129048633"><ele>233.99999999999997</ele><time>2026-04-06T12:38:16.993Z</time></trkpt><trkpt lat="47.370526089326425" lon="5.200966891991903"><ele>234.0</ele><time>2026-04-06T12:38:18.993Z</time></trkpt><trkpt lat="47.37059316370632" lon="5.2010861989464905"><ele>234.0</ele><time>2026-04-06T12:38:20.993Z</time></trkpt><trkpt lat="47.37066300849947" lon="5.201203041046217"><ele>234.5</ele><time>2026-04-06T12:38:22.993Z</time></trkpt><trkpt lat="47.37074768590721" lon="5.201321258516431"><ele>235.0</ele><time>2026-04-06T12:38:24.993Z</time></trkpt><trkpt lat="47.37083309000482" lon="5.201441051711217"><ele>235.5</ele><time>2026-04-06T12:38:26.993Z</time></trkpt><trkpt lat="47.37092443985382" lon="5.201545931453356"><ele>236.0</ele><time>2026-04-06T12:38:28.993Z</time></trkpt><trkpt lat="47.370993269679744" lon="5.20166996337643"><ele>236.0</ele><time>2026-04-06T12:38:30.993Z</time></trkpt><trkpt lat="47.371084948108695" lon="5.20179167586844"><ele>236.00000000000003</ele><time>2026-04-06T12:38:32.993Z</time></trkpt><trkpt lat="47.37116971737277" lon="5.201919799303922"><ele>236.00000000000003</ele><time>2026-04-06T12:38:34.993Z</time></trkpt><trkpt lat="47.371256103675705" lon="5.202046231811817"><ele>236.0</ele><time>2026-04-06T12:38:36.993Z</time></trkpt><trkpt lat="47.37130499600865" lon="5.202111181279455"><ele>236.0</ele><time>2026-04-06T12:38:37.993Z</time></trkpt><trkpt lat="47.37135339638833" lon="5.202181177864307"><ele>235.71428571428572</ele><time>2026-04-06T12:38:38.993Z</time></trkpt><trkpt lat="47.371398947349746" lon="5.202245410381206"><ele>235.42857142857144</ele><time>2026-04-06T12:38:39.993Z</time></trkpt><trkpt lat="47.371443710530315" lon="5.202323974625808"><ele>235.14285714285717</ele><time>2026-04-06T12:38:40.993Z</time></trkpt><trkpt lat="47.371497097261134" lon="5.2023925357847105"><ele>234.85714285714286</ele><time>2026-04-06T12:38:41.993Z</time></trkpt><trkpt lat="47.37154463704376" lon="5.2024634476387694"><ele>234.5714285714286</ele><time>2026-04-06T12:38:42.993Z</time></trkpt><trkpt lat="47.37159821185373" lon="5.2025313864157186"><ele>234.2857142857143</ele><time>2026-04-06T12:38:43.993Z</time></trkpt><trkpt lat="47.371650176829235" lon="5.202593115440819"><ele>234.0</ele><time>2026-04-06T12:38:44.993Z</time></trkpt><trkpt lat="47.371702509828616" lon="5.202657203118042"><ele>234.0</ele><time>2026-04-06T12:38:45.993Z</time></trkpt><trkpt lat="47.371749456694836" lon="5.202736670960738"><ele>234.00000000000003</ele><time>2026-04-06T12:38:46.993Z</time></trkpt><trkpt lat="47.37180024556873" lon="5.202802283048513"><ele>234.0</ele><time>2026-04-06T12:38:47.993Z</time></trkpt><trkpt lat="47.37184993842449" lon="5.202873550715107"><ele>234.0</ele><time>2026-04-06T12:38:48.993Z</time></trkpt><trkpt lat="47.37190404037137" lon="5.202939298005886"><ele>234.00000000000003</ele><time>2026-04-06T12:38:49.993Z</time></trkpt><trkpt lat="47.371955778969955" lon="5.203009062140763"><ele>234.0</ele><time>2026-04-06T12:38:50.993Z</time></trkpt><trkpt lat="47.37200498969731" lon="5.2030829513446095"><ele>234.0</ele><time>2026-04-06T12:38:51.993Z</time></trkpt><trkpt lat="47.37205884955409" lon="5.203147856928138"><ele>233.5</ele><time>2026-04-06T12:38:52.993Z</time></trkpt><trkpt lat="47.37211062800461" lon="5.203221337200341"><ele>233.0</ele><time>2026-04-06T12:38:53.993Z</time></trkpt><trkpt lat="47.37216372339464" lon="5.203289827460335"><ele>232.5</ele><time>2026-04-06T12:38:54.993Z</time></trkpt><trkpt lat="47.37221330151975" lon="5.203357942980901"><ele>232.0</ele><time>2026-04-06T12:38:55.993Z</time></trkpt><trkpt lat="47.37226706262592" lon="5.203427222881285"><ele>231.5</ele><time>2026-04-06T12:38:56.993Z</time></trkpt><trkpt lat="47.37231952451374" lon="5.203496578105571"><ele>231.0</ele><time>2026-04-06T12:38:57.993Z</time></trkpt><trkpt lat="47.372416395475966" lon="5.203614239519112"><ele>230.83333333333334</ele><time>2026-04-06T12:38:59.993Z</time></trkpt><trkpt lat="47.372467058127334" lon="5.203678189965044"><ele>230.66666666666669</ele><time>2026-04-06T12:39:00.993Z</time></trkpt><trkpt lat="47.372502380958586" lon="5.203762160554108"><ele>230.5</ele><time>2026-04-06T12:39:01.993Z</time></trkpt><trkpt lat="47.37254150496467" lon="5.203835887910506"><ele>230.33333333333334</ele><time>2026-04-06T12:39:02.993Z</time></trkpt><trkpt lat="47.372630550630404" lon="5.203969638677407"><ele>230.16666666666669</ele><time>2026-04-06T12:39:04.993Z</time></trkpt><trkpt lat="47.37267815854344" lon="5.204031579245414"><ele>230.0</ele><time>2026-04-06T12:39:05.993Z</time></trkpt><trkpt lat="47.37276589579218" lon="5.204149811041293"><ele>230.0</ele><time>2026-04-06T12:39:07.993Z</time></trkpt><trkpt lat="47.37285786547974" lon="5.204256819589156"><ele>230.0</ele><time>2026-04-06T12:39:09.993Z</time></trkpt><trkpt lat="47.37294885830274" lon="5.204359458770991"><ele>230.0</ele><time>2026-04-06T12:39:11.993Z</time></trkpt><trkpt lat="47.37302952612701" lon="5.204483978387312"><ele>230.0</ele><time>2026-04-06T12:39:13.993Z</time></trkpt><trkpt lat="47.373122510211346" lon="5.20460167183181"><ele>229.4</ele><time>2026-04-06T12:39:15.993Z</time></trkpt><trkpt lat="47.373224161056726" lon="5.204702212902446"><ele>228.8</ele><time>2026-04-06T12:39:17.993Z</time></trkpt><trkpt lat="47.37328119014751" lon="5.204745910847652"><ele>228.2</ele><time>2026-04-06T12:39:18.993Z</time></trkpt><trkpt lat="47.37339280450072" lon="5.204812856289888"><ele>227.6</ele><time>2026-04-06T12:39:20.993Z</time></trkpt><trkpt lat="47.37345252205311" lon="5.204847179159873"><ele>227.0</ele><time>2026-04-06T12:39:21.993Z</time></trkpt><trkpt lat="47.37356509483552" lon="5.204921921018977"><ele>227.0</ele><time>2026-04-06T12:39:23.993Z</time></trkpt><trkpt lat="47.37367509120563" lon="5.204990318432377"><ele>227.0</ele><time>2026-04-06T12:39:25.993Z</time></trkpt><trkpt lat="47.37378156033661" lon="5.2050654824760185"><ele>227.0</ele><time>2026-04-06T12:39:27.993Z</time></trkpt><trkpt lat="47.37387246468178" lon="5.205127338703429"><ele>227.0</ele><time>2026-04-06T12:39:29.993Z</time></trkpt><trkpt lat="47.37395457625938" lon="5.2051969376422615"><ele>227.0</ele><time>2026-04-06T12:39:31.993Z</time></trkpt><trkpt lat="47.37402572790629" lon="5.205231083642679"><ele>227.16666666666669</ele><time>2026-04-06T12:39:33.993Z</time></trkpt><trkpt lat="47.374078604412986" lon="5.2052866180103265"><ele>227.33333333333334</ele><time>2026-04-06T12:39:35.993Z</time></trkpt><trkpt lat="47.37413904607265" lon="5.205350109519756"><ele>227.5</ele><time>2026-04-06T12:40:13.992Z</time></trkpt><trkpt lat="47.37422246953823" lon="5.2053891666589065"><ele>227.66666666666669</ele><time>2026-04-06T12:40:16.992Z</time></trkpt><trkpt lat="47.374297677059346" lon="5.205440101787395"><ele>227.83333333333334</ele><time>2026-04-06T12:40:18.992Z</time></trkpt><trkpt lat="47.37437568663939" lon="5.205487221915383"><ele>228.0</ele><time>2026-04-06T12:40:20.992Z</time></trkpt><trkpt lat="47.37445970451588" lon="5.205549142954373"><ele>228.0</ele><time>2026-04-06T12:40:22.992Z</time></trkpt><trkpt lat="47.37454966897145" lon="5.205601101659119"><ele>228.0</ele><time>2026-04-06T12:40:24.992Z</time></trkpt><trkpt lat="47.37463763918149" lon="5.20566416987008"><ele>228.0</ele><time>2026-04-06T12:40:26.992Z</time></trkpt><trkpt lat="47.37472773602765" lon="5.205713487423234"><ele>228.0</ele><time>2026-04-06T12:40:28.992Z</time></trkpt><trkpt lat="47.37481498680598" lon="5.205766532328333"><ele>228.0</ele><time>2026-04-06T12:40:30.992Z</time></trkpt><trkpt lat="47.37489752410372" lon="5.205818227472312"><ele>228.66666666666666</ele><time>2026-04-06T12:40:32.992Z</time></trkpt><trkpt lat="47.374974468096475" lon="5.205877552085557"><ele>229.33333333333331</ele><time>2026-04-06T12:40:34.992Z</time></trkpt><trkpt lat="47.375052902080974" lon="5.205932595366574"><ele>230.0</ele><time>2026-04-06T12:40:36.992Z</time></trkpt><trkpt lat="47.37513666400007" lon="5.205988197246678"><ele>230.66666666666666</ele><time>2026-04-06T12:40:38.992Z</time></trkpt><trkpt lat="47.3752156255857" lon="5.206042049965944"><ele>231.33333333333331</ele><time>2026-04-06T12:40:40.992Z</time></trkpt><trkpt lat="47.375289804425506" lon="5.206098579040997"><ele>232.0</ele><time>2026-04-06T12:40:42.992Z</time></trkpt><trkpt lat="47.37536642419403" lon="5.206152778608608"><ele>231.99999999999997</ele><time>2026-04-06T12:40:44.992Z</time></trkpt><trkpt lat="47.37544879832686" lon="5.206204179214625"><ele>232.0</ele><time>2026-04-06T12:40:46.992Z</time></trkpt><trkpt lat="47.37552626191231" lon="5.206263402713235"><ele>232.0</ele><time>2026-04-06T12:40:48.992Z</time></trkpt><trkpt lat="47.37560099414323" lon="5.206318772607728"><ele>232.0</ele><time>2026-04-06T12:40:50.992Z</time></trkpt><trkpt lat="47.37567649615702" lon="5.206374884074468"><ele>231.99999999999997</ele><time>2026-04-06T12:40:52.992Z</time></trkpt><trkpt lat="47.37574712071772" lon="5.206437822183162"><ele>232.0</ele><time>2026-04-06T12:40:54.992Z</time></trkpt><trkpt lat="47.375817164776024" lon="5.206485819603602"><ele>232.49999999999997</ele><time>2026-04-06T12:40:56.992Z</time></trkpt><trkpt lat="47.37588017996774" lon="5.206539219954994"><ele>233.0</ele><time>2026-04-06T12:40:58.992Z</time></trkpt><trkpt lat="47.37594830551603" lon="5.206584262745398"><ele>233.5</ele><time>2026-04-06T12:41:00.992Z</time></trkpt><trkpt lat="47.37601702008441" lon="5.2066090916895655"><ele>234.0</ele><time>2026-04-06T12:41:02.992Z</time></trkpt><trkpt lat="47.37608393978452" lon="5.206665451732059"><ele>234.49999999999997</ele><time>2026-04-06T12:41:20.992Z</time></trkpt><trkpt lat="47.376174228579345" lon="5.206717875005648"><ele>235.0</ele><time>2026-04-06T12:41:23.992Z</time></trkpt><trkpt lat="47.376245870368045" lon="5.206755141218977"><ele>234.99999999999997</ele><time>2026-04-06T12:41:25.992Z</time></trkpt><trkpt lat="47.37631889576173" lon="5.2067822036415405"><ele>235.0</ele><time>2026-04-06T12:41:27.992Z</time></trkpt><trkpt lat="47.37639775639823" lon="5.206807598868854"><ele>235.0</ele><time>2026-04-06T12:41:29.992Z</time></trkpt><trkpt lat="47.376483423741654" lon="5.20685299713844"><ele>235.0</ele><time>2026-04-06T12:41:31.992Z</time></trkpt><trkpt lat="47.37657017032315" lon="5.206885764543219"><ele>234.99999999999997</ele><time>2026-04-06T12:41:33.992Z</time></trkpt><trkpt lat="47.37665961774663" lon="5.20692903656454"><ele>235.0</ele><time>2026-04-06T12:41:35.992Z</time></trkpt><trkpt lat="47.376749391142795" lon="5.20689592569499"><ele>235.16666666666666</ele><time>2026-04-06T12:41:37.992Z</time></trkpt><trkpt lat="47.37680378457047" lon="5.206748832780342"><ele>235.33333333333331</ele><time>2026-04-06T12:41:39.992Z</time></trkpt><trkpt lat="47.37682528615392" lon="5.206658383373052"><ele>235.5</ele><time>2026-04-06T12:41:40.992Z</time></trkpt><trkpt lat="47.37684041034822" lon="5.206483680891675"><ele>235.66666666666669</ele><time>2026-04-06T12:41:42.992Z</time></trkpt><trkpt lat="47.37685699668824" lon="5.206390984988462"><ele>235.83333333333334</ele><time>2026-04-06T12:41:43.992Z</time></trkpt><trkpt lat="47.37687804661073" lon="5.20629603877535"><ele>236.0</ele><time>2026-04-06T12:41:44.992Z</time></trkpt><trkpt lat="47.37689932829975" lon="5.206191907568547"><ele>236.0</ele><time>2026-04-06T12:41:45.992Z</time></trkpt><trkpt lat="47.37691215104614" lon="5.2060952148531126"><ele>236.0</ele><time>2026-04-06T12:41:46.992Z</time></trkpt><trkpt lat="47.376933437062696" lon="5.205992393492506"><ele>236.0</ele><time>2026-04-06T12:41:47.992Z</time></trkpt><trkpt lat="47.376955567474404" lon="5.205883777596053"><ele>236.0</ele><time>2026-04-06T12:41:48.992Z</time></trkpt><trkpt lat="47.37696516467863" lon="5.2057765668061915"><ele>236.0</ele><time>2026-04-06T12:41:49.992Z</time></trkpt><trkpt lat="47.37698051728228" lon="5.205659016628544"><ele>236.0</ele><time>2026-04-06T12:41:50.992Z</time></trkpt><trkpt lat="47.37699264593998" lon="5.20554784861345"><ele>236.0</ele><time>2026-04-06T12:41:51.992Z</time></trkpt><trkpt lat="47.377014316523265" lon="5.205440031524763"><ele>236.00000000000003</ele><time>2026-04-06T12:41:52.991Z</time></trkpt><trkpt lat="47.37703068673988" lon="5.205330728099193"><ele>236.0</ele><time>2026-04-06T12:41:53.991Z</time></trkpt><trkpt lat="47.37705146628366" lon="5.205235632899002"><ele>236.0</ele><time>2026-04-06T12:41:54.991Z</time></trkpt><trkpt lat="47.377146869658304" lon="5.205115526200166"><ele>236.0</ele><time>2026-04-06T12:41:56.991Z</time></trkpt><trkpt lat="47.377214207041675" lon="5.205113636517118"><ele>236.00000000000003</ele><time>2026-04-06T12:41:57.991Z</time></trkpt><trkpt lat="47.37728131904474" lon="5.205142513137634"><ele>236.0</ele><time>2026-04-06T12:41:58.991Z</time></trkpt><trkpt lat="47.37739300274439" lon="5.205224947237857"><ele>235.0</ele><time>2026-04-06T12:42:00.991Z</time></trkpt><trkpt lat="47.377514206356835" lon="5.2052739268060835"><ele>234.00000000000003</ele><time>2026-04-06T12:42:02.991Z</time></trkpt><trkpt lat="47.377571212916074" lon="5.205329929176434"><ele>233.00000000000003</ele><time>2026-04-06T12:42:03.991Z</time></trkpt><trkpt lat="47.37766283345158" lon="5.205422501425829"><ele>232.0</ele><time>2026-04-06T12:42:05.991Z</time></trkpt><trkpt lat="47.37772227648448" lon="5.205456874787586"><ele>231.0</ele><time>2026-04-06T12:42:06.991Z</time></trkpt><trkpt lat="47.37782852482681" lon="5.205541961395097"><ele>231.25</ele><time>2026-04-06T12:42:08.991Z</time></trkpt><trkpt lat="47.37790845690768" lon="5.2056657138616185"><ele>231.5</ele><time>2026-04-06T12:42:10.991Z</time></trkpt><trkpt lat="47.377979170462325" lon="5.205799769981638"><ele>231.75</ele><time>2026-04-06T12:42:12.991Z</time></trkpt><trkpt lat="47.378064453846584" lon="5.205914989884203"><ele>232.0</ele><time>2026-04-06T12:42:14.991Z</time></trkpt><trkpt lat="47.37815241418108" lon="5.206021574298355"><ele>232.8</ele><time>2026-04-06T12:42:16.991Z</time></trkpt><trkpt lat="47.37823857043747" lon="5.206118083146083"><ele>233.6</ele><time>2026-04-06T12:42:18.991Z</time></trkpt><trkpt lat="47.37832993736529" lon="5.206217461708644"><ele>234.40000000000003</ele><time>2026-04-06T12:42:20.991Z</time></trkpt><trkpt lat="47.37842837588351" lon="5.206285042906851"><ele>235.20000000000002</ele><time>2026-04-06T12:42:22.991Z</time></trkpt><trkpt lat="47.37852558447534" lon="5.206351219732921"><ele>236.0</ele><time>2026-04-06T12:42:24.991Z</time></trkpt><trkpt lat="47.37863000253301" lon="5.206414992360094"><ele>236.0</ele><time>2026-04-06T12:42:26.991Z</time></trkpt><trkpt lat="47.37868814226222" lon="5.206450705963384"><ele>236.00000000000003</ele><time>2026-04-06T12:42:27.991Z</time></trkpt><trkpt lat="47.378794551840485" lon="5.2064889615746015"><ele>236.00000000000003</ele><time>2026-04-06T12:42:29.991Z</time></trkpt><trkpt lat="47.37890647449765" lon="5.206555432875827"><ele>236.0</ele><time>2026-04-06T12:42:31.991Z</time></trkpt><trkpt lat="47.37901358486617" lon="5.206612727581846"><ele>236.0</ele><time>2026-04-06T12:42:33.991Z</time></trkpt><trkpt lat="47.37912492865748" lon="5.2066720164657605"><ele>235.4</ele><time>2026-04-06T12:42:35.991Z</time></trkpt><trkpt lat="47.37923016772257" lon="5.206759217140024"><ele>234.8</ele><time>2026-04-06T12:42:37.991Z</time></trkpt><trkpt lat="47.37934380866693" lon="5.2068559493189195"><ele>234.20000000000002</ele><time>2026-04-06T12:42:39.991Z</time></trkpt><trkpt lat="47.37938850664494" lon="5.206926191935518"><ele>233.60000000000002</ele><time>2026-04-06T12:42:40.991Z</time></trkpt><trkpt lat="47.379464470629195" lon="5.2070626099335025"><ele>233.0</ele><time>2026-04-06T12:42:42.991Z</time></trkpt><trkpt lat="47.379495735015475" lon="5.2071437629852175"><ele>233.0</ele><time>2026-04-06T12:42:43.991Z</time></trkpt><trkpt lat="47.3795650650393" lon="5.207289809112743"><ele>233.0</ele><time>2026-04-06T12:42:45.991Z</time></trkpt><trkpt lat="47.37962739544805" lon="5.207430451770694"><ele>233.0</ele><time>2026-04-06T12:42:47.991Z</time></trkpt><trkpt lat="47.37969241353091" lon="5.207555005231742"><ele>233.0</ele><time>2026-04-06T12:42:49.991Z</time></trkpt><trkpt lat="47.37977570529582" lon="5.207679044829166"><ele>232.0</ele><time>2026-04-06T12:42:51.991Z</time></trkpt><trkpt lat="47.37985899561664" lon="5.207798392274207"><ele>231.0</ele><time>2026-04-06T12:42:53.991Z</time></trkpt><trkpt lat="47.37993986496423" lon="5.207931170631931"><ele>230.0</ele><time>2026-04-06T12:42:55.991Z</time></trkpt><trkpt lat="47.380023795974886" lon="5.208055371846886"><ele>229.0</ele><time>2026-04-06T12:42:57.991Z</time></trkpt><trkpt lat="47.38006489827096" lon="5.208132629083795"><ele>228.0</ele><time>2026-04-06T12:42:58.991Z</time></trkpt><trkpt lat="47.38014145910152" lon="5.208264697678222"><ele>228.0</ele><time>2026-04-06T12:43:00.991Z</time></trkpt><trkpt lat="47.38021226693077" lon="5.208379444510074"><ele>228.0</ele><time>2026-04-06T12:43:02.991Z</time></trkpt><trkpt lat="47.38027121162282" lon="5.208497229394984"><ele>228.0</ele><time>2026-04-06T12:43:04.991Z</time></trkpt><trkpt lat="47.38031313481428" lon="5.208620887943834"><ele>228.0</ele><time>2026-04-06T12:43:06.991Z</time></trkpt><trkpt lat="47.380288447123164" lon="5.208755859866635"><ele>228.0</ele><time>2026-04-06T12:43:08.991Z</time></trkpt><trkpt lat="47.38026157253979" lon="5.20886294241249"><ele>228.0</ele><time>2026-04-06T12:43:10.991Z</time></trkpt><trkpt lat="47.3802338940196" lon="5.208986509038043"><ele>228.0</ele><time>2026-04-06T12:43:13.991Z</time></trkpt><trkpt lat="47.38021168417594" lon="5.209074142266692"><ele>228.0</ele><time>2026-04-06T12:43:16.991Z</time></trkpt><trkpt lat="47.380186368456" lon="5.209184401647181"><ele>228.0</ele><time>2026-04-06T12:43:20.991Z</time></trkpt><trkpt lat="47.38016904440206" lon="5.209289013766531"><ele>228.0</ele><time>2026-04-06T12:43:23.991Z</time></trkpt><trkpt lat="47.38014567881392" lon="5.209397356578202"><ele>228.0</ele><time>2026-04-06T12:43:25.991Z</time></trkpt><trkpt lat="47.380116165060656" lon="5.2095283475901075"><ele>228.0</ele><time>2026-04-06T12:43:27.991Z</time></trkpt><trkpt lat="47.380085294964545" lon="5.209665880723764"><ele>228.0</ele><time>2026-04-06T12:43:29.991Z</time></trkpt><trkpt lat="47.3800628261894" lon="5.209814279053055"><ele>228.0</ele><time>2026-04-06T12:43:31.991Z</time></trkpt><trkpt lat="47.38003334442187" lon="5.209957379508478"><ele>228.0</ele><time>2026-04-06T12:43:33.991Z</time></trkpt><trkpt lat="47.38004757477678" lon="5.21009893449859"><ele>228.0</ele><time>2026-04-06T12:43:35.991Z</time></trkpt><trkpt lat="47.38013271412771" lon="5.210192864221811"><ele>228.0</ele><time>2026-04-06T12:43:37.991Z</time></trkpt><trkpt lat="47.3802322396674" lon="5.21024203490312"><ele>228.0</ele><time>2026-04-06T12:43:39.991Z</time></trkpt><trkpt lat="47.380342519402376" lon="5.210280463690359"><ele>228.0</ele><time>2026-04-06T12:43:41.991Z</time></trkpt><trkpt lat="47.38044680562182" lon="5.21033691526646"><ele>228.0</ele><time>2026-04-06T12:43:43.991Z</time></trkpt><trkpt lat="47.38054983063885" lon="5.21038953258834"><ele>228.0</ele><time>2026-04-06T12:43:45.991Z</time></trkpt><trkpt lat="47.3806506061285" lon="5.2104425663944935"><ele>227.83333333333334</ele><time>2026-04-06T12:43:47.99Z</time></trkpt><trkpt lat="47.38074455986027" lon="5.210499309240044"><ele>227.66666666666669</ele><time>2026-04-06T12:43:49.99Z</time></trkpt><trkpt lat="47.3808327372364" lon="5.210545938446894"><ele>227.5</ele><time>2026-04-06T12:43:51.99Z</time></trkpt><trkpt lat="47.38091535202784" lon="5.210591757296246"><ele>227.33333333333334</ele><time>2026-04-06T12:43:53.99Z</time></trkpt><trkpt lat="47.38098783695753" lon="5.210631557143492"><ele>227.16666666666669</ele><time>2026-04-06T12:43:55.99Z</time></trkpt><trkpt lat="47.38106089698751" lon="5.210660055343092"><ele>227.0</ele><time>2026-04-06T12:43:57.99Z</time></trkpt><trkpt lat="47.38112644062626" lon="5.210695510051674"><ele>227.33333333333334</ele><time>2026-04-06T12:43:59.99Z</time></trkpt><trkpt lat="47.381215624695535" lon="5.2107042771319785"><ele>227.66666666666669</ele><time>2026-04-06T12:44:19.99Z</time></trkpt><trkpt lat="47.38127722593388" lon="5.210739243209509"><ele>228.0</ele><time>2026-04-06T12:44:21.99Z</time></trkpt><trkpt lat="47.381364405512535" lon="5.210782917972937"><ele>228.33333333333331</ele><time>2026-04-06T12:44:23.99Z</time></trkpt><trkpt lat="47.38144787683563" lon="5.210831265402665"><ele>228.66666666666666</ele><time>2026-04-06T12:44:25.99Z</time></trkpt><trkpt lat="47.381528334917896" lon="5.210854214048206"><ele>229.0</ele><time>2026-04-06T12:44:27.99Z</time></trkpt><trkpt lat="47.38160764663944" lon="5.210878918786859"><ele>228.99999999999997</ele><time>2026-04-06T12:44:29.99Z</time></trkpt><trkpt lat="47.38168529652409" lon="5.2109075572092225"><ele>229.0</ele><time>2026-04-06T12:44:31.99Z</time></trkpt><trkpt lat="47.381748583134495" lon="5.210915166860732"><ele>229.0</ele><time>2026-04-06T12:44:33.99Z</time></trkpt><trkpt lat="47.38181295819161" lon="5.210961007403481"><ele>229.0</ele><time>2026-04-06T12:44:35.99Z</time></trkpt><trkpt lat="47.38189345427032" lon="5.210987125062078"><ele>228.99999999999997</ele><time>2026-04-06T12:44:37.99Z</time></trkpt><trkpt lat="47.38198372024838" lon="5.211007414447609"><ele>229.0</ele><time>2026-04-06T12:44:39.99Z</time></trkpt><trkpt lat="47.38207713512199" lon="5.211050006622052"><ele>229.0</ele><time>2026-04-06T12:44:41.99Z</time></trkpt><trkpt lat="47.38217648289929" lon="5.211089947374646"><ele>228.99999999999997</ele><time>2026-04-06T12:44:43.99Z</time></trkpt><trkpt lat="47.38227887712849" lon="5.211128592277936"><ele>228.99999999999997</ele><time>2026-04-06T12:44:45.99Z</time></trkpt><trkpt lat="47.382380666987274" lon="5.211160706003478"><ele>229.0</ele><time>2026-04-06T12:44:47.99Z</time></trkpt><trkpt lat="47.382490157565684" lon="5.211198972817656"><ele>229.0</ele><time>2026-04-06T12:44:49.99Z</time></trkpt><trkpt lat="47.382595714624266" lon="5.21121900960598"><ele>229.2</ele><time>2026-04-06T12:44:51.99Z</time></trkpt><trkpt lat="47.38269979094539" lon="5.2112525179619595"><ele>229.39999999999998</ele><time>2026-04-06T12:44:53.99Z</time></trkpt><trkpt lat="47.38280417900013" lon="5.211289086564647"><ele>229.6</ele><time>2026-04-06T12:44:55.99Z</time></trkpt><trkpt lat="47.38290886015624" lon="5.211307064944379"><ele>229.8</ele><time>2026-04-06T12:44:57.99Z</time></trkpt><trkpt lat="47.38301724972428" lon="5.211329577010887"><ele>230.0</ele><time>2026-04-06T12:44:59.99Z</time></trkpt><trkpt lat="47.383133173484104" lon="5.211364777407505"><ele>229.4</ele><time>2026-04-06T12:45:01.99Z</time></trkpt><trkpt lat="47.38324005484427" lon="5.211415513606255"><ele>228.8</ele><time>2026-04-06T12:45:03.99Z</time></trkpt><trkpt lat="47.383349566771315" lon="5.211463314300906"><ele>228.2</ele><time>2026-04-06T12:45:05.99Z</time></trkpt><trkpt lat="47.38345541248837" lon="5.211529392945087"><ele>227.6</ele><time>2026-04-06T12:45:07.99Z</time></trkpt><trkpt lat="47.38355475392917" lon="5.211582549781259"><ele>227.0</ele><time>2026-04-06T12:45:09.99Z</time></trkpt><trkpt lat="47.383667626138624" lon="5.211559282478444"><ele>227.00000000000003</ele><time>2026-04-06T12:45:11.99Z</time></trkpt><trkpt lat="47.38375912915299" lon="5.211435344521464"><ele>227.0</ele><time>2026-04-06T12:45:13.99Z</time></trkpt><trkpt lat="47.383788917724836" lon="5.211348052663035"><ele>227.0</ele><time>2026-04-06T12:45:14.99Z</time></trkpt><trkpt lat="47.38384706220442" lon="5.2111971826457735"><ele>227.0</ele><time>2026-04-06T12:45:16.99Z</time></trkpt><trkpt lat="47.38386438616868" lon="5.211105911593232"><ele>227.00000000000003</ele><time>2026-04-06T12:45:17.99Z</time></trkpt><trkpt lat="47.38388335262629" lon="5.211012038998841"><ele>227.0</ele><time>2026-04-06T12:45:18.99Z</time></trkpt><trkpt lat="47.38392292112312" lon="5.210842627132394"><ele>227.0</ele><time>2026-04-06T12:45:20.99Z</time></trkpt><trkpt lat="47.383928488130465" lon="5.210665246361122"><ele>227.0</ele><time>2026-04-06T12:45:22.99Z</time></trkpt><trkpt lat="47.383906137447525" lon="5.210494461896238"><ele>227.0</ele><time>2026-04-06T12:45:24.99Z</time></trkpt><trkpt lat="47.383861511738075" lon="5.210332240198418"><ele>227.0</ele><time>2026-04-06T12:45:26.99Z</time></trkpt><trkpt lat="47.38378974363533" lon="5.210202149772698"><ele>227.25</ele><time>2026-04-06T12:45:28.99Z</time></trkpt><trkpt lat="47.38372321587132" lon="5.21005498313215"><ele>227.5</ele><time>2026-04-06T12:45:30.99Z</time></trkpt><trkpt lat="47.38369023622358" lon="5.209883953732971"><ele>227.75</ele><time>2026-04-06T12:45:32.99Z</time></trkpt><trkpt lat="47.38370584077078" lon="5.209708639877876"><ele>228.0</ele><time>2026-04-06T12:45:34.99Z</time></trkpt><trkpt lat="47.38373430506536" lon="5.209545693683711"><ele>228.2</ele><time>2026-04-06T12:45:36.99Z</time></trkpt><trkpt lat="47.383754030802436" lon="5.209389868322168"><ele>228.4</ele><time>2026-04-06T12:45:38.99Z</time></trkpt><trkpt lat="47.38378439196872" lon="5.209249715212747"><ele>228.59999999999997</ele><time>2026-04-06T12:45:40.99Z</time></trkpt><trkpt lat="47.38380769953855" lon="5.209117654864968"><ele>228.79999999999998</ele><time>2026-04-06T12:45:42.989Z</time></trkpt><trkpt lat="47.38384302576454" lon="5.208986053384961"><ele>229.0</ele><time>2026-04-06T12:45:44.989Z</time></trkpt><trkpt lat="47.38386331686974" lon="5.20885845271096"><ele>229.6</ele><time>2026-04-06T12:45:46.989Z</time></trkpt><trkpt lat="47.38389545639778" lon="5.208733292934167"><ele>230.2</ele><time>2026-04-06T12:45:48.989Z</time></trkpt><trkpt lat="47.38391961438768" lon="5.208602240867763"><ele>230.79999999999998</ele><time>2026-04-06T12:45:50.989Z</time></trkpt><trkpt lat="47.38394795939235" lon="5.20847292795753"><ele>231.39999999999998</ele><time>2026-04-06T12:45:52.989Z</time></trkpt><trkpt lat="47.38397307263104" lon="5.208344781912668"><ele>232.0</ele><time>2026-04-06T12:45:54.989Z</time></trkpt><trkpt lat="47.38398741925759" lon="5.208214964299044"><ele>232.16666666666666</ele><time>2026-04-06T12:45:56.989Z</time></trkpt><trkpt lat="47.38399181753536" lon="5.208083692520607"><ele>232.33333333333331</ele><time>2026-04-06T12:45:58.989Z</time></trkpt><trkpt lat="47.383986094342276" lon="5.207960553655422"><ele>232.5</ele><time>2026-04-06T12:46:00.989Z</time></trkpt><trkpt lat="47.38398954340635" lon="5.207842712077441"><ele>232.66666666666669</ele><time>2026-04-06T12:46:03.989Z</time></trkpt><trkpt lat="47.38406055918979" lon="5.20781260381386"><ele>232.83333333333334</ele><time>2026-04-06T12:46:39.991Z</time></trkpt><trkpt lat="47.384146281239175" lon="5.207846517923003"><ele>233.0</ele><time>2026-04-06T12:46:41.991Z</time></trkpt><trkpt lat="47.384236875082124" lon="5.207883290511153"><ele>233.0</ele><time>2026-04-06T12:46:43.991Z</time></trkpt><trkpt lat="47.384329802174456" lon="5.207918221230186"><ele>233.0</ele><time>2026-04-06T12:46:45.991Z</time></trkpt><trkpt lat="47.38443204406033" lon="5.207951958743982"><ele>233.0</ele><time>2026-04-06T12:46:47.991Z</time></trkpt><trkpt lat="47.38454161648885" lon="5.207982377014956"><ele>233.0</ele><time>2026-04-06T12:46:49.991Z</time></trkpt><trkpt lat="47.384651002551706" lon="5.208009938782683"><ele>233.0</ele><time>2026-04-06T12:46:51.991Z</time></trkpt><trkpt lat="47.384760454603246" lon="5.20804390639545"><ele>233.0</ele><time>2026-04-06T12:46:53.991Z</time></trkpt><trkpt lat="47.384868864331466" lon="5.208074143578279"><ele>233.0</ele><time>2026-04-06T12:46:55.991Z</time></trkpt><trkpt lat="47.384980697469565" lon="5.208108654263454"><ele>233.0</ele><time>2026-04-06T12:46:57.991Z</time></trkpt><trkpt lat="47.38508682354291" lon="5.208140565677407"><ele>233.0</ele><time>2026-04-06T12:46:59.99Z</time></trkpt><trkpt lat="47.38519411313507" lon="5.208172793228917"><ele>233.0</ele><time>2026-04-06T12:47:01.99Z</time></trkpt><trkpt lat="47.38529790287586" lon="5.2082034460100965"><ele>233.0</ele><time>2026-04-06T12:47:03.99Z</time></trkpt><trkpt lat="47.38539970069154" lon="5.208230830337364"><ele>233.0</ele><time>2026-04-06T12:47:05.989Z</time></trkpt><trkpt lat="47.38549589082343" lon="5.208261257833833"><ele>233.0</ele><time>2026-04-06T12:47:07.989Z</time></trkpt><trkpt lat="47.385591162898976" lon="5.208288302910682"><ele>233.0</ele><time>2026-04-06T12:47:09.989Z</time></trkpt><trkpt lat="47.38568760483138" lon="5.208321181825008"><ele>233.0</ele><time>2026-04-06T12:47:11.99Z</time></trkpt><trkpt lat="47.385793736199965" lon="5.208346960601758"><ele>233.2</ele><time>2026-04-06T12:47:13.989Z</time></trkpt><trkpt lat="47.3858967926875" lon="5.20838287023712"><ele>233.4</ele><time>2026-04-06T12:47:15.99Z</time></trkpt><trkpt lat="47.38600642167455" lon="5.208405941794559"><ele>233.59999999999997</ele><time>2026-04-06T12:47:17.99Z</time></trkpt><trkpt lat="47.38611473482543" lon="5.208441678856084"><ele>233.79999999999998</ele><time>2026-04-06T12:47:19.99Z</time></trkpt><trkpt lat="47.386224738388194" lon="5.208473543572745"><ele>234.0</ele><time>2026-04-06T12:47:21.99Z</time></trkpt><trkpt lat="47.38633024572474" lon="5.208505457328323"><ele>234.39999999999998</ele><time>2026-04-06T12:47:23.989Z</time></trkpt><trkpt lat="47.38643602816113" lon="5.208526845147261"><ele>234.79999999999998</ele><time>2026-04-06T12:47:25.989Z</time></trkpt><trkpt lat="47.38654221619298" lon="5.208553556086208"><ele>235.20000000000002</ele><time>2026-04-06T12:47:27.989Z</time></trkpt><trkpt lat="47.38665110347464" lon="5.208582523205374"><ele>235.60000000000002</ele><time>2026-04-06T12:47:29.989Z</time></trkpt><trkpt lat="47.38676546348304" lon="5.208614109040303"><ele>236.0</ele><time>2026-04-06T12:47:31.989Z</time></trkpt><trkpt lat="47.386882908909755" lon="5.2086447696729055"><ele>236.00000000000003</ele><time>2026-04-06T12:47:33.989Z</time></trkpt><trkpt lat="47.38700620018046" lon="5.208678084490828"><ele>236.0</ele><time>2026-04-06T12:47:35.989Z</time></trkpt><trkpt lat="47.38712584695412" lon="5.208708571582874"><ele>236.0</ele><time>2026-04-06T12:47:37.989Z</time></trkpt><trkpt lat="47.38718948676271" lon="5.208727789976756"><ele>236.0</ele><time>2026-04-06T12:47:38.989Z</time></trkpt><trkpt lat="47.38725215627917" lon="5.2087430214779085"><ele>236.00000000000003</ele><time>2026-04-06T12:47:39.989Z</time></trkpt><trkpt lat="47.38731444712173" lon="5.208758232806447"><ele>236.0</ele><time>2026-04-06T12:47:40.989Z</time></trkpt><trkpt lat="47.3874368565569" lon="5.208791412119205"><ele>236.0</ele><time>2026-04-06T12:47:42.989Z</time></trkpt><trkpt lat="47.387558865293094" lon="5.208819805307289"><ele>236.0</ele><time>2026-04-06T12:47:44.989Z</time></trkpt><trkpt lat="47.387683077462356" lon="5.208847337038488"><ele>236.0</ele><time>2026-04-06T12:47:46.989Z</time></trkpt><trkpt lat="47.387804067580625" lon="5.2088848775981065"><ele>236.0</ele><time>2026-04-06T12:47:48.989Z</time></trkpt><trkpt lat="47.387916030658054" lon="5.208915791220222"><ele>236.0</ele><time>2026-04-06T12:47:50.989Z</time></trkpt><trkpt lat="47.388034700183745" lon="5.208941836485134"><ele>236.0</ele><time>2026-04-06T12:47:52.989Z</time></trkpt><trkpt lat="47.388147973303354" lon="5.208970297787606"><ele>236.0</ele><time>2026-04-06T12:47:54.989Z</time></trkpt><trkpt lat="47.38825994576813" lon="5.209001540388803"><ele>236.0</ele><time>2026-04-06T12:47:56.989Z</time></trkpt><trkpt lat="47.38836769720627" lon="5.209021562040248"><ele>235.8</ele><time>2026-04-06T12:47:58.989Z</time></trkpt><trkpt lat="47.38847058782382" lon="5.20905432944014"><ele>235.60000000000002</ele><time>2026-04-06T12:48:00.989Z</time></trkpt><trkpt lat="47.38857839580781" lon="5.209080255334652"><ele>235.4</ele><time>2026-04-06T12:48:02.989Z</time></trkpt><trkpt lat="47.38868154014381" lon="5.20911059545986"><ele>235.2</ele><time>2026-04-06T12:48:04.989Z</time></trkpt><trkpt lat="47.38878571681861" lon="5.209131387308921"><ele>235.0</ele><time>2026-04-06T12:48:06.989Z</time></trkpt><trkpt lat="47.388886760653094" lon="5.20915260403494"><ele>235.4</ele><time>2026-04-06T12:48:08.989Z</time></trkpt><trkpt lat="47.38899384370013" lon="5.209172337181387"><ele>235.8</ele><time>2026-04-06T12:48:10.989Z</time></trkpt><trkpt lat="47.38910073912039" lon="5.2091786050425775"><ele>236.2</ele><time>2026-04-06T12:48:12.989Z</time></trkpt><trkpt lat="47.38921110401136" lon="5.209198100043883"><ele>236.6</ele><time>2026-04-06T12:48:14.989Z</time></trkpt><trkpt lat="47.389315357537306" lon="5.209210403843417"><ele>237.0</ele><time>2026-04-06T12:48:16.989Z</time></trkpt><trkpt lat="47.389423653274" lon="5.209212418968397"><ele>237.0</ele><time>2026-04-06T12:48:18.989Z</time></trkpt><trkpt lat="47.38953296126299" lon="5.209224884693889"><ele>237.0</ele><time>2026-04-06T12:48:20.989Z</time></trkpt><trkpt lat="47.38964758182702" lon="5.209232336222363"><ele>237.0</ele><time>2026-04-06T12:48:22.989Z</time></trkpt><trkpt lat="47.38976752069012" lon="5.209240303750398"><ele>237.0</ele><time>2026-04-06T12:48:24.989Z</time></trkpt><trkpt lat="47.38988300198149" lon="5.209241715078965"><ele>237.25</ele><time>2026-04-06T12:48:26.989Z</time></trkpt><trkpt lat="47.38999853489031" lon="5.209252840202576"><ele>237.5</ele><time>2026-04-06T12:48:28.989Z</time></trkpt><trkpt lat="47.390113988244885" lon="5.209258397079086"><ele>237.75</ele><time>2026-04-06T12:48:30.989Z</time></trkpt><trkpt lat="47.39023159310226" lon="5.209265131678531"><ele>238.0</ele><time>2026-04-06T12:48:32.989Z</time></trkpt><trkpt lat="47.39035075491122" lon="5.209272866628044"><ele>238.0</ele><time>2026-04-06T12:48:34.989Z</time></trkpt><trkpt lat="47.390472098878924" lon="5.209280422849548"><ele>238.0</ele><time>2026-04-06T12:48:36.989Z</time></trkpt><trkpt lat="47.39059136038363" lon="5.20928956394531"><ele>238.0</ele><time>2026-04-06T12:48:38.989Z</time></trkpt><trkpt lat="47.39071083075973" lon="5.209291949600592"><ele>238.0</ele><time>2026-04-06T12:48:40.989Z</time></trkpt><trkpt lat="47.39082089279142" lon="5.209300861530186"><ele>238.0</ele><time>2026-04-06T12:48:42.989Z</time></trkpt><trkpt lat="47.39093466499799" lon="5.209303436547699"><ele>238.0</ele><time>2026-04-06T12:48:44.989Z</time></trkpt><trkpt lat="47.3910430917637" lon="5.209307370230325"><ele>238.0</ele><time>2026-04-06T12:48:46.989Z</time></trkpt><trkpt lat="47.3911490258441" lon="5.209313774864162"><ele>238.0</ele><time>2026-04-06T12:48:48.989Z</time></trkpt><trkpt lat="47.3912555254941" lon="5.209325274242873"><ele>238.0</ele><time>2026-04-06T12:48:50.989Z</time></trkpt><trkpt lat="47.3913619818983" lon="5.20932755005042"><ele>238.0</ele><time>2026-04-06T12:48:52.989Z</time></trkpt><trkpt lat="47.391468270514515" lon="5.209335150787123"><ele>238.0</ele><time>2026-04-06T12:48:54.989Z</time></trkpt><trkpt lat="47.391573565589304" lon="5.209343600740369"><ele>238.0</ele><time>2026-04-06T12:48:56.989Z</time></trkpt><trkpt lat="47.391681287381495" lon="5.209349978137034"><ele>238.0</ele><time>2026-04-06T12:48:58.989Z</time></trkpt><trkpt lat="47.39178621709693" lon="5.209359911478819"><ele>238.0</ele><time>2026-04-06T12:49:00.989Z</time></trkpt><trkpt lat="47.39188794035257" lon="5.209367388775567"><ele>238.0</ele><time>2026-04-06T12:49:02.989Z</time></trkpt><trkpt lat="47.3919856291947" lon="5.209375887462965"><ele>238.0</ele><time>2026-04-06T12:49:04.989Z</time></trkpt><trkpt lat="47.392084440596044" lon="5.209385654183396"><ele>238.0</ele><time>2026-04-06T12:49:06.989Z</time></trkpt><trkpt lat="47.39218891462161" lon="5.2093918684056195"><ele>238.0</ele><time>2026-04-06T12:49:08.988Z</time></trkpt><trkpt lat="47.392291642606075" lon="5.2093935791027075"><ele>238.0</ele><time>2026-04-06T12:49:10.988Z</time></trkpt><trkpt lat="47.39239163166814" lon="5.209403627925408"><ele>238.0</ele><time>2026-04-06T12:49:12.988Z</time></trkpt><trkpt lat="47.392492120988486" lon="5.209412375519122"><ele>238.0</ele><time>2026-04-06T12:49:14.988Z</time></trkpt><trkpt lat="47.39260265603725" lon="5.2094136447677695"><ele>238.0</ele><time>2026-04-06T12:49:16.988Z</time></trkpt><trkpt lat="47.39270579189972" lon="5.20941934799416"><ele>238.0</ele><time>2026-04-06T12:49:18.987Z</time></trkpt><trkpt lat="47.39281816935257" lon="5.2094314640551325"><ele>238.0</ele><time>2026-04-06T12:49:20.988Z</time></trkpt><trkpt lat="47.39293178638256" lon="5.20943354683412"><ele>238.25</ele><time>2026-04-06T12:49:22.988Z</time></trkpt><trkpt lat="47.39304283877385" lon="5.209435808437075"><ele>238.5</ele><time>2026-04-06T12:49:24.988Z</time></trkpt><trkpt lat="47.393155372073664" lon="5.209443226556583"><ele>238.75</ele><time>2026-04-06T12:49:26.988Z</time></trkpt><trkpt lat="47.39327043216493" lon="5.209444726261868"><ele>239.0</ele><time>2026-04-06T12:49:28.988Z</time></trkpt><trkpt lat="47.39338663617617" lon="5.209446387868502"><ele>239.0</ele><time>2026-04-06T12:49:30.988Z</time></trkpt><trkpt lat="47.39350083439217" lon="5.209454724471724"><ele>239.0</ele><time>2026-04-06T12:49:32.988Z</time></trkpt><trkpt lat="47.39361654390405" lon="5.2094621454960235"><ele>239.0</ele><time>2026-04-06T12:49:34.987Z</time></trkpt><trkpt lat="47.393731941961214" lon="5.20946644121616"><ele>239.0</ele><time>2026-04-06T12:49:36.987Z</time></trkpt><trkpt lat="47.393845573805955" lon="5.209478293367633"><ele>239.0</ele><time>2026-04-06T12:49:38.987Z</time></trkpt><trkpt lat="47.39395777469323" lon="5.20949033412844"><ele>239.0</ele><time>2026-04-06T12:49:40.987Z</time></trkpt><trkpt lat="47.39407666656205" lon="5.2094952597819875"><ele>239.0</ele><time>2026-04-06T12:49:42.987Z</time></trkpt><trkpt lat="47.394192534540736" lon="5.209489890865497"><ele>239.0</ele><time>2026-04-06T12:49:44.987Z</time></trkpt><trkpt lat="47.39431131215424" lon="5.20944631509085"><ele>239.0</ele><time>2026-04-06T12:49:46.987Z</time></trkpt><trkpt lat="47.394420229048734" lon="5.209403588416328"><ele>239.0</ele><time>2026-04-06T12:49:48.987Z</time></trkpt><trkpt lat="47.3945285614885" lon="5.209376829040623"><ele>239.0</ele><time>2026-04-06T12:49:50.987Z</time></trkpt><trkpt lat="47.39463891692894" lon="5.2093372822198445"><ele>239.0</ele><time>2026-04-06T12:49:52.987Z</time></trkpt><trkpt lat="47.394752157463635" lon="5.209295587284687"><ele>238.75</ele><time>2026-04-06T12:49:54.987Z</time></trkpt><trkpt lat="47.394855644341916" lon="5.209251875638032"><ele>238.5</ele><time>2026-04-06T12:49:56.987Z</time></trkpt><trkpt lat="47.39497389597761" lon="5.209229787799342"><ele>238.25</ele><time>2026-04-06T12:49:58.987Z</time></trkpt><trkpt lat="47.39508747281264" lon="5.209190323301072"><ele>238.0</ele><time>2026-04-06T12:50:00.987Z</time></trkpt><trkpt lat="47.39520501592081" lon="5.209148361062926"><ele>238.0</ele><time>2026-04-06T12:50:02.987Z</time></trkpt><trkpt lat="47.39532247068302" lon="5.209108863453438"><ele>238.0</ele><time>2026-04-06T12:50:04.987Z</time></trkpt><trkpt lat="47.3954390282468" lon="5.209068406543585"><ele>238.0</ele><time>2026-04-06T12:50:06.987Z</time></trkpt><trkpt lat="47.3955552998026" lon="5.209030455283275"><ele>238.0</ele><time>2026-04-06T12:50:08.987Z</time></trkpt><trkpt lat="47.39567102410599" lon="5.208996276703904"><ele>238.2</ele><time>2026-04-06T12:50:10.987Z</time></trkpt><trkpt lat="47.395785484920886" lon="5.208951662065948"><ele>238.4</ele><time>2026-04-06T12:50:12.987Z</time></trkpt><trkpt lat="47.395899263745626" lon="5.208911174807186"><ele>238.59999999999997</ele><time>2026-04-06T12:50:14.987Z</time></trkpt><trkpt lat="47.396009147543495" lon="5.208879687044421"><ele>238.79999999999998</ele><time>2026-04-06T12:50:16.987Z</time></trkpt><trkpt lat="47.39607133909194" lon="5.20886439603333"><ele>239.0</ele><time>2026-04-06T12:50:17.987Z</time></trkpt><trkpt lat="47.39618392142744" lon="5.20881381987051"><ele>239.0</ele><time>2026-04-06T12:50:19.987Z</time></trkpt><trkpt lat="47.39629424096786" lon="5.208779357618205"><ele>239.0</ele><time>2026-04-06T12:50:21.987Z</time></trkpt><trkpt lat="47.396411694809096" lon="5.208740377600423"><ele>239.0</ele><time>2026-04-06T12:50:23.987Z</time></trkpt><trkpt lat="47.39652513800912" lon="5.208695593956815"><ele>239.0</ele><time>2026-04-06T12:50:25.987Z</time></trkpt><trkpt lat="47.39664202742147" lon="5.208652843419821"><ele>238.79999999999998</ele><time>2026-04-06T12:50:27.987Z</time></trkpt><trkpt lat="47.39675949877067" lon="5.208616093303106"><ele>238.59999999999997</ele><time>2026-04-06T12:50:29.987Z</time></trkpt><trkpt lat="47.39687440450153" lon="5.2085732552734125"><ele>238.4</ele><time>2026-04-06T12:50:31.987Z</time></trkpt><trkpt lat="47.396992791730376" lon="5.208533062093456"><ele>238.2</ele><time>2026-04-06T12:50:33.987Z</time></trkpt><trkpt lat="47.39705462848421" lon="5.208514264044465"><ele>238.0</ele><time>2026-04-06T12:50:34.987Z</time></trkpt><trkpt lat="47.39711635571484" lon="5.208493723292671"><ele>237.99999999999997</ele><time>2026-04-06T12:50:35.987Z</time></trkpt><trkpt lat="47.39717980966774" lon="5.208474467908307"><ele>238.0</ele><time>2026-04-06T12:50:36.987Z</time></trkpt><trkpt lat="47.39724180107846" lon="5.20845183586516"><ele>238.0</ele><time>2026-04-06T12:50:37.987Z</time></trkpt><trkpt lat="47.397365577875746" lon="5.2084071983561975"><ele>238.0</ele><time>2026-04-06T12:50:39.987Z</time></trkpt><trkpt lat="47.397428353522415" lon="5.208389820735466"><ele>237.99999999999997</ele><time>2026-04-06T12:50:40.987Z</time></trkpt><trkpt lat="47.39749138341635" lon="5.20836991488203"><ele>238.0</ele><time>2026-04-06T12:50:41.987Z</time></trkpt><trkpt lat="47.397604363106495" lon="5.208324672197905"><ele>238.0</ele><time>2026-04-06T12:50:43.987Z</time></trkpt><trkpt lat="47.39766556380687" lon="5.208299787636323"><ele>238.0</ele><time>2026-04-06T12:50:44.987Z</time></trkpt><trkpt lat="47.397779595059355" lon="5.208259496188158"><ele>238.0</ele><time>2026-04-06T12:50:46.987Z</time></trkpt><trkpt lat="47.39789040800335" lon="5.208216568704648"><ele>238.0</ele><time>2026-04-06T12:50:48.987Z</time></trkpt><trkpt lat="47.398003835389275" lon="5.208180555357464"><ele>238.0</ele><time>2026-04-06T12:50:50.987Z</time></trkpt><trkpt lat="47.398121702830565" lon="5.208142518185519"><ele>237.99999999999997</ele><time>2026-04-06T12:50:52.987Z</time></trkpt><trkpt lat="47.398240309464356" lon="5.208106003115339"><ele>238.0</ele><time>2026-04-06T12:50:54.987Z</time></trkpt><trkpt lat="47.398301996632895" lon="5.208083646239317"><ele>238.0</ele><time>2026-04-06T12:50:55.987Z</time></trkpt><trkpt lat="47.39842534150904" lon="5.208046994305499"><ele>238.0</ele><time>2026-04-06T12:50:57.987Z</time></trkpt><trkpt lat="47.39848678205919" lon="5.208026633842829"><ele>237.99999999999997</ele><time>2026-04-06T12:50:58.987Z</time></trkpt><trkpt lat="47.39854847849384" lon="5.207999724320926"><ele>238.0</ele><time>2026-04-06T12:50:59.987Z</time></trkpt><trkpt lat="47.39861084968066" lon="5.207973946972478"><ele>238.0</ele><time>2026-04-06T12:51:00.987Z</time></trkpt><trkpt lat="47.398673509182665" lon="5.207949811909895"><ele>238.0</ele><time>2026-04-06T12:51:01.987Z</time></trkpt><trkpt lat="47.39873550131777" lon="5.207930195832945"><ele>238.0</ele><time>2026-04-06T12:51:02.987Z</time></trkpt><trkpt lat="47.398855352256795" lon="5.207896582978148"><ele>238.0</ele><time>2026-04-06T12:51:04.987Z</time></trkpt><trkpt lat="47.398973609917924" lon="5.207846858600619"><ele>238.0</ele><time>2026-04-06T12:51:06.987Z</time></trkpt><trkpt lat="47.399090237837065" lon="5.207809716998009"><ele>237.83333333333331</ele><time>2026-04-06T12:51:08.987Z</time></trkpt><trkpt lat="47.399212913271974" lon="5.207767388919617"><ele>237.66666666666666</ele><time>2026-04-06T12:51:10.987Z</time></trkpt><trkpt lat="47.39927278013495" lon="5.20773641014257"><ele>237.5</ele><time>2026-04-06T12:51:11.987Z</time></trkpt><trkpt lat="47.39933212621393" lon="5.207699204572435"><ele>237.33333333333331</ele><time>2026-04-06T12:51:12.987Z</time></trkpt><trkpt lat="47.39944706349192" lon="5.207636571301489"><ele>237.16666666666666</ele><time>2026-04-06T12:51:14.986Z</time></trkpt><trkpt lat="47.399506709661274" lon="5.20760335211779"><ele>237.0</ele><time>2026-04-06T12:51:15.986Z</time></trkpt><trkpt lat="47.399562376407765" lon="5.2075563146999695"><ele>237.0</ele><time>2026-04-06T12:51:16.986Z</time></trkpt><trkpt lat="47.3996722727909" lon="5.20749150394926"><ele>237.0</ele><time>2026-04-06T12:51:18.986Z</time></trkpt><trkpt lat="47.39973071815792" lon="5.207453111827524"><ele>237.0</ele><time>2026-04-06T12:51:19.986Z</time></trkpt><trkpt lat="47.399842123046575" lon="5.207380866635175"><ele>237.0</ele><time>2026-04-06T12:51:21.986Z</time></trkpt><trkpt lat="47.399966620591385" lon="5.207313832597818"><ele>237.0</ele><time>2026-04-06T12:51:23.986Z</time></trkpt><trkpt lat="47.400081602757524" lon="5.207242449651429"><ele>236.99999999999997</ele><time>2026-04-06T12:51:25.986Z</time></trkpt><trkpt lat="47.400141144750016" lon="5.207208698026144"><ele>237.0</ele><time>2026-04-06T12:51:26.986Z</time></trkpt><trkpt lat="47.40020187952002" lon="5.207170333193906"><ele>236.99999999999997</ele><time>2026-04-06T12:51:27.986Z</time></trkpt><trkpt lat="47.40026728076117" lon="5.207130560749117"><ele>236.99999999999997</ele><time>2026-04-06T12:51:28.986Z</time></trkpt><trkpt lat="47.40033018511784" lon="5.207092932153437"><ele>237.0</ele><time>2026-04-06T12:51:29.986Z</time></trkpt><trkpt lat="47.40039258786319" lon="5.2070557897598615"><ele>236.99999999999997</ele><time>2026-04-06T12:51:30.986Z</time></trkpt><trkpt lat="47.40045410262203" lon="5.207021739576978"><ele>236.99999999999997</ele><time>2026-04-06T12:51:31.986Z</time></trkpt><trkpt lat="47.40051240206859" lon="5.206983421534274"><ele>237.0</ele><time>2026-04-06T12:51:32.986Z</time></trkpt><trkpt lat="47.400572397497506" lon="5.206948610184081"><ele>237.0</ele><time>2026-04-06T12:51:33.986Z</time></trkpt><trkpt lat="47.40063095999637" lon="5.206909703933512"><ele>237.0</ele><time>2026-04-06T12:51:34.986Z</time></trkpt><trkpt lat="47.40068936419095" lon="5.206869148262143"><ele>237.0</ele><time>2026-04-06T12:51:35.986Z</time></trkpt><trkpt lat="47.40074639987678" lon="5.206829137256107"><ele>237.0</ele><time>2026-04-06T12:51:36.986Z</time></trkpt><trkpt lat="47.400857937807025" lon="5.206766774611823"><ele>237.0</ele><time>2026-04-06T12:51:38.986Z</time></trkpt><trkpt lat="47.400965603828375" lon="5.206696018848537"><ele>237.0</ele><time>2026-04-06T12:51:40.986Z</time></trkpt><trkpt lat="47.4010711670246" lon="5.206621747255222"><ele>237.0</ele><time>2026-04-06T12:51:42.986Z</time></trkpt><trkpt lat="47.40116991980881" lon="5.206550282440397"><ele>237.0</ele><time>2026-04-06T12:51:44.986Z</time></trkpt><trkpt lat="47.401273315320786" lon="5.206486109133892"><ele>237.0</ele><time>2026-04-06T12:51:46.986Z</time></trkpt><trkpt lat="47.40137139591654" lon="5.206410707752233"><ele>237.25</ele><time>2026-04-06T12:51:48.986Z</time></trkpt><trkpt lat="47.4014738744795" lon="5.206345927610984"><ele>237.5</ele><time>2026-04-06T12:51:50.986Z</time></trkpt><trkpt lat="47.401575451965584" lon="5.206269379140094"><ele>237.75</ele><time>2026-04-06T12:51:52.986Z</time></trkpt><trkpt lat="47.40167829992987" lon="5.206197687432145"><ele>238.0</ele><time>2026-04-06T12:51:54.986Z</time></trkpt><trkpt lat="47.401782094400446" lon="5.206123979577711"><ele>238.0</ele><time>2026-04-06T12:51:56.986Z</time></trkpt><trkpt lat="47.40188665813306" lon="5.206051451631647"><ele>238.0</ele><time>2026-04-06T12:51:58.986Z</time></trkpt><trkpt lat="47.40199371702447" lon="5.20597365150466"><ele>238.0</ele><time>2026-04-06T12:52:00.986Z</time></trkpt><trkpt lat="47.40209552031626" lon="5.205898901974823"><ele>238.0</ele><time>2026-04-06T12:52:02.986Z</time></trkpt><trkpt lat="47.40219576963429" lon="5.205826917473702"><ele>238.4</ele><time>2026-04-06T12:52:04.986Z</time></trkpt><trkpt lat="47.40229797944074" lon="5.205757158336493"><ele>238.8</ele><time>2026-04-06T12:52:06.985Z</time></trkpt><trkpt lat="47.40239777738645" lon="5.205694026230197"><ele>239.2</ele><time>2026-04-06T12:52:08.985Z</time></trkpt><trkpt lat="47.40249528640971" lon="5.205636091682128"><ele>239.6</ele><time>2026-04-06T12:52:10.985Z</time></trkpt><trkpt lat="47.40259913013122" lon="5.205579195914954"><ele>240.0</ele><time>2026-04-06T12:52:12.985Z</time></trkpt><trkpt lat="47.40270505327841" lon="5.205543805750928"><ele>240.0</ele><time>2026-04-06T12:52:14.985Z</time></trkpt><trkpt lat="47.40281694239436" lon="5.205520036652706"><ele>240.0</ele><time>2026-04-06T12:52:16.985Z</time></trkpt><trkpt lat="47.40292723958062" lon="5.205500299561614"><ele>240.0</ele><time>2026-04-06T12:52:18.985Z</time></trkpt><trkpt lat="47.403037172617594" lon="5.205476655641117"><ele>240.0</ele><time>2026-04-06T12:52:20.985Z</time></trkpt><trkpt lat="47.40315404365763" lon="5.205456896004816"><ele>239.75</ele><time>2026-04-06T12:52:22.985Z</time></trkpt><trkpt lat="47.40326729564782" lon="5.205432953518378"><ele>239.5</ele><time>2026-04-06T12:52:24.985Z</time></trkpt><trkpt lat="47.403375733404836" lon="5.205407416310624"><ele>239.25</ele><time>2026-04-06T12:52:26.985Z</time></trkpt><trkpt lat="47.40348940449572" lon="5.205386143828216"><ele>239.0</ele><time>2026-04-06T12:52:28.985Z</time></trkpt><trkpt lat="47.403601793984095" lon="5.205365205188398"><ele>239.0</ele><time>2026-04-06T12:52:30.985Z</time></trkpt><trkpt lat="47.403716879401294" lon="5.205339222256701"><ele>238.99999999999997</ele><time>2026-04-06T12:52:32.985Z</time></trkpt><trkpt lat="47.40382463216871" lon="5.205317756574226"><ele>238.99999999999997</ele><time>2026-04-06T12:52:34.985Z</time></trkpt><trkpt lat="47.403936216615435" lon="5.2052974482646"><ele>239.0</ele><time>2026-04-06T12:52:36.985Z</time></trkpt><trkpt lat="47.404045708654486" lon="5.205284175534893"><ele>239.0</ele><time>2026-04-06T12:52:38.985Z</time></trkpt><trkpt lat="47.40415674928857" lon="5.205266287362631"><ele>239.6</ele><time>2026-04-06T12:52:40.985Z</time></trkpt><trkpt lat="47.404270016137595" lon="5.205250924225956"><ele>240.2</ele><time>2026-04-06T12:52:42.985Z</time></trkpt><trkpt lat="47.404369008963336" lon="5.205247167289599"><ele>240.79999999999998</ele><time>2026-04-06T12:52:44.985Z</time></trkpt><trkpt lat="47.40447776390445" lon="5.205257245975388"><ele>241.39999999999998</ele><time>2026-04-06T12:52:46.985Z</time></trkpt><trkpt lat="47.40458498736558" lon="5.205261343063315"><ele>242.0</ele><time>2026-04-06T12:52:48.985Z</time></trkpt><trkpt lat="47.404691629808624" lon="5.205267541603013"><ele>242.0</ele><time>2026-04-06T12:52:50.985Z</time></trkpt><trkpt lat="47.40479707047512" lon="5.2052864346503505"><ele>242.0</ele><time>2026-04-06T12:52:52.985Z</time></trkpt><trkpt lat="47.404897387996094" lon="5.20530143977646"><ele>242.0</ele><time>2026-04-06T12:52:54.985Z</time></trkpt><trkpt lat="47.404988667101954" lon="5.205309432575542"><ele>242.0</ele><time>2026-04-06T12:52:56.985Z</time></trkpt><trkpt lat="47.40508404216397" lon="5.205321784095455"><ele>242.0</ele><time>2026-04-06T12:52:58.985Z</time></trkpt><trkpt lat="47.40517240957241" lon="5.205331444052526"><ele>242.0</ele><time>2026-04-06T12:53:00.985Z</time></trkpt><trkpt lat="47.4052389433566" lon="5.205419405938772"><ele>242.0</ele><time>2026-04-06T12:53:02.985Z</time></trkpt><trkpt lat="47.40522797933525" lon="5.205577981013113"><ele>242.0</ele><time>2026-04-06T12:53:04.985Z</time></trkpt><trkpt lat="47.40518684738462" lon="5.205728281806031"><ele>242.0</ele><time>2026-04-06T12:53:06.985Z</time></trkpt><trkpt lat="47.40517569124963" lon="5.205907477695278"><ele>242.0</ele><time>2026-04-06T12:53:08.985Z</time></trkpt><trkpt lat="47.40516697479263" lon="5.206081933854035"><ele>241.25</ele><time>2026-04-06T12:53:10.985Z</time></trkpt><trkpt lat="47.405159085621314" lon="5.206252880265072"><ele>240.5</ele><time>2026-04-06T12:53:12.985Z</time></trkpt><trkpt lat="47.40514598326616" lon="5.206422027935123"><ele>239.75</ele><time>2026-04-06T12:53:14.985Z</time></trkpt><trkpt lat="47.40512772222338" lon="5.206597390936449"><ele>239.0</ele><time>2026-04-06T12:53:16.985Z</time></trkpt><trkpt lat="47.405119928132834" lon="5.206759661667086"><ele>238.6</ele><time>2026-04-06T12:53:18.985Z</time></trkpt><trkpt lat="47.40511594015416" lon="5.206852950356004"><ele>238.2</ele><time>2026-04-06T12:53:19.985Z</time></trkpt><trkpt lat="47.40510690831762" lon="5.207034495201155"><ele>237.79999999999998</ele><time>2026-04-06T12:53:21.984Z</time></trkpt><trkpt lat="47.405095221744915" lon="5.207211156136443"><ele>237.39999999999998</ele><time>2026-04-06T12:53:23.984Z</time></trkpt><trkpt lat="47.40508527854058" lon="5.207382416512592"><ele>237.0</ele><time>2026-04-06T12:53:25.984Z</time></trkpt><trkpt lat="47.405080757499306" lon="5.207475688372493"><ele>237.0</ele><time>2026-04-06T12:53:26.984Z</time></trkpt><trkpt lat="47.405069447220974" lon="5.207653486598481"><ele>237.0</ele><time>2026-04-06T12:53:28.984Z</time></trkpt><trkpt lat="47.40506548402269" lon="5.207746909664705"><ele>237.0</ele><time>2026-04-06T12:53:29.984Z</time></trkpt><trkpt lat="47.40505497883001" lon="5.207922546116893"><ele>237.0</ele><time>2026-04-06T12:53:31.985Z</time></trkpt><trkpt lat="47.40504533330752" lon="5.208100627081071"><ele>237.0</ele><time>2026-04-06T12:53:33.984Z</time></trkpt><trkpt lat="47.405035181224044" lon="5.208275841306384"><ele>237.75</ele><time>2026-04-06T12:53:35.984Z</time></trkpt><trkpt lat="47.405029065811306" lon="5.208453413597645"><ele>238.5</ele><time>2026-04-06T12:53:37.984Z</time></trkpt><trkpt lat="47.405026149590384" lon="5.208631405201634"><ele>239.25</ele><time>2026-04-06T12:53:39.984Z</time></trkpt><trkpt lat="47.40500671445259" lon="5.208804690926595"><ele>240.0</ele><time>2026-04-06T12:53:41.984Z</time></trkpt><trkpt lat="47.404995226987765" lon="5.208977536403673"><ele>239.5</ele><time>2026-04-06T12:53:43.984Z</time></trkpt><trkpt lat="47.40496778228978" lon="5.2091406772563635"><ele>239.0</ele><time>2026-04-06T12:53:45.984Z</time></trkpt><trkpt lat="47.404950694250985" lon="5.209313753186242"><ele>238.5</ele><time>2026-04-06T12:53:47.984Z</time></trkpt><trkpt lat="47.404931086709986" lon="5.209488073852226"><ele>238.0</ele><time>2026-04-06T12:53:49.984Z</time></trkpt><trkpt lat="47.4049149451329" lon="5.209655245851019"><ele>238.0</ele><time>2026-04-06T12:53:51.984Z</time></trkpt><trkpt lat="47.40489874448593" lon="5.209822574668969"><ele>238.0</ele><time>2026-04-06T12:53:53.984Z</time></trkpt><trkpt lat="47.40488499493355" lon="5.209995380575381"><ele>238.0</ele><time>2026-04-06T12:53:55.984Z</time></trkpt><trkpt lat="47.40486933928404" lon="5.210176302004895"><ele>238.0</ele><time>2026-04-06T12:53:57.984Z</time></trkpt><trkpt lat="47.404853313747054" lon="5.210355665188741"><ele>238.0</ele><time>2026-04-06T12:53:59.984Z</time></trkpt><trkpt lat="47.40483967348382" lon="5.210531524186083"><ele>238.0</ele><time>2026-04-06T12:54:01.984Z</time></trkpt><trkpt lat="47.40482133777363" lon="5.210713792883418"><ele>238.0</ele><time>2026-04-06T12:54:03.984Z</time></trkpt><trkpt lat="47.40481630322184" lon="5.210900039784462"><ele>238.0</ele><time>2026-04-06T12:54:05.984Z</time></trkpt><trkpt lat="47.40481772532372" lon="5.211081964279477"><ele>238.33333333333331</ele><time>2026-04-06T12:54:07.984Z</time></trkpt><trkpt lat="47.4048192972286" lon="5.211176856486461"><ele>238.66666666666666</ele><time>2026-04-06T12:54:08.984Z</time></trkpt><trkpt lat="47.404819255922604" lon="5.211270620253762"><ele>239.0</ele><time>2026-04-06T12:54:09.984Z</time></trkpt><trkpt lat="47.404814585973206" lon="5.211452143434128"><ele>239.33333333333331</ele><time>2026-04-06T12:54:11.984Z</time></trkpt><trkpt lat="47.40481376003156" lon="5.2116317244380586"><ele>239.66666666666666</ele><time>2026-04-06T12:54:13.984Z</time></trkpt><trkpt lat="47.404816685073335" lon="5.211725171999623"><ele>240.0</ele><time>2026-04-06T12:54:14.984Z</time></trkpt><trkpt lat="47.404827092863336" lon="5.211896360932736"><ele>240.0</ele><time>2026-04-06T12:54:16.984Z</time></trkpt><trkpt lat="47.40483956083689" lon="5.212067326523862"><ele>240.0</ele><time>2026-04-06T12:54:18.984Z</time></trkpt><trkpt lat="47.404851498812285" lon="5.212162492423725"><ele>240.0</ele><time>2026-04-06T12:54:19.984Z</time></trkpt><trkpt lat="47.40486602666091" lon="5.21234335289627"><ele>240.0</ele><time>2026-04-06T12:54:21.984Z</time></trkpt><trkpt lat="47.404872534524856" lon="5.212436011761174"><ele>240.0</ele><time>2026-04-06T12:54:22.984Z</time></trkpt><trkpt lat="47.40487880453857" lon="5.212533511906007"><ele>240.0</ele><time>2026-04-06T12:54:23.984Z</time></trkpt><trkpt lat="47.4048875355889" lon="5.212629458645009"><ele>240.0</ele><time>2026-04-06T12:54:24.984Z</time></trkpt><trkpt lat="47.404896191454945" lon="5.2127237099907315"><ele>240.0</ele><time>2026-04-06T12:54:25.984Z</time></trkpt><trkpt lat="47.40489374080399" lon="5.212820658348154"><ele>240.0</ele><time>2026-04-06T12:54:26.984Z</time></trkpt><trkpt lat="47.40489582382515" lon="5.212922416715611"><ele>240.0</ele><time>2026-04-06T12:54:27.984Z</time></trkpt><trkpt lat="47.404901080205754" lon="5.213022435407238"><ele>240.0</ele><time>2026-04-06T12:54:28.984Z</time></trkpt><trkpt lat="47.40491011279854" lon="5.213127904375145"><ele>240.0</ele><time>2026-04-06T12:54:29.984Z</time></trkpt><trkpt lat="47.40490576635423" lon="5.2132229413809945"><ele>240.0</ele><time>2026-04-06T12:54:30.984Z</time></trkpt><trkpt lat="47.40490728116747" lon="5.2133210046502425"><ele>240.0</ele><time>2026-04-06T12:54:31.984Z</time></trkpt><trkpt lat="47.40490777485736" lon="5.2134266623548"><ele>240.0</ele><time>2026-04-06T12:54:32.984Z</time></trkpt><trkpt lat="47.404909138126435" lon="5.21352945422359"><ele>240.0</ele><time>2026-04-06T12:54:33.984Z</time></trkpt><trkpt lat="47.4049117144262" lon="5.213629544545623"><ele>240.0</ele><time>2026-04-06T12:54:34.984Z</time></trkpt><trkpt lat="47.404912218221405" lon="5.213724465768567"><ele>240.0</ele><time>2026-04-06T12:54:35.984Z</time></trkpt><trkpt lat="47.40490938934737" lon="5.2138222165329635"><ele>240.0</ele><time>2026-04-06T12:54:36.984Z</time></trkpt><trkpt lat="47.404908434673125" lon="5.213919198406478"><ele>240.0</ele><time>2026-04-06T12:54:37.984Z</time></trkpt><trkpt lat="47.40490728658462" lon="5.214012768479795"><ele>239.6</ele><time>2026-04-06T12:54:38.984Z</time></trkpt><trkpt lat="47.40490845039253" lon="5.21419279044333"><ele>239.2</ele><time>2026-04-06T12:54:40.984Z</time></trkpt><trkpt lat="47.404907733279764" lon="5.2143747427885145"><ele>238.8</ele><time>2026-04-06T12:54:42.984Z</time></trkpt><trkpt lat="47.40490393393318" lon="5.2145518081668305"><ele>238.4</ele><time>2026-04-06T12:54:44.984Z</time></trkpt><trkpt lat="47.4049059509151" lon="5.214647896672639"><ele>238.0</ele><time>2026-04-06T12:54:45.984Z</time></trkpt><trkpt lat="47.40490720586186" lon="5.214833755461476"><ele>238.0</ele><time>2026-04-06T12:54:47.984Z</time></trkpt><trkpt lat="47.40491292473909" lon="5.2150190606623035"><ele>238.0</ele><time>2026-04-06T12:54:49.984Z</time></trkpt><trkpt lat="47.404912721294124" lon="5.215203961810922"><ele>238.0</ele><time>2026-04-06T12:54:51.984Z</time></trkpt><trkpt lat="47.404910676418815" lon="5.215299522502049"><ele>238.0</ele><time>2026-04-06T12:54:52.984Z</time></trkpt><trkpt lat="47.40491077658775" lon="5.2153943620599055"><ele>238.0</ele><time>2026-04-06T12:54:53.984Z</time></trkpt><trkpt lat="47.40490990041115" lon="5.2155735199383795"><ele>238.0</ele><time>2026-04-06T12:54:55.984Z</time></trkpt><trkpt lat="47.40490546660247" lon="5.215750184094197"><ele>238.0</ele><time>2026-04-06T12:54:57.984Z</time></trkpt><trkpt lat="47.40489838639758" lon="5.215929161127589"><ele>238.0</ele><time>2026-04-06T12:54:59.984Z</time></trkpt><trkpt lat="47.40488940809032" lon="5.2161081039641015"><ele>238.0</ele><time>2026-04-06T12:55:01.984Z</time></trkpt><trkpt lat="47.404875027161395" lon="5.216282973140018"><ele>238.0</ele><time>2026-04-06T12:55:03.984Z</time></trkpt><trkpt lat="47.40486245107102" lon="5.216463192144227"><ele>238.0</ele><time>2026-04-06T12:55:05.984Z</time></trkpt><trkpt lat="47.404845284477055" lon="5.216639517673609"><ele>238.0</ele><time>2026-04-06T12:55:07.984Z</time></trkpt><trkpt lat="47.404823234100824" lon="5.216812487555276"><ele>238.0</ele><time>2026-04-06T12:55:09.983Z</time></trkpt><trkpt lat="47.40479357179536" lon="5.216980126600801"><ele>238.4</ele><time>2026-04-06T12:55:11.983Z</time></trkpt><trkpt lat="47.40476252133303" lon="5.217142432361384"><ele>238.8</ele><time>2026-04-06T12:55:13.983Z</time></trkpt><trkpt lat="47.4047310822105" lon="5.217303468972714"><ele>239.2</ele><time>2026-04-06T12:55:15.983Z</time></trkpt><trkpt lat="47.40469572958959" lon="5.217456295011237"><ele>239.6</ele><time>2026-04-06T12:55:17.983Z</time></trkpt><trkpt lat="47.404658178755234" lon="5.2176025695233355"><ele>240.0</ele><time>2026-04-06T12:55:19.983Z</time></trkpt><trkpt lat="47.40461713530754" lon="5.217750526957937"><ele>240.4</ele><time>2026-04-06T12:55:21.983Z</time></trkpt><trkpt lat="47.4045788938613" lon="5.217896255441634"><ele>240.8</ele><time>2026-04-06T12:55:23.983Z</time></trkpt><trkpt lat="47.40453465704668" lon="5.2180447993917065"><ele>241.2</ele><time>2026-04-06T12:55:25.983Z</time></trkpt><trkpt lat="47.40448917993513" lon="5.218188131313874"><ele>241.6</ele><time>2026-04-06T12:55:27.982Z</time></trkpt><trkpt lat="47.40444582726506" lon="5.218336486353555"><ele>242.0</ele><time>2026-04-06T12:55:29.983Z</time></trkpt><trkpt lat="47.404406804362246" lon="5.218473480034454"><ele>242.0</ele><time>2026-04-06T12:55:31.983Z</time></trkpt><trkpt lat="47.40435951474795" lon="5.218618515583211"><ele>242.0</ele><time>2026-04-06T12:55:33.983Z</time></trkpt><trkpt lat="47.404309527517455" lon="5.218765640187446"><ele>242.0</ele><time>2026-04-06T12:55:35.982Z</time></trkpt><trkpt lat="47.404260998543755" lon="5.218926893814663"><ele>242.0</ele><time>2026-04-06T12:55:37.982Z</time></trkpt><trkpt lat="47.404232217642296" lon="5.2190105721981315"><ele>242.0</ele><time>2026-04-06T12:55:38.983Z</time></trkpt><trkpt lat="47.404201396470995" lon="5.219096576747944"><ele>241.85714285714283</ele><time>2026-04-06T12:55:39.983Z</time></trkpt><trkpt lat="47.404172056637556" lon="5.219185127710817"><ele>241.7142857142857</ele><time>2026-04-06T12:55:40.983Z</time></trkpt><trkpt lat="47.40414165351104" lon="5.219278805116251"><ele>241.57142857142856</ele><time>2026-04-06T12:55:41.983Z</time></trkpt><trkpt lat="47.404112312122834" lon="5.21936996967596"><ele>241.42857142857144</ele><time>2026-04-06T12:55:42.983Z</time></trkpt><trkpt lat="47.40408136565843" lon="5.21946714080433"><ele>241.2857142857143</ele><time>2026-04-06T12:55:43.983Z</time></trkpt><trkpt lat="47.404051093912855" lon="5.219564688163668"><ele>241.14285714285717</ele><time>2026-04-06T12:55:44.983Z</time></trkpt><trkpt lat="47.40401884518167" lon="5.219663920240553"><ele>241.0</ele><time>2026-04-06T12:55:45.983Z</time></trkpt><trkpt lat="47.403990223566325" lon="5.219763694806648"><ele>240.71428571428572</ele><time>2026-04-06T12:55:46.983Z</time></trkpt><trkpt lat="47.4039508007918" lon="5.219858215642232"><ele>240.42857142857144</ele><time>2026-04-06T12:55:47.983Z</time></trkpt><trkpt lat="47.40391869929649" lon="5.219957109076396"><ele>240.14285714285717</ele><time>2026-04-06T12:55:48.983Z</time></trkpt><trkpt lat="47.40388487782938" lon="5.220049912598477"><ele>239.8571428571429</ele><time>2026-04-06T12:55:49.983Z</time></trkpt><trkpt lat="47.40385391078237" lon="5.220152926418223"><ele>239.57142857142858</ele><time>2026-04-06T12:55:50.983Z</time></trkpt><trkpt lat="47.40381991732284" lon="5.220244216730875"><ele>239.28571428571433</ele><time>2026-04-06T12:55:51.983Z</time></trkpt><trkpt lat="47.403784213080165" lon="5.2203351186580775"><ele>239.00000000000003</ele><time>2026-04-06T12:55:52.983Z</time></trkpt><trkpt lat="47.40374995261765" lon="5.220431579659617"><ele>238.8571428571429</ele><time>2026-04-06T12:55:53.983Z</time></trkpt><trkpt lat="47.403718920058296" lon="5.220523394029011"><ele>238.71428571428572</ele><time>2026-04-06T12:55:54.983Z</time></trkpt><trkpt lat="47.40368836434328" lon="5.220614786289856"><ele>238.57142857142858</ele><time>2026-04-06T12:55:55.983Z</time></trkpt><trkpt lat="47.40365395912703" lon="5.220706174178559"><ele>238.42857142857144</ele><time>2026-04-06T12:55:56.983Z</time></trkpt><trkpt lat="47.40362263460922" lon="5.220795535440778"><ele>238.28571428571428</ele><time>2026-04-06T12:55:57.983Z</time></trkpt><trkpt lat="47.403592340914415" lon="5.220885265195257"><ele>238.14285714285714</ele><time>2026-04-06T12:55:58.983Z</time></trkpt><trkpt lat="47.40356556083065" lon="5.2209776073816965"><ele>238.0</ele><time>2026-04-06T12:55:59.983Z</time></trkpt><trkpt lat="47.40353843825278" lon="5.221070684746043"><ele>238.0</ele><time>2026-04-06T12:56:00.983Z</time></trkpt><trkpt lat="47.40351149961144" lon="5.221159804354029"><ele>238.0</ele><time>2026-04-06T12:56:01.983Z</time></trkpt><trkpt lat="47.40348236929484" lon="5.221254462991343"><ele>238.0</ele><time>2026-04-06T12:56:02.983Z</time></trkpt><trkpt lat="47.4034556700807" lon="5.221351291991065"><ele>238.0</ele><time>2026-04-06T12:56:03.983Z</time></trkpt><trkpt lat="47.40343081837518" lon="5.221451851305965"><ele>238.0</ele><time>2026-04-06T12:56:04.983Z</time></trkpt><trkpt lat="47.403409924992744" lon="5.221556254264459"><ele>238.0</ele><time>2026-04-06T12:56:05.983Z</time></trkpt><trkpt lat="47.40339164896676" lon="5.221662960391193"><ele>238.0</ele><time>2026-04-06T12:56:06.983Z</time></trkpt><trkpt lat="47.40337345391997" lon="5.221768942712318"><ele>237.85714285714286</ele><time>2026-04-06T12:56:07.983Z</time></trkpt><trkpt lat="47.403354372192545" lon="5.221871901731094"><ele>237.71428571428572</ele><time>2026-04-06T12:56:08.983Z</time></trkpt><trkpt lat="47.403330600550554" lon="5.221979069790412"><ele>237.57142857142856</ele><time>2026-04-06T12:56:09.983Z</time></trkpt><trkpt lat="47.40331150264124" lon="5.222085671745626"><ele>237.42857142857142</ele><time>2026-04-06T12:56:10.983Z</time></trkpt><trkpt lat="47.40328753272086" lon="5.2221936847767045"><ele>237.28571428571428</ele><time>2026-04-06T12:56:11.983Z</time></trkpt><trkpt lat="47.40326374410699" lon="5.222299019928548"><ele>237.1428571428571</ele><time>2026-04-06T12:56:12.983Z</time></trkpt><trkpt lat="47.40324771664564" lon="5.222405199317696"><ele>236.99999999999997</ele><time>2026-04-06T12:56:13.983Z</time></trkpt><trkpt lat="47.40323065110282" lon="5.22251287515804"><ele>236.85714285714283</ele><time>2026-04-06T12:56:14.983Z</time></trkpt><trkpt lat="47.40321401015561" lon="5.222625658195113"><ele>236.71428571428572</ele><time>2026-04-06T12:56:15.983Z</time></trkpt><trkpt lat="47.403201024464046" lon="5.222728467304295"><ele>236.57142857142856</ele><time>2026-04-06T12:56:16.983Z</time></trkpt><trkpt lat="47.403175548761006" lon="5.222828816095257"><ele>236.42857142857142</ele><time>2026-04-06T12:56:17.983Z</time></trkpt><trkpt lat="47.40314950274402" lon="5.222920183966578"><ele>236.28571428571428</ele><time>2026-04-06T12:56:18.983Z</time></trkpt><trkpt lat="47.40312837063843" lon="5.223016952275216"><ele>236.14285714285714</ele><time>2026-04-06T12:56:19.983Z</time></trkpt><trkpt lat="47.40311248354351" lon="5.223110642543905"><ele>236.0</ele><time>2026-04-06T12:56:20.983Z</time></trkpt><trkpt lat="47.403091654686826" lon="5.223202231752356"><ele>236.00000000000003</ele><time>2026-04-06T12:56:21.983Z</time></trkpt><trkpt lat="47.40307554218221" lon="5.223293240478519"><ele>236.0</ele><time>2026-04-06T12:56:22.983Z</time></trkpt><trkpt lat="47.40307603790954" lon="5.223478671732489"><ele>236.0</ele><time>2026-04-06T12:56:24.982Z</time></trkpt><trkpt lat="47.40311702222854" lon="5.223564202858445"><ele>236.0</ele><time>2026-04-06T12:56:25.982Z</time></trkpt><trkpt lat="47.40318271604135" lon="5.223605927404408"><ele>236.00000000000003</ele><time>2026-04-06T12:56:26.982Z</time></trkpt><trkpt lat="47.403254371658726" lon="5.2236227981353345"><ele>236.0</ele><time>2026-04-06T12:56:27.982Z</time></trkpt><trkpt lat="47.40331796244208" lon="5.223631486119323"><ele>236.0</ele><time>2026-04-06T12:56:28.982Z</time></trkpt><trkpt lat="47.403434016965335" lon="5.223650789327493"><ele>236.0</ele><time>2026-04-06T12:56:30.982Z</time></trkpt><trkpt lat="47.40355607080574" lon="5.223676486013673"><ele>236.0</ele><time>2026-04-06T12:56:32.982Z</time></trkpt><trkpt lat="47.40367158508141" lon="5.223709773157894"><ele>236.0</ele><time>2026-04-06T12:56:34.982Z</time></trkpt><trkpt lat="47.403788320576204" lon="5.223736575971958"><ele>236.20000000000002</ele><time>2026-04-06T12:56:36.982Z</time></trkpt><trkpt lat="47.40390055738247" lon="5.2237542183076435"><ele>236.40000000000003</ele><time>2026-04-06T12:56:38.982Z</time></trkpt><trkpt lat="47.40400351488398" lon="5.223786334763686"><ele>236.6</ele><time>2026-04-06T12:56:40.982Z</time></trkpt><trkpt lat="47.40410111800568" lon="5.223810745666509"><ele>236.8</ele><time>2026-04-06T12:56:42.982Z</time></trkpt><trkpt lat="47.404214508907785" lon="5.223846895184289"><ele>237.0</ele><time>2026-04-06T12:56:44.982Z</time></trkpt><trkpt lat="47.40432339284925" lon="5.223928829243746"><ele>237.5</ele><time>2026-04-06T12:56:46.982Z</time></trkpt><trkpt lat="47.40443413259295" lon="5.223995955635873"><ele>238.0</ele><time>2026-04-06T12:56:48.982Z</time></trkpt><trkpt lat="47.40454225232317" lon="5.224058357813817"><ele>238.5</ele><time>2026-04-06T12:56:50.982Z</time></trkpt><trkpt lat="47.40465260597019" lon="5.22411833080871"><ele>239.0</ele><time>2026-04-06T12:56:52.982Z</time></trkpt><trkpt lat="47.40475409771727" lon="5.2241762623365515"><ele>239.0</ele><time>2026-04-06T12:56:54.982Z</time></trkpt><trkpt lat="47.40485276344515" lon="5.224231836950227"><ele>238.99999999999997</ele><time>2026-04-06T12:56:56.982Z</time></trkpt><trkpt lat="47.40495032270761" lon="5.224271398684626"><ele>238.99999999999997</ele><time>2026-04-06T12:56:58.982Z</time></trkpt><trkpt lat="47.40504580858958" lon="5.224315150055124"><ele>239.0</ele><time>2026-04-06T12:57:00.982Z</time></trkpt><trkpt lat="47.405150938828335" lon="5.224340801364966"><ele>239.0</ele><time>2026-04-06T12:57:02.982Z</time></trkpt><trkpt lat="47.405242227983294" lon="5.224365697489493"><ele>239.0</ele><time>2026-04-06T12:57:04.982Z</time></trkpt><trkpt lat="47.405164181593165" lon="5.224351024015697"><ele>238.99999999999997</ele><time>2026-04-06T12:58:07.981Z</time></trkpt><trkpt lat="47.40506791129849" lon="5.224317954082128"><ele>238.99999999999997</ele><time>2026-04-06T12:58:09.981Z</time></trkpt><trkpt lat="47.404969810095785" lon="5.224305764572778"><ele>239.0</ele><time>2026-04-06T12:58:11.981Z</time></trkpt><trkpt lat="47.40486571063666" lon="5.224256480104964"><ele>239.0</ele><time>2026-04-06T12:58:13.981Z</time></trkpt><trkpt lat="47.40476130409662" lon="5.224202102007587"><ele>239.00000000000003</ele><time>2026-04-06T12:58:15.981Z</time></trkpt><trkpt lat="47.404724635093444" lon="5.224123226219123"><ele>239.0</ele><time>2026-04-06T12:58:16.981Z</time></trkpt><trkpt lat="47.404607590149645" lon="5.224056074160936"><ele>239.0</ele><time>2026-04-06T12:58:18.981Z</time></trkpt><trkpt lat="47.40453833967976" lon="5.224064949058681"><ele>239.0</ele><time>2026-04-06T12:58:19.981Z</time></trkpt><trkpt lat="47.4044800313465" lon="5.224027543428402"><ele>239.00000000000003</ele><time>2026-04-06T12:58:20.981Z</time></trkpt><trkpt lat="47.40436348543967" lon="5.223964711899366"><ele>239.0</ele><time>2026-04-06T12:58:22.981Z</time></trkpt><trkpt lat="47.40424739097388" lon="5.2239020434306935"><ele>238.6</ele><time>2026-04-06T12:58:24.981Z</time></trkpt><trkpt lat="47.40413645619784" lon="5.223850516859941"><ele>238.2</ele><time>2026-04-06T12:58:26.981Z</time></trkpt><trkpt lat="47.404027013058766" lon="5.223813729455582"><ele>237.79999999999998</ele><time>2026-04-06T12:58:28.981Z</time></trkpt><trkpt lat="47.40396453590415" lon="5.22379870759888"><ele>237.39999999999998</ele><time>2026-04-06T12:58:29.981Z</time></trkpt><trkpt lat="47.40383875934876" lon="5.22376952740462"><ele>237.0</ele><time>2026-04-06T12:58:31.981Z</time></trkpt><trkpt lat="47.40371535231339" lon="5.223744696461736"><ele>236.83333333333334</ele><time>2026-04-06T12:58:33.981Z</time></trkpt><trkpt lat="47.40365086044368" lon="5.223727367287463"><ele>236.66666666666669</ele><time>2026-04-06T12:58:34.981Z</time></trkpt><trkpt lat="47.40358704657378" lon="5.223714057859306"><ele>236.5</ele><time>2026-04-06T12:58:35.981Z</time></trkpt><trkpt lat="47.40352214279777" lon="5.223699339452993"><ele>236.33333333333334</ele><time>2026-04-06T12:58:36.981Z</time></trkpt><trkpt lat="47.40340552010757" lon="5.22365721557055"><ele>236.16666666666669</ele><time>2026-04-06T12:58:38.981Z</time></trkpt><trkpt lat="47.40329225148212" lon="5.223615656055422"><ele>236.0</ele><time>2026-04-06T12:58:40.981Z</time></trkpt><trkpt lat="47.40319137717558" lon="5.223601678250334"><ele>236.00000000000003</ele><time>2026-04-06T12:58:42.981Z</time></trkpt><trkpt lat="47.403108766061244" lon="5.223552620957902"><ele>236.0</ele><time>2026-04-06T12:58:44.981Z</time></trkpt><trkpt lat="47.40302906711035" lon="5.223585034240114"><ele>236.0</ele><time>2026-04-06T12:58:47.981Z</time></trkpt><trkpt lat="47.40300243607244" lon="5.223677454747984"><ele>236.0</ele><time>2026-04-06T12:58:49.981Z</time></trkpt><trkpt lat="47.40297619714413" lon="5.2237813035749285"><ele>236.00000000000003</ele><time>2026-04-06T12:58:51.981Z</time></trkpt><trkpt lat="47.40294397902005" lon="5.22387686741458"><ele>236.0</ele><time>2026-04-06T12:58:53.981Z</time></trkpt><trkpt lat="47.402913211911375" lon="5.223983941680701"><ele>236.0</ele><time>2026-04-06T12:58:55.981Z</time></trkpt><trkpt lat="47.402877195546594" lon="5.224098606778341"><ele>236.00000000000003</ele><time>2026-04-06T12:58:57.981Z</time></trkpt><trkpt lat="47.40283266364775" lon="5.224228278756976"><ele>236.00000000000003</ele><time>2026-04-06T12:58:59.981Z</time></trkpt><trkpt lat="47.402774758664634" lon="5.2243772601989305"><ele>236.0</ele><time>2026-04-06T12:59:01.981Z</time></trkpt><trkpt lat="47.402729360566894" lon="5.224531059212088"><ele>236.0</ele><time>2026-04-06T12:59:03.981Z</time></trkpt><trkpt lat="47.40267992914591" lon="5.224676294146969"><ele>236.4</ele><time>2026-04-06T12:59:05.981Z</time></trkpt><trkpt lat="47.40263544258305" lon="5.224826122027606"><ele>236.8</ele><time>2026-04-06T12:59:07.981Z</time></trkpt><trkpt lat="47.40258038671256" lon="5.224996980755189"><ele>237.20000000000002</ele><time>2026-04-06T12:59:09.981Z</time></trkpt><trkpt lat="47.40251944622786" lon="5.225167025455491"><ele>237.60000000000002</ele><time>2026-04-06T12:59:11.981Z</time></trkpt><trkpt lat="47.40248683227347" lon="5.225250634337781"><ele>238.0</ele><time>2026-04-06T12:59:12.981Z</time></trkpt><trkpt lat="47.402434878606414" lon="5.2254043537104735"><ele>238.0</ele><time>2026-04-06T12:59:14.981Z</time></trkpt><trkpt lat="47.40238643498407" lon="5.225556837701995"><ele>238.0</ele><time>2026-04-06T12:59:16.981Z</time></trkpt><trkpt lat="47.402340852829596" lon="5.225700877699007"><ele>238.0</ele><time>2026-04-06T12:59:18.981Z</time></trkpt><trkpt lat="47.40229050267455" lon="5.225839215890273"><ele>238.0</ele><time>2026-04-06T12:59:20.981Z</time></trkpt><trkpt lat="47.402238106277245" lon="5.225971514058234"><ele>238.0</ele><time>2026-04-06T12:59:22.981Z</time></trkpt><trkpt lat="47.402201677478004" lon="5.226102291292933"><ele>237.8</ele><time>2026-04-06T12:59:24.981Z</time></trkpt><trkpt lat="47.40216535973627" lon="5.226213118909664"><ele>237.60000000000002</ele><time>2026-04-06T12:59:26.981Z</time></trkpt><trkpt lat="47.4021300212669" lon="5.226309154310978"><ele>237.39999999999998</ele><time>2026-04-06T12:59:28.981Z</time></trkpt><trkpt lat="47.40208863597441" lon="5.226428736584721"><ele>237.2</ele><time>2026-04-06T12:59:30.981Z</time></trkpt><trkpt lat="47.40203302948271" lon="5.226562068055118"><ele>237.0</ele><time>2026-04-06T12:59:32.981Z</time></trkpt><trkpt lat="47.40198639752372" lon="5.226718308963116"><ele>238.0</ele><time>2026-04-06T12:59:34.981Z</time></trkpt><trkpt lat="47.40192970395717" lon="5.226870076611452"><ele>239.0</ele><time>2026-04-06T12:59:36.981Z</time></trkpt><trkpt lat="47.40187087364323" lon="5.227028057451529"><ele>240.0</ele><time>2026-04-06T12:59:38.98Z</time></trkpt><trkpt lat="47.40181598669732" lon="5.227185704833913"><ele>241.0</ele><time>2026-04-06T12:59:40.98Z</time></trkpt><trkpt lat="47.40177135486772" lon="5.227338954181778"><ele>241.0</ele><time>2026-04-06T12:59:42.979Z</time></trkpt><trkpt lat="47.40171524925075" lon="5.227489940640983"><ele>241.0</ele><time>2026-04-06T12:59:44.98Z</time></trkpt><trkpt lat="47.40166272843816" lon="5.2276448496244905"><ele>241.0</ele><time>2026-04-06T12:59:46.98Z</time></trkpt><trkpt lat="47.401610724199266" lon="5.227793888460544"><ele>241.0</ele><time>2026-04-06T12:59:48.979Z</time></trkpt><trkpt lat="47.40155967941594" lon="5.227936346875062"><ele>241.0</ele><time>2026-04-06T12:59:50.979Z</time></trkpt><trkpt lat="47.401509341304674" lon="5.2280806455955195"><ele>241.00000000000003</ele><time>2026-04-06T12:59:52.98Z</time></trkpt><trkpt lat="47.40146167224631" lon="5.2282254152514005"><ele>241.00000000000003</ele><time>2026-04-06T12:59:54.98Z</time></trkpt><trkpt lat="47.401414224483155" lon="5.22836706044484"><ele>241.0</ele><time>2026-04-06T12:59:56.98Z</time></trkpt><trkpt lat="47.401364921541074" lon="5.228512159785665"><ele>241.0</ele><time>2026-04-06T12:59:58.98Z</time></trkpt><trkpt lat="47.40131045277738" lon="5.228649702194481"><ele>242.0</ele><time>2026-04-06T13:00:00.98Z</time></trkpt><trkpt lat="47.40124869642267" lon="5.2287896483666225"><ele>243.0</ele><time>2026-04-06T13:00:02.98Z</time></trkpt><trkpt lat="47.401187047319" lon="5.228933982627383"><ele>244.0</ele><time>2026-04-06T13:00:04.98Z</time></trkpt><trkpt lat="47.40112048933171" lon="5.2290825473010045"><ele>245.0</ele><time>2026-04-06T13:00:06.98Z</time></trkpt><trkpt lat="47.401053834782175" lon="5.2292227866904115"><ele>245.25</ele><time>2026-04-06T13:00:08.98Z</time></trkpt><trkpt lat="47.40097785980932" lon="5.229353791576292"><ele>245.5</ele><time>2026-04-06T13:00:10.98Z</time></trkpt><trkpt lat="47.400907007347655" lon="5.229498505369432"><ele>245.75</ele><time>2026-04-06T13:00:12.98Z</time></trkpt><trkpt lat="47.40083489179593" lon="5.2296391741319415"><ele>246.0</ele><time>2026-04-06T13:00:14.98Z</time></trkpt><trkpt lat="47.40076035472998" lon="5.229772754524983"><ele>246.20000000000002</ele><time>2026-04-06T13:00:16.98Z</time></trkpt><trkpt lat="47.40069201921013" lon="5.229904929726574"><ele>246.40000000000003</ele><time>2026-04-06T13:00:18.98Z</time></trkpt><trkpt lat="47.400632769045025" lon="5.230040839066046"><ele>246.6</ele><time>2026-04-06T13:00:20.979Z</time></trkpt><trkpt lat="47.400572353080186" lon="5.230156215940904"><ele>246.8</ele><time>2026-04-06T13:00:22.979Z</time></trkpt><trkpt lat="47.400554572579445" lon="5.230293939714561"><ele>247.0</ele><time>2026-04-06T13:00:24.979Z</time></trkpt><trkpt lat="47.40063554540353" lon="5.230417566734796"><ele>247.0</ele><time>2026-04-06T13:00:26.979Z</time></trkpt><trkpt lat="47.40069501554052" lon="5.230450981045873"><ele>247.0</ele><time>2026-04-06T13:00:27.979Z</time></trkpt><trkpt lat="47.40082024305786" lon="5.230490132843345"><ele>247.0</ele><time>2026-04-06T13:00:29.979Z</time></trkpt><trkpt lat="47.40094282608128" lon="5.230541407920534"><ele>247.0</ele><time>2026-04-06T13:00:31.979Z</time></trkpt><trkpt lat="47.40106115566654" lon="5.230600134816376"><ele>247.0</ele><time>2026-04-06T13:00:33.979Z</time></trkpt><trkpt lat="47.401119859407544" lon="5.230634434425109"><ele>246.8</ele><time>2026-04-06T13:00:34.979Z</time></trkpt><trkpt lat="47.40123529298086" lon="5.230693402698263"><ele>246.6</ele><time>2026-04-06T13:00:36.979Z</time></trkpt><trkpt lat="47.40129669147595" lon="5.230721185227769"><ele>246.40000000000003</ele><time>2026-04-06T13:00:37.979Z</time></trkpt><trkpt lat="47.40141607022394" lon="5.230777376617675"><ele>246.20000000000002</ele><time>2026-04-06T13:00:39.979Z</time></trkpt><trkpt lat="47.40147838077997" lon="5.230804312172328"><ele>246.0</ele><time>2026-04-06T13:00:40.979Z</time></trkpt><trkpt lat="47.401591578550644" lon="5.230870047689405"><ele>246.0</ele><time>2026-04-06T13:00:42.979Z</time></trkpt><trkpt lat="47.401714252715294" lon="5.230921978685159"><ele>246.0</ele><time>2026-04-06T13:00:44.979Z</time></trkpt><trkpt lat="47.401829946221206" lon="5.230975731293741"><ele>246.0</ele><time>2026-04-06T13:00:46.979Z</time></trkpt><trkpt lat="47.401943248448006" lon="5.231037783347837"><ele>246.0</ele><time>2026-04-06T13:00:48.979Z</time></trkpt><trkpt lat="47.402058461551825" lon="5.231078445886167"><ele>246.20000000000002</ele><time>2026-04-06T13:00:50.979Z</time></trkpt><trkpt lat="47.40216887695748" lon="5.231115813335637"><ele>246.40000000000003</ele><time>2026-04-06T13:00:52.979Z</time></trkpt><trkpt lat="47.40227328155148" lon="5.231127805726563"><ele>246.6</ele><time>2026-04-06T13:00:54.979Z</time></trkpt><trkpt lat="47.40238263375781" lon="5.2311419010959"><ele>246.8</ele><time>2026-04-06T13:00:56.979Z</time></trkpt><trkpt lat="47.40248661165736" lon="5.231145701798997"><ele>247.0</ele><time>2026-04-06T13:00:58.979Z</time></trkpt><trkpt lat="47.40258953058174" lon="5.231164975485055"><ele>247.0</ele><time>2026-04-06T13:01:00.979Z</time></trkpt><trkpt lat="47.402699039138014" lon="5.231164812906983"><ele>247.0</ele><time>2026-04-06T13:01:02.979Z</time></trkpt><trkpt lat="47.4028078860542" lon="5.231176289905707"><ele>247.0</ele><time>2026-04-06T13:01:04.979Z</time></trkpt><trkpt lat="47.40292137752159" lon="5.231187392297996"><ele>247.0</ele><time>2026-04-06T13:01:06.979Z</time></trkpt><trkpt lat="47.40303628993223" lon="5.231187592103728"><ele>247.0</ele><time>2026-04-06T13:01:08.979Z</time></trkpt><trkpt lat="47.40314791521817" lon="5.231200868212929"><ele>246.83333333333331</ele><time>2026-04-06T13:01:10.979Z</time></trkpt><trkpt lat="47.40326765361586" lon="5.231206795659849"><ele>246.66666666666666</ele><time>2026-04-06T13:01:12.979Z</time></trkpt><trkpt lat="47.40333155849962" lon="5.2312094632025605"><ele>246.5</ele><time>2026-04-06T13:01:13.979Z</time></trkpt><trkpt lat="47.40339438782256" lon="5.231219654086197"><ele>246.33333333333331</ele><time>2026-04-06T13:01:14.979Z</time></trkpt><trkpt lat="47.403524481109336" lon="5.23122359664776"><ele>246.16666666666666</ele><time>2026-04-06T13:01:16.979Z</time></trkpt><trkpt lat="47.4035893706147" lon="5.231226229312334"><ele>246.0</ele><time>2026-04-06T13:01:17.979Z</time></trkpt><trkpt lat="47.40365341098723" lon="5.2312262780065435"><ele>246.0</ele><time>2026-04-06T13:01:18.979Z</time></trkpt><trkpt lat="47.40371671990694" lon="5.231221666754257"><ele>246.0</ele><time>2026-04-06T13:01:19.979Z</time></trkpt><trkpt lat="47.40384355148168" lon="5.231244738784153"><ele>246.0</ele><time>2026-04-06T13:01:21.979Z</time></trkpt><trkpt lat="47.403909921130655" lon="5.231253156479328"><ele>246.0</ele><time>2026-04-06T13:01:22.979Z</time></trkpt><trkpt lat="47.40397581180631" lon="5.2312558534002"><ele>246.0</ele><time>2026-04-06T13:01:23.979Z</time></trkpt><trkpt lat="47.404039302448" lon="5.2312638268974245"><ele>246.0</ele><time>2026-04-06T13:01:24.979Z</time></trkpt><trkpt lat="47.404102892662586" lon="5.231272627651916"><ele>245.60000000000002</ele><time>2026-04-06T13:01:25.979Z</time></trkpt><trkpt lat="47.40422880531535" lon="5.231281596934437"><ele>245.20000000000002</ele><time>2026-04-06T13:01:27.979Z</time></trkpt><trkpt lat="47.40434702316754" lon="5.231303043892906"><ele>244.79999999999998</ele><time>2026-04-06T13:01:29.979Z</time></trkpt><trkpt lat="47.40446277515894" lon="5.231355306880234"><ele>244.39999999999998</ele><time>2026-04-06T13:01:31.979Z</time></trkpt><trkpt lat="47.404524545042825" lon="5.231392583250733"><ele>244.0</ele><time>2026-04-06T13:01:32.979Z</time></trkpt><trkpt lat="47.40458021919338" lon="5.231439090786561"><ele>244.0</ele><time>2026-04-06T13:01:33.979Z</time></trkpt><trkpt lat="47.404684571077446" lon="5.231532637514381"><ele>244.0</ele><time>2026-04-06T13:01:35.979Z</time></trkpt><trkpt lat="47.404784045849325" lon="5.2316373179569915"><ele>244.0</ele><time>2026-04-06T13:01:37.979Z</time></trkpt><trkpt lat="47.40488632990252" lon="5.23173153933039"><ele>244.0</ele><time>2026-04-06T13:01:39.979Z</time></trkpt><trkpt lat="47.404990586104695" lon="5.231736086273991"><ele>243.99999999999997</ele><time>2026-04-06T13:01:41.979Z</time></trkpt><trkpt lat="47.40505058916357" lon="5.231702863630972"><ele>244.0</ele><time>2026-04-06T13:01:44.979Z</time></trkpt><trkpt lat="47.4051164766104" lon="5.231771232362484"><ele>243.99999999999997</ele><time>2026-04-06T13:01:48.978Z</time></trkpt><trkpt lat="47.40516748611812" lon="5.231829665710224"><ele>243.99999999999997</ele><time>2026-04-06T13:01:50.978Z</time></trkpt><trkpt lat="47.40523266705069" lon="5.231873587223848"><ele>244.0</ele><time>2026-04-06T13:01:53.978Z</time></trkpt><trkpt lat="47.40529237862283" lon="5.231905610015739"><ele>243.99999999999997</ele><time>2026-04-06T13:02:11.978Z</time></trkpt><trkpt lat="47.4053839399081" lon="5.231981924980665"><ele>243.99999999999997</ele><time>2026-04-06T13:02:14.978Z</time></trkpt><trkpt lat="47.40546354203863" lon="5.2320628920598375"><ele>243.79999999999998</ele><time>2026-04-06T13:02:16.978Z</time></trkpt><trkpt lat="47.40555883869821" lon="5.232131105590558"><ele>243.59999999999997</ele><time>2026-04-06T13:02:18.978Z</time></trkpt><trkpt lat="47.4056538897216" lon="5.232202234148489"><ele>243.4</ele><time>2026-04-06T13:02:20.978Z</time></trkpt><trkpt lat="47.405759073687996" lon="5.2322799603122405"><ele>243.2</ele><time>2026-04-06T13:02:22.978Z</time></trkpt><trkpt lat="47.40581737467819" lon="5.232324464601547"><ele>243.0</ele><time>2026-04-06T13:02:23.978Z</time></trkpt><trkpt lat="47.40592321616791" lon="5.232399679287287"><ele>243.0</ele><time>2026-04-06T13:02:25.978Z</time></trkpt><trkpt lat="47.40603281315588" lon="5.232478510395173"><ele>243.0</ele><time>2026-04-06T13:02:27.978Z</time></trkpt><trkpt lat="47.406135882297534" lon="5.2325647383372615"><ele>243.0</ele><time>2026-04-06T13:02:29.978Z</time></trkpt><trkpt lat="47.40623796616822" lon="5.232650874579399"><ele>243.0</ele><time>2026-04-06T13:02:31.978Z</time></trkpt><trkpt lat="47.40634415661168" lon="5.2327305570404015"><ele>243.2</ele><time>2026-04-06T13:02:33.978Z</time></trkpt><trkpt lat="47.40643539117672" lon="5.232808459211789"><ele>243.4</ele><time>2026-04-06T13:02:35.978Z</time></trkpt><trkpt lat="47.406526678728994" lon="5.232880218252127"><ele>243.59999999999997</ele><time>2026-04-06T13:02:37.978Z</time></trkpt><trkpt lat="47.40661765969559" lon="5.232950380847689"><ele>243.79999999999998</ele><time>2026-04-06T13:02:39.978Z</time></trkpt><trkpt lat="47.40670228837543" lon="5.2330258836783035"><ele>244.0</ele><time>2026-04-06T13:02:41.978Z</time></trkpt><trkpt lat="47.40679236063976" lon="5.233103070095914"><ele>243.99999999999997</ele><time>2026-04-06T13:02:43.978Z</time></trkpt><trkpt lat="47.406884411190745" lon="5.2332005394405465"><ele>244.0</ele><time>2026-04-06T13:02:45.978Z</time></trkpt><trkpt lat="47.40698588185551" lon="5.233310878406389"><ele>244.0</ele><time>2026-04-06T13:02:47.978Z</time></trkpt><trkpt lat="47.40704161068417" lon="5.233366094391426"><ele>244.0</ele><time>2026-04-06T13:02:48.978Z</time></trkpt><trkpt lat="47.40709507333975" lon="5.233425483487641"><ele>243.99999999999997</ele><time>2026-04-06T13:02:49.978Z</time></trkpt><trkpt lat="47.407150943413136" lon="5.233487596604929"><ele>244.0</ele><time>2026-04-06T13:02:50.978Z</time></trkpt><trkpt lat="47.40724483590331" lon="5.233585172520001"><ele>244.0</ele><time>2026-04-06T13:02:52.978Z</time></trkpt><trkpt lat="47.40733938460493" lon="5.233683612165409"><ele>243.99999999999997</ele><time>2026-04-06T13:02:54.978Z</time></trkpt><trkpt lat="47.40743381882991" lon="5.233781303890681"><ele>243.99999999999997</ele><time>2026-04-06T13:02:56.978Z</time></trkpt><trkpt lat="47.40748512424926" lon="5.233837513803011"><ele>244.0</ele><time>2026-04-06T13:02:57.978Z</time></trkpt><trkpt lat="47.40759497049131" lon="5.233945604262782"><ele>244.0</ele><time>2026-04-06T13:02:59.978Z</time></trkpt><trkpt lat="47.40765401812444" lon="5.233994252546273"><ele>243.79999999999998</ele><time>2026-04-06T13:03:00.978Z</time></trkpt><trkpt lat="47.407727165263196" lon="5.234075358080497"><ele>243.59999999999997</ele><time>2026-04-06T13:03:01.978Z</time></trkpt><trkpt lat="47.40780352883157" lon="5.234155370318693"><ele>243.4</ele><time>2026-04-06T13:03:03.978Z</time></trkpt><trkpt lat="47.40790521116179" lon="5.234259362642953"><ele>243.2</ele><time>2026-04-06T13:03:05.978Z</time></trkpt><trkpt lat="47.40795629276572" lon="5.2343220884624335"><ele>243.0</ele><time>2026-04-06T13:03:06.978Z</time></trkpt><trkpt lat="47.40805648307698" lon="5.234434986496199"><ele>242.71428571428572</ele><time>2026-04-06T13:03:08.978Z</time></trkpt><trkpt lat="47.4081127583118" lon="5.234494632473564"><ele>242.42857142857144</ele><time>2026-04-06T13:03:09.978Z</time></trkpt><trkpt lat="47.40816298049741" lon="5.234555696077442"><ele>242.14285714285717</ele><time>2026-04-06T13:03:10.978Z</time></trkpt><trkpt lat="47.40821826845604" lon="5.234616272752679"><ele>241.85714285714286</ele><time>2026-04-06T13:03:11.978Z</time></trkpt><trkpt lat="47.40827342557371" lon="5.234683126345217"><ele>241.5714285714286</ele><time>2026-04-06T13:03:12.978Z</time></trkpt><trkpt lat="47.40832950723954" lon="5.234749940136754"><ele>241.2857142857143</ele><time>2026-04-06T13:03:13.978Z</time></trkpt><trkpt lat="47.408382987344716" lon="5.234811264162776"><ele>241.0</ele><time>2026-04-06T13:03:14.978Z</time></trkpt><trkpt lat="47.40843716308628" lon="5.234871211328295"><ele>240.99999999999997</ele><time>2026-04-06T13:03:15.977Z</time></trkpt><trkpt lat="47.40848976179831" lon="5.2349338941807995"><ele>241.0</ele><time>2026-04-06T13:03:16.977Z</time></trkpt><trkpt lat="47.40854214291274" lon="5.234996534303951"><ele>241.0</ele><time>2026-04-06T13:03:17.977Z</time></trkpt><trkpt lat="47.40859414428251" lon="5.235057561343257"><ele>241.0</ele><time>2026-04-06T13:03:18.977Z</time></trkpt><trkpt lat="47.40864594902322" lon="5.235112465850629"><ele>240.99999999999997</ele><time>2026-04-06T13:03:19.977Z</time></trkpt><trkpt lat="47.40869718834117" lon="5.2351690999763365"><ele>241.0</ele><time>2026-04-06T13:03:20.977Z</time></trkpt><trkpt lat="47.408798731912526" lon="5.235271532287471"><ele>241.0</ele><time>2026-04-06T13:03:22.977Z</time></trkpt><trkpt lat="47.40885043367342" lon="5.235330804878086"><ele>241.00000000000003</ele><time>2026-04-06T13:03:23.977Z</time></trkpt><trkpt lat="47.40893682495357" lon="5.235440341364513"><ele>241.00000000000003</ele><time>2026-04-06T13:03:25.977Z</time></trkpt><trkpt lat="47.409021166721224" lon="5.235553885959668"><ele>241.0</ele><time>2026-04-06T13:03:27.977Z</time></trkpt><trkpt lat="47.40911747870697" lon="5.235653002487751"><ele>241.0</ele><time>2026-04-06T13:03:29.977Z</time></trkpt><trkpt lat="47.40920563542674" lon="5.235760333407414"><ele>241.0</ele><time>2026-04-06T13:03:31.977Z</time></trkpt><trkpt lat="47.40930204149747" lon="5.235860357069804"><ele>241.0</ele><time>2026-04-06T13:03:33.977Z</time></trkpt><trkpt lat="47.40939604698271" lon="5.235956215783652"><ele>241.0</ele><time>2026-04-06T13:03:35.977Z</time></trkpt><trkpt lat="47.40948538319115" lon="5.236046417746427"><ele>241.0</ele><time>2026-04-06T13:03:37.977Z</time></trkpt><trkpt lat="47.40957688715211" lon="5.236139841086422"><ele>241.4</ele><time>2026-04-06T13:03:39.977Z</time></trkpt><trkpt lat="47.40966920206025" lon="5.23622236118357"><ele>241.8</ele><time>2026-04-06T13:03:41.977Z</time></trkpt><trkpt lat="47.40975890738242" lon="5.236309485930443"><ele>242.20000000000002</ele><time>2026-04-06T13:03:43.977Z</time></trkpt><trkpt lat="47.40985641591633" lon="5.236387096368379"><ele>242.60000000000002</ele><time>2026-04-06T13:03:45.977Z</time></trkpt><trkpt lat="47.40994742099175" lon="5.23647281616794"><ele>243.0</ele><time>2026-04-06T13:03:47.977Z</time></trkpt><trkpt lat="47.41004869960055" lon="5.236569831773687"><ele>243.0</ele><time>2026-04-06T13:03:49.977Z</time></trkpt><trkpt lat="47.41012417039922" lon="5.236665313978241"><ele>243.0</ele><time>2026-04-06T13:03:51.976Z</time></trkpt><trkpt lat="47.41019653117867" lon="5.236717095774729"><ele>243.0</ele><time>2026-04-06T13:03:52.976Z</time></trkpt><trkpt lat="47.410303038075654" lon="5.236814020051168"><ele>243.0</ele><time>2026-04-06T13:03:54.977Z</time></trkpt><trkpt lat="47.410404732351545" lon="5.23691192692327"><ele>243.0</ele><time>2026-04-06T13:03:56.977Z</time></trkpt><trkpt lat="47.4104605283958" lon="5.236967579609137"><ele>242.75</ele><time>2026-04-06T13:03:57.977Z</time></trkpt><trkpt lat="47.41056852136107" lon="5.237058302627802"><ele>242.5</ele><time>2026-04-06T13:03:59.976Z</time></trkpt><trkpt lat="47.410678998731974" lon="5.237157342821292"><ele>242.25</ele><time>2026-04-06T13:04:01.977Z</time></trkpt><trkpt lat="47.41079155805473" lon="5.237259463085018"><ele>242.0</ele><time>2026-04-06T13:04:03.976Z</time></trkpt><trkpt lat="47.410891842103915" lon="5.237355149610677"><ele>242.00000000000003</ele><time>2026-04-06T13:04:05.976Z</time></trkpt><trkpt lat="47.410948767211266" lon="5.237405271684291"><ele>242.0</ele><time>2026-04-06T13:04:06.976Z</time></trkpt><trkpt lat="47.41100578094688" lon="5.237454000058421"><ele>242.0</ele><time>2026-04-06T13:04:07.976Z</time></trkpt><trkpt lat="47.41110813016602" lon="5.237556888747519"><ele>242.0</ele><time>2026-04-06T13:04:09.976Z</time></trkpt><trkpt lat="47.41121289417206" lon="5.237650304301316"><ele>242.00000000000003</ele><time>2026-04-06T13:04:11.976Z</time></trkpt><trkpt lat="47.41127013791461" lon="5.237697780368073"><ele>242.0</ele><time>2026-04-06T13:04:12.976Z</time></trkpt><trkpt lat="47.411371156787986" lon="5.237793406475539"><ele>242.0</ele><time>2026-04-06T13:04:14.976Z</time></trkpt><trkpt lat="47.41142906103681" lon="5.237839920312109"><ele>242.0</ele><time>2026-04-06T13:04:15.976Z</time></trkpt><trkpt lat="47.411534230418376" lon="5.2379323365734844"><ele>242.0</ele><time>2026-04-06T13:04:17.976Z</time></trkpt><trkpt lat="47.41163707043811" lon="5.2380265386782074"><ele>242.0</ele><time>2026-04-06T13:04:19.976Z</time></trkpt><trkpt lat="47.411739667128735" lon="5.238119462553314"><ele>242.0</ele><time>2026-04-06T13:04:21.976Z</time></trkpt><trkpt lat="47.41179503428613" lon="5.238169942717987"><ele>242.0</ele><time>2026-04-06T13:04:22.976Z</time></trkpt><trkpt lat="47.41190036401102" lon="5.238257617321991"><ele>242.0</ele><time>2026-04-06T13:04:24.976Z</time></trkpt><trkpt lat="47.41200020227909" lon="5.238353275838279"><ele>242.0</ele><time>2026-04-06T13:04:26.976Z</time></trkpt><trkpt lat="47.41209567814425" lon="5.2384409951039075"><ele>242.0</ele><time>2026-04-06T13:04:28.976Z</time></trkpt><trkpt lat="47.41218305259173" lon="5.238519155758713"><ele>242.2</ele><time>2026-04-06T13:04:30.976Z</time></trkpt><trkpt lat="47.412255370976375" lon="5.238584649780893"><ele>242.39999999999998</ele><time>2026-04-06T13:04:32.976Z</time></trkpt><trkpt lat="47.41232196866077" lon="5.238681397511672"><ele>242.60000000000002</ele><time>2026-04-06T13:04:34.976Z</time></trkpt><trkpt lat="47.41240803004927" lon="5.2387617700872235"><ele>242.8</ele><time>2026-04-06T13:04:36.976Z</time></trkpt><trkpt lat="47.412490554428196" lon="5.238849964505828"><ele>243.0</ele><time>2026-04-06T13:04:38.976Z</time></trkpt><trkpt lat="47.41257797330346" lon="5.238938980538442"><ele>243.0</ele><time>2026-04-06T13:04:40.976Z</time></trkpt><trkpt lat="47.41264691713164" lon="5.23897553660625"><ele>243.0</ele><time>2026-04-06T13:04:42.976Z</time></trkpt><trkpt lat="47.41269939537925" lon="5.238913989176744"><ele>243.0</ele><time>2026-04-06T13:04:44.976Z</time></trkpt><trkpt lat="47.41272084344377" lon="5.238823804361934"><ele>243.0</ele><time>2026-04-06T13:04:46.976Z</time></trkpt><trkpt lat="47.412762054156026" lon="5.238711925256644"><ele>243.0</ele><time>2026-04-06T13:04:48.976Z</time></trkpt><trkpt lat="47.412816617868934" lon="5.238596566249147"><ele>243.0</ele><time>2026-04-06T13:04:50.976Z</time></trkpt><trkpt lat="47.41287123735136" lon="5.238458228151553"><ele>243.0</ele><time>2026-04-06T13:04:52.976Z</time></trkpt><trkpt lat="47.412927741689636" lon="5.238319480772719"><ele>243.0</ele><time>2026-04-06T13:04:54.976Z</time></trkpt><trkpt lat="47.412995740048714" lon="5.238184614750809"><ele>243.0</ele><time>2026-04-06T13:04:56.976Z</time></trkpt><trkpt lat="47.413067968033886" lon="5.238056925849144"><ele>243.0</ele><time>2026-04-06T13:04:58.976Z</time></trkpt><trkpt lat="47.41310140135187" lon="5.237975522585153"><ele>243.0</ele><time>2026-04-06T13:04:59.976Z</time></trkpt><trkpt lat="47.4131381712024" lon="5.237882991147601"><ele>242.8</ele><time>2026-04-06T13:05:00.976Z</time></trkpt><trkpt lat="47.41320155300422" lon="5.237723978753641"><ele>242.60000000000002</ele><time>2026-04-06T13:05:02.976Z</time></trkpt><trkpt lat="47.41325142521913" lon="5.237620721543825"><ele>242.39999999999998</ele><time>2026-04-06T13:05:03.976Z</time></trkpt><trkpt lat="47.41332631653066" lon="5.237468702439206"><ele>242.2</ele><time>2026-04-06T13:05:04.976Z</time></trkpt><trkpt lat="47.4133657767012" lon="5.237327233057494"><ele>242.0</ele><time>2026-04-06T13:05:07.976Z</time></trkpt><trkpt lat="47.413428150690706" lon="5.237181773145372"><ele>242.8</ele><time>2026-04-06T13:05:09.976Z</time></trkpt><trkpt lat="47.41348796685695" lon="5.237042959510847"><ele>243.6</ele><time>2026-04-06T13:05:11.976Z</time></trkpt><trkpt lat="47.41354564807694" lon="5.236908991351231"><ele>244.40000000000003</ele><time>2026-04-06T13:05:13.976Z</time></trkpt><trkpt lat="47.413594885402844" lon="5.236789582649731"><ele>245.20000000000002</ele><time>2026-04-06T13:05:15.976Z</time></trkpt><trkpt lat="47.413639922973495" lon="5.2366815180195445"><ele>246.0</ele><time>2026-04-06T13:05:17.976Z</time></trkpt><trkpt lat="47.41368062502003" lon="5.23657496737332"><ele>246.0</ele><time>2026-04-06T13:05:19.976Z</time></trkpt><trkpt lat="47.41371813793385" lon="5.236487473257535"><ele>246.0</ele><time>2026-04-06T13:05:21.976Z</time></trkpt><trkpt lat="47.41375493244773" lon="5.23639246344282"><ele>246.0</ele><time>2026-04-06T13:05:23.976Z</time></trkpt><trkpt lat="47.413792512244314" lon="5.236295812991881"><ele>246.0</ele><time>2026-04-06T13:05:25.976Z</time></trkpt><trkpt lat="47.41383344595884" lon="5.236195508617665"><ele>246.0</ele><time>2026-04-06T13:05:27.976Z</time></trkpt><trkpt lat="47.41388330118752" lon="5.236088536668341"><ele>246.0</ele><time>2026-04-06T13:05:29.976Z</time></trkpt><trkpt lat="47.41392740579927" lon="5.235964835835775"><ele>247.0</ele><time>2026-04-06T13:05:31.976Z</time></trkpt><trkpt lat="47.41397724275555" lon="5.235849141964234"><ele>248.00000000000003</ele><time>2026-04-06T13:05:33.976Z</time></trkpt><trkpt lat="47.41402953851586" lon="5.235731722480298"><ele>249.00000000000003</ele><time>2026-04-06T13:05:35.976Z</time></trkpt><trkpt lat="47.414083392639235" lon="5.235600537794109"><ele>250.0</ele><time>2026-04-06T13:05:37.976Z</time></trkpt><trkpt lat="47.41414700915413" lon="5.235474438015725"><ele>251.0</ele><time>2026-04-06T13:05:39.976Z</time></trkpt><trkpt lat="47.41420143954548" lon="5.235335500243421"><ele>251.0</ele><time>2026-04-06T13:05:41.976Z</time></trkpt><trkpt lat="47.414231062898374" lon="5.235162804999818"><ele>251.00000000000003</ele><time>2026-04-06T13:05:43.976Z</time></trkpt><trkpt lat="47.41427177120552" lon="5.234985777778403"><ele>251.00000000000003</ele><time>2026-04-06T13:05:45.976Z</time></trkpt><trkpt lat="47.41429885182258" lon="5.2348070653256595"><ele>251.0</ele><time>2026-04-06T13:05:47.976Z</time></trkpt><trkpt lat="47.414312459432004" lon="5.234712786062306"><ele>251.0</ele><time>2026-04-06T13:05:48.976Z</time></trkpt><trkpt lat="47.414326702088445" lon="5.234620903602575"><ele>250.85714285714283</ele><time>2026-04-06T13:05:49.976Z</time></trkpt><trkpt lat="47.41434467014123" lon="5.234529318274595"><ele>250.71428571428572</ele><time>2026-04-06T13:05:50.975Z</time></trkpt><trkpt lat="47.414355284885026" lon="5.234428976015138"><ele>250.57142857142856</ele><time>2026-04-06T13:05:51.975Z</time></trkpt><trkpt lat="47.41437105485277" lon="5.234338878054996"><ele>250.42857142857142</ele><time>2026-04-06T13:05:52.975Z</time></trkpt><trkpt lat="47.4143888263269" lon="5.234247071088272"><ele>250.28571428571428</ele><time>2026-04-06T13:05:53.975Z</time></trkpt><trkpt lat="47.414405460324225" lon="5.234145068228408"><ele>250.14285714285714</ele><time>2026-04-06T13:05:54.975Z</time></trkpt><trkpt lat="47.414421384172854" lon="5.234044109220354"><ele>250.0</ele><time>2026-04-06T13:05:55.975Z</time></trkpt><trkpt lat="47.41444023880425" lon="5.233942560978379"><ele>249.71428571428572</ele><time>2026-04-06T13:05:56.976Z</time></trkpt><trkpt lat="47.41445813583218" lon="5.233841432572901"><ele>249.42857142857144</ele><time>2026-04-06T13:05:57.976Z</time></trkpt><trkpt lat="47.414470216031916" lon="5.233735965383862"><ele>249.14285714285717</ele><time>2026-04-06T13:05:58.976Z</time></trkpt><trkpt lat="47.414492488706" lon="5.23363283868701"><ele>248.85714285714286</ele><time>2026-04-06T13:05:59.976Z</time></trkpt><trkpt lat="47.4145097805322" lon="5.2335231023865285"><ele>248.5714285714286</ele><time>2026-04-06T13:06:00.976Z</time></trkpt><trkpt lat="47.414517797186356" lon="5.233414587713465"><ele>248.2857142857143</ele><time>2026-04-06T13:06:01.976Z</time></trkpt><trkpt lat="47.41453997690881" lon="5.233304162274098"><ele>248.0</ele><time>2026-04-06T13:06:02.976Z</time></trkpt><trkpt lat="47.41455992205288" lon="5.233205963373097"><ele>248.00000000000003</ele><time>2026-04-06T13:06:03.975Z</time></trkpt><trkpt lat="47.414571977844524" lon="5.233103551745071"><ele>248.0</ele><time>2026-04-06T13:06:04.975Z</time></trkpt><trkpt lat="47.414587052451196" lon="5.233006540451645"><ele>248.0</ele><time>2026-04-06T13:06:05.976Z</time></trkpt><trkpt lat="47.41459923168589" lon="5.232902330093206"><ele>248.0</ele><time>2026-04-06T13:06:06.975Z</time></trkpt><trkpt lat="47.41461883849651" lon="5.232810265064879"><ele>248.00000000000003</ele><time>2026-04-06T13:06:07.975Z</time></trkpt><trkpt lat="47.41465198325811" lon="5.232716062570473"><ele>248.0</ele><time>2026-04-06T13:06:08.976Z</time></trkpt><trkpt lat="47.41467955826374" lon="5.2325451751722145"><ele>248.60000000000002</ele><time>2026-04-06T13:06:10.976Z</time></trkpt><trkpt lat="47.4147010324539" lon="5.232451134027035"><ele>249.20000000000002</ele><time>2026-04-06T13:06:11.976Z</time></trkpt><trkpt lat="47.41473050088614" lon="5.232284780491164"><ele>249.8</ele><time>2026-04-06T13:06:13.975Z</time></trkpt><trkpt lat="47.41476419218782" lon="5.232108517807155"><ele>250.4</ele><time>2026-04-06T13:06:15.975Z</time></trkpt><trkpt lat="47.41479430692243" lon="5.231941414342164"><ele>251.0</ele><time>2026-04-06T13:06:17.975Z</time></trkpt><trkpt lat="47.41482222271493" lon="5.231773430347479"><ele>251.0</ele><time>2026-04-06T13:06:19.975Z</time></trkpt><trkpt lat="47.414844082030285" lon="5.231683032208946"><ele>251.00000000000003</ele><time>2026-04-06T13:06:20.975Z</time></trkpt><trkpt lat="47.41486059231513" lon="5.231526384113533"><ele>251.00000000000003</ele><time>2026-04-06T13:06:22.975Z</time></trkpt><trkpt lat="47.414891423476256" lon="5.2313638883310425"><ele>251.0</ele><time>2026-04-06T13:06:24.975Z</time></trkpt><trkpt lat="47.4149269861149" lon="5.231205420041458"><ele>251.0</ele><time>2026-04-06T13:06:26.975Z</time></trkpt><trkpt lat="47.41494813805901" lon="5.231052263299242"><ele>250.83333333333334</ele><time>2026-04-06T13:06:28.975Z</time></trkpt><trkpt lat="47.414973953979526" lon="5.230902726700414"><ele>250.66666666666669</ele><time>2026-04-06T13:06:30.975Z</time></trkpt><trkpt lat="47.41499393993362" lon="5.230802114422808"><ele>250.5</ele><time>2026-04-06T13:06:32.975Z</time></trkpt><trkpt lat="47.41506732305949" lon="5.23073791346228"><ele>250.33333333333331</ele><time>2026-04-06T13:06:34.975Z</time></trkpt><trkpt lat="47.4151469994496" lon="5.230788428568931"><ele>250.16666666666666</ele><time>2026-04-06T13:06:36.975Z</time></trkpt><trkpt lat="47.415213930443805" lon="5.230862470009677"><ele>250.0</ele><time>2026-04-06T13:06:38.975Z</time></trkpt><trkpt lat="47.41530199296439" lon="5.230922335294031"><ele>250.0</ele><time>2026-04-06T13:06:40.975Z</time></trkpt><trkpt lat="47.415385578551906" lon="5.230992409413954"><ele>250.0</ele><time>2026-04-06T13:06:42.975Z</time></trkpt><trkpt lat="47.415479287491806" lon="5.2310510331590026"><ele>250.0</ele><time>2026-04-06T13:06:44.975Z</time></trkpt><trkpt lat="47.415566890660074" lon="5.231112327159555"><ele>250.0</ele><time>2026-04-06T13:06:46.975Z</time></trkpt><trkpt lat="47.415674511150996" lon="5.231181235280645"><ele>250.0</ele><time>2026-04-06T13:06:48.975Z</time></trkpt><trkpt lat="47.41578820333565" lon="5.231249803342115"><ele>250.0</ele><time>2026-04-06T13:06:50.975Z</time></trkpt><trkpt lat="47.41590077392295" lon="5.231314935055651"><ele>250.0</ele><time>2026-04-06T13:06:52.975Z</time></trkpt><trkpt lat="47.41601388354143" lon="5.231379036053637"><ele>250.0</ele><time>2026-04-06T13:06:54.975Z</time></trkpt><trkpt lat="47.41612405586224" lon="5.231441013683274"><ele>250.0</ele><time>2026-04-06T13:06:56.975Z</time></trkpt><trkpt lat="47.416234181079034" lon="5.231507911739101"><ele>250.5</ele><time>2026-04-06T13:06:58.975Z</time></trkpt><trkpt lat="47.41634092079479" lon="5.231574147689693"><ele>251.0</ele><time>2026-04-06T13:07:00.975Z</time></trkpt><trkpt lat="47.416447930248765" lon="5.2316359093116045"><ele>251.5</ele><time>2026-04-06T13:07:02.975Z</time></trkpt><trkpt lat="47.416549941184684" lon="5.231695445001987"><ele>252.0</ele><time>2026-04-06T13:07:04.975Z</time></trkpt><trkpt lat="47.41665484412224" lon="5.2317552478973335"><ele>252.0</ele><time>2026-04-06T13:07:06.975Z</time></trkpt><trkpt lat="47.41676813099682" lon="5.2318208900718846"><ele>252.0</ele><time>2026-04-06T13:07:08.975Z</time></trkpt><trkpt lat="47.4168784339212" lon="5.231887989841696"><ele>252.0</ele><time>2026-04-06T13:07:10.975Z</time></trkpt><trkpt lat="47.41693743684023" lon="5.231922995657326"><ele>252.0</ele><time>2026-04-06T13:07:11.975Z</time></trkpt><trkpt lat="47.417050659656034" lon="5.231984071429462"><ele>252.0</ele><time>2026-04-06T13:07:13.975Z</time></trkpt><trkpt lat="47.41716207589107" lon="5.232043265173444"><ele>252.0</ele><time>2026-04-06T13:07:15.975Z</time></trkpt><trkpt lat="47.417221639618596" lon="5.232080593437491"><ele>252.0</ele><time>2026-04-06T13:07:16.975Z</time></trkpt><trkpt lat="47.41733869157282" lon="5.232141449128364"><ele>252.0</ele><time>2026-04-06T13:07:18.975Z</time></trkpt><trkpt lat="47.41745118938081" lon="5.232210268639409"><ele>252.0</ele><time>2026-04-06T13:07:20.975Z</time></trkpt><trkpt lat="47.417512386894344" lon="5.2322376121873955"><ele>252.0</ele><time>2026-04-06T13:07:21.975Z</time></trkpt><trkpt lat="47.417624922519956" lon="5.232304245600861"><ele>252.25</ele><time>2026-04-06T13:07:23.975Z</time></trkpt><trkpt lat="47.41773676952033" lon="5.232367266848538"><ele>252.5</ele><time>2026-04-06T13:07:25.975Z</time></trkpt><trkpt lat="47.417851281936784" lon="5.232425031772277"><ele>252.75</ele><time>2026-04-06T13:07:27.975Z</time></trkpt><trkpt lat="47.417963795923946" lon="5.232477663925042"><ele>253.0</ele><time>2026-04-06T13:07:29.975Z</time></trkpt><trkpt lat="47.418078344424295" lon="5.232528179428619"><ele>253.0</ele><time>2026-04-06T13:07:31.975Z</time></trkpt><trkpt lat="47.41819560550337" lon="5.232579438078497"><ele>253.0</ele><time>2026-04-06T13:07:33.975Z</time></trkpt><trkpt lat="47.41825652159707" lon="5.232607024493715"><ele>253.0</ele><time>2026-04-06T13:07:34.975Z</time></trkpt><trkpt lat="47.41837349438125" lon="5.232653261055477"><ele>253.0</ele><time>2026-04-06T13:07:36.975Z</time></trkpt><trkpt lat="47.4184918371954" lon="5.2327003105330485"><ele>253.0</ele><time>2026-04-06T13:07:38.975Z</time></trkpt><trkpt lat="47.41860728565168" lon="5.232752064149629"><ele>253.0</ele><time>2026-04-06T13:07:40.975Z</time></trkpt><trkpt lat="47.4187187997967" lon="5.232798407498984"><ele>253.0</ele><time>2026-04-06T13:07:42.975Z</time></trkpt><trkpt lat="47.41883360030827" lon="5.232839179467614"><ele>253.0</ele><time>2026-04-06T13:07:44.975Z</time></trkpt><trkpt lat="47.4189398317823" lon="5.232910787101483"><ele>253.0</ele><time>2026-04-06T13:07:46.975Z</time></trkpt><trkpt lat="47.4190538818728" lon="5.232964087147193"><ele>252.75</ele><time>2026-04-06T13:07:48.975Z</time></trkpt><trkpt lat="47.419162191239444" lon="5.233006352617003"><ele>252.5</ele><time>2026-04-06T13:07:50.975Z</time></trkpt><trkpt lat="47.419268645825625" lon="5.233053633484431"><ele>252.25</ele><time>2026-04-06T13:07:52.975Z</time></trkpt><trkpt lat="47.41937903887741" lon="5.233100121222797"><ele>252.0</ele><time>2026-04-06T13:07:54.975Z</time></trkpt><trkpt lat="47.419492170368265" lon="5.23315205789906"><ele>252.25</ele><time>2026-04-06T13:07:56.975Z</time></trkpt><trkpt lat="47.41960364693199" lon="5.233221951266318"><ele>252.5</ele><time>2026-04-06T13:07:58.975Z</time></trkpt><trkpt lat="47.41971311145901" lon="5.233291492844193"><ele>252.75</ele><time>2026-04-06T13:08:00.975Z</time></trkpt><trkpt lat="47.41982266553887" lon="5.233373756794207"><ele>253.0</ele><time>2026-04-06T13:08:02.974Z</time></trkpt><trkpt lat="47.4199220448686" lon="5.233465552859329"><ele>253.0</ele><time>2026-04-06T13:08:04.975Z</time></trkpt><trkpt lat="47.42003441938618" lon="5.233522713470909"><ele>253.0</ele><time>2026-04-06T13:08:06.975Z</time></trkpt><trkpt lat="47.42013520378985" lon="5.233619433750327"><ele>253.0</ele><time>2026-04-06T13:08:08.975Z</time></trkpt><trkpt lat="47.4202425559085" lon="5.233708559238679"><ele>253.0</ele><time>2026-04-06T13:08:10.975Z</time></trkpt><trkpt lat="47.42034634173753" lon="5.2337968298241995"><ele>253.0</ele><time>2026-04-06T13:08:12.975Z</time></trkpt><trkpt lat="47.42045503202666" lon="5.233883291820662"><ele>253.0</ele><time>2026-04-06T13:08:14.975Z</time></trkpt><trkpt lat="47.42055723611564" lon="5.2339723579266275"><ele>253.0</ele><time>2026-04-06T13:08:16.975Z</time></trkpt><trkpt lat="47.42066134127152" lon="5.234068067136728"><ele>253.0</ele><time>2026-04-06T13:08:18.975Z</time></trkpt><trkpt lat="47.42076002751172" lon="5.234148413342045"><ele>253.5</ele><time>2026-04-06T13:08:20.975Z</time></trkpt><trkpt lat="47.42086705494179" lon="5.234243361600873"><ele>254.0</ele><time>2026-04-06T13:08:22.975Z</time></trkpt><trkpt lat="47.42096910538818" lon="5.234331916520694"><ele>254.5</ele><time>2026-04-06T13:08:24.975Z</time></trkpt><trkpt lat="47.42107472076063" lon="5.23441986138141"><ele>255.0</ele><time>2026-04-06T13:08:26.975Z</time></trkpt><trkpt lat="47.4211751074093" lon="5.234504053628949"><ele>255.0</ele><time>2026-04-06T13:08:28.975Z</time></trkpt><trkpt lat="47.42127561575048" lon="5.23458409306046"><ele>255.0</ele><time>2026-04-06T13:08:30.975Z</time></trkpt><trkpt lat="47.42137930810076" lon="5.2346725853675515"><ele>255.0</ele><time>2026-04-06T13:08:32.975Z</time></trkpt><trkpt lat="47.42147818311589" lon="5.2347618584767455"><ele>255.0</ele><time>2026-04-06T13:08:34.975Z</time></trkpt><trkpt lat="47.42153329661575" lon="5.234814795928607"><ele>255.0</ele><time>2026-04-06T13:08:35.975Z</time></trkpt><trkpt lat="47.42163482697671" lon="5.234892075139287"><ele>255.0</ele><time>2026-04-06T13:08:37.975Z</time></trkpt><trkpt lat="47.42173284419417" lon="5.234985123320997"><ele>255.0</ele><time>2026-04-06T13:08:39.975Z</time></trkpt><trkpt lat="47.4218336161375" lon="5.235072086575179"><ele>255.0</ele><time>2026-04-06T13:08:41.975Z</time></trkpt><trkpt lat="47.42193395659243" lon="5.235150011999919"><ele>255.0</ele><time>2026-04-06T13:08:43.975Z</time></trkpt><trkpt lat="47.422030441408054" lon="5.235238478781081"><ele>255.0</ele><time>2026-04-06T13:08:45.975Z</time></trkpt><trkpt lat="47.422130117789756" lon="5.235324027604126"><ele>255.0</ele><time>2026-04-06T13:08:47.975Z</time></trkpt><trkpt lat="47.42222710295261" lon="5.235403519318181"><ele>255.0</ele><time>2026-04-06T13:08:49.975Z</time></trkpt><trkpt lat="47.42232656798263" lon="5.235484873174595"><ele>255.0</ele><time>2026-04-06T13:08:51.975Z</time></trkpt><trkpt lat="47.42242372199145" lon="5.235572140766458"><ele>255.6</ele><time>2026-04-06T13:08:53.975Z</time></trkpt><trkpt lat="47.4225223339157" lon="5.235659974888813"><ele>256.2</ele><time>2026-04-06T13:08:55.975Z</time></trkpt><trkpt lat="47.42261776040207" lon="5.2357449385837835"><ele>256.8</ele><time>2026-04-06T13:08:57.975Z</time></trkpt><trkpt lat="47.42271297948018" lon="5.235825263316199"><ele>257.4</ele><time>2026-04-06T13:08:59.975Z</time></trkpt><trkpt lat="47.42280689058349" lon="5.235908788766391"><ele>258.0</ele><time>2026-04-06T13:09:01.975Z</time></trkpt><trkpt lat="47.42290184318271" lon="5.235988351102412"><ele>258.8</ele><time>2026-04-06T13:09:03.975Z</time></trkpt><trkpt lat="47.42299494954573" lon="5.236073776822794"><ele>259.6</ele><time>2026-04-06T13:09:05.975Z</time></trkpt><trkpt lat="47.42308630388345" lon="5.236153518167721"><ele>260.4</ele><time>2026-04-06T13:09:07.975Z</time></trkpt><trkpt lat="47.42317657298095" lon="5.2362289211350275"><ele>261.2</ele><time>2026-04-06T13:09:09.975Z</time></trkpt><trkpt lat="47.42327339093473" lon="5.2363154037139745"><ele>262.0</ele><time>2026-04-06T13:09:11.975Z</time></trkpt><trkpt lat="47.42334682431693" lon="5.2363834844626895"><ele>262.0</ele><time>2026-04-06T13:09:13.975Z</time></trkpt><trkpt lat="47.42344725085378" lon="5.236472406828957"><ele>262.0</ele><time>2026-04-06T13:09:15.975Z</time></trkpt><trkpt lat="47.42353595616922" lon="5.236541918065947"><ele>262.0</ele><time>2026-04-06T13:09:17.975Z</time></trkpt><trkpt lat="47.42362619932124" lon="5.236612636490046"><ele>262.0</ele><time>2026-04-06T13:09:19.975Z</time></trkpt><trkpt lat="47.42370947445827" lon="5.236687212978806"><ele>262.0</ele><time>2026-04-06T13:09:21.975Z</time></trkpt><trkpt lat="47.42379109803825" lon="5.236750846017836"><ele>262.6</ele><time>2026-04-06T13:09:23.975Z</time></trkpt><trkpt lat="47.423876479046434" lon="5.236820187948255"><ele>263.2</ele><time>2026-04-06T13:09:25.975Z</time></trkpt><trkpt lat="47.42396329419452" lon="5.236895251889019"><ele>263.8</ele><time>2026-04-06T13:09:27.975Z</time></trkpt><trkpt lat="47.424053551640256" lon="5.236962682006006"><ele>264.4</ele><time>2026-04-06T13:09:29.975Z</time></trkpt><trkpt lat="47.424140647981936" lon="5.237035651311114"><ele>265.0</ele><time>2026-04-06T13:09:31.975Z</time></trkpt><trkpt lat="47.42422482304206" lon="5.237104858426484"><ele>265.0</ele><time>2026-04-06T13:09:33.975Z</time></trkpt><trkpt lat="47.42431278304921" lon="5.237178794301436"><ele>265.0</ele><time>2026-04-06T13:09:35.975Z</time></trkpt><trkpt lat="47.424396103078045" lon="5.237247885733697"><ele>265.0</ele><time>2026-04-06T13:09:37.975Z</time></trkpt><trkpt lat="47.42447971508497" lon="5.237318884879111"><ele>265.0</ele><time>2026-04-06T13:09:39.975Z</time></trkpt><trkpt lat="47.42457063336491" lon="5.237395282104331"><ele>265.0</ele><time>2026-04-06T13:09:41.975Z</time></trkpt><trkpt lat="47.42466070500823" lon="5.2374781236990104"><ele>265.2</ele><time>2026-04-06T13:09:43.975Z</time></trkpt><trkpt lat="47.42475311240482" lon="5.237548981134744"><ele>265.4</ele><time>2026-04-06T13:09:45.975Z</time></trkpt><trkpt lat="47.42484375608506" lon="5.237621084222942"><ele>265.6</ele><time>2026-04-06T13:09:47.975Z</time></trkpt><trkpt lat="47.4249405647077" lon="5.237688866673006"><ele>265.8</ele><time>2026-04-06T13:09:49.975Z</time></trkpt><trkpt lat="47.42503450623387" lon="5.2377592127144235"><ele>266.0</ele><time>2026-04-06T13:09:51.975Z</time></trkpt><trkpt lat="47.425112753377796" lon="5.237814758649252"><ele>266.0</ele><time>2026-04-06T13:09:53.975Z</time></trkpt><trkpt lat="47.42517895273215" lon="5.237862270412403"><ele>266.0</ele><time>2026-04-06T13:09:55.975Z</time></trkpt><trkpt lat="47.42524448734686" lon="5.237885211748653"><ele>266.0</ele><time>2026-04-06T13:10:00.975Z</time></trkpt><trkpt lat="47.425299323632906" lon="5.237832124765683"><ele>266.0</ele><time>2026-04-06T13:10:08.975Z</time></trkpt><trkpt lat="47.42537513391726" lon="5.2377128251885985"><ele>266.0</ele><time>2026-04-06T13:10:10.975Z</time></trkpt><trkpt lat="47.42543322552294" lon="5.237560895649323"><ele>266.0</ele><time>2026-04-06T13:10:12.975Z</time></trkpt><trkpt lat="47.425490146313464" lon="5.237413444138958"><ele>265.33333333333337</ele><time>2026-04-06T13:10:14.975Z</time></trkpt><trkpt lat="47.42554846498331" lon="5.237295190769019"><ele>264.6666666666667</ele><time>2026-04-06T13:10:16.975Z</time></trkpt><trkpt lat="47.425597948590934" lon="5.237209142852817"><ele>264.0</ele><time>2026-04-06T13:10:18.975Z</time></trkpt><trkpt lat="47.42566651284618" lon="5.237211127662053"><ele>263.3333333333333</ele><time>2026-04-06T13:10:21.975Z</time></trkpt><trkpt lat="47.425688614772774" lon="5.237338165205646"><ele>262.66666666666663</ele><time>2026-04-06T13:10:23.975Z</time></trkpt><trkpt lat="47.42566432668776" lon="5.237478605023666"><ele>262.0</ele><time>2026-04-06T13:10:25.975Z</time></trkpt><trkpt lat="47.42568052115635" lon="5.237645885249245"><ele>261.75</ele><time>2026-04-06T13:10:27.975Z</time></trkpt><trkpt lat="47.425695468416734" lon="5.237818546792626"><ele>261.5</ele><time>2026-04-06T13:10:29.975Z</time></trkpt><trkpt lat="47.42571659044751" lon="5.237990955747225"><ele>261.25</ele><time>2026-04-06T13:10:31.975Z</time></trkpt><trkpt lat="47.42573650989023" lon="5.23816895253483"><ele>261.0</ele><time>2026-04-06T13:10:33.975Z</time></trkpt><trkpt lat="47.42575347557616" lon="5.238343295335623"><ele>260.8333333333333</ele><time>2026-04-06T13:10:35.975Z</time></trkpt><trkpt lat="47.4257718635117" lon="5.2385199165347744"><ele>260.6666666666667</ele><time>2026-04-06T13:10:37.975Z</time></trkpt><trkpt lat="47.425784626637146" lon="5.2386964551482995"><ele>260.5</ele><time>2026-04-06T13:10:39.975Z</time></trkpt><trkpt lat="47.42578965264014" lon="5.2387904278446475"><ele>260.33333333333337</ele><time>2026-04-06T13:10:40.975Z</time></trkpt><trkpt lat="47.42579600801715" lon="5.238884030752506"><ele>260.1666666666667</ele><time>2026-04-06T13:10:41.975Z</time></trkpt><trkpt lat="47.42580174188297" lon="5.23897828871774"><ele>260.0</ele><time>2026-04-06T13:10:42.975Z</time></trkpt><trkpt lat="47.42580801295554" lon="5.2391613052817485"><ele>260.0</ele><time>2026-04-06T13:10:44.975Z</time></trkpt><trkpt lat="47.42580955047439" lon="5.2392590299278545"><ele>260.0</ele><time>2026-04-06T13:10:45.975Z</time></trkpt><trkpt lat="47.42581311172732" lon="5.239358643413783"><ele>260.0</ele><time>2026-04-06T13:10:46.975Z</time></trkpt><trkpt lat="47.42580838102183" lon="5.2395403378151695"><ele>260.0</ele><time>2026-04-06T13:10:48.975Z</time></trkpt><trkpt lat="47.42580278367588" lon="5.239639295435701"><ele>260.0</ele><time>2026-04-06T13:10:49.975Z</time></trkpt><trkpt lat="47.42580225211324" lon="5.239737484453648"><ele>260.0</ele><time>2026-04-06T13:10:50.975Z</time></trkpt><trkpt lat="47.4258007732554" lon="5.239838018103934"><ele>260.00000000000006</ele><time>2026-04-06T13:10:51.974Z</time></trkpt><trkpt lat="47.42579139068858" lon="5.239941730520176"><ele>260.0</ele><time>2026-04-06T13:10:52.974Z</time></trkpt><trkpt lat="47.425776010800796" lon="5.2400366009753965"><ele>260.0</ele><time>2026-04-06T13:10:53.974Z</time></trkpt><trkpt lat="47.42576776619418" lon="5.240150121461933"><ele>260.0</ele><time>2026-04-06T13:10:54.974Z</time></trkpt><trkpt lat="47.4257560490186" lon="5.240257585774433"><ele>260.0</ele><time>2026-04-06T13:10:55.974Z</time></trkpt><trkpt lat="47.4257411014352" lon="5.240373711364811"><ele>260.00000000000006</ele><time>2026-04-06T13:10:56.974Z</time></trkpt><trkpt lat="47.425725060689714" lon="5.240483768601656"><ele>260.0</ele><time>2026-04-06T13:10:57.974Z</time></trkpt><trkpt lat="47.425704051672255" lon="5.240605596569255"><ele>259.2</ele><time>2026-04-06T13:10:58.974Z</time></trkpt><trkpt lat="47.425680980934885" lon="5.240728312272847"><ele>258.4</ele><time>2026-04-06T13:10:59.974Z</time></trkpt><trkpt lat="47.425655964438" lon="5.24085127080732"><ele>257.6</ele><time>2026-04-06T13:11:00.974Z</time></trkpt><trkpt lat="47.42563153749357" lon="5.240982867569991"><ele>256.8</ele><time>2026-04-06T13:11:01.974Z</time></trkpt><trkpt lat="47.42560214419093" lon="5.241112251177023"><ele>256.0</ele><time>2026-04-06T13:11:02.974Z</time></trkpt><trkpt lat="47.42557085677769" lon="5.241248599212849"><ele>256.0</ele><time>2026-04-06T13:11:03.974Z</time></trkpt><trkpt lat="47.425540135480006" lon="5.24137800848066"><ele>256.0</ele><time>2026-04-06T13:11:04.974Z</time></trkpt><trkpt lat="47.4255106633535" lon="5.241511121227025"><ele>256.0</ele><time>2026-04-06T13:11:05.974Z</time></trkpt><trkpt lat="47.42547708904196" lon="5.241645756304476"><ele>256.0</ele><time>2026-04-06T13:11:06.974Z</time></trkpt><trkpt lat="47.42544310933817" lon="5.241778817588096"><ele>256.0</ele><time>2026-04-06T13:11:07.974Z</time></trkpt><trkpt lat="47.42540904411292" lon="5.241915822500068"><ele>255.4</ele><time>2026-04-06T13:11:08.974Z</time></trkpt><trkpt lat="47.42537619730865" lon="5.242051001896203"><ele>254.8</ele><time>2026-04-06T13:11:09.974Z</time></trkpt><trkpt lat="47.42534515717631" lon="5.242192263990174"><ele>254.20000000000002</ele><time>2026-04-06T13:11:10.974Z</time></trkpt><trkpt lat="47.4253159872576" lon="5.242334673159812"><ele>253.60000000000002</ele><time>2026-04-06T13:11:11.974Z</time></trkpt><trkpt lat="47.42528453305693" lon="5.2424743973692465"><ele>253.0</ele><time>2026-04-06T13:11:12.974Z</time></trkpt><trkpt lat="47.42525083161006" lon="5.242609384457536"><ele>252.2</ele><time>2026-04-06T13:11:13.974Z</time></trkpt><trkpt lat="47.4252139600517" lon="5.242743535003419"><ele>251.4</ele><time>2026-04-06T13:11:14.974Z</time></trkpt><trkpt lat="47.425173384520726" lon="5.242870872555209"><ele>250.59999999999997</ele><time>2026-04-06T13:11:15.974Z</time></trkpt><trkpt lat="47.4251308732552" lon="5.24299291690974"><ele>249.79999999999998</ele><time>2026-04-06T13:11:16.974Z</time></trkpt><trkpt lat="47.42508468926729" lon="5.243105369323242"><ele>249.0</ele><time>2026-04-06T13:11:17.974Z</time></trkpt><trkpt lat="47.42503904875859" lon="5.243216082486032"><ele>248.66666666666666</ele><time>2026-04-06T13:11:18.974Z</time></trkpt><trkpt lat="47.42499199727045" lon="5.243319329511223"><ele>248.33333333333331</ele><time>2026-04-06T13:11:19.974Z</time></trkpt><trkpt lat="47.42494407792696" lon="5.243422491669687"><ele>248.0</ele><time>2026-04-06T13:11:20.974Z</time></trkpt><trkpt lat="47.4248975289643" lon="5.24353024753266"><ele>247.66666666666666</ele><time>2026-04-06T13:11:21.974Z</time></trkpt><trkpt lat="47.42484903020326" lon="5.243630060073063"><ele>247.33333333333331</ele><time>2026-04-06T13:11:22.974Z</time></trkpt><trkpt lat="47.42480002689349" lon="5.243733712209534"><ele>247.0</ele><time>2026-04-06T13:11:23.974Z</time></trkpt><trkpt lat="47.42475321997422" lon="5.24383573625754"><ele>246.99999999999997</ele><time>2026-04-06T13:11:24.974Z</time></trkpt><trkpt lat="47.424710150673185" lon="5.243929735498108"><ele>247.0</ele><time>2026-04-06T13:11:25.974Z</time></trkpt><trkpt lat="47.42466830522876" lon="5.24403229004181"><ele>247.0</ele><time>2026-04-06T13:11:26.974Z</time></trkpt><trkpt lat="47.424627150709064" lon="5.244132215193177"><ele>247.0</ele><time>2026-04-06T13:11:27.974Z</time></trkpt><trkpt lat="47.42458192076648" lon="5.244230225237157"><ele>246.99999999999997</ele><time>2026-04-06T13:11:28.974Z</time></trkpt><trkpt lat="47.424538135319196" lon="5.244322179845762"><ele>247.0</ele><time>2026-04-06T13:11:29.974Z</time></trkpt><trkpt lat="47.4244977639681" lon="5.2444238968601065"><ele>246.83333333333331</ele><time>2026-04-06T13:11:30.974Z</time></trkpt><trkpt lat="47.42446019454396" lon="5.244516215150998"><ele>246.66666666666666</ele><time>2026-04-06T13:11:31.974Z</time></trkpt><trkpt lat="47.42442095813569" lon="5.244603439425479"><ele>246.5</ele><time>2026-04-06T13:11:32.974Z</time></trkpt><trkpt lat="47.42438140639491" lon="5.2446956704637815"><ele>246.33333333333331</ele><time>2026-04-06T13:11:33.974Z</time></trkpt><trkpt lat="47.424340336744045" lon="5.244777915111532"><ele>246.16666666666666</ele><time>2026-04-06T13:11:34.974Z</time></trkpt><trkpt lat="47.42430388458838" lon="5.244860492900392"><ele>246.0</ele><time>2026-04-06T13:11:35.974Z</time></trkpt><trkpt lat="47.42423667907383" lon="5.245010374760428"><ele>246.0</ele><time>2026-04-06T13:11:37.974Z</time></trkpt><trkpt lat="47.42417206522117" lon="5.245158129853218"><ele>246.00000000000003</ele><time>2026-04-06T13:11:39.974Z</time></trkpt><trkpt lat="47.424102801914756" lon="5.245297368477301"><ele>246.00000000000003</ele><time>2026-04-06T13:11:41.974Z</time></trkpt><trkpt lat="47.424038308754355" lon="5.245441065753518"><ele>246.0</ele><time>2026-04-06T13:11:43.974Z</time></trkpt><trkpt lat="47.42400076931355" lon="5.245520529879426"><ele>246.0</ele><time>2026-04-06T13:11:44.974Z</time></trkpt><trkpt lat="47.42393742843956" lon="5.245657800447196"><ele>246.20000000000002</ele><time>2026-04-06T13:11:46.974Z</time></trkpt><trkpt lat="47.423880408651655" lon="5.245801313800332"><ele>246.40000000000003</ele><time>2026-04-06T13:11:48.974Z</time></trkpt><trkpt lat="47.42381640725912" lon="5.245935074960902"><ele>246.6</ele><time>2026-04-06T13:11:50.974Z</time></trkpt><trkpt lat="47.423757002814" lon="5.246072301289716"><ele>246.8</ele><time>2026-04-06T13:11:52.974Z</time></trkpt><trkpt lat="47.42370258646711" lon="5.2461887107964555"><ele>247.0</ele><time>2026-04-06T13:11:54.974Z</time></trkpt><trkpt lat="47.42364594013808" lon="5.246312375033963"><ele>246.5</ele><time>2026-04-06T13:11:56.974Z</time></trkpt><trkpt lat="47.42357819845219" lon="5.246456569186721"><ele>246.0</ele><time>2026-04-06T13:11:58.974Z</time></trkpt><trkpt lat="47.4235125314865" lon="5.24660352054146"><ele>245.5</ele><time>2026-04-06T13:12:00.974Z</time></trkpt><trkpt lat="47.423447784660254" lon="5.246762853648641"><ele>245.0</ele><time>2026-04-06T13:12:02.974Z</time></trkpt><trkpt lat="47.423378744275816" lon="5.2469178483576435"><ele>245.0</ele><time>2026-04-06T13:12:04.974Z</time></trkpt><trkpt lat="47.423344406557" lon="5.246996159759428"><ele>245.0</ele><time>2026-04-06T13:12:05.974Z</time></trkpt><trkpt lat="47.42327365816638" lon="5.247145875505812"><ele>245.0</ele><time>2026-04-06T13:12:07.974Z</time></trkpt><trkpt lat="47.42320761691858" lon="5.247298929410014"><ele>245.0</ele><time>2026-04-06T13:12:09.974Z</time></trkpt><trkpt lat="47.42314055016203" lon="5.247446215595848"><ele>245.0</ele><time>2026-04-06T13:12:11.974Z</time></trkpt><trkpt lat="47.42307202793541" lon="5.247595901872569"><ele>245.0</ele><time>2026-04-06T13:12:13.974Z</time></trkpt><trkpt lat="47.42300355705243" lon="5.247744952289687"><ele>245.0</ele><time>2026-04-06T13:12:15.974Z</time></trkpt><trkpt lat="47.4229345970878" lon="5.247894104276077"><ele>245.0</ele><time>2026-04-06T13:12:17.974Z</time></trkpt><trkpt lat="47.42290021237097" lon="5.247975311444752"><ele>245.0</ele><time>2026-04-06T13:12:18.975Z</time></trkpt><trkpt lat="47.42283943319915" lon="5.248121504387635"><ele>245.0</ele><time>2026-04-06T13:12:20.974Z</time></trkpt><trkpt lat="47.42277071525857" lon="5.2482649019488266"><ele>244.5</ele><time>2026-04-06T13:12:22.974Z</time></trkpt><trkpt lat="47.42270451355808" lon="5.24841040624501"><ele>244.0</ele><time>2026-04-06T13:12:24.974Z</time></trkpt><trkpt lat="47.42264357820314" lon="5.248556767790097"><ele>243.5</ele><time>2026-04-06T13:12:26.974Z</time></trkpt><trkpt lat="47.42257638629147" lon="5.248703332127497"><ele>243.0</ele><time>2026-04-06T13:12:28.974Z</time></trkpt><trkpt lat="47.422510243398555" lon="5.248852793461433"><ele>243.25</ele><time>2026-04-06T13:12:30.974Z</time></trkpt><trkpt lat="47.42244514243765" lon="5.2489965101885545"><ele>243.5</ele><time>2026-04-06T13:12:32.974Z</time></trkpt><trkpt lat="47.42237899548055" lon="5.2491466893078425"><ele>243.75</ele><time>2026-04-06T13:12:34.974Z</time></trkpt><trkpt lat="47.42231970737809" lon="5.249292636583021"><ele>244.0</ele><time>2026-04-06T13:12:36.974Z</time></trkpt><trkpt lat="47.42225877547054" lon="5.249428411255057"><ele>244.0</ele><time>2026-04-06T13:12:38.974Z</time></trkpt><trkpt lat="47.4222069510327" lon="5.249567510543644"><ele>243.99999999999997</ele><time>2026-04-06T13:12:40.974Z</time></trkpt><trkpt lat="47.422143731992385" lon="5.249696001617056"><ele>243.99999999999997</ele><time>2026-04-06T13:12:42.974Z</time></trkpt><trkpt lat="47.42208169169997" lon="5.249828585291807"><ele>244.0</ele><time>2026-04-06T13:12:44.974Z</time></trkpt><trkpt lat="47.42202479898281" lon="5.249961078096747"><ele>244.0</ele><time>2026-04-06T13:12:46.974Z</time></trkpt><trkpt lat="47.42196681617727" lon="5.250091645117103"><ele>244.2</ele><time>2026-04-06T13:12:48.974Z</time></trkpt><trkpt lat="47.42190705533397" lon="5.250219265866243"><ele>244.39999999999998</ele><time>2026-04-06T13:12:50.974Z</time></trkpt><trkpt lat="47.4218495376121" lon="5.25034875712809"><ele>244.6</ele><time>2026-04-06T13:12:52.974Z</time></trkpt><trkpt lat="47.421792892705895" lon="5.250483789786368"><ele>244.8</ele><time>2026-04-06T13:12:54.974Z</time></trkpt><trkpt lat="47.421735648073415" lon="5.2506169132749125"><ele>245.0</ele><time>2026-04-06T13:12:56.974Z</time></trkpt><trkpt lat="47.42167233744201" lon="5.250749278414517"><ele>245.2</ele><time>2026-04-06T13:12:58.974Z</time></trkpt><trkpt lat="47.421614375180575" lon="5.250892534216822"><ele>245.4</ele><time>2026-04-06T13:13:00.974Z</time></trkpt><trkpt lat="47.421551119813564" lon="5.25102841695669"><ele>245.60000000000002</ele><time>2026-04-06T13:13:02.974Z</time></trkpt><trkpt lat="47.42148716819507" lon="5.251161664272235"><ele>245.8</ele><time>2026-04-06T13:13:04.974Z</time></trkpt><trkpt lat="47.42142377257008" lon="5.251299982063335"><ele>246.0</ele><time>2026-04-06T13:13:06.974Z</time></trkpt><trkpt lat="47.42135652871063" lon="5.251442847417524"><ele>245.4</ele><time>2026-04-06T13:13:08.974Z</time></trkpt><trkpt lat="47.421289886477865" lon="5.251581867300241"><ele>244.8</ele><time>2026-04-06T13:13:10.973Z</time></trkpt><trkpt lat="47.42121698161975" lon="5.251727870931766"><ele>244.20000000000002</ele><time>2026-04-06T13:13:12.973Z</time></trkpt><trkpt lat="47.42114183733016" lon="5.25187327858848"><ele>243.60000000000002</ele><time>2026-04-06T13:13:14.973Z</time></trkpt><trkpt lat="47.42110212100097" lon="5.2519474002185955"><ele>243.0</ele><time>2026-04-06T13:13:15.973Z</time></trkpt><trkpt lat="47.421066224280565" lon="5.252027976871745"><ele>243.0</ele><time>2026-04-06T13:13:16.973Z</time></trkpt><trkpt lat="47.42099009659043" lon="5.25217356192265"><ele>243.0</ele><time>2026-04-06T13:13:18.973Z</time></trkpt><trkpt lat="47.42091639329933" lon="5.252320005903498"><ele>243.0</ele><time>2026-04-06T13:13:20.973Z</time></trkpt><trkpt lat="47.42084315172581" lon="5.2524632229677986"><ele>243.0</ele><time>2026-04-06T13:13:22.973Z</time></trkpt><trkpt lat="47.420769757103734" lon="5.252610932764785"><ele>243.2</ele><time>2026-04-06T13:13:24.973Z</time></trkpt><trkpt lat="47.42069857388321" lon="5.25275528633202"><ele>243.4</ele><time>2026-04-06T13:13:26.973Z</time></trkpt><trkpt lat="47.42062348415699" lon="5.252897931439111"><ele>243.59999999999997</ele><time>2026-04-06T13:13:28.973Z</time></trkpt><trkpt lat="47.42055006031019" lon="5.253038982656515"><ele>243.79999999999998</ele><time>2026-04-06T13:13:30.973Z</time></trkpt><trkpt lat="47.42051086380064" lon="5.2531126926001335"><ele>244.0</ele><time>2026-04-06T13:13:31.973Z</time></trkpt><trkpt lat="47.42043802839059" lon="5.253256253635025"><ele>243.5</ele><time>2026-04-06T13:13:33.973Z</time></trkpt><trkpt lat="47.420367035117394" lon="5.253398967438325"><ele>243.0</ele><time>2026-04-06T13:13:35.973Z</time></trkpt><trkpt lat="47.420296640950774" lon="5.253539580833942"><ele>242.5</ele><time>2026-04-06T13:13:37.973Z</time></trkpt><trkpt lat="47.420228746321904" lon="5.253676875885981"><ele>242.0</ele><time>2026-04-06T13:13:39.973Z</time></trkpt><trkpt lat="47.420160510749916" lon="5.253819406485503"><ele>242.2</ele><time>2026-04-06T13:13:41.973Z</time></trkpt><trkpt lat="47.420095781221434" lon="5.25395887107642"><ele>242.39999999999998</ele><time>2026-04-06T13:13:43.973Z</time></trkpt><trkpt lat="47.42003511040274" lon="5.254088743442263"><ele>242.60000000000002</ele><time>2026-04-06T13:13:45.973Z</time></trkpt><trkpt lat="47.41997432197171" lon="5.254236942579246"><ele>242.8</ele><time>2026-04-06T13:13:47.973Z</time></trkpt><trkpt lat="47.41994058413798" lon="5.254386026575936"><ele>243.0</ele><time>2026-04-06T13:13:49.973Z</time></trkpt><trkpt lat="47.42000954726148" lon="5.254512941492778"><ele>243.0</ele><time>2026-04-06T13:13:51.973Z</time></trkpt><trkpt lat="47.42009685811398" lon="5.254583542344714"><ele>243.0</ele><time>2026-04-06T13:13:53.973Z</time></trkpt><trkpt lat="47.42018140832032" lon="5.2546492783534395"><ele>243.0</ele><time>2026-04-06T13:13:55.973Z</time></trkpt><trkpt lat="47.42026960336209" lon="5.254731370069947"><ele>243.0</ele><time>2026-04-06T13:13:57.973Z</time></trkpt><trkpt lat="47.42036114975074" lon="5.2548196046654505"><ele>243.0</ele><time>2026-04-06T13:13:59.973Z</time></trkpt><trkpt lat="47.42044473221783" lon="5.254909568417996"><ele>244.0</ele><time>2026-04-06T13:14:01.973Z</time></trkpt><trkpt lat="47.42053978960147" lon="5.254990749808887"><ele>245.0</ele><time>2026-04-06T13:14:03.973Z</time></trkpt><trkpt lat="47.42062314554506" lon="5.255074256579847"><ele>246.0</ele><time>2026-04-06T13:14:05.973Z</time></trkpt><trkpt lat="47.42071183680894" lon="5.255160613373936"><ele>247.0</ele><time>2026-04-06T13:14:07.973Z</time></trkpt><trkpt lat="47.42079686081992" lon="5.255245635452089"><ele>248.0</ele><time>2026-04-06T13:14:09.973Z</time></trkpt><trkpt lat="47.42088816754196" lon="5.255329775198377"><ele>248.0</ele><time>2026-04-06T13:14:11.973Z</time></trkpt><trkpt lat="47.42097704068975" lon="5.255409827654188"><ele>248.0</ele><time>2026-04-06T13:14:13.973Z</time></trkpt><trkpt lat="47.42106644688588" lon="5.255494158392343"><ele>248.0</ele><time>2026-04-06T13:14:15.973Z</time></trkpt><trkpt lat="47.421147518479316" lon="5.255566755453201"><ele>248.0</ele><time>2026-04-06T13:14:17.973Z</time></trkpt><trkpt lat="47.42121376279041" lon="5.255630963552304"><ele>248.0</ele><time>2026-04-06T13:14:19.973Z</time></trkpt><trkpt lat="47.42128981778833" lon="5.255678927897019"><ele>248.60000000000002</ele><time>2026-04-06T13:14:21.973Z</time></trkpt><trkpt lat="47.421355584429016" lon="5.25575665231037"><ele>249.20000000000002</ele><time>2026-04-06T13:14:23.973Z</time></trkpt><trkpt lat="47.42143869046018" lon="5.255824176044678"><ele>249.8</ele><time>2026-04-06T13:14:25.972Z</time></trkpt><trkpt lat="47.42151833737866" lon="5.25590061918802"><ele>250.4</ele><time>2026-04-06T13:14:27.972Z</time></trkpt><trkpt lat="47.42160887504918" lon="5.255981585542922"><ele>251.0</ele><time>2026-04-06T13:14:29.972Z</time></trkpt><trkpt lat="47.42169384145514" lon="5.2560709326319035"><ele>251.0</ele><time>2026-04-06T13:14:31.972Z</time></trkpt><trkpt lat="47.42177579175624" lon="5.25616205501027"><ele>251.00000000000003</ele><time>2026-04-06T13:14:33.972Z</time></trkpt><trkpt lat="47.421862774409654" lon="5.256262722468252"><ele>251.00000000000003</ele><time>2026-04-06T13:14:35.972Z</time></trkpt><trkpt lat="47.4219391171031" lon="5.256377957607288"><ele>251.0</ele><time>2026-04-06T13:14:37.972Z</time></trkpt><trkpt lat="47.422023156269745" lon="5.256492275856453"><ele>251.0</ele><time>2026-04-06T13:14:39.972Z</time></trkpt><trkpt lat="47.4221088375756" lon="5.256622993229892"><ele>251.00000000000003</ele><time>2026-04-06T13:14:41.972Z</time></trkpt><trkpt lat="47.42216032958812" lon="5.256692236661061"><ele>251.0</ele><time>2026-04-06T13:14:42.972Z</time></trkpt><trkpt lat="47.42225507514764" lon="5.256828044501018"><ele>251.0</ele><time>2026-04-06T13:14:44.972Z</time></trkpt><trkpt lat="47.42230269117711" lon="5.256897399760847"><ele>251.0</ele><time>2026-04-06T13:14:45.972Z</time></trkpt><trkpt lat="47.42235278043848" lon="5.256964388751283"><ele>251.00000000000003</ele><time>2026-04-06T13:14:46.972Z</time></trkpt><trkpt lat="47.422405949183755" lon="5.2570309808659035"><ele>251.0</ele><time>2026-04-06T13:14:47.972Z</time></trkpt><trkpt lat="47.4224590959973" lon="5.257111673845884"><ele>251.00000000000003</ele><time>2026-04-06T13:14:48.972Z</time></trkpt><trkpt lat="47.422561736542534" lon="5.257249518518961"><ele>251.0</ele><time>2026-04-06T13:14:50.972Z</time></trkpt><trkpt lat="47.42261834791105" lon="5.25732716205482"><ele>251.0</ele><time>2026-04-06T13:14:51.972Z</time></trkpt><trkpt lat="47.422674112267984" lon="5.257405757870051"><ele>251.0</ele><time>2026-04-06T13:14:52.972Z</time></trkpt><trkpt lat="47.42272848741744" lon="5.257489914039974"><ele>251.00000000000003</ele><time>2026-04-06T13:14:53.972Z</time></trkpt><trkpt lat="47.422786741877054" lon="5.257563638452925"><ele>251.0</ele><time>2026-04-06T13:14:54.972Z</time></trkpt><trkpt lat="47.42285117256729" lon="5.2576359907590975"><ele>250.50000000000003</ele><time>2026-04-06T13:14:55.972Z</time></trkpt><trkpt lat="47.42295385071655" lon="5.257767970910813"><ele>250.0</ele><time>2026-04-06T13:14:57.972Z</time></trkpt><trkpt lat="47.42300960964417" lon="5.25784210361081"><ele>249.5</ele><time>2026-04-06T13:14:58.972Z</time></trkpt><trkpt lat="47.4230610268252" lon="5.257917012535696"><ele>249.0</ele><time>2026-04-06T13:14:59.972Z</time></trkpt><trkpt lat="47.42311204493236" lon="5.257995322897899"><ele>248.50000000000003</ele><time>2026-04-06T13:15:00.972Z</time></trkpt><trkpt lat="47.4231645175848" lon="5.258068305120933"><ele>248.0</ele><time>2026-04-06T13:15:01.972Z</time></trkpt><trkpt lat="47.423217534511274" lon="5.25813873902656"><ele>247.42857142857144</ele><time>2026-04-06T13:15:02.972Z</time></trkpt><trkpt lat="47.42326904651264" lon="5.258210121918713"><ele>246.8571428571429</ele><time>2026-04-06T13:15:03.972Z</time></trkpt><trkpt lat="47.423320541552954" lon="5.258285164546908"><ele>246.28571428571428</ele><time>2026-04-06T13:15:04.972Z</time></trkpt><trkpt lat="47.42337328825095" lon="5.2583588084940205"><ele>245.71428571428572</ele><time>2026-04-06T13:15:05.972Z</time></trkpt><trkpt lat="47.423424463806654" lon="5.258424916709585"><ele>245.14285714285714</ele><time>2026-04-06T13:15:06.972Z</time></trkpt><trkpt lat="47.423473237371155" lon="5.258492620976276"><ele>244.57142857142856</ele><time>2026-04-06T13:15:07.972Z</time></trkpt><trkpt lat="47.42352393162422" lon="5.258564159990661"><ele>243.99999999999997</ele><time>2026-04-06T13:15:08.972Z</time></trkpt><trkpt lat="47.42356435850506" lon="5.258635885068895"><ele>243.99999999999997</ele><time>2026-04-06T13:15:09.972Z</time></trkpt><trkpt lat="47.42358815671264" lon="5.258726466706669"><ele>244.0</ele><time>2026-04-06T13:15:10.972Z</time></trkpt><trkpt lat="47.42357956065734" lon="5.258822836677324"><ele>244.0</ele><time>2026-04-06T13:15:11.972Z</time></trkpt><trkpt lat="47.42354823860606" lon="5.258909955647165"><ele>244.0</ele><time>2026-04-06T13:15:12.972Z</time></trkpt><trkpt lat="47.42350664976284" lon="5.258990006373037"><ele>243.99999999999997</ele><time>2026-04-06T13:15:13.972Z</time></trkpt><trkpt lat="47.42342188826136" lon="5.259136165938357"><ele>244.0</ele><time>2026-04-06T13:15:15.972Z</time></trkpt><trkpt lat="47.423384828179" lon="5.259221251947763"><ele>243.85714285714283</ele><time>2026-04-06T13:15:16.972Z</time></trkpt><trkpt lat="47.42334948442425" lon="5.259298650745709"><ele>243.71428571428572</ele><time>2026-04-06T13:15:17.972Z</time></trkpt><trkpt lat="47.42330673150364" lon="5.259378397562262"><ele>243.57142857142856</ele><time>2026-04-06T13:15:18.972Z</time></trkpt><trkpt lat="47.42326763339548" lon="5.259455337732282"><ele>243.42857142857142</ele><time>2026-04-06T13:15:19.972Z</time></trkpt><trkpt lat="47.42323048460098" lon="5.259537798067208"><ele>243.28571428571428</ele><time>2026-04-06T13:15:20.972Z</time></trkpt><trkpt lat="47.42319066235924" lon="5.259618719660387"><ele>243.14285714285714</ele><time>2026-04-06T13:15:21.972Z</time></trkpt><trkpt lat="47.42314892729815" lon="5.259702984814657"><ele>243.0</ele><time>2026-04-06T13:15:22.972Z</time></trkpt><trkpt lat="47.42310875767461" lon="5.259787376662203"><ele>243.0</ele><time>2026-04-06T13:15:23.972Z</time></trkpt><trkpt lat="47.42306296871923" lon="5.259867535228062"><ele>243.0</ele><time>2026-04-06T13:15:24.972Z</time></trkpt><trkpt lat="47.42302132571016" lon="5.2599541835170625"><ele>243.0</ele><time>2026-04-06T13:15:25.972Z</time></trkpt><trkpt lat="47.42298060587539" lon="5.26003729034365"><ele>243.0</ele><time>2026-04-06T13:15:26.972Z</time></trkpt><trkpt lat="47.42293914888056" lon="5.260120691087202"><ele>243.0</ele><time>2026-04-06T13:15:27.972Z</time></trkpt><trkpt lat="47.42289690104648" lon="5.260207074092781"><ele>243.0</ele><time>2026-04-06T13:15:28.972Z</time></trkpt><trkpt lat="47.4228563186691" lon="5.260294567955551"><ele>243.0</ele><time>2026-04-06T13:15:29.972Z</time></trkpt><trkpt lat="47.42281509113786" lon="5.26037499516018"><ele>242.85714285714283</ele><time>2026-04-06T13:15:30.972Z</time></trkpt><trkpt lat="47.42277074348289" lon="5.260459707789739"><ele>242.71428571428572</ele><time>2026-04-06T13:15:31.972Z</time></trkpt><trkpt lat="47.42273191624504" lon="5.260543480524453"><ele>242.57142857142856</ele><time>2026-04-06T13:15:32.972Z</time></trkpt><trkpt lat="47.42269186497405" lon="5.260626641005133"><ele>242.42857142857142</ele><time>2026-04-06T13:15:33.972Z</time></trkpt><trkpt lat="47.42265265695902" lon="5.260707414120358"><ele>242.28571428571428</ele><time>2026-04-06T13:15:34.972Z</time></trkpt><trkpt lat="47.42260954231121" lon="5.2607915758706625"><ele>242.14285714285714</ele><time>2026-04-06T13:15:35.972Z</time></trkpt><trkpt lat="47.42256999113275" lon="5.26086633693653"><ele>242.0</ele><time>2026-04-06T13:15:36.972Z</time></trkpt><trkpt lat="47.42253034808529" lon="5.260951135364822"><ele>241.83333333333334</ele><time>2026-04-06T13:15:37.972Z</time></trkpt><trkpt lat="47.42248952655932" lon="5.261030899731997"><ele>241.66666666666669</ele><time>2026-04-06T13:15:38.972Z</time></trkpt><trkpt lat="47.42245166936692" lon="5.261106890757655"><ele>241.5</ele><time>2026-04-06T13:15:39.972Z</time></trkpt><trkpt lat="47.422413236316956" lon="5.26118662540336"><ele>241.33333333333331</ele><time>2026-04-06T13:15:40.972Z</time></trkpt><trkpt lat="47.42237592169886" lon="5.26126516716313"><ele>241.16666666666666</ele><time>2026-04-06T13:15:41.972Z</time></trkpt><trkpt lat="47.42233662527689" lon="5.261342495527402"><ele>241.0</ele><time>2026-04-06T13:15:42.972Z</time></trkpt><trkpt lat="47.422262413947685" lon="5.261490081460988"><ele>241.0</ele><time>2026-04-06T13:15:44.972Z</time></trkpt><trkpt lat="47.422189491891785" lon="5.261637337421872"><ele>241.00000000000003</ele><time>2026-04-06T13:15:46.972Z</time></trkpt><trkpt lat="47.42215063392554" lon="5.261711417743901"><ele>241.00000000000003</ele><time>2026-04-06T13:15:47.972Z</time></trkpt><trkpt lat="47.42207418079833" lon="5.261859671059585"><ele>241.0</ele><time>2026-04-06T13:15:49.972Z</time></trkpt><trkpt lat="47.422035872934295" lon="5.26193513017096"><ele>241.0</ele><time>2026-04-06T13:15:50.972Z</time></trkpt><trkpt lat="47.42196197826446" lon="5.2620791338158055"><ele>240.66666666666666</ele><time>2026-04-06T13:15:52.972Z</time></trkpt><trkpt lat="47.42192197943661" lon="5.26215602589911"><ele>240.33333333333331</ele><time>2026-04-06T13:15:53.972Z</time></trkpt><trkpt lat="47.42184846656813" lon="5.262305356576063"><ele>240.0</ele><time>2026-04-06T13:15:55.972Z</time></trkpt><trkpt lat="47.42181245312882" lon="5.262383398235916"><ele>239.66666666666669</ele><time>2026-04-06T13:15:56.972Z</time></trkpt><trkpt lat="47.42174391634857" lon="5.262535286200092"><ele>239.33333333333334</ele><time>2026-04-06T13:15:58.972Z</time></trkpt><trkpt lat="47.421709890714965" lon="5.262618054528398"><ele>239.0</ele><time>2026-04-06T13:15:59.972Z</time></trkpt><trkpt lat="47.421632911403584" lon="5.262767030056055"><ele>239.0</ele><time>2026-04-06T13:16:01.972Z</time></trkpt><trkpt lat="47.421559744714855" lon="5.26291363752588"><ele>238.99999999999997</ele><time>2026-04-06T13:16:03.972Z</time></trkpt><trkpt lat="47.42152209732379" lon="5.262991193490885"><ele>238.99999999999997</ele><time>2026-04-06T13:16:04.972Z</time></trkpt><trkpt lat="47.421450179506394" lon="5.263145078807746"><ele>239.0</ele><time>2026-04-06T13:16:06.972Z</time></trkpt><trkpt lat="47.42137487376644" lon="5.263293124677478"><ele>239.0</ele><time>2026-04-06T13:16:08.972Z</time></trkpt><trkpt lat="47.42130368370096" lon="5.263446883421271"><ele>238.42857142857144</ele><time>2026-04-06T13:16:10.972Z</time></trkpt><trkpt lat="47.42126429197631" lon="5.2635203824336925"><ele>237.85714285714286</ele><time>2026-04-06T13:16:11.972Z</time></trkpt><trkpt lat="47.42122010697094" lon="5.263597037099872"><ele>237.28571428571428</ele><time>2026-04-06T13:16:12.972Z</time></trkpt><trkpt lat="47.421177198055396" lon="5.263666516324283"><ele>236.71428571428572</ele><time>2026-04-06T13:16:13.972Z</time></trkpt><trkpt lat="47.421134853397426" lon="5.263741551591885"><ele>236.1428571428571</ele><time>2026-04-06T13:16:14.972Z</time></trkpt><trkpt lat="47.421096571237214" lon="5.263815931889718"><ele>235.57142857142856</ele><time>2026-04-06T13:16:15.972Z</time></trkpt><trkpt lat="47.42106076935346" lon="5.263904407315898"><ele>235.0</ele><time>2026-04-06T13:16:16.972Z</time></trkpt><trkpt lat="47.4210205872223" lon="5.263984947942467"><ele>235.0</ele><time>2026-04-06T13:16:17.972Z</time></trkpt><trkpt lat="47.42098193350209" lon="5.264062394211541"><ele>234.99999999999997</ele><time>2026-04-06T13:16:18.971Z</time></trkpt><trkpt lat="47.420942206708844" lon="5.264140137712766"><ele>235.0</ele><time>2026-04-06T13:16:19.971Z</time></trkpt><trkpt lat="47.42090377780456" lon="5.264216641283425"><ele>235.0</ele><time>2026-04-06T13:16:20.971Z</time></trkpt><trkpt lat="47.4208630770195" lon="5.264298553054369"><ele>234.99999999999997</ele><time>2026-04-06T13:16:21.971Z</time></trkpt><trkpt lat="47.42082340486882" lon="5.264378496789421"><ele>235.0</ele><time>2026-04-06T13:16:22.971Z</time></trkpt><trkpt lat="47.42078586719587" lon="5.264456011974919"><ele>235.0</ele><time>2026-04-06T13:16:23.971Z</time></trkpt><trkpt lat="47.42074633967843" lon="5.264533514662172"><ele>235.0</ele><time>2026-04-06T13:16:24.971Z</time></trkpt><trkpt lat="47.4207047792691" lon="5.2646115175410175"><ele>235.0</ele><time>2026-04-06T13:16:25.971Z</time></trkpt><trkpt lat="47.42063641550989" lon="5.264745102192345"><ele>235.0</ele><time>2026-04-06T13:16:27.971Z</time></trkpt><trkpt lat="47.42061319068995" lon="5.264888154722005"><ele>235.0</ele><time>2026-04-06T13:16:29.971Z</time></trkpt><trkpt lat="47.4206740429818" lon="5.265009915658334"><ele>235.0</ele><time>2026-04-06T13:16:31.971Z</time></trkpt><trkpt lat="47.4207715611828" lon="5.265119469450482"><ele>235.0</ele><time>2026-04-06T13:16:33.971Z</time></trkpt><trkpt lat="47.42086549115361" lon="5.265242742961322"><ele>235.0</ele><time>2026-04-06T13:16:35.971Z</time></trkpt><trkpt lat="47.42095706928936" lon="5.265365047954592"><ele>235.0</ele><time>2026-04-06T13:16:37.971Z</time></trkpt><trkpt lat="47.42104651614863" lon="5.265490154434338"><ele>235.0</ele><time>2026-04-06T13:16:39.972Z</time></trkpt><trkpt lat="47.42113659178663" lon="5.265610202952793"><ele>234.75</ele><time>2026-04-06T13:16:41.971Z</time></trkpt><trkpt lat="47.42122945704518" lon="5.265732779557256"><ele>234.5</ele><time>2026-04-06T13:16:43.971Z</time></trkpt><trkpt lat="47.42131975883654" lon="5.265852693165891"><ele>234.25</ele><time>2026-04-06T13:16:45.971Z</time></trkpt><trkpt lat="47.42140967731672" lon="5.265979794639713"><ele>234.0</ele><time>2026-04-06T13:16:47.971Z</time></trkpt><trkpt lat="47.42149778007186" lon="5.266099923435583"><ele>234.5</ele><time>2026-04-06T13:16:49.971Z</time></trkpt><trkpt lat="47.421583975443625" lon="5.266221632838913"><ele>235.0</ele><time>2026-04-06T13:16:51.971Z</time></trkpt><trkpt lat="47.421676306492955" lon="5.266339191458564"><ele>235.5</ele><time>2026-04-06T13:16:53.971Z</time></trkpt><trkpt lat="47.42176529322506" lon="5.266463104837764"><ele>236.0</ele><time>2026-04-06T13:16:55.971Z</time></trkpt><trkpt lat="47.421854843959395" lon="5.266582205127401"><ele>236.0</ele><time>2026-04-06T13:16:57.971Z</time></trkpt><trkpt lat="47.42194769405676" lon="5.266707949102987"><ele>236.00000000000003</ele><time>2026-04-06T13:16:59.971Z</time></trkpt><trkpt lat="47.42203812583616" lon="5.266829880349829"><ele>236.00000000000003</ele><time>2026-04-06T13:17:01.971Z</time></trkpt><trkpt lat="47.42208344618937" lon="5.266895255270586"><ele>236.0</ele><time>2026-04-06T13:17:02.971Z</time></trkpt><trkpt lat="47.422131604302464" lon="5.266960083712263"><ele>236.0</ele><time>2026-04-06T13:17:03.971Z</time></trkpt><trkpt lat="47.42222657926644" lon="5.267087190577219"><ele>236.0</ele><time>2026-04-06T13:17:05.971Z</time></trkpt><trkpt lat="47.42227403547147" lon="5.267149124968386"><ele>236.0</ele><time>2026-04-06T13:17:06.971Z</time></trkpt><trkpt lat="47.42232265888564" lon="5.2672142745340285"><ele>236.0</ele><time>2026-04-06T13:17:07.971Z</time></trkpt><trkpt lat="47.42237150157254" lon="5.267280111070912"><ele>236.0</ele><time>2026-04-06T13:17:08.971Z</time></trkpt><trkpt lat="47.42242008504005" lon="5.267345920096111"><ele>236.0</ele><time>2026-04-06T13:17:09.971Z</time></trkpt><trkpt lat="47.42246986505302" lon="5.267411900479554"><ele>236.0</ele><time>2026-04-06T13:17:10.971Z</time></trkpt><trkpt lat="47.42251782212663" lon="5.267481654979137"><ele>236.0</ele><time>2026-04-06T13:17:11.971Z</time></trkpt><trkpt lat="47.42260964042229" lon="5.267610399682397"><ele>236.0</ele><time>2026-04-06T13:17:13.971Z</time></trkpt><trkpt lat="47.422659359613554" lon="5.267677049630476"><ele>236.0</ele><time>2026-04-06T13:17:14.971Z</time></trkpt><trkpt lat="47.42270834330431" lon="5.2677430688442834"><ele>236.0</ele><time>2026-04-06T13:17:15.971Z</time></trkpt><trkpt lat="47.422759639617254" lon="5.26780858617358"><ele>236.0</ele><time>2026-04-06T13:17:16.971Z</time></trkpt><trkpt lat="47.42280839163597" lon="5.267873303784353"><ele>236.0</ele><time>2026-04-06T13:17:17.971Z</time></trkpt><trkpt lat="47.422858641281444" lon="5.2679415154111995"><ele>236.0</ele><time>2026-04-06T13:17:18.971Z</time></trkpt><trkpt lat="47.42290863359712" lon="5.268004227820934"><ele>236.0</ele><time>2026-04-06T13:17:19.971Z</time></trkpt><trkpt lat="47.42295784538249" lon="5.2680661873328125"><ele>235.57142857142856</ele><time>2026-04-06T13:17:20.971Z</time></trkpt><trkpt lat="47.42300804371049" lon="5.268130863801159"><ele>235.14285714285717</ele><time>2026-04-06T13:17:21.971Z</time></trkpt><trkpt lat="47.42305354546205" lon="5.268195611302222"><ele>234.71428571428572</ele><time>2026-04-06T13:17:22.971Z</time></trkpt><trkpt lat="47.423101189308056" lon="5.268261269448424"><ele>234.28571428571428</ele><time>2026-04-06T13:17:23.971Z</time></trkpt><trkpt lat="47.423155099385355" lon="5.268320458683341"><ele>233.85714285714283</ele><time>2026-04-06T13:17:24.971Z</time></trkpt><trkpt lat="47.423207269143774" lon="5.268378534479222"><ele>233.42857142857144</ele><time>2026-04-06T13:17:25.971Z</time></trkpt><trkpt lat="47.42325481787765" lon="5.268440519324298"><ele>233.0</ele><time>2026-04-06T13:17:26.971Z</time></trkpt><trkpt lat="47.42329920586387" lon="5.268507537375856"><ele>233.00000000000003</ele><time>2026-04-06T13:17:27.971Z</time></trkpt><trkpt lat="47.423394703003126" lon="5.2686315940141"><ele>233.0</ele><time>2026-04-06T13:17:29.971Z</time></trkpt><trkpt lat="47.4234437016667" lon="5.26869253844549"><ele>233.0</ele><time>2026-04-06T13:17:30.971Z</time></trkpt><trkpt lat="47.423489108554854" lon="5.268757304649016"><ele>233.0</ele><time>2026-04-06T13:17:31.971Z</time></trkpt><trkpt lat="47.42358353201238" lon="5.268881845388804"><ele>233.00000000000003</ele><time>2026-04-06T13:17:33.971Z</time></trkpt><trkpt lat="47.423630575479336" lon="5.268943800903791"><ele>233.0</ele><time>2026-04-06T13:17:34.971Z</time></trkpt><trkpt lat="47.42368114230306" lon="5.269008059427314"><ele>233.0</ele><time>2026-04-06T13:17:35.971Z</time></trkpt><trkpt lat="47.423729697059464" lon="5.2690702628047985"><ele>233.0</ele><time>2026-04-06T13:17:36.971Z</time></trkpt><trkpt lat="47.42377930617123" lon="5.269133722350976"><ele>233.0</ele><time>2026-04-06T13:17:37.971Z</time></trkpt><trkpt lat="47.42382800204888" lon="5.269198924504337"><ele>233.0</ele><time>2026-04-06T13:17:38.971Z</time></trkpt><trkpt lat="47.42387780404685" lon="5.269264467158103"><ele>233.0</ele><time>2026-04-06T13:17:39.971Z</time></trkpt><trkpt lat="47.42392712315493" lon="5.2693374979159575"><ele>233.0</ele><time>2026-04-06T13:17:40.971Z</time></trkpt><trkpt lat="47.42397542482487" lon="5.269402928892174"><ele>233.0</ele><time>2026-04-06T13:17:41.971Z</time></trkpt><trkpt lat="47.424025756457596" lon="5.269472373335252"><ele>232.60000000000002</ele><time>2026-04-06T13:17:42.971Z</time></trkpt><trkpt lat="47.42411501569876" lon="5.269596819602524"><ele>232.20000000000002</ele><time>2026-04-06T13:17:44.971Z</time></trkpt><trkpt lat="47.424165688917235" lon="5.269663252483746"><ele>231.8</ele><time>2026-04-06T13:17:45.971Z</time></trkpt><trkpt lat="47.424246490356" lon="5.269794199361057"><ele>231.4</ele><time>2026-04-06T13:17:47.971Z</time></trkpt><trkpt lat="47.42432667969928" lon="5.269907788796777"><ele>231.0</ele><time>2026-04-06T13:17:49.971Z</time></trkpt><trkpt lat="47.42440833199531" lon="5.2700154602493265"><ele>231.0</ele><time>2026-04-06T13:17:51.971Z</time></trkpt><trkpt lat="47.42449254057103" lon="5.270132277974663"><ele>231.0</ele><time>2026-04-06T13:17:53.971Z</time></trkpt><trkpt lat="47.424575276564944" lon="5.270245336140943"><ele>231.0</ele><time>2026-04-06T13:17:55.971Z</time></trkpt><trkpt lat="47.424658763852975" lon="5.270358044771576"><ele>231.0</ele><time>2026-04-06T13:17:57.971Z</time></trkpt><trkpt lat="47.424739070477116" lon="5.2704693304860655"><ele>231.0</ele><time>2026-04-06T13:17:59.971Z</time></trkpt><trkpt lat="47.42482041535441" lon="5.27058119134397"><ele>231.00000000000003</ele><time>2026-04-06T13:18:01.971Z</time></trkpt><trkpt lat="47.42489917959737" lon="5.270684188025715"><ele>231.00000000000003</ele><time>2026-04-06T13:18:03.971Z</time></trkpt><trkpt lat="47.42497297163375" lon="5.270786003576437"><ele>231.0</ele><time>2026-04-06T13:18:05.971Z</time></trkpt><trkpt lat="47.42504873568928" lon="5.2708924482697235"><ele>231.0</ele><time>2026-04-06T13:18:07.971Z</time></trkpt><trkpt lat="47.42512887777749" lon="5.270997462839803"><ele>231.4</ele><time>2026-04-06T13:18:09.971Z</time></trkpt><trkpt lat="47.425206210125175" lon="5.271095377454832"><ele>231.8</ele><time>2026-04-06T13:18:11.971Z</time></trkpt><trkpt lat="47.425284915723296" lon="5.271199634264154"><ele>232.20000000000002</ele><time>2026-04-06T13:18:13.971Z</time></trkpt><trkpt lat="47.42536429398112" lon="5.271302048943844"><ele>232.60000000000002</ele><time>2026-04-06T13:18:15.971Z</time></trkpt><trkpt lat="47.42544230981268" lon="5.271412165715526"><ele>233.0</ele><time>2026-04-06T13:18:17.971Z</time></trkpt><trkpt lat="47.42552057601186" lon="5.271518725234462"><ele>233.0</ele><time>2026-04-06T13:18:19.971Z</time></trkpt><trkpt lat="47.42559882964539" lon="5.271630668206229"><ele>233.0</ele><time>2026-04-06T13:18:21.971Z</time></trkpt><trkpt lat="47.425678455905874" lon="5.271737478818985"><ele>233.0</ele><time>2026-04-06T13:18:23.971Z</time></trkpt><trkpt lat="47.42575565037349" lon="5.271843425705585"><ele>233.0</ele><time>2026-04-06T13:18:25.971Z</time></trkpt><trkpt lat="47.42583631612548" lon="5.271947105909188"><ele>233.0</ele><time>2026-04-06T13:18:27.971Z</time></trkpt><trkpt lat="47.425913872058786" lon="5.272056935428446"><ele>233.0</ele><time>2026-04-06T13:18:29.971Z</time></trkpt><trkpt lat="47.425994591044564" lon="5.272166355811116"><ele>233.0</ele><time>2026-04-06T13:18:31.971Z</time></trkpt><trkpt lat="47.426081108271575" lon="5.272276013741724"><ele>233.0</ele><time>2026-04-06T13:18:33.97Z</time></trkpt><trkpt lat="47.426169438715576" lon="5.272389684129631"><ele>233.0</ele><time>2026-04-06T13:18:35.97Z</time></trkpt><trkpt lat="47.426252403970736" lon="5.27250114989483"><ele>232.50000000000003</ele><time>2026-04-06T13:18:37.969Z</time></trkpt><trkpt lat="47.426340291262356" lon="5.272621597804123"><ele>232.0</ele><time>2026-04-06T13:18:39.969Z</time></trkpt><trkpt lat="47.426427887133634" lon="5.27273788667876"><ele>231.5</ele><time>2026-04-06T13:18:41.97Z</time></trkpt><trkpt lat="47.42647725474151" lon="5.272805763628818"><ele>231.0</ele><time>2026-04-06T13:18:42.969Z</time></trkpt><trkpt lat="47.42652434875773" lon="5.272868061806208"><ele>230.50000000000003</ele><time>2026-04-06T13:18:43.969Z</time></trkpt><trkpt lat="47.42657292301329" lon="5.272935049031902"><ele>230.0</ele><time>2026-04-06T13:18:44.969Z</time></trkpt><trkpt lat="47.42662464768606" lon="5.273005831758911"><ele>230.00000000000003</ele><time>2026-04-06T13:18:45.97Z</time></trkpt><trkpt lat="47.42667553205942" lon="5.273075372034938"><ele>230.0</ele><time>2026-04-06T13:18:46.97Z</time></trkpt><trkpt lat="47.42673343877173" lon="5.2731514197478555"><ele>230.0</ele><time>2026-04-06T13:18:47.97Z</time></trkpt><trkpt lat="47.42679128306937" lon="5.27321526951294"><ele>230.0</ele><time>2026-04-06T13:18:48.97Z</time></trkpt><trkpt lat="47.42685862980943" lon="5.273288541174209"><ele>230.00000000000003</ele><time>2026-04-06T13:18:49.97Z</time></trkpt><trkpt lat="47.42691960911157" lon="5.27335698615013"><ele>230.0</ele><time>2026-04-06T13:18:50.97Z</time></trkpt><trkpt lat="47.42699250096718" lon="5.273428445096235"><ele>230.16666666666669</ele><time>2026-04-06T13:18:51.97Z</time></trkpt><trkpt lat="47.42706594733833" lon="5.273508699049642"><ele>230.33333333333334</ele><time>2026-04-06T13:18:52.97Z</time></trkpt><trkpt lat="47.42713671616175" lon="5.273582994984093"><ele>230.5</ele><time>2026-04-06T13:18:53.97Z</time></trkpt><trkpt lat="47.42720931757088" lon="5.273662936265491"><ele>230.66666666666669</ele><time>2026-04-06T13:18:54.97Z</time></trkpt><trkpt lat="47.42727437087903" lon="5.273742447164089"><ele>230.83333333333334</ele><time>2026-04-06T13:18:55.97Z</time></trkpt><trkpt lat="47.42733926155701" lon="5.273829808352224"><ele>231.0</ele><time>2026-04-06T13:18:56.97Z</time></trkpt><trkpt lat="47.42740258975626" lon="5.273926447414473"><ele>229.66666666666666</ele><time>2026-04-06T13:18:57.97Z</time></trkpt><trkpt lat="47.42745656277391" lon="5.274034887001099"><ele>228.33333333333331</ele><time>2026-04-06T13:18:58.97Z</time></trkpt><trkpt lat="47.42751320089512" lon="5.274135004364804"><ele>227.0</ele><time>2026-04-06T13:18:59.97Z</time></trkpt><trkpt lat="47.427568425511176" lon="5.274232274294693"><ele>225.66666666666666</ele><time>2026-04-06T13:19:00.97Z</time></trkpt><trkpt lat="47.42762837736335" lon="5.274334467875095"><ele>224.33333333333331</ele><time>2026-04-06T13:19:01.97Z</time></trkpt><trkpt lat="47.42768504271051" lon="5.274432993653243"><ele>223.0</ele><time>2026-04-06T13:19:02.97Z</time></trkpt><trkpt lat="47.4277457386001" lon="5.27452705796699"><ele>222.99999999999997</ele><time>2026-04-06T13:19:03.97Z</time></trkpt><trkpt lat="47.42780147094652" lon="5.274628622624771"><ele>223.0</ele><time>2026-04-06T13:19:04.97Z</time></trkpt><trkpt lat="47.427861357409775" lon="5.274725172562374"><ele>223.0</ele><time>2026-04-06T13:19:05.97Z</time></trkpt><trkpt lat="47.427917143985084" lon="5.274815505120274"><ele>223.0</ele><time>2026-04-06T13:19:06.97Z</time></trkpt><trkpt lat="47.42797256525765" lon="5.27490282195843"><ele>222.99999999999997</ele><time>2026-04-06T13:19:07.97Z</time></trkpt><trkpt lat="47.42803008133361" lon="5.274997282686045"><ele>223.0</ele><time>2026-04-06T13:19:08.97Z</time></trkpt><trkpt lat="47.42808531958143" lon="5.27509202865445"><ele>221.99999999999997</ele><time>2026-04-06T13:19:09.97Z</time></trkpt><trkpt lat="47.42813942217936" lon="5.2751812787451495"><ele>221.0</ele><time>2026-04-06T13:19:10.97Z</time></trkpt><trkpt lat="47.42819408119629" lon="5.275265224591618"><ele>220.0</ele><time>2026-04-06T13:19:11.97Z</time></trkpt><trkpt lat="47.42824959225318" lon="5.275354721824821"><ele>219.0</ele><time>2026-04-06T13:19:12.97Z</time></trkpt><trkpt lat="47.42830210373806" lon="5.275439953396442"><ele>217.99999999999997</ele><time>2026-04-06T13:19:13.969Z</time></trkpt><trkpt lat="47.428357608624296" lon="5.275527150092631"><ele>217.0</ele><time>2026-04-06T13:19:14.969Z</time></trkpt><trkpt lat="47.42840893153176" lon="5.275602781581974"><ele>217.66666666666666</ele><time>2026-04-06T13:19:15.969Z</time></trkpt><trkpt lat="47.42845939157615" lon="5.275693275468349"><ele>218.33333333333331</ele><time>2026-04-06T13:19:16.969Z</time></trkpt><trkpt lat="47.42851040234374" lon="5.275778244813526"><ele>219.0</ele><time>2026-04-06T13:19:17.969Z</time></trkpt><trkpt lat="47.42856967517655" lon="5.275857280040477"><ele>219.66666666666669</ele><time>2026-04-06T13:19:18.969Z</time></trkpt><trkpt lat="47.428622107253254" lon="5.275938490400899"><ele>220.33333333333334</ele><time>2026-04-06T13:19:19.969Z</time></trkpt><trkpt lat="47.428673909797226" lon="5.2760237950805"><ele>221.0</ele><time>2026-04-06T13:19:20.969Z</time></trkpt><trkpt lat="47.428725431882704" lon="5.2761039008221715"><ele>221.00000000000003</ele><time>2026-04-06T13:19:21.969Z</time></trkpt><trkpt lat="47.42877844423996" lon="5.276189310378486"><ele>221.0</ele><time>2026-04-06T13:19:22.969Z</time></trkpt><trkpt lat="47.42883081538119" lon="5.27627428844719"><ele>221.0</ele><time>2026-04-06T13:19:23.969Z</time></trkpt><trkpt lat="47.428881155985096" lon="5.276363377899281"><ele>221.0</ele><time>2026-04-06T13:19:24.969Z</time></trkpt><trkpt lat="47.42893344632033" lon="5.276447638918381"><ele>221.00000000000003</ele><time>2026-04-06T13:19:25.969Z</time></trkpt><trkpt lat="47.428986067221764" lon="5.2765327427677695"><ele>221.0</ele><time>2026-04-06T13:19:26.969Z</time></trkpt><trkpt lat="47.429036015945606" lon="5.276618124836819"><ele>220.50000000000003</ele><time>2026-04-06T13:19:27.969Z</time></trkpt><trkpt lat="47.42908793631985" lon="5.276702071920345"><ele>220.0</ele><time>2026-04-06T13:19:28.969Z</time></trkpt><trkpt lat="47.42913970331354" lon="5.276788786113651"><ele>219.5</ele><time>2026-04-06T13:19:29.969Z</time></trkpt><trkpt lat="47.42918865944227" lon="5.276871864130722"><ele>219.0</ele><time>2026-04-06T13:19:30.969Z</time></trkpt><trkpt lat="47.4292408510194" lon="5.2769580704923085"><ele>218.50000000000003</ele><time>2026-04-06T13:19:31.969Z</time></trkpt><trkpt lat="47.42928702179938" lon="5.277045301314271"><ele>218.0</ele><time>2026-04-06T13:19:32.969Z</time></trkpt><trkpt lat="47.4293393324807" lon="5.277127588471996"><ele>218.00000000000003</ele><time>2026-04-06T13:19:33.969Z</time></trkpt><trkpt lat="47.42938812918652" lon="5.277213387931672"><ele>218.0</ele><time>2026-04-06T13:19:34.969Z</time></trkpt><trkpt lat="47.429438142861926" lon="5.277297907390987"><ele>218.0</ele><time>2026-04-06T13:19:35.969Z</time></trkpt><trkpt lat="47.42948450511826" lon="5.277382610489911"><ele>218.0</ele><time>2026-04-06T13:19:36.969Z</time></trkpt><trkpt lat="47.42953242824578" lon="5.277470096626222"><ele>218.00000000000003</ele><time>2026-04-06T13:19:37.969Z</time></trkpt><trkpt lat="47.42957633377732" lon="5.277555093182454"><ele>218.0</ele><time>2026-04-06T13:19:38.969Z</time></trkpt><trkpt lat="47.42962658551678" lon="5.277641797698361"><ele>217.71428571428572</ele><time>2026-04-06T13:19:39.969Z</time></trkpt><trkpt lat="47.42967202835217" lon="5.277723636866529"><ele>217.42857142857144</ele><time>2026-04-06T13:19:40.969Z</time></trkpt><trkpt lat="47.42971687192525" lon="5.277805829600431"><ele>217.14285714285714</ele><time>2026-04-06T13:19:41.969Z</time></trkpt><trkpt lat="47.429757551718666" lon="5.2778852213137535"><ele>216.85714285714286</ele><time>2026-04-06T13:19:42.969Z</time></trkpt><trkpt lat="47.42980752135983" lon="5.277969839715659"><ele>216.57142857142856</ele><time>2026-04-06T13:19:43.969Z</time></trkpt><trkpt lat="47.42985298651537" lon="5.278052713915902"><ele>216.28571428571428</ele><time>2026-04-06T13:19:44.969Z</time></trkpt><trkpt lat="47.429896812933265" lon="5.278127178050957"><ele>216.0</ele><time>2026-04-06T13:19:45.969Z</time></trkpt><trkpt lat="47.42994582724396" lon="5.278203328998828"><ele>216.0</ele><time>2026-04-06T13:19:46.969Z</time></trkpt><trkpt lat="47.429989222665036" lon="5.278275546590391"><ele>216.00000000000003</ele><time>2026-04-06T13:19:47.969Z</time></trkpt><trkpt lat="47.43003282364597" lon="5.278350347558841"><ele>216.00000000000003</ele><time>2026-04-06T13:19:48.969Z</time></trkpt><trkpt lat="47.43011628648449" lon="5.278492521077214"><ele>216.0</ele><time>2026-04-06T13:19:50.969Z</time></trkpt><trkpt lat="47.430162646865135" lon="5.278568727545349"><ele>216.0</ele><time>2026-04-06T13:19:51.969Z</time></trkpt><trkpt lat="47.43024352321725" lon="5.278701308234578"><ele>216.0</ele><time>2026-04-06T13:19:53.969Z</time></trkpt><trkpt lat="47.430288301910224" lon="5.278774685729501"><ele>216.00000000000003</ele><time>2026-04-06T13:19:54.969Z</time></trkpt><trkpt lat="47.43037428991466" lon="5.278912376992359"><ele>216.00000000000003</ele><time>2026-04-06T13:19:56.969Z</time></trkpt><trkpt lat="47.43045284839147" lon="5.279046296137625"><ele>216.0</ele><time>2026-04-06T13:19:58.969Z</time></trkpt><trkpt lat="47.430495006444055" lon="5.279118382145389"><ele>216.0</ele><time>2026-04-06T13:19:59.969Z</time></trkpt><trkpt lat="47.430577404395386" lon="5.279258753007435"><ele>216.20000000000002</ele><time>2026-04-06T13:20:01.969Z</time></trkpt><trkpt lat="47.43065826560481" lon="5.27939360462281"><ele>216.40000000000003</ele><time>2026-04-06T13:20:03.969Z</time></trkpt><trkpt lat="47.43073467220169" lon="5.2795287814750465"><ele>216.6</ele><time>2026-04-06T13:20:05.969Z</time></trkpt><trkpt lat="47.430777597305166" lon="5.279601932187594"><ele>216.8</ele><time>2026-04-06T13:20:06.969Z</time></trkpt><trkpt lat="47.43086157040992" lon="5.279737708730507"><ele>217.0</ele><time>2026-04-06T13:20:08.969Z</time></trkpt><trkpt lat="47.43093683773659" lon="5.279871741135559"><ele>217.0</ele><time>2026-04-06T13:20:10.969Z</time></trkpt><trkpt lat="47.43097563349854" lon="5.279947249278855"><ele>217.0</ele><time>2026-04-06T13:20:11.969Z</time></trkpt><trkpt lat="47.43104705500793" lon="5.280081398376927"><ele>217.0</ele><time>2026-04-06T13:20:13.969Z</time></trkpt><trkpt lat="47.43108523251632" lon="5.280156119051795"><ele>217.0</ele><time>2026-04-06T13:20:14.969Z</time></trkpt><trkpt lat="47.431152489543926" lon="5.280300242382489"><ele>217.0</ele><time>2026-04-06T13:20:16.969Z</time></trkpt><trkpt lat="47.4312201214616" lon="5.280451853046024"><ele>217.0</ele><time>2026-04-06T13:20:18.969Z</time></trkpt><trkpt lat="47.43125270511852" lon="5.28053210243463"><ele>217.0</ele><time>2026-04-06T13:20:19.969Z</time></trkpt><trkpt lat="47.431314001652744" lon="5.280688764224218"><ele>217.0</ele><time>2026-04-06T13:20:21.969Z</time></trkpt><trkpt lat="47.43137579359247" lon="5.280840752657557"><ele>217.0</ele><time>2026-04-06T13:20:23.969Z</time></trkpt><trkpt lat="47.43142964763131" lon="5.280974994010064"><ele>217.0</ele><time>2026-04-06T13:20:25.969Z</time></trkpt><trkpt lat="47.43147819349788" lon="5.281095804049425"><ele>215.99999999999997</ele><time>2026-04-06T13:20:27.969Z</time></trkpt><trkpt lat="47.43151908575595" lon="5.281203121394106"><ele>215.0</ele><time>2026-04-06T13:20:29.969Z</time></trkpt><trkpt lat="47.431567297404314" lon="5.2813282459189255"><ele>214.0</ele><time>2026-04-06T13:20:31.969Z</time></trkpt><trkpt lat="47.431633298265474" lon="5.28147614191221"><ele>213.0</ele><time>2026-04-06T13:20:33.969Z</time></trkpt><trkpt lat="47.4316630342203" lon="5.28156155382994"><ele>211.99999999999997</ele><time>2026-04-06T13:20:34.969Z</time></trkpt><trkpt lat="47.431692157297675" lon="5.281655198751709"><ele>211.0</ele><time>2026-04-06T13:20:35.969Z</time></trkpt><trkpt lat="47.431719499424226" lon="5.281744150408181"><ele>211.0</ele><time>2026-04-06T13:20:36.969Z</time></trkpt><trkpt lat="47.43175098408568" lon="5.281837185880886"><ele>211.0</ele><time>2026-04-06T13:20:37.969Z</time></trkpt><trkpt lat="47.43178746988371" lon="5.281924205454106"><ele>211.0</ele><time>2026-04-06T13:20:38.969Z</time></trkpt><trkpt lat="47.43182288847594" lon="5.28201106667744"><ele>211.0</ele><time>2026-04-06T13:20:39.969Z</time></trkpt><trkpt lat="47.43185895101334" lon="5.282097204428309"><ele>211.0</ele><time>2026-04-06T13:20:40.969Z</time></trkpt><trkpt lat="47.43189021809074" lon="5.282181584008475"><ele>211.0</ele><time>2026-04-06T13:20:41.968Z</time></trkpt><trkpt lat="47.431921279260195" lon="5.282271651378431"><ele>211.0</ele><time>2026-04-06T13:20:42.968Z</time></trkpt><trkpt lat="47.431957249236916" lon="5.282360810975935"><ele>211.28571428571428</ele><time>2026-04-06T13:20:43.968Z</time></trkpt><trkpt lat="47.43199350168945" lon="5.282451356837854"><ele>211.57142857142858</ele><time>2026-04-06T13:20:44.968Z</time></trkpt><trkpt lat="47.432025739855746" lon="5.282555484604575"><ele>211.85714285714283</ele><time>2026-04-06T13:20:45.969Z</time></trkpt><trkpt lat="47.43205817699338" lon="5.282658131425298"><ele>212.14285714285714</ele><time>2026-04-06T13:20:46.969Z</time></trkpt><trkpt lat="47.43208271818286" lon="5.28275578686448"><ele>212.42857142857142</ele><time>2026-04-06T13:20:47.969Z</time></trkpt><trkpt lat="47.432115471131496" lon="5.282857337537602"><ele>212.7142857142857</ele><time>2026-04-06T13:20:48.968Z</time></trkpt><trkpt lat="47.432147149863546" lon="5.282954956680648"><ele>213.0</ele><time>2026-04-06T13:20:49.968Z</time></trkpt><trkpt lat="47.43217666321745" lon="5.283052064416828"><ele>212.42857142857142</ele><time>2026-04-06T13:20:50.968Z</time></trkpt><trkpt lat="47.43220535899839" lon="5.283147669891435"><ele>211.85714285714286</ele><time>2026-04-06T13:20:51.968Z</time></trkpt><trkpt lat="47.43223272767039" lon="5.283245316310594"><ele>211.28571428571428</ele><time>2026-04-06T13:20:52.968Z</time></trkpt><trkpt lat="47.432261481229844" lon="5.283334257164211"><ele>210.71428571428572</ele><time>2026-04-06T13:20:53.968Z</time></trkpt><trkpt lat="47.432292442587084" lon="5.2834232592585515"><ele>210.14285714285714</ele><time>2026-04-06T13:20:54.968Z</time></trkpt><trkpt lat="47.43231966221667" lon="5.283514357745377"><ele>209.57142857142856</ele><time>2026-04-06T13:20:55.968Z</time></trkpt><trkpt lat="47.43234829033709" lon="5.283604523657336"><ele>209.0</ele><time>2026-04-06T13:20:56.968Z</time></trkpt><trkpt lat="47.43238102337657" lon="5.283695130931765"><ele>209.0</ele><time>2026-04-06T13:20:57.968Z</time></trkpt><trkpt lat="47.43241002997456" lon="5.2837826362366505"><ele>209.0</ele><time>2026-04-06T13:20:58.968Z</time></trkpt><trkpt lat="47.43244071138549" lon="5.28386850312782"><ele>209.0</ele><time>2026-04-06T13:20:59.968Z</time></trkpt><trkpt lat="47.43246970440395" lon="5.283951377223089"><ele>209.0</ele><time>2026-04-06T13:21:00.968Z</time></trkpt><trkpt lat="47.43249650183992" lon="5.284036408782457"><ele>209.0</ele><time>2026-04-06T13:21:01.968Z</time></trkpt><trkpt lat="47.43252565183329" lon="5.284123862484725"><ele>209.0</ele><time>2026-04-06T13:21:02.968Z</time></trkpt><trkpt lat="47.43255623652138" lon="5.284205209811413"><ele>209.0</ele><time>2026-04-06T13:21:03.968Z</time></trkpt><trkpt lat="47.432584164301275" lon="5.284289350716223"><ele>209.00000000000003</ele><time>2026-04-06T13:21:04.968Z</time></trkpt><trkpt lat="47.43263830818369" lon="5.284449401493861"><ele>209.0</ele><time>2026-04-06T13:21:06.968Z</time></trkpt><trkpt lat="47.43266684974566" lon="5.284533476028468"><ele>209.0</ele><time>2026-04-06T13:21:07.968Z</time></trkpt><trkpt lat="47.432692659895295" lon="5.284618813277247"><ele>209.0</ele><time>2026-04-06T13:21:08.968Z</time></trkpt><trkpt lat="47.43272036618078" lon="5.2847049806268185"><ele>209.00000000000003</ele><time>2026-04-06T13:21:09.968Z</time></trkpt><trkpt lat="47.432746943290326" lon="5.284789902044781"><ele>209.0</ele><time>2026-04-06T13:21:10.968Z</time></trkpt><trkpt lat="47.432799896773425" lon="5.284952704047638"><ele>209.0</ele><time>2026-04-06T13:21:12.968Z</time></trkpt><trkpt lat="47.432852961038265" lon="5.285111324925972"><ele>209.0</ele><time>2026-04-06T13:21:14.968Z</time></trkpt><trkpt lat="47.43290130319675" lon="5.285277096365081"><ele>209.0</ele><time>2026-04-06T13:21:16.968Z</time></trkpt><trkpt lat="47.43295300226827" lon="5.285432193334783"><ele>209.0</ele><time>2026-04-06T13:21:18.968Z</time></trkpt><trkpt lat="47.433000557800554" lon="5.2855885289009095"><ele>209.25</ele><time>2026-04-06T13:21:20.968Z</time></trkpt><trkpt lat="47.43305088015117" lon="5.285744189804596"><ele>209.5</ele><time>2026-04-06T13:21:22.968Z</time></trkpt><trkpt lat="47.43310147451438" lon="5.285900340140971"><ele>209.75</ele><time>2026-04-06T13:21:24.968Z</time></trkpt><trkpt lat="47.43315188155081" lon="5.286055900361596"><ele>210.0</ele><time>2026-04-06T13:21:26.968Z</time></trkpt><trkpt lat="47.43320838835472" lon="5.286214297928643"><ele>210.0</ele><time>2026-04-06T13:21:28.968Z</time></trkpt><trkpt lat="47.433261544900596" lon="5.286373611099365"><ele>210.0</ele><time>2026-04-06T13:21:30.968Z</time></trkpt><trkpt lat="47.43331716513712" lon="5.286534307922861"><ele>210.0</ele><time>2026-04-06T13:21:32.968Z</time></trkpt><trkpt lat="47.43337235243367" lon="5.286690341627558"><ele>210.0</ele><time>2026-04-06T13:21:34.968Z</time></trkpt><trkpt lat="47.43342678284753" lon="5.286844945124573"><ele>210.0</ele><time>2026-04-06T13:21:36.968Z</time></trkpt><trkpt lat="47.43347952981164" lon="5.287001578271485"><ele>210.0</ele><time>2026-04-06T13:21:38.968Z</time></trkpt><trkpt lat="47.43353172017042" lon="5.287156895057892"><ele>210.0</ele><time>2026-04-06T13:21:40.968Z</time></trkpt><trkpt lat="47.43358566667295" lon="5.287305661942535"><ele>210.0</ele><time>2026-04-06T13:21:42.968Z</time></trkpt><trkpt lat="47.43363368694108" lon="5.2874622966756295"><ele>210.0</ele><time>2026-04-06T13:21:44.968Z</time></trkpt><trkpt lat="47.43367975986292" lon="5.2876190626053035"><ele>210.0</ele><time>2026-04-06T13:21:46.968Z</time></trkpt><trkpt lat="47.43371924992719" lon="5.287780835566946"><ele>210.0</ele><time>2026-04-06T13:21:48.968Z</time></trkpt><trkpt lat="47.4337561406105" lon="5.287941511672522"><ele>210.0</ele><time>2026-04-06T13:21:50.968Z</time></trkpt><trkpt lat="47.43379096797168" lon="5.288105009386709"><ele>209.75</ele><time>2026-04-06T13:21:52.968Z</time></trkpt><trkpt lat="47.43382261225376" lon="5.288276277745725"><ele>209.5</ele><time>2026-04-06T13:21:54.968Z</time></trkpt><trkpt lat="47.4338423028819" lon="5.288453713406957"><ele>209.25</ele><time>2026-04-06T13:21:56.968Z</time></trkpt><trkpt lat="47.43387331523155" lon="5.288629353908135"><ele>209.0</ele><time>2026-04-06T13:21:58.968Z</time></trkpt><trkpt lat="47.433894255277515" lon="5.288809080605729"><ele>209.0</ele><time>2026-04-06T13:22:00.967Z</time></trkpt><trkpt lat="47.43391130510292" lon="5.288981017123699"><ele>209.0</ele><time>2026-04-06T13:22:02.967Z</time></trkpt><trkpt lat="47.43392469245339" lon="5.289157402288898"><ele>209.0</ele><time>2026-04-06T13:22:04.967Z</time></trkpt><trkpt lat="47.433942213504146" lon="5.289324112891305"><ele>209.0</ele><time>2026-04-06T13:22:06.967Z</time></trkpt><trkpt lat="47.43395767704324" lon="5.289503663365794"><ele>209.0</ele><time>2026-04-06T13:22:08.967Z</time></trkpt><trkpt lat="47.433976441410785" lon="5.289683875931883"><ele>209.0</ele><time>2026-04-06T13:22:10.967Z</time></trkpt><trkpt lat="47.43398792388688" lon="5.289866423702189"><ele>209.0</ele><time>2026-04-06T13:22:12.967Z</time></trkpt><trkpt lat="47.43400407910851" lon="5.290052670389159"><ele>209.0</ele><time>2026-04-06T13:22:14.967Z</time></trkpt><trkpt lat="47.43401503958534" lon="5.290240268394209"><ele>208.85714285714286</ele><time>2026-04-06T13:22:16.967Z</time></trkpt><trkpt lat="47.43401505536249" lon="5.290337141194719"><ele>208.71428571428572</ele><time>2026-04-06T13:22:17.967Z</time></trkpt><trkpt lat="47.43401725020563" lon="5.290431321317887"><ele>208.57142857142856</ele><time>2026-04-06T13:22:18.967Z</time></trkpt><trkpt lat="47.43402272372476" lon="5.2905340698379595"><ele>208.42857142857144</ele><time>2026-04-06T13:22:19.967Z</time></trkpt><trkpt lat="47.43402583640172" lon="5.290635660170623"><ele>208.2857142857143</ele><time>2026-04-06T13:22:20.967Z</time></trkpt><trkpt lat="47.43402366261191" lon="5.290733318711279"><ele>208.14285714285714</ele><time>2026-04-06T13:22:21.967Z</time></trkpt><trkpt lat="47.4340240516522" lon="5.290834944085965"><ele>208.0</ele><time>2026-04-06T13:22:22.967Z</time></trkpt><trkpt lat="47.434022632760666" lon="5.290937156627095"><ele>207.7142857142857</ele><time>2026-04-06T13:22:23.967Z</time></trkpt><trkpt lat="47.43402129006542" lon="5.291045529187784"><ele>207.42857142857144</ele><time>2026-04-06T13:22:24.967Z</time></trkpt><trkpt lat="47.434018187462875" lon="5.291150712249776"><ele>207.14285714285714</ele><time>2026-04-06T13:22:25.967Z</time></trkpt><trkpt lat="47.43400811993318" lon="5.291258690984401"><ele>206.85714285714283</ele><time>2026-04-06T13:22:26.967Z</time></trkpt><trkpt lat="47.4339932355448" lon="5.291362114809452"><ele>206.57142857142856</ele><time>2026-04-06T13:22:27.967Z</time></trkpt><trkpt lat="47.433976969948375" lon="5.291463857565337"><ele>206.28571428571428</ele><time>2026-04-06T13:22:28.967Z</time></trkpt><trkpt lat="47.4339579232753" lon="5.291566370908708"><ele>206.0</ele><time>2026-04-06T13:22:29.967Z</time></trkpt><trkpt lat="47.433935248037976" lon="5.291668226182681"><ele>205.42857142857142</ele><time>2026-04-06T13:22:30.967Z</time></trkpt><trkpt lat="47.433905570426404" lon="5.291763951187352"><ele>204.85714285714286</ele><time>2026-04-06T13:22:31.967Z</time></trkpt><trkpt lat="47.43387355184105" lon="5.291860415818579"><ele>204.28571428571428</ele><time>2026-04-06T13:22:32.967Z</time></trkpt><trkpt lat="47.43384214893246" lon="5.291956403167333"><ele>203.71428571428572</ele><time>2026-04-06T13:22:33.967Z</time></trkpt><trkpt lat="47.43381004782667" lon="5.29205253129913"><ele>203.14285714285714</ele><time>2026-04-06T13:22:34.967Z</time></trkpt><trkpt lat="47.433779847982805" lon="5.292148778701701"><ele>202.57142857142856</ele><time>2026-04-06T13:22:35.967Z</time></trkpt><trkpt lat="47.433748171076175" lon="5.292241105775942"><ele>202.0</ele><time>2026-04-06T13:22:36.967Z</time></trkpt><trkpt lat="47.433718015849664" lon="5.292326114614536"><ele>201.8</ele><time>2026-04-06T13:22:37.967Z</time></trkpt><trkpt lat="47.433686356972366" lon="5.292413097164645"><ele>201.6</ele><time>2026-04-06T13:22:38.967Z</time></trkpt><trkpt lat="47.43365994101797" lon="5.292498308658706"><ele>201.4</ele><time>2026-04-06T13:22:39.967Z</time></trkpt><trkpt lat="47.43361087063778" lon="5.292665579304662"><ele>201.20000000000002</ele><time>2026-04-06T13:22:41.967Z</time></trkpt><trkpt lat="47.43356089654506" lon="5.292833996628143"><ele>201.0</ele><time>2026-04-06T13:22:43.967Z</time></trkpt><trkpt lat="47.433521865144996" lon="5.29299189586949"><ele>201.20000000000002</ele><time>2026-04-06T13:22:45.967Z</time></trkpt><trkpt lat="47.433497292127996" lon="5.293159751207852"><ele>201.4</ele><time>2026-04-06T13:22:47.967Z</time></trkpt><trkpt lat="47.433475288791776" lon="5.293307695985573"><ele>201.6</ele><time>2026-04-06T13:22:49.967Z</time></trkpt><trkpt lat="47.43346189488604" lon="5.2934284699987195"><ele>201.8</ele><time>2026-04-06T13:22:51.966Z</time></trkpt><trkpt lat="47.43344325374037" lon="5.293531449666231"><ele>202.0</ele><time>2026-04-06T13:22:53.967Z</time></trkpt><trkpt lat="47.43342558283263" lon="5.293645641812501"><ele>202.0</ele><time>2026-04-06T13:22:55.967Z</time></trkpt><trkpt lat="47.43339817125882" lon="5.293790603076614"><ele>202.0</ele><time>2026-04-06T13:22:57.967Z</time></trkpt><trkpt lat="47.433373151720744" lon="5.293947784230625"><ele>202.0</ele><time>2026-04-06T13:22:59.967Z</time></trkpt><trkpt lat="47.43335038557296" lon="5.294116703343465"><ele>202.0</ele><time>2026-04-06T13:23:01.967Z</time></trkpt><trkpt lat="47.433330928483635" lon="5.294285343836465"><ele>202.0</ele><time>2026-04-06T13:23:03.966Z</time></trkpt><trkpt lat="47.43330862683741" lon="5.2944522617850165"><ele>201.8</ele><time>2026-04-06T13:23:05.966Z</time></trkpt><trkpt lat="47.43329561282341" lon="5.294619893710905"><ele>201.6</ele><time>2026-04-06T13:23:07.966Z</time></trkpt><trkpt lat="47.43327156675519" lon="5.29478781632537"><ele>201.4</ele><time>2026-04-06T13:23:09.966Z</time></trkpt><trkpt lat="47.433248427560905" lon="5.294948587480179"><ele>201.20000000000002</ele><time>2026-04-06T13:23:11.966Z</time></trkpt><trkpt lat="47.43322635654526" lon="5.29510238434477"><ele>201.0</ele><time>2026-04-06T13:23:13.966Z</time></trkpt><trkpt lat="47.433210819819614" lon="5.295248910302599"><ele>201.4</ele><time>2026-04-06T13:23:15.966Z</time></trkpt><trkpt lat="47.433198343871666" lon="5.295409239944833"><ele>201.8</ele><time>2026-04-06T13:23:17.966Z</time></trkpt><trkpt lat="47.43318930560607" lon="5.2955655442092855"><ele>202.20000000000002</ele><time>2026-04-06T13:23:19.966Z</time></trkpt><trkpt lat="47.43317958493486" lon="5.295718194891331"><ele>202.60000000000002</ele><time>2026-04-06T13:23:21.966Z</time></trkpt><trkpt lat="47.43318413495256" lon="5.295881931244582"><ele>203.0</ele><time>2026-04-06T13:23:23.966Z</time></trkpt><trkpt lat="47.43319705761585" lon="5.296034207617177"><ele>203.8</ele><time>2026-04-06T13:23:25.966Z</time></trkpt><trkpt lat="47.43322125802137" lon="5.296181654537534"><ele>204.60000000000002</ele><time>2026-04-06T13:23:27.966Z</time></trkpt><trkpt lat="47.43324669327075" lon="5.2963309558732075"><ele>205.39999999999998</ele><time>2026-04-06T13:23:29.966Z</time></trkpt><trkpt lat="47.433271542233356" lon="5.296475174960404"><ele>206.2</ele><time>2026-04-06T13:23:31.966Z</time></trkpt><trkpt lat="47.43330611072168" lon="5.296626976424952"><ele>207.0</ele><time>2026-04-06T13:23:33.966Z</time></trkpt><trkpt lat="47.433338624902646" lon="5.29677579276857"><ele>208.0</ele><time>2026-04-06T13:23:35.966Z</time></trkpt><trkpt lat="47.43336965578658" lon="5.296923345920707"><ele>209.0</ele><time>2026-04-06T13:23:37.966Z</time></trkpt><trkpt lat="47.43340219689029" lon="5.297060605488909"><ele>210.0</ele><time>2026-04-06T13:23:39.966Z</time></trkpt><trkpt lat="47.4334363448166" lon="5.297198351539694"><ele>211.0</ele><time>2026-04-06T13:23:41.966Z</time></trkpt><trkpt lat="47.43347878869781" lon="5.297323384555846"><ele>212.0</ele><time>2026-04-06T13:23:43.966Z</time></trkpt><trkpt lat="47.433541448861995" lon="5.297443594788511"><ele>212.39999999999998</ele><time>2026-04-06T13:23:45.966Z</time></trkpt><trkpt lat="47.43360212185368" lon="5.297574678837784"><ele>212.79999999999998</ele><time>2026-04-06T13:23:47.966Z</time></trkpt><trkpt lat="47.43367613418793" lon="5.297698515058982"><ele>213.2</ele><time>2026-04-06T13:23:49.966Z</time></trkpt><trkpt lat="47.43375774694086" lon="5.29783609662731"><ele>213.6</ele><time>2026-04-06T13:23:51.966Z</time></trkpt><trkpt lat="47.433797882795986" lon="5.297912951123091"><ele>214.0</ele><time>2026-04-06T13:23:52.966Z</time></trkpt><trkpt lat="47.43383854582325" lon="5.297986757541325"><ele>213.71428571428572</ele><time>2026-04-06T13:23:53.966Z</time></trkpt><trkpt lat="47.4338831711" lon="5.2980584258516785"><ele>213.42857142857144</ele><time>2026-04-06T13:23:54.966Z</time></trkpt><trkpt lat="47.43392592319226" lon="5.298141066615215"><ele>213.14285714285717</ele><time>2026-04-06T13:23:55.966Z</time></trkpt><trkpt lat="47.433971663197745" lon="5.298218486267458"><ele>212.85714285714286</ele><time>2026-04-06T13:23:56.966Z</time></trkpt><trkpt lat="47.434019753032906" lon="5.298305119276217"><ele>212.57142857142856</ele><time>2026-04-06T13:23:57.966Z</time></trkpt><trkpt lat="47.43405895390345" lon="5.2983926491885205"><ele>212.2857142857143</ele><time>2026-04-06T13:23:58.966Z</time></trkpt><trkpt lat="47.43411198077948" lon="5.298482850739397"><ele>212.0</ele><time>2026-04-06T13:23:59.966Z</time></trkpt><trkpt lat="47.43414446312807" lon="5.298575400764389"><ele>212.00000000000003</ele><time>2026-04-06T13:24:00.966Z</time></trkpt><trkpt lat="47.43418806297444" lon="5.298673855984969"><ele>212.0</ele><time>2026-04-06T13:24:01.966Z</time></trkpt><trkpt lat="47.434226029689405" lon="5.29877687674649"><ele>212.0</ele><time>2026-04-06T13:24:02.966Z</time></trkpt><trkpt lat="47.43426203104577" lon="5.298881831005493"><ele>212.0</ele><time>2026-04-06T13:24:03.966Z</time></trkpt><trkpt lat="47.43428876758907" lon="5.298984175160941"><ele>212.00000000000003</ele><time>2026-04-06T13:24:04.966Z</time></trkpt><trkpt lat="47.43431029062972" lon="5.299095357666536"><ele>212.0</ele><time>2026-04-06T13:24:05.966Z</time></trkpt><trkpt lat="47.43432557906787" lon="5.2992098017718945"><ele>211.50000000000003</ele><time>2026-04-06T13:24:06.966Z</time></trkpt><trkpt lat="47.434337731340044" lon="5.299316558870746"><ele>211.0</ele><time>2026-04-06T13:24:07.966Z</time></trkpt><trkpt lat="47.43434766171471" lon="5.299438339283617"><ele>210.5</ele><time>2026-04-06T13:24:08.966Z</time></trkpt><trkpt lat="47.43435513259598" lon="5.29954424753194"><ele>210.0</ele><time>2026-04-06T13:24:09.966Z</time></trkpt><trkpt lat="47.434358690417604" lon="5.299655132061783"><ele>209.50000000000003</ele><time>2026-04-06T13:24:10.966Z</time></trkpt><trkpt lat="47.434362657329025" lon="5.299760351291491"><ele>209.0</ele><time>2026-04-06T13:24:11.966Z</time></trkpt><trkpt lat="47.43436502941995" lon="5.299873468038109"><ele>208.57142857142856</ele><time>2026-04-06T13:24:12.966Z</time></trkpt><trkpt lat="47.434362710439" lon="5.29998621424276"><ele>208.14285714285714</ele><time>2026-04-06T13:24:13.966Z</time></trkpt><trkpt lat="47.43435471642513" lon="5.300098549243523"><ele>207.71428571428572</ele><time>2026-04-06T13:24:14.966Z</time></trkpt><trkpt lat="47.43434434501902" lon="5.300204659875472"><ele>207.28571428571428</ele><time>2026-04-06T13:24:15.966Z</time></trkpt><trkpt lat="47.43433812371807" lon="5.300317515313875"><ele>206.85714285714286</ele><time>2026-04-06T13:24:16.966Z</time></trkpt><trkpt lat="47.43433262468288" lon="5.300423811393269"><ele>206.42857142857142</ele><time>2026-04-06T13:24:17.966Z</time></trkpt><trkpt lat="47.434327277002566" lon="5.300533602768606"><ele>206.0</ele><time>2026-04-06T13:24:18.966Z</time></trkpt><trkpt lat="47.43432404330588" lon="5.300636304059751"><ele>205.85714285714283</ele><time>2026-04-06T13:24:19.966Z</time></trkpt><trkpt lat="47.43431695131281" lon="5.300739870539321"><ele>205.71428571428572</ele><time>2026-04-06T13:24:20.966Z</time></trkpt><trkpt lat="47.434312914421795" lon="5.300846632120767"><ele>205.57142857142856</ele><time>2026-04-06T13:24:21.966Z</time></trkpt><trkpt lat="47.43430975965794" lon="5.300949840564278"><ele>205.42857142857142</ele><time>2026-04-06T13:24:22.966Z</time></trkpt><trkpt lat="47.43430738185351" lon="5.301050411899865"><ele>205.28571428571428</ele><time>2026-04-06T13:24:23.966Z</time></trkpt><trkpt lat="47.43430834719511" lon="5.301153830751669"><ele>205.14285714285714</ele><time>2026-04-06T13:24:24.966Z</time></trkpt><trkpt lat="47.434309364854215" lon="5.301254004819564"><ele>205.0</ele><time>2026-04-06T13:24:25.966Z</time></trkpt><trkpt lat="47.43431224973888" lon="5.301351980708637"><ele>204.6</ele><time>2026-04-06T13:24:26.966Z</time></trkpt><trkpt lat="47.4343171708405" lon="5.301445766314963"><ele>204.2</ele><time>2026-04-06T13:24:27.966Z</time></trkpt><trkpt lat="47.43433667667852" lon="5.301627085067118"><ele>203.8</ele><time>2026-04-06T13:24:29.966Z</time></trkpt><trkpt lat="47.43437139391121" lon="5.301801039884289"><ele>203.4</ele><time>2026-04-06T13:24:31.966Z</time></trkpt><trkpt lat="47.43443234629175" lon="5.301954265412915"><ele>203.0</ele><time>2026-04-06T13:24:33.966Z</time></trkpt><trkpt lat="47.434507294456" lon="5.3020863498927495"><ele>203.0</ele><time>2026-04-06T13:24:35.966Z</time></trkpt><trkpt lat="47.434580793050586" lon="5.302220070812744"><ele>203.0</ele><time>2026-04-06T13:24:37.966Z</time></trkpt><trkpt lat="47.434670591059344" lon="5.302342116500689"><ele>203.0</ele><time>2026-04-06T13:24:39.966Z</time></trkpt><trkpt lat="47.43476222874195" lon="5.302457948203178"><ele>203.0</ele><time>2026-04-06T13:24:41.966Z</time></trkpt><trkpt lat="47.43487230592725" lon="5.302563286582056"><ele>203.4</ele><time>2026-04-06T13:24:43.966Z</time></trkpt><trkpt lat="47.434967561618265" lon="5.302669905302907"><ele>203.8</ele><time>2026-04-06T13:24:45.966Z</time></trkpt><trkpt lat="47.4350712573286" lon="5.302777286396705"><ele>204.2</ele><time>2026-04-06T13:24:47.966Z</time></trkpt><trkpt lat="47.43512328924312" lon="5.302839769537692"><ele>204.6</ele><time>2026-04-06T13:24:48.966Z</time></trkpt><trkpt lat="47.43517479151176" lon="5.302895327869324"><ele>205.0</ele><time>2026-04-06T13:24:49.966Z</time></trkpt><trkpt lat="47.43527928610472" lon="5.302996390637836"><ele>204.99999999999997</ele><time>2026-04-06T13:24:51.965Z</time></trkpt><trkpt lat="47.43533441306237" lon="5.303054467400759"><ele>205.0</ele><time>2026-04-06T13:24:52.965Z</time></trkpt><trkpt lat="47.43538979732036" lon="5.303105418082128"><ele>205.0</ele><time>2026-04-06T13:24:53.965Z</time></trkpt><trkpt lat="47.43549338227585" lon="5.303209551602027"><ele>205.0</ele><time>2026-04-06T13:24:55.965Z</time></trkpt><trkpt lat="47.435549819484365" lon="5.303262510702913"><ele>204.99999999999997</ele><time>2026-04-06T13:24:56.966Z</time></trkpt><trkpt lat="47.435605716144046" lon="5.303312480331389"><ele>205.0</ele><time>2026-04-06T13:24:57.965Z</time></trkpt><trkpt lat="47.435714355038556" lon="5.303395773051918"><ele>204.5</ele><time>2026-04-06T13:24:59.965Z</time></trkpt><trkpt lat="47.43581349017963" lon="5.303489101084071"><ele>204.0</ele><time>2026-04-06T13:25:01.965Z</time></trkpt><trkpt lat="47.43591356429182" lon="5.303585316198222"><ele>203.5</ele><time>2026-04-06T13:25:03.966Z</time></trkpt><trkpt lat="47.43601447536202" lon="5.303667310730421"><ele>203.0</ele><time>2026-04-06T13:25:05.966Z</time></trkpt><trkpt lat="47.43612254712045" lon="5.303733234950089"><ele>203.0</ele><time>2026-04-06T13:25:07.966Z</time></trkpt><trkpt lat="47.43623632002252" lon="5.303782702875504"><ele>203.0</ele><time>2026-04-06T13:25:09.966Z</time></trkpt><trkpt lat="47.436344719402605" lon="5.303808669085943"><ele>203.0</ele><time>2026-04-06T13:25:11.966Z</time></trkpt><trkpt lat="47.43643767147054" lon="5.303829797328831"><ele>203.0</ele><time>2026-04-06T13:25:13.965Z</time></trkpt><trkpt lat="47.43652611287143" lon="5.3038545572314355"><ele>203.0</ele><time>2026-04-06T13:25:15.965Z</time></trkpt><trkpt lat="47.436614470502164" lon="5.30385337966812"><ele>203.00000000000003</ele><time>2026-04-06T13:25:17.965Z</time></trkpt><trkpt lat="47.43669423499881" lon="5.3038527273002005"><ele>203.0</ele><time>2026-04-06T13:25:19.965Z</time></trkpt><trkpt lat="47.4367699712766" lon="5.303832297108167"><ele>203.0</ele><time>2026-04-06T13:25:22.965Z</time></trkpt><trkpt lat="47.43685330294311" lon="5.303823970816767"><ele>203.0</ele><time>2026-04-06T13:25:25.965Z</time></trkpt><trkpt lat="47.43694212579106" lon="5.30378945605151"><ele>203.00000000000003</ele><time>2026-04-06T13:25:28.965Z</time></trkpt><trkpt lat="47.43699317436865" lon="5.303730474247037"><ele>203.0</ele><time>2026-04-06T13:25:30.965Z</time></trkpt><trkpt lat="47.43708368575749" lon="5.303683967131138"><ele>202.5</ele><time>2026-04-06T13:26:05.965Z</time></trkpt><trkpt lat="47.43727435249416" lon="5.303607755338187"><ele>202.0</ele><time>2026-04-06T13:26:41.965Z</time></trkpt><trkpt lat="47.437337028324244" lon="5.303531266460755"><ele>201.5</ele><time>2026-04-06T13:26:43.965Z</time></trkpt><trkpt lat="47.43740573644174" lon="5.303428525565822"><ele>201.0</ele><time>2026-04-06T13:26:45.965Z</time></trkpt><trkpt lat="47.43746906892649" lon="5.303314659378427"><ele>201.0</ele><time>2026-04-06T13:26:47.965Z</time></trkpt><trkpt lat="47.43755212303975" lon="5.303211874385065"><ele>201.0</ele><time>2026-04-06T13:26:49.965Z</time></trkpt><trkpt lat="47.43764174009213" lon="5.303141139598558"><ele>201.0</ele><time>2026-04-06T13:26:51.965Z</time></trkpt><trkpt lat="47.437738690863945" lon="5.303085788250191"><ele>201.0</ele><time>2026-04-06T13:26:53.965Z</time></trkpt><trkpt lat="47.43782008096033" lon="5.30303831995016"><ele>201.0</ele><time>2026-04-06T13:26:55.965Z</time></trkpt><trkpt lat="47.4378871881293" lon="5.303103738068662"><ele>201.0</ele><time>2026-04-06T13:26:58.964Z</time></trkpt><trkpt lat="47.437878000719174" lon="5.3032317275115926"><ele>201.0</ele><time>2026-04-06T13:27:00.964Z</time></trkpt><trkpt lat="47.437879406035634" lon="5.30335610061864"><ele>201.0</ele><time>2026-04-06T13:27:02.965Z</time></trkpt><trkpt lat="47.437885371542215" lon="5.3034910972299905"><ele>201.0</ele><time>2026-04-06T13:27:04.965Z</time></trkpt><trkpt lat="47.43787874760206" lon="5.303656067494374"><ele>201.0</ele><time>2026-04-06T13:27:06.965Z</time></trkpt><trkpt lat="47.43786751328748" lon="5.303750993258664"><ele>201.0</ele><time>2026-04-06T13:27:07.965Z</time></trkpt><trkpt lat="47.43786038036855" lon="5.303843658764625"><ele>201.0</ele><time>2026-04-06T13:27:08.964Z</time></trkpt><trkpt lat="47.43785273532055" lon="5.30402814469807"><ele>201.0</ele><time>2026-04-06T13:27:10.965Z</time></trkpt><trkpt lat="47.43784015978999" lon="5.3042108955736165"><ele>201.0</ele><time>2026-04-06T13:27:12.965Z</time></trkpt><trkpt lat="47.4378212763241" lon="5.304393147241604"><ele>201.0</ele><time>2026-04-06T13:27:14.965Z</time></trkpt><trkpt lat="47.437776652280505" lon="5.304570028174533"><ele>201.0</ele><time>2026-04-06T13:27:16.965Z</time></trkpt><trkpt lat="47.43772689184034" lon="5.304724325654533"><ele>201.0</ele><time>2026-04-06T13:27:18.965Z</time></trkpt><trkpt lat="47.43769073146227" lon="5.304804173358534"><ele>201.0</ele><time>2026-04-06T13:27:19.965Z</time></trkpt><trkpt lat="47.43762230695936" lon="5.304954823949493"><ele>201.0</ele><time>2026-04-06T13:27:21.965Z</time></trkpt><trkpt lat="47.437579214060094" lon="5.3050269292697285"><ele>201.0</ele><time>2026-04-06T13:27:22.964Z</time></trkpt><trkpt lat="47.43753101898381" lon="5.305097925861163"><ele>201.0</ele><time>2026-04-06T13:27:23.964Z</time></trkpt><trkpt lat="47.43743681975933" lon="5.305209867174378"><ele>200.83333333333334</ele><time>2026-04-06T13:27:25.964Z</time></trkpt><trkpt lat="47.437381277156305" lon="5.305264680148025"><ele>200.66666666666669</ele><time>2026-04-06T13:27:26.964Z</time></trkpt><trkpt lat="47.4373264302504" lon="5.305316282682302"><ele>200.5</ele><time>2026-04-06T13:27:27.964Z</time></trkpt><trkpt lat="47.43726567041339" lon="5.30535171938282"><ele>200.33333333333334</ele><time>2026-04-06T13:27:28.964Z</time></trkpt><trkpt lat="47.437156687982544" lon="5.3053906150204835"><ele>200.16666666666669</ele><time>2026-04-06T13:27:30.964Z</time></trkpt><trkpt lat="47.43709134643121" lon="5.305412562219091"><ele>200.0</ele><time>2026-04-06T13:27:31.964Z</time></trkpt><trkpt lat="47.4370176580308" lon="5.305416938267845"><ele>200.0</ele><time>2026-04-06T13:27:32.964Z</time></trkpt><trkpt lat="47.43695244571002" lon="5.305426189343331"><ele>200.0</ele><time>2026-04-06T13:27:33.964Z</time></trkpt><trkpt lat="47.436889625742694" lon="5.305440417573201"><ele>200.0</ele><time>2026-04-06T13:27:34.964Z</time></trkpt><trkpt lat="47.43677763136345" lon="5.3054474049889375"><ele>200.0</ele><time>2026-04-06T13:27:36.964Z</time></trkpt><trkpt lat="47.436660856643265" lon="5.30546171634839"><ele>200.0</ele><time>2026-04-06T13:27:38.964Z</time></trkpt><trkpt lat="47.43656592291067" lon="5.305489641225984"><ele>200.0</ele><time>2026-04-06T13:27:40.964Z</time></trkpt><trkpt lat="47.43645118637393" lon="5.30549624977955"><ele>200.0</ele><time>2026-04-06T13:27:42.964Z</time></trkpt><trkpt lat="47.436351037349766" lon="5.30550722889937"><ele>200.0</ele><time>2026-04-06T13:27:44.964Z</time></trkpt><trkpt lat="47.43621908586502" lon="5.305530119175613"><ele>200.0</ele><time>2026-04-06T13:27:46.964Z</time></trkpt><trkpt lat="47.436115360848376" lon="5.305528388337374"><ele>200.0</ele><time>2026-04-06T13:27:48.964Z</time></trkpt><trkpt lat="47.435992465505244" lon="5.305540121919091"><ele>200.0</ele><time>2026-04-06T13:27:50.964Z</time></trkpt><trkpt lat="47.43592717803373" lon="5.305538780338528"><ele>200.0</ele><time>2026-04-06T13:27:51.964Z</time></trkpt><trkpt lat="47.43581458271079" lon="5.305543982403899"><ele>200.0</ele><time>2026-04-06T13:27:53.964Z</time></trkpt><trkpt lat="47.43575116122611" lon="5.305544337592958"><ele>200.0</ele><time>2026-04-06T13:27:54.964Z</time></trkpt><trkpt lat="47.43561867216765" lon="5.3055612329412964"><ele>200.00000000000003</ele><time>2026-04-06T13:27:56.964Z</time></trkpt><trkpt lat="47.43555020602089" lon="5.3055628414256235"><ele>200.0</ele><time>2026-04-06T13:27:57.964Z</time></trkpt><trkpt lat="47.43548898792322" lon="5.3055894244888435"><ele>200.0</ele><time>2026-04-06T13:27:58.964Z</time></trkpt><trkpt lat="47.43542318545995" lon="5.305626464224195"><ele>200.0</ele><time>2026-04-06T13:27:59.964Z</time></trkpt><trkpt lat="47.435364088720654" lon="5.3056736613943745"><ele>200.0</ele><time>2026-04-06T13:28:00.964Z</time></trkpt><trkpt lat="47.43531503100082" lon="5.305733027945356"><ele>200.00000000000003</ele><time>2026-04-06T13:28:01.964Z</time></trkpt><trkpt lat="47.43526530826595" lon="5.305800386238183"><ele>200.0</ele><time>2026-04-06T13:28:02.964Z</time></trkpt><trkpt lat="47.43521975153168" lon="5.305879521430019"><ele>200.0</ele><time>2026-04-06T13:28:03.964Z</time></trkpt><trkpt lat="47.435145921587555" lon="5.306026030908474"><ele>200.0</ele><time>2026-04-06T13:28:05.964Z</time></trkpt><trkpt lat="47.43510581338028" lon="5.306100099743216"><ele>200.0</ele><time>2026-04-06T13:28:06.964Z</time></trkpt><trkpt lat="47.43503102499469" lon="5.306242075089071"><ele>200.0</ele><time>2026-04-06T13:28:08.964Z</time></trkpt><trkpt lat="47.434957925242934" lon="5.306380333210949"><ele>200.0</ele><time>2026-04-06T13:28:10.964Z</time></trkpt><trkpt lat="47.43487332901107" lon="5.306503010225977"><ele>200.0</ele><time>2026-04-06T13:28:12.964Z</time></trkpt><trkpt lat="47.434782253287544" lon="5.306622363771202"><ele>200.0</ele><time>2026-04-06T13:28:14.964Z</time></trkpt><trkpt lat="47.43469733585104" lon="5.306727228291278"><ele>200.0</ele><time>2026-04-06T13:28:16.964Z</time></trkpt><trkpt lat="47.43460843101054" lon="5.3068274461567055"><ele>200.0</ele><time>2026-04-06T13:28:18.964Z</time></trkpt><trkpt lat="47.43452755042305" lon="5.306925325140805"><ele>200.0</ele><time>2026-04-06T13:28:20.964Z</time></trkpt><trkpt lat="47.43444567466044" lon="5.307022892409898"><ele>200.6</ele><time>2026-04-06T13:28:22.964Z</time></trkpt><trkpt lat="47.43436549303622" lon="5.307116483919149"><ele>201.2</ele><time>2026-04-06T13:28:24.964Z</time></trkpt><trkpt lat="47.4342875079053" lon="5.3072157336535755"><ele>201.8</ele><time>2026-04-06T13:28:26.964Z</time></trkpt><trkpt lat="47.434215249887856" lon="5.307317084603067"><ele>202.4</ele><time>2026-04-06T13:28:28.964Z</time></trkpt><trkpt lat="47.43413924120691" lon="5.3074273905827605"><ele>203.0</ele><time>2026-04-06T13:28:30.964Z</time></trkpt><trkpt lat="47.43406573056378" lon="5.307543981710282"><ele>203.2</ele><time>2026-04-06T13:28:32.964Z</time></trkpt><trkpt lat="47.43399256132408" lon="5.307659198242301"><ele>203.4</ele><time>2026-04-06T13:28:34.964Z</time></trkpt><trkpt lat="47.43391321232017" lon="5.307770876688946"><ele>203.6</ele><time>2026-04-06T13:28:36.964Z</time></trkpt><trkpt lat="47.4338410020317" lon="5.307888356743111"><ele>203.79999999999998</ele><time>2026-04-06T13:28:38.964Z</time></trkpt><trkpt lat="47.433762809177175" lon="5.308006469194189"><ele>204.0</ele><time>2026-04-06T13:28:40.964Z</time></trkpt><trkpt lat="47.43368382709405" lon="5.308124351179957"><ele>204.39999999999998</ele><time>2026-04-06T13:28:42.964Z</time></trkpt><trkpt lat="47.43360902774725" lon="5.308242064289872"><ele>204.8</ele><time>2026-04-06T13:28:44.964Z</time></trkpt><trkpt lat="47.433534855339346" lon="5.308366162722244"><ele>205.2</ele><time>2026-04-06T13:28:46.964Z</time></trkpt><trkpt lat="47.433461720749946" lon="5.308485051028879"><ele>205.60000000000002</ele><time>2026-04-06T13:28:48.964Z</time></trkpt><trkpt lat="47.433387095300645" lon="5.308609239478205"><ele>206.0</ele><time>2026-04-06T13:28:50.964Z</time></trkpt><trkpt lat="47.43331479786976" lon="5.308720459662147"><ele>206.0</ele><time>2026-04-06T13:28:52.964Z</time></trkpt><trkpt lat="47.43323827997243" lon="5.308848041250965"><ele>206.0</ele><time>2026-04-06T13:28:54.964Z</time></trkpt><trkpt lat="47.43316120371625" lon="5.308966539993033"><ele>206.0</ele><time>2026-04-06T13:28:56.964Z</time></trkpt><trkpt lat="47.4330821880115" lon="5.309087529331958"><ele>206.0</ele><time>2026-04-06T13:28:58.964Z</time></trkpt><trkpt lat="47.43300078209391" lon="5.309205879592603"><ele>206.0</ele><time>2026-04-06T13:29:00.964Z</time></trkpt><trkpt lat="47.43291274286217" lon="5.309325023613481"><ele>206.0</ele><time>2026-04-06T13:29:02.964Z</time></trkpt><trkpt lat="47.432832362655354" lon="5.309444451102456"><ele>206.0</ele><time>2026-04-06T13:29:04.963Z</time></trkpt><trkpt lat="47.43273292953389" lon="5.3095479951290345"><ele>206.0</ele><time>2026-04-06T13:29:06.964Z</time></trkpt><trkpt lat="47.43263414690216" lon="5.309646230009401"><ele>206.0</ele><time>2026-04-06T13:29:08.964Z</time></trkpt><trkpt lat="47.432526649155164" lon="5.309733132638847"><ele>206.0</ele><time>2026-04-06T13:29:10.964Z</time></trkpt><trkpt lat="47.43241956135339" lon="5.30981146506524"><ele>206.0</ele><time>2026-04-06T13:29:12.963Z</time></trkpt><trkpt lat="47.432315480681524" lon="5.309892722636643"><ele>206.0</ele><time>2026-04-06T13:29:14.964Z</time></trkpt><trkpt lat="47.432214597415836" lon="5.30998367957731"><ele>206.5</ele><time>2026-04-06T13:29:16.963Z</time></trkpt><trkpt lat="47.43210368566561" lon="5.310051264134001"><ele>207.0</ele><time>2026-04-06T13:29:18.963Z</time></trkpt><trkpt lat="47.432002483216756" lon="5.310148119309412"><ele>207.5</ele><time>2026-04-06T13:29:20.963Z</time></trkpt><trkpt lat="47.43190979093206" lon="5.310267642621621"><ele>208.0</ele><time>2026-04-06T13:29:22.963Z</time></trkpt><trkpt lat="47.43181073729108" lon="5.3103543450354"><ele>208.0</ele><time>2026-04-06T13:29:24.963Z</time></trkpt><trkpt lat="47.431717709596676" lon="5.310453128529922"><ele>208.0</ele><time>2026-04-06T13:29:26.963Z</time></trkpt><trkpt lat="47.43162184698195" lon="5.310549928478882"><ele>208.0</ele><time>2026-04-06T13:29:28.963Z</time></trkpt><trkpt lat="47.431528892239484" lon="5.310647201384423"><ele>208.0</ele><time>2026-04-06T13:29:30.963Z</time></trkpt><trkpt lat="47.43143232928125" lon="5.3107457437416485"><ele>208.4</ele><time>2026-04-06T13:29:32.963Z</time></trkpt><trkpt lat="47.431337880644726" lon="5.310841625872495"><ele>208.8</ele><time>2026-04-06T13:29:34.963Z</time></trkpt><trkpt lat="47.431247673651036" lon="5.310931594605996"><ele>209.2</ele><time>2026-04-06T13:29:36.963Z</time></trkpt><trkpt lat="47.43115589061502" lon="5.311027506168455"><ele>209.6</ele><time>2026-04-06T13:29:38.963Z</time></trkpt><trkpt lat="47.43107559431536" lon="5.311112916953935"><ele>210.0</ele><time>2026-04-06T13:29:40.963Z</time></trkpt><trkpt lat="47.43100043631849" lon="5.3111950043100435"><ele>210.0</ele><time>2026-04-06T13:29:42.963Z</time></trkpt><trkpt lat="47.43093091005055" lon="5.311267801280879"><ele>210.0</ele><time>2026-04-06T13:29:44.963Z</time></trkpt><trkpt lat="47.430866737421155" lon="5.311332086622375"><ele>210.0</ele><time>2026-04-06T13:29:46.963Z</time></trkpt><trkpt lat="47.43080655528605" lon="5.3113961196121355"><ele>210.0</ele><time>2026-04-06T13:29:48.963Z</time></trkpt><trkpt lat="47.430752232435054" lon="5.3114556799354125"><ele>210.0</ele><time>2026-04-06T13:29:50.963Z</time></trkpt><trkpt lat="47.43068848103926" lon="5.31153521728744"><ele>210.0</ele><time>2026-04-06T13:29:53.963Z</time></trkpt><trkpt lat="47.430630803698115" lon="5.311592238221962"><ele>210.0</ele><time>2026-04-06T13:29:56.963Z</time></trkpt><trkpt lat="47.43057677621715" lon="5.311668559241573"><ele>210.0</ele><time>2026-04-06T13:30:00.963Z</time></trkpt><trkpt lat="47.430519581681665" lon="5.311746323655294"><ele>210.0</ele><time>2026-04-06T13:30:05.963Z</time></trkpt><trkpt lat="47.43046841305712" lon="5.3118147588265465"><ele>210.0</ele><time>2026-04-06T13:30:11.963Z</time></trkpt><trkpt lat="47.43040853088392" lon="5.311866891834213"><ele>210.0</ele><time>2026-04-06T13:30:58.962Z</time></trkpt><trkpt lat="47.430358414360605" lon="5.311970226850815"><ele>210.0</ele><time>2026-04-06T13:31:24.963Z</time></trkpt><trkpt lat="47.4303065092832" lon="5.312033024899024"><ele>210.0</ele><time>2026-04-06T13:31:26.963Z</time></trkpt><trkpt lat="47.430252373802375" lon="5.312106808789479"><ele>209.83333333333334</ele><time>2026-04-06T13:31:28.963Z</time></trkpt><trkpt lat="47.43018698515276" lon="5.312199836302935"><ele>209.66666666666669</ele><time>2026-04-06T13:31:30.963Z</time></trkpt><trkpt lat="47.430106755706106" lon="5.312288942292987"><ele>209.5</ele><time>2026-04-06T13:31:32.963Z</time></trkpt><trkpt lat="47.430009094226115" lon="5.312389002358501"><ele>209.33333333333334</ele><time>2026-04-06T13:31:34.963Z</time></trkpt><trkpt lat="47.42996708375563" lon="5.312458822203387"><ele>209.16666666666669</ele><time>2026-04-06T13:31:35.963Z</time></trkpt><trkpt lat="47.42992245154886" lon="5.312534848144446"><ele>209.0</ele><time>2026-04-06T13:31:36.963Z</time></trkpt><trkpt lat="47.42987646087851" lon="5.312610869966869"><ele>209.00000000000003</ele><time>2026-04-06T13:31:37.963Z</time></trkpt><trkpt lat="47.42982523711165" lon="5.312686942300058"><ele>209.0</ele><time>2026-04-06T13:31:38.963Z</time></trkpt><trkpt lat="47.42977393933296" lon="5.312770617637299"><ele>209.0</ele><time>2026-04-06T13:31:39.963Z</time></trkpt><trkpt lat="47.429728677502254" lon="5.312865745293873"><ele>209.0</ele><time>2026-04-06T13:31:40.963Z</time></trkpt><trkpt lat="47.429683666729474" lon="5.312966634573434"><ele>209.00000000000003</ele><time>2026-04-06T13:31:41.963Z</time></trkpt><trkpt lat="47.42964589859251" lon="5.31307128515733"><ele>209.0</ele><time>2026-04-06T13:31:42.963Z</time></trkpt><trkpt lat="47.429606589699695" lon="5.313173449892526"><ele>208.16666666666669</ele><time>2026-04-06T13:31:43.963Z</time></trkpt><trkpt lat="47.42957184095495" lon="5.313290535966271"><ele>207.33333333333334</ele><time>2026-04-06T13:31:44.963Z</time></trkpt><trkpt lat="47.42953542937498" lon="5.313402785233903"><ele>206.5</ele><time>2026-04-06T13:31:45.963Z</time></trkpt><trkpt lat="47.42950014923413" lon="5.313513530454288"><ele>205.66666666666669</ele><time>2026-04-06T13:31:46.963Z</time></trkpt><trkpt lat="47.42946204169308" lon="5.313627030911259"><ele>204.83333333333334</ele><time>2026-04-06T13:31:47.963Z</time></trkpt><trkpt lat="47.42942420376239" lon="5.313737871625501"><ele>204.0</ele><time>2026-04-06T13:31:48.963Z</time></trkpt><trkpt lat="47.42938640003977" lon="5.313848632121706"><ele>203.83333333333334</ele><time>2026-04-06T13:31:49.963Z</time></trkpt><trkpt lat="47.429348035198316" lon="5.313960183451856"><ele>203.66666666666669</ele><time>2026-04-06T13:31:50.963Z</time></trkpt><trkpt lat="47.42931025344751" lon="5.314070510225706"><ele>203.5</ele><time>2026-04-06T13:31:51.963Z</time></trkpt><trkpt lat="47.42927236076337" lon="5.314181398870357"><ele>203.33333333333334</ele><time>2026-04-06T13:31:52.963Z</time></trkpt><trkpt lat="47.42923457409786" lon="5.314290768966397"><ele>203.16666666666669</ele><time>2026-04-06T13:31:53.963Z</time></trkpt><trkpt lat="47.429195137303495" lon="5.31439723630361"><ele>203.0</ele><time>2026-04-06T13:31:54.963Z</time></trkpt><trkpt lat="47.429161516309016" lon="5.314502273080581"><ele>203.00000000000003</ele><time>2026-04-06T13:31:55.963Z</time></trkpt><trkpt lat="47.42912394961633" lon="5.314610938549034"><ele>203.0</ele><time>2026-04-06T13:31:56.963Z</time></trkpt><trkpt lat="47.42908823268475" lon="5.314718386088153"><ele>203.0</ele><time>2026-04-06T13:31:57.963Z</time></trkpt><trkpt lat="47.42905012397057" lon="5.314826584372925"><ele>203.0</ele><time>2026-04-06T13:31:58.963Z</time></trkpt><trkpt lat="47.42901580353286" lon="5.314935127566216"><ele>203.00000000000003</ele><time>2026-04-06T13:31:59.963Z</time></trkpt><trkpt lat="47.42898402643969" lon="5.315046040910776"><ele>203.0</ele><time>2026-04-06T13:32:00.963Z</time></trkpt><trkpt lat="47.42895411482714" lon="5.315153959772913"><ele>202.83333333333334</ele><time>2026-04-06T13:32:01.963Z</time></trkpt><trkpt lat="47.42893647621694" lon="5.315260173156752"><ele>202.66666666666669</ele><time>2026-04-06T13:32:02.963Z</time></trkpt><trkpt lat="47.42891412788728" lon="5.315372896413564"><ele>202.5</ele><time>2026-04-06T13:32:03.963Z</time></trkpt><trkpt lat="47.42889874683435" lon="5.315486114623923"><ele>202.33333333333331</ele><time>2026-04-06T13:32:04.963Z</time></trkpt><trkpt lat="47.428886332125316" lon="5.3155921402388415"><ele>202.16666666666666</ele><time>2026-04-06T13:32:05.963Z</time></trkpt><trkpt lat="47.42887295954993" lon="5.3157079480511324"><ele>202.0</ele><time>2026-04-06T13:32:06.963Z</time></trkpt><trkpt lat="47.42886829806625" lon="5.315819707129975"><ele>201.83333333333331</ele><time>2026-04-06T13:32:07.963Z</time></trkpt><trkpt lat="47.428856872040654" lon="5.3159358415172315"><ele>201.66666666666666</ele><time>2026-04-06T13:32:08.963Z</time></trkpt><trkpt lat="47.42884116018831" lon="5.316038383030639"><ele>201.5</ele><time>2026-04-06T13:32:09.963Z</time></trkpt><trkpt lat="47.428829967133694" lon="5.316139645035847"><ele>201.33333333333331</ele><time>2026-04-06T13:32:10.963Z</time></trkpt><trkpt lat="47.42881561928248" lon="5.3162492087906"><ele>201.16666666666666</ele><time>2026-04-06T13:32:11.963Z</time></trkpt><trkpt lat="47.428812286260914" lon="5.316347880651546"><ele>201.0</ele><time>2026-04-06T13:32:12.963Z</time></trkpt><trkpt lat="47.42876796909634" lon="5.316500827488989"><ele>200.83333333333334</ele><time>2026-04-06T13:32:14.963Z</time></trkpt><trkpt lat="47.42866533369379" lon="5.316584974749938"><ele>200.66666666666669</ele><time>2026-04-06T13:32:16.963Z</time></trkpt><trkpt lat="47.428600019356956" lon="5.316590565819564"><ele>200.5</ele><time>2026-04-06T13:32:17.963Z</time></trkpt><trkpt lat="47.42853361857357" lon="5.316570904173033"><ele>200.33333333333334</ele><time>2026-04-06T13:32:18.963Z</time></trkpt><trkpt lat="47.428470774675326" lon="5.316558272638275"><ele>200.16666666666669</ele><time>2026-04-06T13:32:19.963Z</time></trkpt><trkpt lat="47.42834233180939" lon="5.3165594872650415"><ele>200.0</ele><time>2026-04-06T13:32:21.963Z</time></trkpt><trkpt lat="47.42827895694023" lon="5.316559233153713"><ele>200.00000000000003</ele><time>2026-04-06T13:32:22.963Z</time></trkpt><trkpt lat="47.4282148345717" lon="5.316561378155542"><ele>200.0</ele><time>2026-04-06T13:32:23.963Z</time></trkpt><trkpt lat="47.42814864375719" lon="5.31656363832328"><ele>200.0</ele><time>2026-04-06T13:32:24.963Z</time></trkpt><trkpt lat="47.42808393530773" lon="5.316571155195994"><ele>200.0</ele><time>2026-04-06T13:32:25.963Z</time></trkpt><trkpt lat="47.42802022996447" lon="5.316569892823868"><ele>200.0</ele><time>2026-04-06T13:32:26.963Z</time></trkpt><trkpt lat="47.427955501578175" lon="5.316560974865425"><ele>200.00000000000003</ele><time>2026-04-06T13:32:27.963Z</time></trkpt><trkpt lat="47.427889360380554" lon="5.316557137442751"><ele>200.0</ele><time>2026-04-06T13:32:28.963Z</time></trkpt><trkpt lat="47.42782617538029" lon="5.316563090835196"><ele>200.4</ele><time>2026-04-06T13:32:29.963Z</time></trkpt><trkpt lat="47.4277588067525" lon="5.316564154593471"><ele>200.8</ele><time>2026-04-06T13:32:30.963Z</time></trkpt><trkpt lat="47.42763166622361" lon="5.316549274838948"><ele>201.2</ele><time>2026-04-06T13:32:32.963Z</time></trkpt><trkpt lat="47.427564487628906" lon="5.31653246259865"><ele>201.6</ele><time>2026-04-06T13:32:33.963Z</time></trkpt><trkpt lat="47.42750045968142" lon="5.316518415493933"><ele>202.0</ele><time>2026-04-06T13:32:34.963Z</time></trkpt><trkpt lat="47.42738922663965" lon="5.316443842229765"><ele>201.16666666666666</ele><time>2026-04-06T13:32:36.963Z</time></trkpt><trkpt lat="47.42733063691273" lon="5.316397246405934"><ele>200.33333333333331</ele><time>2026-04-06T13:32:37.963Z</time></trkpt><trkpt lat="47.427231754339104" lon="5.316312668821573"><ele>199.5</ele><time>2026-04-06T13:32:39.963Z</time></trkpt><trkpt lat="47.42717654332203" lon="5.316264085969469"><ele>198.66666666666669</ele><time>2026-04-06T13:32:40.963Z</time></trkpt><trkpt lat="47.427121831662895" lon="5.316201149502005"><ele>197.83333333333334</ele><time>2026-04-06T13:32:41.963Z</time></trkpt><trkpt lat="47.427073062578934" lon="5.3161318002441424"><ele>197.0</ele><time>2026-04-06T13:32:42.963Z</time></trkpt><trkpt lat="47.427019116252794" lon="5.316058515180806"><ele>197.0</ele><time>2026-04-06T13:32:43.963Z</time></trkpt><trkpt lat="47.42698354640581" lon="5.315972658897192"><ele>197.0</ele><time>2026-04-06T13:32:44.963Z</time></trkpt><trkpt lat="47.426947324736766" lon="5.315795658236532"><ele>197.0</ele><time>2026-04-06T13:32:46.963Z</time></trkpt><trkpt lat="47.42691492547815" lon="5.315709175528132"><ele>197.0</ele><time>2026-04-06T13:32:47.963Z</time></trkpt><trkpt lat="47.42686461164784" lon="5.315542030340456"><ele>197.0</ele><time>2026-04-06T13:32:49.963Z</time></trkpt><trkpt lat="47.42681885769245" lon="5.315375459493166"><ele>196.6</ele><time>2026-04-06T13:32:51.963Z</time></trkpt><trkpt lat="47.42677625982686" lon="5.315204787491367"><ele>196.2</ele><time>2026-04-06T13:32:53.963Z</time></trkpt><trkpt lat="47.426732802451454" lon="5.315047125220953"><ele>195.8</ele><time>2026-04-06T13:32:55.963Z</time></trkpt><trkpt lat="47.426684979138365" lon="5.3149029170784035"><ele>195.4</ele><time>2026-04-06T13:32:57.963Z</time></trkpt><trkpt lat="47.42659858438707" lon="5.314848764213297"><ele>195.0</ele><time>2026-04-06T13:32:59.963Z</time></trkpt><trkpt lat="47.426498568008675" lon="5.314881198787417"><ele>195.0</ele><time>2026-04-06T13:33:01.963Z</time></trkpt><trkpt lat="47.426401521399185" lon="5.314937243718484"><ele>195.0</ele><time>2026-04-06T13:33:03.963Z</time></trkpt><trkpt lat="47.426296140414685" lon="5.314988159410104"><ele>195.0</ele><time>2026-04-06T13:33:05.963Z</time></trkpt><trkpt lat="47.426185775130115" lon="5.3150703884227894"><ele>195.0</ele><time>2026-04-06T13:33:07.962Z</time></trkpt><trkpt lat="47.426084716622654" lon="5.315161030525532"><ele>195.25</ele><time>2026-04-06T13:33:09.962Z</time></trkpt><trkpt lat="47.42598049775441" lon="5.315253532025857"><ele>195.5</ele><time>2026-04-06T13:33:11.962Z</time></trkpt><trkpt lat="47.42586904188639" lon="5.31533175834598"><ele>195.75</ele><time>2026-04-06T13:33:13.962Z</time></trkpt><trkpt lat="47.425759082067884" lon="5.315397833453248"><ele>196.0</ele><time>2026-04-06T13:33:15.963Z</time></trkpt><trkpt lat="47.42564304815635" lon="5.315454293247279"><ele>196.0</ele><time>2026-04-06T13:33:17.963Z</time></trkpt><trkpt lat="47.42553258946344" lon="5.31552210312874"><ele>196.0</ele><time>2026-04-06T13:33:19.963Z</time></trkpt><trkpt lat="47.42541442914159" lon="5.315581707507198"><ele>196.0</ele><time>2026-04-06T13:33:21.962Z</time></trkpt><trkpt lat="47.42530286647764" lon="5.315640560595729"><ele>196.0</ele><time>2026-04-06T13:33:23.963Z</time></trkpt><trkpt lat="47.425243418183584" lon="5.315671951926775"><ele>196.0</ele><time>2026-04-06T13:33:24.962Z</time></trkpt><trkpt lat="47.42513531875472" lon="5.31572449752595"><ele>196.0</ele><time>2026-04-06T13:33:26.962Z</time></trkpt><trkpt lat="47.42503392877414" lon="5.315773388083656"><ele>196.0</ele><time>2026-04-06T13:33:28.962Z</time></trkpt><trkpt lat="47.42492012788006" lon="5.315817693991065"><ele>196.0</ele><time>2026-04-06T13:33:30.962Z</time></trkpt><trkpt lat="47.42482055286682" lon="5.315872377257862"><ele>196.0</ele><time>2026-04-06T13:33:32.962Z</time></trkpt><trkpt lat="47.424726002578765" lon="5.315915288436645"><ele>196.0</ele><time>2026-04-06T13:33:34.962Z</time></trkpt><trkpt lat="47.42463336655727" lon="5.315964533002305"><ele>196.49999999999997</ele><time>2026-04-06T13:33:36.962Z</time></trkpt><trkpt lat="47.42454003780411" lon="5.31597120236349"><ele>197.0</ele><time>2026-04-06T13:33:38.962Z</time></trkpt><trkpt lat="47.42447512487761" lon="5.315905370801169"><ele>197.5</ele><time>2026-04-06T13:33:40.962Z</time></trkpt><trkpt lat="47.4244162388809" lon="5.315814457460867"><ele>198.0</ele><time>2026-04-06T13:33:43.962Z</time></trkpt><trkpt lat="47.424349087885325" lon="5.31582943483581"><ele>198.49999999999997</ele><time>2026-04-06T13:33:45.962Z</time></trkpt><trkpt lat="47.424285939282285" lon="5.315889204547584"><ele>199.0</ele><time>2026-04-06T13:33:47.962Z</time></trkpt><trkpt lat="47.42421102324805" lon="5.315960412429024"><ele>199.0</ele><time>2026-04-06T13:33:50.962Z</time></trkpt><trkpt lat="47.42413739495796" lon="5.316030273494797"><ele>199.0</ele><time>2026-04-06T13:33:53.962Z</time></trkpt><trkpt lat="47.424059415191294" lon="5.316085030246055"><ele>199.0</ele><time>2026-04-06T13:33:56.962Z</time></trkpt><trkpt lat="47.42398364455236" lon="5.316111855564156"><ele>199.0</ele><time>2026-04-06T13:33:59.962Z</time></trkpt></trkseg><trkseg><trkpt lat="47.42393113701783" lon="5.316142761283741"><ele>198.99999999999997</ele><time>2026-04-06T13:51:15.97Z</time></trkpt><trkpt lat="47.42401997015719" lon="5.316077246089028"><ele>199.0</ele><time>2026-04-06T13:51:19.97Z</time></trkpt><trkpt lat="47.42408181387762" lon="5.316036872560943"><ele>199.0</ele><time>2026-04-06T13:51:21.97Z</time></trkpt><trkpt lat="47.42413984058165" lon="5.315973949152465"><ele>199.0</ele><time>2026-04-06T13:51:23.97Z</time></trkpt><trkpt lat="47.42420044376126" lon="5.315910024478201"><ele>198.99999999999997</ele><time>2026-04-06T13:51:25.97Z</time></trkpt><trkpt lat="47.42426674530835" lon="5.315839042485551"><ele>199.0</ele><time>2026-04-06T13:51:27.97Z</time></trkpt><trkpt lat="47.42433780080282" lon="5.315794922019131"><ele>199.0</ele><time>2026-04-06T13:51:29.97Z</time></trkpt><trkpt lat="47.4244199204127" lon="5.31582123366725"><ele>199.0</ele><time>2026-04-06T13:51:31.97Z</time></trkpt><trkpt lat="47.42448113036657" lon="5.315924036534756"><ele>199.0</ele><time>2026-04-06T13:51:33.97Z</time></trkpt><trkpt lat="47.4245572101869" lon="5.315989611807869"><ele>199.0</ele><time>2026-04-06T13:51:35.97Z</time></trkpt><trkpt lat="47.424667718052916" lon="5.315961932852467"><ele>199.0</ele><time>2026-04-06T13:51:37.97Z</time></trkpt><trkpt lat="47.424770844662326" lon="5.315906879233608"><ele>198.25</ele><time>2026-04-06T13:51:39.97Z</time></trkpt><trkpt lat="47.42487079591905" lon="5.315848409248806"><ele>197.5</ele><time>2026-04-06T13:51:41.97Z</time></trkpt><trkpt lat="47.424972818833865" lon="5.315786643787365"><ele>196.75</ele><time>2026-04-06T13:51:43.97Z</time></trkpt><trkpt lat="47.425088884263126" lon="5.31573967508932"><ele>196.0</ele><time>2026-04-06T13:51:45.97Z</time></trkpt><trkpt lat="47.42519752270351" lon="5.315676387142185"><ele>196.0</ele><time>2026-04-06T13:51:47.97Z</time></trkpt><trkpt lat="47.425303269383406" lon="5.315627910602655"><ele>196.0</ele><time>2026-04-06T13:51:49.97Z</time></trkpt><trkpt lat="47.425397811445066" lon="5.315572037759087"><ele>196.0</ele><time>2026-04-06T13:51:51.97Z</time></trkpt><trkpt lat="47.42550592175963" lon="5.315524134385057"><ele>196.0</ele><time>2026-04-06T13:51:53.97Z</time></trkpt><trkpt lat="47.42561760963133" lon="5.315456134135728"><ele>196.0</ele><time>2026-04-06T13:51:55.97Z</time></trkpt><trkpt lat="47.42573041523468" lon="5.315394727720209"><ele>196.0</ele><time>2026-04-06T13:51:57.97Z</time></trkpt><trkpt lat="47.42583768984898" lon="5.315329760782551"><ele>196.0</ele><time>2026-04-06T13:51:59.97Z</time></trkpt><trkpt lat="47.425945648473046" lon="5.315265772871281"><ele>196.0</ele><time>2026-04-06T13:52:01.97Z</time></trkpt><trkpt lat="47.42604992441333" lon="5.315178991079152"><ele>196.0</ele><time>2026-04-06T13:52:03.97Z</time></trkpt><trkpt lat="47.42614457885241" lon="5.315092605587375"><ele>196.0</ele><time>2026-04-06T13:52:05.97Z</time></trkpt><trkpt lat="47.426246211495155" lon="5.314997723892139"><ele>196.0</ele><time>2026-04-06T13:52:07.97Z</time></trkpt><trkpt lat="47.426348616858725" lon="5.314936845852252"><ele>196.0</ele><time>2026-04-06T13:52:09.97Z</time></trkpt><trkpt lat="47.42645700671964" lon="5.3148921071283235"><ele>196.0</ele><time>2026-04-06T13:52:11.97Z</time></trkpt><trkpt lat="47.42656191016902" lon="5.314847393050769"><ele>195.8</ele><time>2026-04-06T13:52:13.97Z</time></trkpt><trkpt lat="47.42666402728073" lon="5.314891876572914"><ele>195.60000000000002</ele><time>2026-04-06T13:52:15.97Z</time></trkpt><trkpt lat="47.4267144198052" lon="5.315036487477412"><ele>195.4</ele><time>2026-04-06T13:52:17.97Z</time></trkpt><trkpt lat="47.42674104141065" lon="5.315181514502392"><ele>195.2</ele><time>2026-04-06T13:52:19.97Z</time></trkpt><trkpt lat="47.42678171202283" lon="5.315321710606589"><ele>195.0</ele><time>2026-04-06T13:52:21.97Z</time></trkpt><trkpt lat="47.42682257686148" lon="5.315466368224024"><ele>195.4</ele><time>2026-04-06T13:52:23.97Z</time></trkpt><trkpt lat="47.42686527728839" lon="5.3156110434376"><ele>195.8</ele><time>2026-04-06T13:52:25.97Z</time></trkpt><trkpt lat="47.426909194560274" lon="5.315754378783378"><ele>196.2</ele><time>2026-04-06T13:52:27.97Z</time></trkpt><trkpt lat="47.426957718333256" lon="5.315888940078139"><ele>196.6</ele><time>2026-04-06T13:52:29.97Z</time></trkpt><trkpt lat="47.42700351640447" lon="5.31602953746541"><ele>197.0</ele><time>2026-04-06T13:52:31.97Z</time></trkpt><trkpt lat="47.427069681101294" lon="5.316143806635641"><ele>197.0</ele><time>2026-04-06T13:52:33.97Z</time></trkpt><trkpt lat="47.42714974529577" lon="5.3162438718176075"><ele>197.0</ele><time>2026-04-06T13:52:35.97Z</time></trkpt><trkpt lat="47.427240255886545" lon="5.31631110837901"><ele>197.0</ele><time>2026-04-06T13:52:37.97Z</time></trkpt><trkpt lat="47.42732686427068" lon="5.3163794223471665"><ele>197.0</ele><time>2026-04-06T13:52:39.97Z</time></trkpt><trkpt lat="47.427413316491624" lon="5.316437085780325"><ele>197.0</ele><time>2026-04-06T13:52:41.97Z</time></trkpt><trkpt lat="47.42751409660884" lon="5.316491545025"><ele>197.6</ele><time>2026-04-06T13:52:43.97Z</time></trkpt><trkpt lat="47.42761943892498" lon="5.316504151668347"><ele>198.2</ele><time>2026-04-06T13:52:45.97Z</time></trkpt><trkpt lat="47.42772381900429" lon="5.316522228823877"><ele>198.8</ele><time>2026-04-06T13:52:47.97Z</time></trkpt><trkpt lat="47.42783156251297" lon="5.316515610641693"><ele>199.4</ele><time>2026-04-06T13:52:49.97Z</time></trkpt><trkpt lat="47.42793393745076" lon="5.316496857999794"><ele>200.0</ele><time>2026-04-06T13:52:51.97Z</time></trkpt><trkpt lat="47.428042110732754" lon="5.31650885872014"><ele>200.0</ele><time>2026-04-06T13:52:53.97Z</time></trkpt><trkpt lat="47.42813509231673" lon="5.316503575512674"><ele>200.0</ele><time>2026-04-06T13:52:55.969Z</time></trkpt><trkpt lat="47.42823270894599" lon="5.316485626385747"><ele>200.0</ele><time>2026-04-06T13:52:57.968Z</time></trkpt><trkpt lat="47.428334793139946" lon="5.316500087794379"><ele>200.0</ele><time>2026-04-06T13:52:59.969Z</time></trkpt><trkpt lat="47.42844174622031" lon="5.316511664883284"><ele>200.0</ele><time>2026-04-06T13:53:01.969Z</time></trkpt><trkpt lat="47.42854490191044" lon="5.316518524193273"><ele>200.00000000000003</ele><time>2026-04-06T13:53:03.969Z</time></trkpt><trkpt lat="47.42864320886585" lon="5.316521058865765"><ele>200.0</ele><time>2026-04-06T13:53:05.969Z</time></trkpt><trkpt lat="47.428718149924705" lon="5.316514950541794"><ele>200.0</ele><time>2026-04-06T13:53:07.969Z</time></trkpt><trkpt lat="47.42875161054344" lon="5.316603295808814"><ele>200.0</ele><time>2026-04-06T13:53:09.969Z</time></trkpt><trkpt lat="47.428726584020886" lon="5.316705004175356"><ele>200.00000000000003</ele><time>2026-04-06T13:53:11.969Z</time></trkpt><trkpt lat="47.42870958322887" lon="5.316818135522581"><ele>200.0</ele><time>2026-04-06T13:53:13.969Z</time></trkpt><trkpt lat="47.428688559001735" lon="5.316949001913343"><ele>200.00000000000003</ele><time>2026-04-06T13:53:15.969Z</time></trkpt><trkpt lat="47.42867041244313" lon="5.317042549200536"><ele>200.0</ele><time>2026-04-06T13:53:17.969Z</time></trkpt><trkpt lat="47.428663211770434" lon="5.317137311984072"><ele>200.0</ele><time>2026-04-06T13:53:21.969Z</time></trkpt><trkpt lat="47.4286646181003" lon="5.317232955907768"><ele>200.0</ele><time>2026-04-06T13:53:33.969Z</time></trkpt><trkpt lat="47.42865447333699" lon="5.317326198926197"><ele>200.0</ele><time>2026-04-06T13:53:42.969Z</time></trkpt><trkpt lat="47.42863047501573" lon="5.317462847133154"><ele>200.00000000000003</ele><time>2026-04-06T13:53:46.969Z</time></trkpt><trkpt lat="47.428613677259335" lon="5.317592521522789"><ele>200.0</ele><time>2026-04-06T13:53:49.969Z</time></trkpt><trkpt lat="47.4285223170515" lon="5.317628130076856"><ele>201.16666666666669</ele><time>2026-04-06T13:53:52.969Z</time></trkpt><trkpt lat="47.428452031530256" lon="5.317623216719375"><ele>202.33333333333334</ele><time>2026-04-06T13:53:54.969Z</time></trkpt><trkpt lat="47.42838684488373" lon="5.3176651434572975"><ele>203.5</ele><time>2026-04-06T13:53:56.969Z</time></trkpt><trkpt lat="47.42831763551222" lon="5.317711071134481"><ele>204.66666666666669</ele><time>2026-04-06T13:53:58.969Z</time></trkpt><trkpt lat="47.42823272880238" lon="5.317755825813917"><ele>205.83333333333334</ele><time>2026-04-06T13:54:00.969Z</time></trkpt><trkpt lat="47.428140357855426" lon="5.31781242955048"><ele>207.0</ele><time>2026-04-06T13:54:02.969Z</time></trkpt><trkpt lat="47.4280840834501" lon="5.317859115897315"><ele>207.6</ele><time>2026-04-06T13:54:03.968Z</time></trkpt><trkpt lat="47.427972890032045" lon="5.317916918273631"><ele>208.2</ele><time>2026-04-06T13:54:05.968Z</time></trkpt><trkpt lat="47.427878052815764" lon="5.317968215887502"><ele>208.8</ele><time>2026-04-06T13:54:07.968Z</time></trkpt><trkpt lat="47.42778125563775" lon="5.3180085809202495"><ele>209.4</ele><time>2026-04-06T13:54:09.968Z</time></trkpt><trkpt lat="47.42768537979235" lon="5.318054319821963"><ele>210.0</ele><time>2026-04-06T13:54:11.968Z</time></trkpt><trkpt lat="47.427597508564396" lon="5.318097046831062"><ele>210.4</ele><time>2026-04-06T13:54:13.968Z</time></trkpt><trkpt lat="47.427487400841095" lon="5.3181457726421915"><ele>210.8</ele><time>2026-04-06T13:54:15.968Z</time></trkpt><trkpt lat="47.42740018943185" lon="5.318209924084725"><ele>211.2</ele><time>2026-04-06T13:54:17.968Z</time></trkpt><trkpt lat="47.427325855822666" lon="5.318301686961031"><ele>211.6</ele><time>2026-04-06T13:54:19.968Z</time></trkpt><trkpt lat="47.427250402447655" lon="5.318410520406042"><ele>212.0</ele><time>2026-04-06T13:54:21.968Z</time></trkpt><trkpt lat="47.427184745660895" lon="5.3185299607528895"><ele>211.8</ele><time>2026-04-06T13:54:23.968Z</time></trkpt><trkpt lat="47.427130732038016" lon="5.318664067055278"><ele>211.6</ele><time>2026-04-06T13:54:25.968Z</time></trkpt><trkpt lat="47.42707435146237" lon="5.31879833979753"><ele>211.4</ele><time>2026-04-06T13:54:27.968Z</time></trkpt><trkpt lat="47.42701869784547" lon="5.318923508456592"><ele>211.20000000000002</ele><time>2026-04-06T13:54:29.968Z</time></trkpt><trkpt lat="47.426972472458324" lon="5.319045043874784"><ele>211.0</ele><time>2026-04-06T13:54:31.968Z</time></trkpt><trkpt lat="47.4269311883598" lon="5.319156119104501"><ele>210.99999999999997</ele><time>2026-04-06T13:54:33.968Z</time></trkpt><trkpt lat="47.42688493706655" lon="5.319283984445522"><ele>211.0</ele><time>2026-04-06T13:54:35.968Z</time></trkpt><trkpt lat="47.426833173239274" lon="5.319389122290186"><ele>211.0</ele><time>2026-04-06T13:54:37.968Z</time></trkpt><trkpt lat="47.42679995342996" lon="5.3194760239470265"><ele>211.0</ele><time>2026-04-06T13:54:39.968Z</time></trkpt><trkpt lat="47.42674410192512" lon="5.319588095513063"><ele>210.99999999999997</ele><time>2026-04-06T13:54:42.968Z</time></trkpt><trkpt lat="47.42670561594687" lon="5.319668755605187"><ele>211.0</ele><time>2026-04-06T13:54:44.968Z</time></trkpt><trkpt lat="47.42665476152353" lon="5.319746619427926"><ele>211.28571428571428</ele><time>2026-04-06T13:54:46.968Z</time></trkpt><trkpt lat="47.42661678911984" lon="5.319828906014124"><ele>211.57142857142858</ele><time>2026-04-06T13:54:48.968Z</time></trkpt><trkpt lat="47.4265721197196" lon="5.319921779820984"><ele>211.85714285714283</ele><time>2026-04-06T13:54:50.968Z</time></trkpt><trkpt lat="47.426531303386476" lon="5.3200166009583905"><ele>212.14285714285714</ele><time>2026-04-06T13:54:52.968Z</time></trkpt><trkpt lat="47.426502899044564" lon="5.32010127984018"><ele>212.42857142857142</ele><time>2026-04-06T13:54:54.968Z</time></trkpt><trkpt lat="47.42645859942677" lon="5.320186170952317"><ele>212.7142857142857</ele><time>2026-04-06T13:54:56.968Z</time></trkpt><trkpt lat="47.42641634039502" lon="5.320283808991876"><ele>213.0</ele><time>2026-04-06T13:54:58.968Z</time></trkpt><trkpt lat="47.42636156886943" lon="5.320368328250507"><ele>213.0</ele><time>2026-04-06T13:55:00.968Z</time></trkpt><trkpt lat="47.42632168156377" lon="5.320473003326446"><ele>213.0</ele><time>2026-04-06T13:55:03.968Z</time></trkpt><trkpt lat="47.426276807637585" lon="5.320573224815617"><ele>213.0</ele><time>2026-04-06T13:55:06.968Z</time></trkpt><trkpt lat="47.42622248454266" lon="5.320666403910177"><ele>213.0</ele><time>2026-04-06T13:55:09.967Z</time></trkpt><trkpt lat="47.426169964772704" lon="5.3207538009430815"><ele>213.0</ele><time>2026-04-06T13:55:12.968Z</time></trkpt><trkpt lat="47.426128865578875" lon="5.3208301338573065"><ele>213.0</ele><time>2026-04-06T13:55:14.968Z</time></trkpt><trkpt lat="47.426089408088764" lon="5.320912110873109"><ele>213.7142857142857</ele><time>2026-04-06T13:55:16.968Z</time></trkpt><trkpt lat="47.42604799648562" lon="5.321003211927199"><ele>214.42857142857142</ele><time>2026-04-06T13:55:18.968Z</time></trkpt><trkpt lat="47.426005172698595" lon="5.321098702998285"><ele>215.14285714285714</ele><time>2026-04-06T13:55:20.968Z</time></trkpt><trkpt lat="47.425960126042945" lon="5.32119335910808"><ele>215.85714285714283</ele><time>2026-04-06T13:55:22.968Z</time></trkpt><trkpt lat="47.42592248466397" lon="5.321286651925049"><ele>216.57142857142858</ele><time>2026-04-06T13:55:24.968Z</time></trkpt><trkpt lat="47.425872589274945" lon="5.321367774922824"><ele>217.28571428571428</ele><time>2026-04-06T13:55:26.968Z</time></trkpt><trkpt lat="47.425828618709254" lon="5.321448534504275"><ele>218.0</ele><time>2026-04-06T13:55:28.968Z</time></trkpt><trkpt lat="47.42579287570347" lon="5.321552596503673"><ele>218.14285714285714</ele><time>2026-04-06T13:55:31.968Z</time></trkpt><trkpt lat="47.425744420852475" lon="5.321620091929919"><ele>218.28571428571428</ele><time>2026-04-06T13:55:34.968Z</time></trkpt><trkpt lat="47.42566713096692" lon="5.321581944059245"><ele>218.42857142857144</ele><time>2026-04-06T13:55:39.968Z</time></trkpt><trkpt lat="47.42560408756274" lon="5.321513941694661"><ele>218.57142857142856</ele><time>2026-04-06T13:55:43.968Z</time></trkpt><trkpt lat="47.425543035160345" lon="5.3214783730761965"><ele>218.7142857142857</ele><time>2026-04-06T13:55:46.968Z</time></trkpt><trkpt lat="47.42547745923482" lon="5.321439903483201"><ele>218.85714285714286</ele><time>2026-04-06T13:55:49.968Z</time></trkpt><trkpt lat="47.42541468883992" lon="5.321383166576248"><ele>219.0</ele><time>2026-04-06T13:55:52.968Z</time></trkpt><trkpt lat="47.42535128969002" lon="5.321331488299146"><ele>219.16666666666666</ele><time>2026-04-06T13:56:02.968Z</time></trkpt><trkpt lat="47.42529657797688" lon="5.321280350521789"><ele>219.33333333333331</ele><time>2026-04-06T13:56:05.968Z</time></trkpt><trkpt lat="47.42521885143922" lon="5.3212289270046185"><ele>219.5</ele><time>2026-04-06T13:56:08.968Z</time></trkpt><trkpt lat="47.42514413079072" lon="5.3211638321445776"><ele>219.66666666666666</ele><time>2026-04-06T13:56:12.967Z</time></trkpt><trkpt lat="47.42506833707248" lon="5.321087736279198"><ele>219.83333333333331</ele><time>2026-04-06T13:56:16.967Z</time></trkpt><trkpt lat="47.425007456617536" lon="5.321039981032289"><ele>220.0</ele><time>2026-04-06T13:56:19.967Z</time></trkpt><trkpt lat="47.42494438027408" lon="5.320972849019254"><ele>219.99999999999997</ele><time>2026-04-06T13:56:22.967Z</time></trkpt><trkpt lat="47.424875348279805" lon="5.320912143476136"><ele>220.0</ele><time>2026-04-06T13:56:25.967Z</time></trkpt><trkpt lat="47.42480654268132" lon="5.3208323400770885"><ele>220.0</ele><time>2026-04-06T13:56:28.967Z</time></trkpt><trkpt lat="47.424725931084545" lon="5.320776208473839"><ele>220.0</ele><time>2026-04-06T13:56:31.967Z</time></trkpt><trkpt lat="47.424653489664145" lon="5.320706992021256"><ele>219.99999999999997</ele><time>2026-04-06T13:56:33.967Z</time></trkpt><trkpt lat="47.42459045645649" lon="5.320657621307051"><ele>220.0</ele><time>2026-04-06T13:56:35.967Z</time></trkpt><trkpt lat="47.424508130386215" lon="5.320576503206463"><ele>219.66666666666666</ele><time>2026-04-06T13:56:38.967Z</time></trkpt><trkpt lat="47.424437689795894" lon="5.320544717366705"><ele>219.33333333333331</ele><time>2026-04-06T13:56:40.967Z</time></trkpt><trkpt lat="47.42437268813038" lon="5.320478864113133"><ele>219.0</ele><time>2026-04-06T13:56:43.967Z</time></trkpt><trkpt lat="47.424301069173175" lon="5.320422097734527"><ele>218.66666666666669</ele><time>2026-04-06T13:56:46.968Z</time></trkpt><trkpt lat="47.42424449629534" lon="5.320376003967853"><ele>218.33333333333334</ele><time>2026-04-06T13:56:48.969Z</time></trkpt><trkpt lat="47.424164285003144" lon="5.320301360632179"><ele>218.0</ele><time>2026-04-06T13:56:51.97Z</time></trkpt><trkpt lat="47.42410827171562" lon="5.320252122353057"><ele>218.00000000000003</ele><time>2026-04-06T13:56:53.971Z</time></trkpt><trkpt lat="47.424052386135486" lon="5.320197998542853"><ele>218.0</ele><time>2026-04-06T13:56:55.972Z</time></trkpt><trkpt lat="47.42399201233778" lon="5.320138648473678"><ele>218.0</ele><time>2026-04-06T13:56:57.972Z</time></trkpt><trkpt lat="47.42392031536777" lon="5.320068720920933"><ele>218.0</ele><time>2026-04-06T13:57:00.973Z</time></trkpt><trkpt lat="47.42384834914217" lon="5.31999971582002"><ele>218.00000000000003</ele><time>2026-04-06T13:57:03.973Z</time></trkpt><trkpt lat="47.42378875694699" lon="5.31995733113573"><ele>218.0</ele><time>2026-04-06T13:57:05.974Z</time></trkpt><trkpt lat="47.423710749864206" lon="5.3198888476691595"><ele>217.33333333333334</ele><time>2026-04-06T13:57:08.973Z</time></trkpt><trkpt lat="47.423631663905056" lon="5.319820286844489"><ele>216.66666666666669</ele><time>2026-04-06T13:57:11.973Z</time></trkpt><trkpt lat="47.42355360558735" lon="5.319775657180182"><ele>216.0</ele><time>2026-04-06T13:57:14.973Z</time></trkpt><trkpt lat="47.42350374475664" lon="5.319692752227427"><ele>215.33333333333331</ele><time>2026-04-06T13:57:17.974Z</time></trkpt><trkpt lat="47.423447230292155" lon="5.3196425606102755"><ele>214.66666666666666</ele><time>2026-04-06T13:57:19.974Z</time></trkpt><trkpt lat="47.42336748119894" lon="5.319569897366654"><ele>214.0</ele><time>2026-04-06T13:57:22.974Z</time></trkpt><trkpt lat="47.42329067667983" lon="5.319507887655634"><ele>213.14285714285717</ele><time>2026-04-06T13:57:25.974Z</time></trkpt><trkpt lat="47.42322331521451" lon="5.319459473585971"><ele>212.28571428571428</ele><time>2026-04-06T13:57:28.974Z</time></trkpt><trkpt lat="47.423165738038136" lon="5.319419150944826"><ele>211.42857142857144</ele><time>2026-04-06T13:57:34.975Z</time></trkpt><trkpt lat="47.42312362005047" lon="5.319349522999939"><ele>210.57142857142858</ele><time>2026-04-06T13:57:39.975Z</time></trkpt><trkpt lat="47.42306840199055" lon="5.319301678874693"><ele>209.71428571428572</ele><time>2026-04-06T13:57:45.975Z</time></trkpt><trkpt lat="47.42313005614053" lon="5.319322516574751"><ele>208.85714285714286</ele><time>2026-04-06T13:58:36.975Z</time></trkpt><trkpt lat="47.42319853719922" lon="5.3193829842475875"><ele>208.0</ele><time>2026-04-06T13:58:47.975Z</time></trkpt><trkpt lat="47.423271056543165" lon="5.3194309207233585"><ele>207.99999999999997</ele><time>2026-04-06T13:58:50.975Z</time></trkpt><trkpt lat="47.42335147014921" lon="5.319494960886599"><ele>208.0</ele><time>2026-04-06T13:58:53.975Z</time></trkpt><trkpt lat="47.42342457893338" lon="5.319562355030619"><ele>208.0</ele><time>2026-04-06T13:58:56.975Z</time></trkpt><trkpt lat="47.42349469910283" lon="5.3196236625962"><ele>208.0</ele><time>2026-04-06T13:58:59.975Z</time></trkpt><trkpt lat="47.42357365828492" lon="5.319665351111645"><ele>207.99999999999997</ele><time>2026-04-06T13:59:02.975Z</time></trkpt><trkpt lat="47.423645634312194" lon="5.319741081868977"><ele>208.0</ele><time>2026-04-06T13:59:05.975Z</time></trkpt><trkpt lat="47.4236969301177" lon="5.319801286005867"><ele>208.99999999999997</ele><time>2026-04-06T13:59:07.975Z</time></trkpt><trkpt lat="47.423757215802894" lon="5.319841464508744"><ele>210.0</ele><time>2026-04-06T13:59:09.975Z</time></trkpt><trkpt lat="47.423822283313115" lon="5.319907490755498"><ele>211.0</ele><time>2026-04-06T13:59:12.974Z</time></trkpt><trkpt lat="47.42389022547257" lon="5.319975266142791"><ele>212.0</ele><time>2026-04-06T13:59:15.974Z</time></trkpt><trkpt lat="47.423949967523136" lon="5.320032607669044"><ele>212.99999999999997</ele><time>2026-04-06T13:59:17.973Z</time></trkpt><trkpt lat="47.424021179115215" lon="5.320093450083092"><ele>214.0</ele><time>2026-04-06T13:59:20.974Z</time></trkpt><trkpt lat="47.42408611468823" lon="5.320155728323529"><ele>214.66666666666666</ele><time>2026-04-06T13:59:23.973Z</time></trkpt><trkpt lat="47.42416749162161" lon="5.320220601585953"><ele>215.33333333333331</ele><time>2026-04-06T13:59:26.974Z</time></trkpt><trkpt lat="47.424228106622714" lon="5.320271001726342"><ele>216.0</ele><time>2026-04-06T13:59:29.974Z</time></trkpt><trkpt lat="47.42429017244172" lon="5.320343153083993"><ele>216.66666666666669</ele><time>2026-04-06T13:59:31.974Z</time></trkpt><trkpt lat="47.42436282683699" lon="5.320404489882641"><ele>217.33333333333334</ele><time>2026-04-06T13:59:34.974Z</time></trkpt><trkpt lat="47.42442249267153" lon="5.320444550543268"><ele>218.0</ele><time>2026-04-06T13:59:36.974Z</time></trkpt><trkpt lat="47.42450559004874" lon="5.320505322480253"><ele>218.33333333333334</ele><time>2026-04-06T13:59:39.974Z</time></trkpt><trkpt lat="47.424589571500604" lon="5.320591969272686"><ele>218.66666666666669</ele><time>2026-04-06T13:59:42.974Z</time></trkpt><trkpt lat="47.424669631743335" lon="5.320658242578485"><ele>219.0</ele><time>2026-04-06T13:59:45.974Z</time></trkpt><trkpt lat="47.42472839400162" lon="5.3207049843953556"><ele>219.33333333333331</ele><time>2026-04-06T13:59:47.973Z</time></trkpt><trkpt lat="47.424785544957544" lon="5.3207440476665795"><ele>219.66666666666666</ele><time>2026-04-06T13:59:49.973Z</time></trkpt><trkpt lat="47.42484000244803" lon="5.320792077477886"><ele>220.0</ele><time>2026-04-06T13:59:51.973Z</time></trkpt><trkpt lat="47.42490281023729" lon="5.3208458741659275"><ele>219.99999999999997</ele><time>2026-04-06T13:59:53.973Z</time></trkpt><trkpt lat="47.42497867376282" lon="5.320918939952548"><ele>220.0</ele><time>2026-04-06T13:59:56.973Z</time></trkpt><trkpt lat="47.42506807018934" lon="5.320992151204656"><ele>220.0</ele><time>2026-04-06T13:59:59.973Z</time></trkpt><trkpt lat="47.42512729977045" lon="5.32105385890716"><ele>220.0</ele><time>2026-04-06T14:00:01.973Z</time></trkpt><trkpt lat="47.42519893762303" lon="5.321112526682108"><ele>219.99999999999997</ele><time>2026-04-06T14:00:03.973Z</time></trkpt><trkpt lat="47.42525374265522" lon="5.321163443243066"><ele>220.0</ele><time>2026-04-06T14:00:05.973Z</time></trkpt><trkpt lat="47.42532880456053" lon="5.321234491300445"><ele>219.99999999999997</ele><time>2026-04-06T14:00:08.973Z</time></trkpt><trkpt lat="47.425408165913574" lon="5.32130904773125"><ele>220.0</ele><time>2026-04-06T14:00:11.973Z</time></trkpt><trkpt lat="47.425480540426776" lon="5.321368291417484"><ele>220.0</ele><time>2026-04-06T14:00:14.973Z</time></trkpt><trkpt lat="47.42555590478282" lon="5.321438801284549"><ele>220.0</ele><time>2026-04-06T14:00:17.973Z</time></trkpt><trkpt lat="47.425603363066266" lon="5.321514736718408"><ele>219.99999999999997</ele><time>2026-04-06T14:00:20.973Z</time></trkpt><trkpt lat="47.42565796231418" lon="5.321616943956701"><ele>220.0</ele><time>2026-04-06T14:00:23.973Z</time></trkpt><trkpt lat="47.425641430703806" lon="5.321712721922476"><ele>219.83333333333331</ele><time>2026-04-06T14:00:25.973Z</time></trkpt><trkpt lat="47.42560511340818" lon="5.321805273838161"><ele>219.66666666666666</ele><time>2026-04-06T14:00:27.973Z</time></trkpt><trkpt lat="47.42556760535624" lon="5.321901839652015"><ele>219.5</ele><time>2026-04-06T14:00:29.973Z</time></trkpt><trkpt lat="47.42553442679707" lon="5.3220130404132195"><ele>219.33333333333331</ele><time>2026-04-06T14:00:31.973Z</time></trkpt><trkpt lat="47.425492767565416" lon="5.322134377656353"><ele>219.16666666666666</ele><time>2026-04-06T14:00:33.973Z</time></trkpt><trkpt lat="47.425458053480014" lon="5.322270761008112"><ele>219.0</ele><time>2026-04-06T14:00:35.973Z</time></trkpt><trkpt lat="47.42542562796457" lon="5.3223963080416885"><ele>219.0</ele><time>2026-04-06T14:00:37.973Z</time></trkpt><trkpt lat="47.425385684627145" lon="5.32252570045799"><ele>219.0</ele><time>2026-04-06T14:00:39.973Z</time></trkpt><trkpt lat="47.425367385586995" lon="5.322627265624778"><ele>219.0</ele><time>2026-04-06T14:01:06.973Z</time></trkpt><trkpt lat="47.42532397378988" lon="5.322732881166602"><ele>219.0</ele><time>2026-04-06T14:01:09.973Z</time></trkpt><trkpt lat="47.4252891277151" lon="5.322821925828109"><ele>219.0</ele><time>2026-04-06T14:01:11.973Z</time></trkpt><trkpt lat="47.425252917276836" lon="5.32290725429062"><ele>219.0</ele><time>2026-04-06T14:01:13.973Z</time></trkpt><trkpt lat="47.42522265296804" lon="5.32299514591952"><ele>219.2</ele><time>2026-04-06T14:01:15.973Z</time></trkpt><trkpt lat="47.42517481883958" lon="5.323095038678645"><ele>219.39999999999998</ele><time>2026-04-06T14:01:17.973Z</time></trkpt><trkpt lat="47.425132469171515" lon="5.323216372357533"><ele>219.6</ele><time>2026-04-06T14:01:19.973Z</time></trkpt><trkpt lat="47.42508198474255" lon="5.3233533186544975"><ele>219.8</ele><time>2026-04-06T14:01:21.973Z</time></trkpt><trkpt lat="47.425020247161974" lon="5.323499361128135"><ele>220.0</ele><time>2026-04-06T14:01:23.973Z</time></trkpt><trkpt lat="47.424937344735774" lon="5.323642995392368"><ele>220.0</ele><time>2026-04-06T14:01:25.973Z</time></trkpt><trkpt lat="47.42490048106591" lon="5.323722454740286"><ele>220.0</ele><time>2026-04-06T14:01:26.973Z</time></trkpt><trkpt lat="47.42486708768002" lon="5.323802305660667"><ele>220.0</ele><time>2026-04-06T14:01:27.973Z</time></trkpt><trkpt lat="47.42480987071193" lon="5.323962416535554"><ele>220.0</ele><time>2026-04-06T14:01:29.973Z</time></trkpt><trkpt lat="47.42475237155423" lon="5.324116477928838"><ele>220.0</ele><time>2026-04-06T14:01:31.973Z</time></trkpt><trkpt lat="47.42469229674595" lon="5.324259640498768"><ele>220.5</ele><time>2026-04-06T14:01:33.973Z</time></trkpt><trkpt lat="47.42463666707995" lon="5.324408663236314"><ele>221.0</ele><time>2026-04-06T14:01:35.973Z</time></trkpt><trkpt lat="47.424575039564985" lon="5.324548487368067"><ele>221.5</ele><time>2026-04-06T14:01:37.973Z</time></trkpt><trkpt lat="47.42451429081906" lon="5.324684154582031"><ele>222.0</ele><time>2026-04-06T14:01:39.973Z</time></trkpt><trkpt lat="47.42445168106313" lon="5.324829875481395"><ele>222.39999999999998</ele><time>2026-04-06T14:01:41.973Z</time></trkpt><trkpt lat="47.424394386204945" lon="5.324965352974752"><ele>222.79999999999998</ele><time>2026-04-06T14:01:43.973Z</time></trkpt><trkpt lat="47.42434032192032" lon="5.325100485622175"><ele>223.2</ele><time>2026-04-06T14:01:45.973Z</time></trkpt><trkpt lat="47.424284283480006" lon="5.325247814129499"><ele>223.6</ele><time>2026-04-06T14:01:47.973Z</time></trkpt><trkpt lat="47.424228828333646" lon="5.325389740664977"><ele>224.0</ele><time>2026-04-06T14:01:49.973Z</time></trkpt><trkpt lat="47.42416996842493" lon="5.325542259302753"><ele>224.0</ele><time>2026-04-06T14:01:51.973Z</time></trkpt><trkpt lat="47.42411668086667" lon="5.32568120863075"><ele>223.99999999999997</ele><time>2026-04-06T14:01:53.973Z</time></trkpt><trkpt lat="47.424053348437326" lon="5.3258107505725745"><ele>223.99999999999997</ele><time>2026-04-06T14:01:55.973Z</time></trkpt><trkpt lat="47.424003570021235" lon="5.325937647881351"><ele>224.0</ele><time>2026-04-06T14:01:57.973Z</time></trkpt><trkpt lat="47.42395951571105" lon="5.326045495113624"><ele>224.0</ele><time>2026-04-06T14:01:59.973Z</time></trkpt><trkpt lat="47.42392496309829" lon="5.326145035920537"><ele>224.0</ele><time>2026-04-06T14:02:01.973Z</time></trkpt><trkpt lat="47.423896949271764" lon="5.326236530743159"><ele>224.0</ele><time>2026-04-06T14:02:03.973Z</time></trkpt><trkpt lat="47.42384343965752" lon="5.326285818705972"><ele>224.0</ele><time>2026-04-06T14:02:31.973Z</time></trkpt><trkpt lat="47.423802023522626" lon="5.326214909983014"><ele>224.0</ele><time>2026-04-06T14:02:34.973Z</time></trkpt><trkpt lat="47.42373819238252" lon="5.326178164459386"><ele>224.0</ele><time>2026-04-06T14:02:37.973Z</time></trkpt><trkpt lat="47.423681797121986" lon="5.326112067447633"><ele>224.0</ele><time>2026-04-06T14:02:40.973Z</time></trkpt><trkpt lat="47.42360682190023" lon="5.326064105336723"><ele>224.0</ele><time>2026-04-06T14:02:44.973Z</time></trkpt><trkpt lat="47.42353651572548" lon="5.32599817168539"><ele>224.14285714285714</ele><time>2026-04-06T14:02:47.973Z</time></trkpt><trkpt lat="47.42347358037259" lon="5.3259743949951"><ele>224.28571428571428</ele><time>2026-04-06T14:02:49.973Z</time></trkpt><trkpt lat="47.423416064516054" lon="5.325930716543789"><ele>224.42857142857144</ele><time>2026-04-06T14:02:51.973Z</time></trkpt><trkpt lat="47.42333560966154" lon="5.325877044308489"><ele>224.57142857142858</ele><time>2026-04-06T14:02:54.973Z</time></trkpt><trkpt lat="47.42327890017828" lon="5.3258137462056325"><ele>224.71428571428572</ele><time>2026-04-06T14:02:56.973Z</time></trkpt><trkpt lat="47.42319973027491" lon="5.3257534346062885"><ele>224.8571428571429</ele><time>2026-04-06T14:02:59.973Z</time></trkpt><trkpt lat="47.42313920113645" lon="5.325698125173401"><ele>225.00000000000003</ele><time>2026-04-06T14:03:01.973Z</time></trkpt><trkpt lat="47.42309574507059" lon="5.325627662090706"><ele>225.0</ele><time>2026-04-06T14:03:03.973Z</time></trkpt><trkpt lat="47.42303216035622" lon="5.325603299329382"><ele>225.0</ele><time>2026-04-06T14:03:05.973Z</time></trkpt><trkpt lat="47.42293927082586" lon="5.325528576647959"><ele>225.0</ele><time>2026-04-06T14:03:08.973Z</time></trkpt><trkpt lat="47.42287680332156" lon="5.325480337302573"><ele>225.0</ele><time>2026-04-06T14:03:10.973Z</time></trkpt><trkpt lat="47.42281614850076" lon="5.32541188023732"><ele>225.0</ele><time>2026-04-06T14:03:12.973Z</time></trkpt><trkpt lat="47.422747344937996" lon="5.325368446112121"><ele>225.0</ele><time>2026-04-06T14:03:15.973Z</time></trkpt><trkpt lat="47.4226905716631" lon="5.325308975540948"><ele>224.83333333333334</ele><time>2026-04-06T14:03:17.973Z</time></trkpt><trkpt lat="47.422628467672986" lon="5.325266156635516"><ele>224.66666666666669</ele><time>2026-04-06T14:03:19.973Z</time></trkpt><trkpt lat="47.422550836835086" lon="5.325178227859266"><ele>224.5</ele><time>2026-04-06T14:03:21.973Z</time></trkpt><trkpt lat="47.42247733269605" lon="5.325098285962922"><ele>224.33333333333334</ele><time>2026-04-06T14:03:24.972Z</time></trkpt><trkpt lat="47.422406175046135" lon="5.3250431953524195"><ele>224.16666666666669</ele><time>2026-04-06T14:03:27.972Z</time></trkpt><trkpt lat="47.4223407146946" lon="5.3249724504934575"><ele>224.0</ele><time>2026-04-06T14:03:30.973Z</time></trkpt><trkpt lat="47.42228442289243" lon="5.324916163413948"><ele>224.00000000000003</ele><time>2026-04-06T14:03:32.972Z</time></trkpt><trkpt lat="47.42222039610943" lon="5.324870392585561"><ele>224.0</ele><time>2026-04-06T14:03:35.972Z</time></trkpt><trkpt lat="47.422149985838935" lon="5.324815676565257"><ele>224.0</ele><time>2026-04-06T14:03:38.972Z</time></trkpt><trkpt lat="47.42207529600846" lon="5.32473593339146"><ele>224.0</ele><time>2026-04-06T14:03:41.972Z</time></trkpt><trkpt lat="47.42201207928055" lon="5.324674323372828"><ele>224.00000000000003</ele><time>2026-04-06T14:03:43.972Z</time></trkpt><trkpt lat="47.42193933542824" lon="5.3246072584024775"><ele>224.0</ele><time>2026-04-06T14:03:46.972Z</time></trkpt><trkpt lat="47.421879159244405" lon="5.3245301145015045"><ele>223.66666666666669</ele><time>2026-04-06T14:03:49.972Z</time></trkpt><trkpt lat="47.42181074766201" lon="5.324475348572335"><ele>223.33333333333334</ele><time>2026-04-06T14:03:52.972Z</time></trkpt><trkpt lat="47.4217605600841" lon="5.324418782563336"><ele>223.0</ele><time>2026-04-06T14:03:54.972Z</time></trkpt><trkpt lat="47.42168053061655" lon="5.324361353427529"><ele>222.66666666666669</ele><time>2026-04-06T14:03:57.972Z</time></trkpt><trkpt lat="47.42162974458014" lon="5.324302361333853"><ele>222.33333333333334</ele><time>2026-04-06T14:03:59.972Z</time></trkpt><trkpt lat="47.42154802893127" lon="5.324245311548013"><ele>222.0</ele><time>2026-04-06T14:04:02.972Z</time></trkpt><trkpt lat="47.42148066561785" lon="5.324186877603057"><ele>222.0</ele><time>2026-04-06T14:04:05.972Z</time></trkpt><trkpt lat="47.42141382546492" lon="5.324127407383871"><ele>222.0</ele><time>2026-04-06T14:04:08.972Z</time></trkpt><trkpt lat="47.42134066266589" lon="5.324064872486968"><ele>222.0</ele><time>2026-04-06T14:04:12.972Z</time></trkpt><trkpt lat="47.42127501421047" lon="5.323995662167045"><ele>222.0</ele><time>2026-04-06T14:04:15.972Z</time></trkpt><trkpt lat="47.42120727555802" lon="5.3239392002967945"><ele>222.0</ele><time>2026-04-06T14:04:18.972Z</time></trkpt><trkpt lat="47.42116197003546" lon="5.323873289228028"><ele>222.0</ele><time>2026-04-06T14:04:20.972Z</time></trkpt><trkpt lat="47.42110605679055" lon="5.32382167900266"><ele>221.57142857142856</ele><time>2026-04-06T14:04:22.972Z</time></trkpt><trkpt lat="47.42105366119832" lon="5.323760772689297"><ele>221.14285714285717</ele><time>2026-04-06T14:04:24.972Z</time></trkpt><trkpt lat="47.42099263832558" lon="5.32368470977384"><ele>220.71428571428572</ele><time>2026-04-06T14:04:27.972Z</time></trkpt><trkpt lat="47.42093283783464" lon="5.323653171673829"><ele>220.28571428571428</ele><time>2026-04-06T14:04:29.972Z</time></trkpt><trkpt lat="47.4208596126913" lon="5.323593081286259"><ele>219.85714285714283</ele><time>2026-04-06T14:04:33.971Z</time></trkpt><trkpt lat="47.42080079556019" lon="5.32355440320885"><ele>219.42857142857144</ele><time>2026-04-06T14:04:36.971Z</time></trkpt><trkpt lat="47.42074700144125" lon="5.323502990462715"><ele>219.0</ele><time>2026-04-06T14:04:38.971Z</time></trkpt><trkpt lat="47.42069168234007" lon="5.323433320457793"><ele>219.0</ele><time>2026-04-06T14:04:41.971Z</time></trkpt><trkpt lat="47.420613606185746" lon="5.323388107360432"><ele>219.0</ele><time>2026-04-06T14:04:44.971Z</time></trkpt><trkpt lat="47.42055182541111" lon="5.323339596891779"><ele>219.0</ele><time>2026-04-06T14:04:47.971Z</time></trkpt><trkpt lat="47.42049061123818" lon="5.323285289196881"><ele>219.0</ele><time>2026-04-06T14:04:50.971Z</time></trkpt><trkpt lat="47.420428618387504" lon="5.323227736827987"><ele>219.0</ele><time>2026-04-06T14:04:53.971Z</time></trkpt><trkpt lat="47.420370253209654" lon="5.3231478028154475"><ele>219.0</ele><time>2026-04-06T14:04:56.971Z</time></trkpt><trkpt lat="47.42029149980834" lon="5.323092852290631"><ele>217.71428571428572</ele><time>2026-04-06T14:05:19.971Z</time></trkpt><trkpt lat="47.42031221400639" lon="5.322985214371039"><ele>216.42857142857142</ele><time>2026-04-06T14:05:32.971Z</time></trkpt><trkpt lat="47.42033315499492" lon="5.3228913258506525"><ele>215.14285714285714</ele><time>2026-04-06T14:05:46.971Z</time></trkpt><trkpt lat="47.420275791545826" lon="5.322847221833927"><ele>213.85714285714286</ele><time>2026-04-06T14:06:13.971Z</time></trkpt><trkpt lat="47.42022394078299" lon="5.322788562289082"><ele>212.57142857142856</ele><time>2026-04-06T14:07:56.97Z</time></trkpt><trkpt lat="47.42024479973128" lon="5.322695382900993"><ele>211.28571428571428</ele><time>2026-04-06T14:08:20.97Z</time></trkpt><trkpt lat="47.42019800837844" lon="5.322761973178263"><ele>210.0</ele><time>2026-04-06T14:08:34.97Z</time></trkpt><trkpt lat="47.420117512814855" lon="5.322734043706214"><ele>210.0</ele><time>2026-04-06T14:08:50.97Z</time></trkpt><trkpt lat="47.42003625947863" lon="5.322659425621305"><ele>210.0</ele><time>2026-04-06T14:09:24.97Z</time></trkpt><trkpt lat="47.41996725825402" lon="5.322563072170209"><ele>210.0</ele><time>2026-04-06T14:09:50.971Z</time></trkpt><trkpt lat="47.419912624955685" lon="5.322504219772083"><ele>210.0</ele><time>2026-04-06T14:10:08.97Z</time></trkpt><trkpt lat="47.41988262274599" lon="5.322407172848164"><ele>210.0</ele><time>2026-04-06T14:10:19.97Z</time></trkpt><trkpt lat="47.41988809832293" lon="5.32229096850987"><ele>210.0</ele><time>2026-04-06T14:10:23.97Z</time></trkpt><trkpt lat="47.419864472209404" lon="5.322189981643192"><ele>208.71428571428572</ele><time>2026-04-06T14:10:27.97Z</time></trkpt><trkpt lat="47.41986236016757" lon="5.322089496833329"><ele>207.42857142857144</ele><time>2026-04-06T14:10:30.97Z</time></trkpt><trkpt lat="47.41985053569415" lon="5.3219954380012675"><ele>206.14285714285714</ele><time>2026-04-06T14:10:33.97Z</time></trkpt><trkpt lat="47.419846313831904" lon="5.321890776530179"><ele>204.85714285714286</ele><time>2026-04-06T14:10:36.97Z</time></trkpt><trkpt lat="47.4198500429011" lon="5.321779108005025"><ele>203.57142857142858</ele><time>2026-04-06T14:10:50.97Z</time></trkpt><trkpt lat="47.41990964753202" lon="5.321713936152152"><ele>202.28571428571428</ele><time>2026-04-06T14:11:00.97Z</time></trkpt><trkpt lat="47.419979946236644" lon="5.321704971677341"><ele>201.0</ele><time>2026-04-06T14:11:03.97Z</time></trkpt><trkpt lat="47.420045960420424" lon="5.321689659475479"><ele>201.0</ele><time>2026-04-06T14:11:07.97Z</time></trkpt><trkpt lat="47.42011074214244" lon="5.321661826009287"><ele>201.0</ele><time>2026-04-06T14:11:10.97Z</time></trkpt><trkpt lat="47.42017216996176" lon="5.321639024796285"><ele>201.0</ele><time>2026-04-06T14:11:14.97Z</time></trkpt><trkpt lat="47.42018447766717" lon="5.321543718339543"><ele>201.0</ele><time>2026-04-06T14:11:19.97Z</time></trkpt><trkpt lat="47.42015817659334" lon="5.321444348860455"><ele>201.0</ele><time>2026-04-06T14:11:23.97Z</time></trkpt><trkpt lat="47.42010736306371" lon="5.3213773738227985"><ele>201.0</ele><time>2026-04-06T14:11:26.97Z</time></trkpt><trkpt lat="47.420042411480175" lon="5.321358362305927"><ele>201.0</ele><time>2026-04-06T14:11:28.97Z</time></trkpt><trkpt lat="47.41998059873421" lon="5.321330481134148"><ele>200.5</ele><time>2026-04-06T14:11:32.97Z</time></trkpt><trkpt lat="47.41997110237374" lon="5.321208766215345"><ele>200.0</ele><time>2026-04-06T14:11:35.97Z</time></trkpt><trkpt lat="47.419946087281055" lon="5.321109227949107"><ele>199.5</ele><time>2026-04-06T14:11:38.97Z</time></trkpt><trkpt lat="47.41985656419028" lon="5.321067372277114"><ele>199.0</ele><time>2026-04-06T14:11:41.97Z</time></trkpt><trkpt lat="47.41978650980945" lon="5.3210125513862625"><ele>198.5</ele><time>2026-04-06T14:11:43.97Z</time></trkpt><trkpt lat="47.41971678877782" lon="5.320952705019999"><ele>198.0</ele><time>2026-04-06T14:11:45.97Z</time></trkpt><trkpt lat="47.41964794166973" lon="5.32089014015602"><ele>198.0</ele><time>2026-04-06T14:11:47.97Z</time></trkpt><trkpt lat="47.41958242465066" lon="5.3207950165287965"><ele>198.0</ele><time>2026-04-06T14:11:49.969Z</time></trkpt><trkpt lat="47.41949979706291" lon="5.320713397476174"><ele>198.0</ele><time>2026-04-06T14:11:51.97Z</time></trkpt><trkpt lat="47.41939347174753" lon="5.3206946983898975"><ele>198.0</ele><time>2026-04-06T14:11:53.969Z</time></trkpt><trkpt lat="47.419293988191605" lon="5.32072401517574"><ele>198.0</ele><time>2026-04-06T14:11:55.969Z</time></trkpt><trkpt lat="47.419198605173136" lon="5.320738739464512"><ele>198.0</ele><time>2026-04-06T14:11:57.97Z</time></trkpt><trkpt lat="47.41910203033523" lon="5.320791869516542"><ele>198.0</ele><time>2026-04-06T14:11:59.97Z</time></trkpt><trkpt lat="47.418999707589414" lon="5.320829590482712"><ele>198.0</ele><time>2026-04-06T14:12:01.969Z</time></trkpt><trkpt lat="47.41890451350257" lon="5.320869333027197"><ele>198.0</ele><time>2026-04-06T14:12:03.969Z</time></trkpt><trkpt lat="47.41880250604397" lon="5.320898120039594"><ele>198.0</ele><time>2026-04-06T14:12:05.969Z</time></trkpt><trkpt lat="47.418694716701076" lon="5.320929124939476"><ele>197.8</ele><time>2026-04-06T14:12:07.969Z</time></trkpt><trkpt lat="47.418585938105316" lon="5.320952047302722"><ele>197.60000000000002</ele><time>2026-04-06T14:12:09.969Z</time></trkpt><trkpt lat="47.41847591816966" lon="5.320975631335448"><ele>197.39999999999998</ele><time>2026-04-06T14:12:11.969Z</time></trkpt><trkpt lat="47.418367890072375" lon="5.32099488377215"><ele>197.2</ele><time>2026-04-06T14:12:13.969Z</time></trkpt><trkpt lat="47.41826531039485" lon="5.3209996275535865"><ele>197.0</ele><time>2026-04-06T14:12:15.969Z</time></trkpt><trkpt lat="47.418151462137764" lon="5.321012258402869"><ele>197.0</ele><time>2026-04-06T14:12:17.969Z</time></trkpt><trkpt lat="47.41803551707418" lon="5.320993916801376"><ele>197.0</ele><time>2026-04-06T14:12:19.969Z</time></trkpt><trkpt lat="47.41792489131638" lon="5.320978559365155"><ele>197.0</ele><time>2026-04-06T14:12:21.969Z</time></trkpt><trkpt lat="47.41781095665917" lon="5.320930828364053"><ele>197.0</ele><time>2026-04-06T14:12:23.969Z</time></trkpt><trkpt lat="47.41769432260664" lon="5.320902591192365"><ele>196.6</ele><time>2026-04-06T14:12:25.969Z</time></trkpt><trkpt lat="47.417578855123956" lon="5.320872193876725"><ele>196.2</ele><time>2026-04-06T14:12:27.969Z</time></trkpt><trkpt lat="47.41746420525208" lon="5.320833396414184"><ele>195.8</ele><time>2026-04-06T14:12:29.969Z</time></trkpt><trkpt lat="47.41735002747284" lon="5.320779464547342"><ele>195.4</ele><time>2026-04-06T14:12:31.969Z</time></trkpt><trkpt lat="47.417297768426735" lon="5.320725257669703"><ele>195.0</ele><time>2026-04-06T14:12:32.969Z</time></trkpt><trkpt lat="47.4172041590183" lon="5.320607845786141"><ele>194.75</ele><time>2026-04-06T14:12:34.969Z</time></trkpt><trkpt lat="47.41711624017482" lon="5.320488822173799"><ele>194.5</ele><time>2026-04-06T14:12:36.969Z</time></trkpt><trkpt lat="47.41701323621524" lon="5.320390489339304"><ele>194.25</ele><time>2026-04-06T14:12:38.969Z</time></trkpt><trkpt lat="47.416891714365484" lon="5.3203975770902"><ele>194.0</ele><time>2026-04-06T14:12:40.969Z</time></trkpt><trkpt lat="47.416782771466416" lon="5.320470491554084"><ele>194.0</ele><time>2026-04-06T14:12:42.969Z</time></trkpt><trkpt lat="47.4166760669184" lon="5.3205398108779915"><ele>194.0</ele><time>2026-04-06T14:12:44.969Z</time></trkpt><trkpt lat="47.416571615228996" lon="5.320603392329013"><ele>194.0</ele><time>2026-04-06T14:12:46.969Z</time></trkpt><trkpt lat="47.41646077284775" lon="5.320652922681249"><ele>194.0</ele><time>2026-04-06T14:12:48.969Z</time></trkpt><trkpt lat="47.41634523346405" lon="5.320702262551306"><ele>194.5</ele><time>2026-04-06T14:12:50.969Z</time></trkpt><trkpt lat="47.41622752862466" lon="5.320760239854562"><ele>195.0</ele><time>2026-04-06T14:12:52.969Z</time></trkpt><trkpt lat="47.41611659101171" lon="5.320818261887284"><ele>195.5</ele><time>2026-04-06T14:12:54.969Z</time></trkpt><trkpt lat="47.416002507887534" lon="5.320875830879412"><ele>196.0</ele><time>2026-04-06T14:12:56.969Z</time></trkpt><trkpt lat="47.41589106175689" lon="5.320921632177087"><ele>196.0</ele><time>2026-04-06T14:12:58.969Z</time></trkpt><trkpt lat="47.415770655264744" lon="5.320958053112156"><ele>196.0</ele><time>2026-04-06T14:13:00.969Z</time></trkpt><trkpt lat="47.415662275344815" lon="5.320985657781245"><ele>196.0</ele><time>2026-04-06T14:13:02.969Z</time></trkpt><trkpt lat="47.415551146873185" lon="5.321002170471504"><ele>196.0</ele><time>2026-04-06T14:13:04.969Z</time></trkpt><trkpt lat="47.41544700250817" lon="5.321007331121704"><ele>196.0</ele><time>2026-04-06T14:13:06.969Z</time></trkpt><trkpt lat="47.41535525661681" lon="5.321012331057749"><ele>196.33333333333331</ele><time>2026-04-06T14:13:08.969Z</time></trkpt><trkpt lat="47.41527404329662" lon="5.320996458238516"><ele>196.66666666666666</ele><time>2026-04-06T14:13:11.969Z</time></trkpt><trkpt lat="47.415277641956166" lon="5.320894423027159"><ele>197.0</ele><time>2026-04-06T14:13:52.969Z</time></trkpt><trkpt lat="47.415258716025306" lon="5.320798877098268"><ele>197.33333333333331</ele><time>2026-04-06T14:14:33.968Z</time></trkpt><trkpt lat="47.41524908108909" lon="5.320702062564405"><ele>197.66666666666666</ele><time>2026-04-06T14:14:41.968Z</time></trkpt><trkpt lat="47.41522680997855" lon="5.32058127941425"><ele>198.0</ele><time>2026-04-06T14:15:14.968Z</time></trkpt><trkpt lat="47.41519500041581" lon="5.320439729931615"><ele>199.0</ele><time>2026-04-06T14:15:17.968Z</time></trkpt><trkpt lat="47.41518928846981" lon="5.320292036396024"><ele>200.0</ele><time>2026-04-06T14:15:19.968Z</time></trkpt><trkpt lat="47.415172181134636" lon="5.320146399940691"><ele>201.0</ele><time>2026-04-06T14:15:21.968Z</time></trkpt><trkpt lat="47.41516383924196" lon="5.320024021284617"><ele>202.0</ele><time>2026-04-06T14:15:23.968Z</time></trkpt><trkpt lat="47.41511455311794" lon="5.319924785581688"><ele>203.0</ele><time>2026-04-06T14:15:26.968Z</time></trkpt><trkpt lat="47.415029643253426" lon="5.319935218910489"><ele>203.0</ele><time>2026-04-06T14:15:28.968Z</time></trkpt><trkpt lat="47.41492754486549" lon="5.319918265077098"><ele>203.0</ele><time>2026-04-06T14:15:30.968Z</time></trkpt><trkpt lat="47.41483311937409" lon="5.319863047428114"><ele>203.0</ele><time>2026-04-06T14:15:32.968Z</time></trkpt><trkpt lat="47.41475877465282" lon="5.319769206251955"><ele>203.0</ele><time>2026-04-06T14:15:34.968Z</time></trkpt><trkpt lat="47.41471654359564" lon="5.3196435393616825"><ele>203.0</ele><time>2026-04-06T14:15:36.968Z</time></trkpt><trkpt lat="47.41467898385483" lon="5.319494403166552"><ele>203.60000000000002</ele><time>2026-04-06T14:15:38.968Z</time></trkpt><trkpt lat="47.41464684860865" lon="5.319351098827629"><ele>204.20000000000002</ele><time>2026-04-06T14:15:40.968Z</time></trkpt><trkpt lat="47.41461940085582" lon="5.319204852094847"><ele>204.8</ele><time>2026-04-06T14:15:42.968Z</time></trkpt><trkpt lat="47.41459156068189" lon="5.319046832570101"><ele>205.4</ele><time>2026-04-06T14:15:44.968Z</time></trkpt><trkpt lat="47.41456848928839" lon="5.31889417857851"><ele>206.0</ele><time>2026-04-06T14:15:46.968Z</time></trkpt><trkpt lat="47.41453737484577" lon="5.318736496062657"><ele>206.0</ele><time>2026-04-06T14:15:48.968Z</time></trkpt><trkpt lat="47.41451540886275" lon="5.318571226393533"><ele>206.0</ele><time>2026-04-06T14:15:50.968Z</time></trkpt><trkpt lat="47.41447698139171" lon="5.318415495922543"><ele>206.0</ele><time>2026-04-06T14:15:52.968Z</time></trkpt><trkpt lat="47.41442487414536" lon="5.31827933767294"><ele>206.0</ele><time>2026-04-06T14:15:54.968Z</time></trkpt><trkpt lat="47.414361476168395" lon="5.318160860282081"><ele>206.0</ele><time>2026-04-06T14:15:56.968Z</time></trkpt><trkpt lat="47.41429025225521" lon="5.318066327014923"><ele>205.0</ele><time>2026-04-06T14:15:58.968Z</time></trkpt><trkpt lat="47.414196543256644" lon="5.317981079600754"><ele>204.0</ele><time>2026-04-06T14:16:00.968Z</time></trkpt><trkpt lat="47.414108465329505" lon="5.317922830897765"><ele>203.0</ele><time>2026-04-06T14:16:02.967Z</time></trkpt><trkpt lat="47.41402126999677" lon="5.317861555691687"><ele>202.0</ele><time>2026-04-06T14:16:04.968Z</time></trkpt><trkpt lat="47.413919569063225" lon="5.317783518765326"><ele>201.0</ele><time>2026-04-06T14:16:06.967Z</time></trkpt><trkpt lat="47.41383996398217" lon="5.31768077290432"><ele>202.16666666666666</ele><time>2026-04-06T14:16:08.967Z</time></trkpt><trkpt lat="47.413768228336934" lon="5.317590483327791"><ele>203.33333333333331</ele><time>2026-04-06T14:16:10.968Z</time></trkpt><trkpt lat="47.413722233809025" lon="5.317512832403512"><ele>204.5</ele><time>2026-04-06T14:16:12.967Z</time></trkpt><trkpt lat="47.41366913347009" lon="5.317436570649381"><ele>205.66666666666666</ele><time>2026-04-06T14:16:14.967Z</time></trkpt><trkpt lat="47.41359771932771" lon="5.317327585045143"><ele>206.83333333333331</ele><time>2026-04-06T14:16:16.967Z</time></trkpt><trkpt lat="47.4135411437246" lon="5.317193570682424"><ele>208.0</ele><time>2026-04-06T14:16:18.967Z</time></trkpt><trkpt lat="47.413481051608734" lon="5.317068572543067"><ele>208.16666666666666</ele><time>2026-04-06T14:16:20.967Z</time></trkpt><trkpt lat="47.41344781311458" lon="5.316988111003524"><ele>208.33333333333331</ele><time>2026-04-06T14:16:21.967Z</time></trkpt><trkpt lat="47.41339909577031" lon="5.316900254981487"><ele>208.5</ele><time>2026-04-06T14:16:23.967Z</time></trkpt><trkpt lat="47.413333952244685" lon="5.316794865934332"><ele>208.66666666666669</ele><time>2026-04-06T14:16:25.967Z</time></trkpt><trkpt lat="47.413272172692054" lon="5.316684421379225"><ele>208.83333333333334</ele><time>2026-04-06T14:16:27.967Z</time></trkpt><trkpt lat="47.41320531220854" lon="5.316584557225026"><ele>209.0</ele><time>2026-04-06T14:16:29.967Z</time></trkpt><trkpt lat="47.413127595412895" lon="5.316485560647431"><ele>208.79999999999998</ele><time>2026-04-06T14:16:31.967Z</time></trkpt><trkpt lat="47.41303401502919" lon="5.316367880936289"><ele>208.6</ele><time>2026-04-06T14:16:33.968Z</time></trkpt><trkpt lat="47.41298101649102" lon="5.3163091750360945"><ele>208.4</ele><time>2026-04-06T14:16:34.968Z</time></trkpt><trkpt lat="47.412924746111095" lon="5.316256142673298"><ele>208.2</ele><time>2026-04-06T14:16:35.968Z</time></trkpt><trkpt lat="47.41281356794747" lon="5.31614089073741"><ele>208.0</ele><time>2026-04-06T14:16:37.968Z</time></trkpt><trkpt lat="47.412757863853535" lon="5.316080041311855"><ele>208.33333333333331</ele><time>2026-04-06T14:16:38.968Z</time></trkpt><trkpt lat="47.41267073043634" lon="5.315944538989047"><ele>208.66666666666666</ele><time>2026-04-06T14:16:40.969Z</time></trkpt><trkpt lat="47.41262702335909" lon="5.315874880125715"><ele>209.0</ele><time>2026-04-06T14:16:41.969Z</time></trkpt><trkpt lat="47.41258394301264" lon="5.315783403199582"><ele>209.33333333333331</ele><time>2026-04-06T14:16:42.969Z</time></trkpt><trkpt lat="47.41253655025034" lon="5.31567765541686"><ele>209.66666666666666</ele><time>2026-04-06T14:16:43.969Z</time></trkpt><trkpt lat="47.41249419996616" lon="5.315589041016538"><ele>210.0</ele><time>2026-04-06T14:16:44.969Z</time></trkpt><trkpt lat="47.41245589884841" lon="5.315502118758083"><ele>210.0</ele><time>2026-04-06T14:16:45.969Z</time></trkpt><trkpt lat="47.412415606230255" lon="5.315415577603192"><ele>210.0</ele><time>2026-04-06T14:16:46.969Z</time></trkpt><trkpt lat="47.412377170235885" lon="5.315321902402358"><ele>210.0</ele><time>2026-04-06T14:16:47.969Z</time></trkpt><trkpt lat="47.41234584631892" lon="5.31522954964326"><ele>210.0</ele><time>2026-04-06T14:16:48.969Z</time></trkpt><trkpt lat="47.412320427438196" lon="5.315136417575913"><ele>210.0</ele><time>2026-04-06T14:16:49.97Z</time></trkpt><trkpt lat="47.41228944045078" lon="5.315046799350257"><ele>210.0</ele><time>2026-04-06T14:16:50.97Z</time></trkpt><trkpt lat="47.412226476342916" lon="5.314878146204947"><ele>210.0</ele><time>2026-04-06T14:16:52.97Z</time></trkpt><trkpt lat="47.41217119050504" lon="5.314722471241181"><ele>210.0</ele><time>2026-04-06T14:16:54.97Z</time></trkpt><trkpt lat="47.41211290717724" lon="5.314571187269672"><ele>210.0</ele><time>2026-04-06T14:16:56.97Z</time></trkpt><trkpt lat="47.412055237662415" lon="5.3144210653747415"><ele>210.0</ele><time>2026-04-06T14:16:58.97Z</time></trkpt><trkpt lat="47.41200130960123" lon="5.314270870004232"><ele>208.8</ele><time>2026-04-06T14:17:00.97Z</time></trkpt><trkpt lat="47.41194275759193" lon="5.31413068342476"><ele>207.6</ele><time>2026-04-06T14:17:02.97Z</time></trkpt><trkpt lat="47.411874715356284" lon="5.314016742408337"><ele>206.39999999999998</ele><time>2026-04-06T14:17:04.97Z</time></trkpt><trkpt lat="47.41178899353666" lon="5.313914545316469"><ele>205.2</ele><time>2026-04-06T14:17:06.97Z</time></trkpt><trkpt lat="47.41168128853981" lon="5.313903793439329"><ele>204.0</ele><time>2026-04-06T14:17:08.97Z</time></trkpt><trkpt lat="47.41156358326659" lon="5.313918709624653"><ele>204.0</ele><time>2026-04-06T14:17:10.97Z</time></trkpt><trkpt lat="47.41144636808467" lon="5.3139229582459295"><ele>204.0</ele><time>2026-04-06T14:17:12.97Z</time></trkpt><trkpt lat="47.41133743357614" lon="5.313939213845497"><ele>204.0</ele><time>2026-04-06T14:17:14.97Z</time></trkpt><trkpt lat="47.41122003712002" lon="5.313931900616158"><ele>204.0</ele><time>2026-04-06T14:17:16.97Z</time></trkpt><trkpt lat="47.4111028656233" lon="5.313910517873156"><ele>202.6</ele><time>2026-04-06T14:17:18.97Z</time></trkpt><trkpt lat="47.41100366553125" lon="5.313876616672178"><ele>201.2</ele><time>2026-04-06T14:17:20.97Z</time></trkpt><trkpt lat="47.41090172917719" lon="5.313849122213398"><ele>199.79999999999998</ele><time>2026-04-06T14:17:22.97Z</time></trkpt><trkpt lat="47.41079531686228" lon="5.313806307108743"><ele>198.39999999999998</ele><time>2026-04-06T14:17:24.97Z</time></trkpt><trkpt lat="47.410690578377306" lon="5.3137632562176025"><ele>197.0</ele><time>2026-04-06T14:17:26.97Z</time></trkpt><trkpt lat="47.4105862553143" lon="5.313719858202034"><ele>197.0</ele><time>2026-04-06T14:17:28.97Z</time></trkpt><trkpt lat="47.4104974492663" lon="5.313671276451229"><ele>197.0</ele><time>2026-04-06T14:17:30.97Z</time></trkpt><trkpt lat="47.41040508774341" lon="5.313574544132146"><ele>197.0</ele><time>2026-04-06T14:17:32.97Z</time></trkpt><trkpt lat="47.410317668588085" lon="5.31346966411069"><ele>197.0</ele><time>2026-04-06T14:17:34.971Z</time></trkpt><trkpt lat="47.41022196725733" lon="5.3133538145825"><ele>197.0</ele><time>2026-04-06T14:17:36.971Z</time></trkpt><trkpt lat="47.41013150906687" lon="5.313252588224655"><ele>197.2</ele><time>2026-04-06T14:17:38.971Z</time></trkpt><trkpt lat="47.41004685495713" lon="5.313162778038874"><ele>197.39999999999998</ele><time>2026-04-06T14:17:40.971Z</time></trkpt><trkpt lat="47.409961247662295" lon="5.313076884212676"><ele>197.60000000000002</ele><time>2026-04-06T14:17:42.971Z</time></trkpt><trkpt lat="47.40989029196159" lon="5.312990790733074"><ele>197.8</ele><time>2026-04-06T14:17:44.971Z</time></trkpt><trkpt lat="47.409815064036756" lon="5.31287095599767"><ele>198.0</ele><time>2026-04-06T14:17:46.971Z</time></trkpt><trkpt lat="47.40977667100483" lon="5.312719203229976"><ele>198.0</ele><time>2026-04-06T14:17:48.971Z</time></trkpt><trkpt lat="47.409742096322574" lon="5.312554777426822"><ele>198.0</ele><time>2026-04-06T14:17:50.971Z</time></trkpt><trkpt lat="47.40972023017608" lon="5.312403024404185"><ele>198.0</ele><time>2026-04-06T14:17:52.971Z</time></trkpt><trkpt lat="47.409700640796046" lon="5.312276525870526"><ele>198.0</ele><time>2026-04-06T14:17:54.971Z</time></trkpt><trkpt lat="47.4096823561578" lon="5.312142322985179"><ele>198.0</ele><time>2026-04-06T14:17:56.971Z</time></trkpt><trkpt lat="47.40965530660329" lon="5.3120198523850615"><ele>198.16666666666666</ele><time>2026-04-06T14:17:58.971Z</time></trkpt><trkpt lat="47.40963086772278" lon="5.311897556070633"><ele>198.33333333333331</ele><time>2026-04-06T14:18:00.971Z</time></trkpt><trkpt lat="47.40959334535172" lon="5.311792731632903"><ele>198.5</ele><time>2026-04-06T14:18:02.971Z</time></trkpt><trkpt lat="47.40954470951054" lon="5.311700059551307"><ele>198.66666666666666</ele><time>2026-04-06T14:18:04.971Z</time></trkpt><trkpt lat="47.40945457361553" lon="5.311683338448008"><ele>198.83333333333331</ele><time>2026-04-06T14:18:06.969Z</time></trkpt><trkpt lat="47.40935743866843" lon="5.311719322142502"><ele>199.0</ele><time>2026-04-06T14:18:08.969Z</time></trkpt><trkpt lat="47.409256885871095" lon="5.311725788647447"><ele>198.99999999999997</ele><time>2026-04-06T14:18:10.97Z</time></trkpt><trkpt lat="47.40915677053248" lon="5.311750836558482"><ele>199.0</ele><time>2026-04-06T14:18:12.969Z</time></trkpt><trkpt lat="47.40905007357377" lon="5.3117546574792955"><ele>199.0</ele><time>2026-04-06T14:18:14.97Z</time></trkpt><trkpt lat="47.40894035336598" lon="5.3117648736571095"><ele>199.0</ele><time>2026-04-06T14:18:16.969Z</time></trkpt><trkpt lat="47.408876080049204" lon="5.311766011534867"><ele>198.99999999999997</ele><time>2026-04-06T14:18:17.969Z</time></trkpt><trkpt lat="47.408810362479024" lon="5.311768201836666"><ele>199.0</ele><time>2026-04-06T14:18:18.969Z</time></trkpt><trkpt lat="47.4087467053776" lon="5.311772014039958"><ele>198.99999999999997</ele><time>2026-04-06T14:18:19.969Z</time></trkpt><trkpt lat="47.40868051620481" lon="5.3117689407568"><ele>199.0</ele><time>2026-04-06T14:18:20.969Z</time></trkpt><trkpt lat="47.40861514759745" lon="5.311759340222071"><ele>199.0</ele><time>2026-04-06T14:18:21.969Z</time></trkpt><trkpt lat="47.408481766152896" lon="5.311764291672616"><ele>199.0</ele><time>2026-04-06T14:18:23.969Z</time></trkpt><trkpt lat="47.408415269919956" lon="5.311754700495607"><ele>198.99999999999997</ele><time>2026-04-06T14:18:24.969Z</time></trkpt><trkpt lat="47.40835225965837" lon="5.311751632888678"><ele>199.0</ele><time>2026-04-06T14:18:25.969Z</time></trkpt><trkpt lat="47.40828563431016" lon="5.311747065280982"><ele>198.99999999999997</ele><time>2026-04-06T14:18:26.969Z</time></trkpt><trkpt lat="47.40821924299012" lon="5.311739529264805"><ele>199.0</ele><time>2026-04-06T14:18:27.969Z</time></trkpt><trkpt lat="47.408153015780066" lon="5.311731249503035"><ele>199.0</ele><time>2026-04-06T14:18:28.969Z</time></trkpt><trkpt lat="47.40808973708025" lon="5.3117267454984365"><ele>199.0</ele><time>2026-04-06T14:18:29.969Z</time></trkpt><trkpt lat="47.407963849265485" lon="5.311725381966743"><ele>198.99999999999997</ele><time>2026-04-06T14:18:31.969Z</time></trkpt><trkpt lat="47.4078969716379" lon="5.311722604985474"><ele>199.0</ele><time>2026-04-06T14:18:32.969Z</time></trkpt><trkpt lat="47.407770925772056" lon="5.311719992777213"><ele>199.0</ele><time>2026-04-06T14:18:34.969Z</time></trkpt><trkpt lat="47.407702066344186" lon="5.311720614551816"><ele>199.0</ele><time>2026-04-06T14:18:35.969Z</time></trkpt><trkpt lat="47.407574872315344" lon="5.3117159656785855"><ele>199.0</ele><time>2026-04-06T14:18:37.969Z</time></trkpt><trkpt lat="47.4075115108413" lon="5.311718300453645"><ele>199.0</ele><time>2026-04-06T14:18:38.969Z</time></trkpt><trkpt lat="47.407388516624486" lon="5.311717177013272"><ele>199.0</ele><time>2026-04-06T14:18:40.969Z</time></trkpt><trkpt lat="47.407268021055955" lon="5.311717246097957"><ele>198.5</ele><time>2026-04-06T14:18:42.969Z</time></trkpt><trkpt lat="47.40714695479621" lon="5.311717706661151"><ele>198.0</ele><time>2026-04-06T14:18:44.969Z</time></trkpt><trkpt lat="47.40703044262126" lon="5.311709465158798"><ele>197.5</ele><time>2026-04-06T14:18:46.969Z</time></trkpt><trkpt lat="47.406915261556804" lon="5.311701383045419"><ele>197.0</ele><time>2026-04-06T14:18:48.969Z</time></trkpt><trkpt lat="47.406799158004965" lon="5.311690792593451"><ele>197.00000000000003</ele><time>2026-04-06T14:18:50.969Z</time></trkpt><trkpt lat="47.406732769181176" lon="5.311673577270246"><ele>197.0</ele><time>2026-04-06T14:18:51.969Z</time></trkpt><trkpt lat="47.406669259868515" lon="5.311662170791539"><ele>197.0</ele><time>2026-04-06T14:18:52.969Z</time></trkpt><trkpt lat="47.406555084836945" lon="5.311645714356602"><ele>197.0</ele><time>2026-04-06T14:18:54.969Z</time></trkpt><trkpt lat="47.40645390285447" lon="5.311612007826973"><ele>197.00000000000003</ele><time>2026-04-06T14:18:56.969Z</time></trkpt><trkpt lat="47.40635601822985" lon="5.311593984266958"><ele>197.0</ele><time>2026-04-06T14:18:58.969Z</time></trkpt><trkpt lat="47.40626115424137" lon="5.311567468183579"><ele>197.0</ele><time>2026-04-06T14:19:00.969Z</time></trkpt><trkpt lat="47.406163738022215" lon="5.311548705040312"><ele>197.0</ele><time>2026-04-06T14:19:02.969Z</time></trkpt><trkpt lat="47.40606877200673" lon="5.3115541450752835"><ele>197.0</ele><time>2026-04-06T14:19:04.969Z</time></trkpt><trkpt lat="47.40597061271612" lon="5.3115973780326895"><ele>197.0</ele><time>2026-04-06T14:19:06.969Z</time></trkpt><trkpt lat="47.40587644203614" lon="5.31160127906857"><ele>197.0</ele><time>2026-04-06T14:19:08.969Z</time></trkpt><trkpt lat="47.40579278926306" lon="5.311608757148538"><ele>197.0</ele><time>2026-04-06T14:19:10.969Z</time></trkpt><trkpt lat="47.40569817426138" lon="5.311618861256344"><ele>197.0</ele><time>2026-04-06T14:19:12.969Z</time></trkpt><trkpt lat="47.40560355522244" lon="5.311624057513776"><ele>197.0</ele><time>2026-04-06T14:19:14.969Z</time></trkpt><trkpt lat="47.405504977492136" lon="5.311624693298761"><ele>197.0</ele><time>2026-04-06T14:19:16.969Z</time></trkpt><trkpt lat="47.405404823765664" lon="5.311632267438652"><ele>197.0</ele><time>2026-04-06T14:19:18.969Z</time></trkpt><trkpt lat="47.40530885758324" lon="5.311638258517294"><ele>197.16666666666669</ele><time>2026-04-06T14:19:20.969Z</time></trkpt><trkpt lat="47.40521632737537" lon="5.311648638793167"><ele>197.33333333333334</ele><time>2026-04-06T14:19:22.969Z</time></trkpt><trkpt lat="47.40512703331889" lon="5.311642025174127"><ele>197.5</ele><time>2026-04-06T14:19:24.969Z</time></trkpt><trkpt lat="47.40504264599957" lon="5.311629548929082"><ele>197.66666666666669</ele><time>2026-04-06T14:19:26.969Z</time></trkpt><trkpt lat="47.40498343858617" lon="5.311568667271479"><ele>197.83333333333334</ele><time>2026-04-06T14:19:28.969Z</time></trkpt><trkpt lat="47.404941613077256" lon="5.311447031677162"><ele>198.0</ele><time>2026-04-06T14:19:30.969Z</time></trkpt><trkpt lat="47.40491169459735" lon="5.311324969512593"><ele>198.16666666666666</ele><time>2026-04-06T14:19:32.969Z</time></trkpt><trkpt lat="47.40487437470622" lon="5.3112120839537695"><ele>198.33333333333331</ele><time>2026-04-06T14:19:34.969Z</time></trkpt><trkpt lat="47.4048342756294" lon="5.311099461973203"><ele>198.5</ele><time>2026-04-06T14:19:36.969Z</time></trkpt><trkpt lat="47.404793791599054" lon="5.3109836404131485"><ele>198.66666666666666</ele><time>2026-04-06T14:19:38.969Z</time></trkpt><trkpt lat="47.4047551612543" lon="5.3108656489821175"><ele>198.83333333333331</ele><time>2026-04-06T14:19:40.969Z</time></trkpt><trkpt lat="47.40471716940976" lon="5.310746966553111"><ele>199.0</ele><time>2026-04-06T14:19:42.969Z</time></trkpt><trkpt lat="47.40468792897407" lon="5.310622643645604"><ele>198.79999999999998</ele><time>2026-04-06T14:19:44.969Z</time></trkpt><trkpt lat="47.404663367141005" lon="5.310502767063833"><ele>198.6</ele><time>2026-04-06T14:19:46.969Z</time></trkpt><trkpt lat="47.40462476973854" lon="5.310383636792538"><ele>198.4</ele><time>2026-04-06T14:19:48.969Z</time></trkpt><trkpt lat="47.40458268052196" lon="5.310258555005328"><ele>198.2</ele><time>2026-04-06T14:19:50.969Z</time></trkpt><trkpt lat="47.40454252353648" lon="5.310135052466031"><ele>198.0</ele><time>2026-04-06T14:19:52.969Z</time></trkpt><trkpt lat="47.40449669925794" lon="5.31001129844691"><ele>198.8</ele><time>2026-04-06T14:19:54.969Z</time></trkpt><trkpt lat="47.40445704584508" lon="5.309886866983112"><ele>199.60000000000002</ele><time>2026-04-06T14:19:56.969Z</time></trkpt><trkpt lat="47.40440722878062" lon="5.309762343909643"><ele>200.39999999999998</ele><time>2026-04-06T14:19:58.969Z</time></trkpt><trkpt lat="47.40435905468356" lon="5.309640308665507"><ele>201.2</ele><time>2026-04-06T14:20:00.969Z</time></trkpt><trkpt lat="47.40431057538682" lon="5.309524453517185"><ele>202.0</ele><time>2026-04-06T14:20:02.969Z</time></trkpt><trkpt lat="47.404267677063814" lon="5.309410728004125"><ele>202.0</ele><time>2026-04-06T14:20:04.969Z</time></trkpt><trkpt lat="47.404219932698325" lon="5.309287077722629"><ele>202.0</ele><time>2026-04-06T14:20:06.969Z</time></trkpt><trkpt lat="47.404178239310724" lon="5.309160714483594"><ele>202.0</ele><time>2026-04-06T14:20:08.969Z</time></trkpt><trkpt lat="47.40413673586929" lon="5.30904408781858"><ele>202.0</ele><time>2026-04-06T14:20:10.969Z</time></trkpt><trkpt lat="47.40410952673694" lon="5.30892510511674"><ele>202.0</ele><time>2026-04-06T14:20:12.968Z</time></trkpt><trkpt lat="47.404060733738405" lon="5.308817423925075"><ele>202.0</ele><time>2026-04-06T14:20:14.968Z</time></trkpt><trkpt lat="47.40403699035227" lon="5.308697176695702"><ele>202.0</ele><time>2026-04-06T14:20:16.968Z</time></trkpt><trkpt lat="47.40403851178989" lon="5.308563928903103"><ele>202.0</ele><time>2026-04-06T14:20:18.968Z</time></trkpt><trkpt lat="47.40403594991062" lon="5.308418136190389"><ele>202.0</ele><time>2026-04-06T14:20:20.967Z</time></trkpt><trkpt lat="47.40399144783859" lon="5.308289593627969"><ele>202.0</ele><time>2026-04-06T14:20:22.968Z</time></trkpt><trkpt lat="47.40391544664379" lon="5.308208863763361"><ele>202.8</ele><time>2026-04-06T14:20:24.968Z</time></trkpt><trkpt lat="47.403829854837056" lon="5.308135891385506"><ele>203.6</ele><time>2026-04-06T14:20:26.968Z</time></trkpt><trkpt lat="47.403750990249286" lon="5.3080396465635085"><ele>204.4</ele><time>2026-04-06T14:20:28.968Z</time></trkpt><trkpt lat="47.403683437408844" lon="5.3079264402186785"><ele>205.20000000000002</ele><time>2026-04-06T14:20:30.968Z</time></trkpt><trkpt lat="47.403624280087605" lon="5.307800393360726"><ele>206.0</ele><time>2026-04-06T14:20:32.968Z</time></trkpt><trkpt lat="47.40356691369466" lon="5.307657634519347"><ele>206.0</ele><time>2026-04-06T14:20:34.968Z</time></trkpt><trkpt lat="47.40350275433222" lon="5.307537222076624"><ele>206.0</ele><time>2026-04-06T14:20:36.968Z</time></trkpt><trkpt lat="47.403441725229236" lon="5.3074074068769725"><ele>206.0</ele><time>2026-04-06T14:20:38.968Z</time></trkpt><trkpt lat="47.40337854058289" lon="5.307288095865881"><ele>206.0</ele><time>2026-04-06T14:20:40.968Z</time></trkpt><trkpt lat="47.40331665244612" lon="5.3071639045903805"><ele>206.0</ele><time>2026-04-06T14:20:42.968Z</time></trkpt><trkpt lat="47.40324914918169" lon="5.307034604183502"><ele>206.0</ele><time>2026-04-06T14:20:44.968Z</time></trkpt><trkpt lat="47.40318320427651" lon="5.306901592293937"><ele>206.0</ele><time>2026-04-06T14:20:46.968Z</time></trkpt><trkpt lat="47.403118218935006" lon="5.306769598450944"><ele>206.0</ele><time>2026-04-06T14:20:48.968Z</time></trkpt><trkpt lat="47.40304833934183" lon="5.306633499655654"><ele>206.0</ele><time>2026-04-06T14:20:50.968Z</time></trkpt><trkpt lat="47.40297656382093" lon="5.306500434539271"><ele>206.75</ele><time>2026-04-06T14:20:52.968Z</time></trkpt><trkpt lat="47.40290991964417" lon="5.30636400783216"><ele>207.5</ele><time>2026-04-06T14:20:54.968Z</time></trkpt><trkpt lat="47.402841932075816" lon="5.3062224365139565"><ele>208.25</ele><time>2026-04-06T14:20:56.968Z</time></trkpt><trkpt lat="47.402771325751566" lon="5.30608496022483"><ele>209.0</ele><time>2026-04-06T14:20:58.968Z</time></trkpt><trkpt lat="47.402699605308115" lon="5.305950379306924"><ele>209.0</ele><time>2026-04-06T14:21:00.968Z</time></trkpt><trkpt lat="47.402626054252735" lon="5.305810004134311"><ele>209.0</ele><time>2026-04-06T14:21:02.968Z</time></trkpt><trkpt lat="47.40255438881135" lon="5.305671230874373"><ele>209.0</ele><time>2026-04-06T14:21:04.968Z</time></trkpt><trkpt lat="47.40248402998194" lon="5.305540471306115"><ele>209.0</ele><time>2026-04-06T14:21:06.968Z</time></trkpt><trkpt lat="47.40241252835682" lon="5.3054120745891025"><ele>209.0</ele><time>2026-04-06T14:21:08.968Z</time></trkpt><trkpt lat="47.4023318850096" lon="5.305295938642622"><ele>209.0</ele><time>2026-04-06T14:21:10.968Z</time></trkpt><trkpt lat="47.40227174866964" lon="5.305164798336022"><ele>209.0</ele><time>2026-04-06T14:21:12.968Z</time></trkpt><trkpt lat="47.40229064400658" lon="5.304995964381923"><ele>209.0</ele><time>2026-04-06T14:21:14.968Z</time></trkpt><trkpt lat="47.40237244233473" lon="5.304864147490141"><ele>208.79999999999998</ele><time>2026-04-06T14:21:16.968Z</time></trkpt><trkpt lat="47.40244711233288" lon="5.304738921377457"><ele>208.6</ele><time>2026-04-06T14:21:18.968Z</time></trkpt><trkpt lat="47.40251901711847" lon="5.3046151120063465"><ele>208.4</ele><time>2026-04-06T14:21:20.968Z</time></trkpt><trkpt lat="47.402582042878215" lon="5.304483732305607"><ele>208.2</ele><time>2026-04-06T14:21:22.968Z</time></trkpt><trkpt lat="47.40264223728172" lon="5.304340809920378"><ele>208.0</ele><time>2026-04-06T14:21:24.968Z</time></trkpt><trkpt lat="47.40270805860549" lon="5.304190806851172"><ele>208.0</ele><time>2026-04-06T14:21:26.968Z</time></trkpt><trkpt lat="47.40276617248429" lon="5.3040327879510505"><ele>208.0</ele><time>2026-04-06T14:21:28.968Z</time></trkpt><trkpt lat="47.40281730988495" lon="5.303865448093321"><ele>208.0</ele><time>2026-04-06T14:21:30.968Z</time></trkpt><trkpt lat="47.40287066437652" lon="5.303704828413774"><ele>208.0</ele><time>2026-04-06T14:21:32.968Z</time></trkpt><trkpt lat="47.40292284621118" lon="5.303541215873431"><ele>207.75</ele><time>2026-04-06T14:21:34.968Z</time></trkpt><trkpt lat="47.40296951165646" lon="5.303371740224172"><ele>207.5</ele><time>2026-04-06T14:21:36.968Z</time></trkpt><trkpt lat="47.40301900553498" lon="5.303205211927733"><ele>207.25</ele><time>2026-04-06T14:21:38.968Z</time></trkpt><trkpt lat="47.40306726597166" lon="5.303036071784437"><ele>207.0</ele><time>2026-04-06T14:21:40.968Z</time></trkpt><trkpt lat="47.403110091879704" lon="5.302863351317692"><ele>207.0</ele><time>2026-04-06T14:21:42.968Z</time></trkpt><trkpt lat="47.40315497306998" lon="5.302693617568744"><ele>207.0</ele><time>2026-04-06T14:21:44.968Z</time></trkpt><trkpt lat="47.40319707534962" lon="5.302525726455127"><ele>207.0</ele><time>2026-04-06T14:21:46.968Z</time></trkpt><trkpt lat="47.40323964979091" lon="5.302354750529865"><ele>207.0</ele><time>2026-04-06T14:21:48.968Z</time></trkpt><trkpt lat="47.4032747391893" lon="5.302180363055477"><ele>207.5</ele><time>2026-04-06T14:21:50.968Z</time></trkpt><trkpt lat="47.40331200027705" lon="5.302015401246227"><ele>208.0</ele><time>2026-04-06T14:21:52.968Z</time></trkpt><trkpt lat="47.403351087830195" lon="5.301847713565154"><ele>208.5</ele><time>2026-04-06T14:21:54.968Z</time></trkpt><trkpt lat="47.40338812813698" lon="5.301677409307024"><ele>209.0</ele><time>2026-04-06T14:21:56.968Z</time></trkpt><trkpt lat="47.40342640877193" lon="5.301508147829648"><ele>209.0</ele><time>2026-04-06T14:21:58.968Z</time></trkpt><trkpt lat="47.40345838403207" lon="5.301338112061563"><ele>209.0</ele><time>2026-04-06T14:22:00.968Z</time></trkpt><trkpt lat="47.403490761673815" lon="5.301162518332551"><ele>209.0</ele><time>2026-04-06T14:22:02.968Z</time></trkpt><trkpt lat="47.4035268880157" lon="5.3009917202428625"><ele>209.0</ele><time>2026-04-06T14:22:04.968Z</time></trkpt><trkpt lat="47.403563012163154" lon="5.300817314122088"><ele>209.0</ele><time>2026-04-06T14:22:06.968Z</time></trkpt><trkpt lat="47.40359982858803" lon="5.300645671354876"><ele>209.0</ele><time>2026-04-06T14:22:08.968Z</time></trkpt><trkpt lat="47.40363175210825" lon="5.300480660718445"><ele>209.0</ele><time>2026-04-06T14:22:10.968Z</time></trkpt><trkpt lat="47.40365764759392" lon="5.300313753267764"><ele>209.0</ele><time>2026-04-06T14:22:12.968Z</time></trkpt><trkpt lat="47.40369200895423" lon="5.300160650216011"><ele>209.25</ele><time>2026-04-06T14:22:14.968Z</time></trkpt><trkpt lat="47.40371579575623" lon="5.300004384735236"><ele>209.5</ele><time>2026-04-06T14:22:16.968Z</time></trkpt><trkpt lat="47.403752571893115" lon="5.299839428079271"><ele>209.75</ele><time>2026-04-06T14:22:18.967Z</time></trkpt><trkpt lat="47.403783251552134" lon="5.299671185250098"><ele>210.0</ele><time>2026-04-06T14:22:20.967Z</time></trkpt><trkpt lat="47.40381011002878" lon="5.299504193748753"><ele>210.5</ele><time>2026-04-06T14:22:22.966Z</time></trkpt><trkpt lat="47.40383702199453" lon="5.299338383686228"><ele>211.0</ele><time>2026-04-06T14:22:24.967Z</time></trkpt><trkpt lat="47.40387159083369" lon="5.299171084626031"><ele>211.5</ele><time>2026-04-06T14:22:26.966Z</time></trkpt><trkpt lat="47.40390353067881" lon="5.299007737671142"><ele>212.0</ele><time>2026-04-06T14:22:28.967Z</time></trkpt><trkpt lat="47.40393828186607" lon="5.298840859496181"><ele>212.25</ele><time>2026-04-06T14:22:30.967Z</time></trkpt><trkpt lat="47.40398022067418" lon="5.298678066311784"><ele>212.5</ele><time>2026-04-06T14:22:32.967Z</time></trkpt><trkpt lat="47.40401727556953" lon="5.298513769496439"><ele>212.75</ele><time>2026-04-06T14:22:34.967Z</time></trkpt><trkpt lat="47.40406235901929" lon="5.29835655701275"><ele>213.0</ele><time>2026-04-06T14:22:36.967Z</time></trkpt><trkpt lat="47.404106296647996" lon="5.298195355665182"><ele>213.0</ele><time>2026-04-06T14:22:38.967Z</time></trkpt><trkpt lat="47.40414722262633" lon="5.298036775977898"><ele>213.0</ele><time>2026-04-06T14:22:40.967Z</time></trkpt><trkpt lat="47.40419591166494" lon="5.297874781680431"><ele>213.0</ele><time>2026-04-06T14:22:42.967Z</time></trkpt><trkpt lat="47.40424120938468" lon="5.297720312341509"><ele>213.0</ele><time>2026-04-06T14:22:44.967Z</time></trkpt><trkpt lat="47.40428986705864" lon="5.297565236729967"><ele>213.0</ele><time>2026-04-06T14:22:46.967Z</time></trkpt><trkpt lat="47.40434051803758" lon="5.297409087071265"><ele>213.0</ele><time>2026-04-06T14:22:48.967Z</time></trkpt><trkpt lat="47.404387415797196" lon="5.297253405599659"><ele>213.0</ele><time>2026-04-06T14:22:50.967Z</time></trkpt><trkpt lat="47.4044286049372" lon="5.297093013761645"><ele>213.0</ele><time>2026-04-06T14:22:52.967Z</time></trkpt><trkpt lat="47.404470954835325" lon="5.2969349064897555"><ele>213.75</ele><time>2026-04-06T14:22:54.967Z</time></trkpt><trkpt lat="47.404508420265756" lon="5.296771439629189"><ele>214.5</ele><time>2026-04-06T14:22:56.967Z</time></trkpt><trkpt lat="47.40455119165212" lon="5.296604191582889"><ele>215.25</ele><time>2026-04-06T14:22:58.967Z</time></trkpt><trkpt lat="47.404594846689356" lon="5.296444867334216"><ele>216.0</ele><time>2026-04-06T14:23:00.967Z</time></trkpt><trkpt lat="47.40464853613394" lon="5.296280612031115"><ele>216.5</ele><time>2026-04-06T14:23:02.967Z</time></trkpt><trkpt lat="47.4047104730301" lon="5.296133860688802"><ele>217.0</ele><time>2026-04-06T14:23:04.967Z</time></trkpt><trkpt lat="47.404780571915715" lon="5.295995655662903"><ele>217.5</ele><time>2026-04-06T14:23:06.967Z</time></trkpt><trkpt lat="47.40485662683294" lon="5.295867206245933"><ele>218.0</ele><time>2026-04-06T14:23:08.967Z</time></trkpt><trkpt lat="47.40493913992705" lon="5.295744894093254"><ele>218.0</ele><time>2026-04-06T14:23:10.967Z</time></trkpt><trkpt lat="47.40501458479047" lon="5.295625040547107"><ele>218.0</ele><time>2026-04-06T14:23:12.967Z</time></trkpt><trkpt lat="47.405088251679686" lon="5.295504859947278"><ele>218.0</ele><time>2026-04-06T14:23:14.967Z</time></trkpt><trkpt lat="47.40515772613413" lon="5.295380012850364"><ele>218.0</ele><time>2026-04-06T14:23:16.967Z</time></trkpt><trkpt lat="47.40521898682005" lon="5.295244885870124"><ele>218.0</ele><time>2026-04-06T14:23:18.967Z</time></trkpt><trkpt lat="47.40527287012091" lon="5.295096913648474"><ele>218.0</ele><time>2026-04-06T14:23:20.967Z</time></trkpt><trkpt lat="47.40531646139908" lon="5.294947754358844"><ele>218.0</ele><time>2026-04-06T14:23:22.967Z</time></trkpt><trkpt lat="47.40536480100031" lon="5.294790830935816"><ele>218.0</ele><time>2026-04-06T14:23:24.967Z</time></trkpt><trkpt lat="47.405409663412634" lon="5.2946358005575"><ele>218.0</ele><time>2026-04-06T14:23:26.967Z</time></trkpt><trkpt lat="47.40545074456778" lon="5.294479344782439"><ele>218.0</ele><time>2026-04-06T14:23:28.967Z</time></trkpt><trkpt lat="47.40547955733048" lon="5.294328171770069"><ele>218.0</ele><time>2026-04-06T14:23:30.967Z</time></trkpt><trkpt lat="47.40552426023069" lon="5.294178141878567"><ele>218.0</ele><time>2026-04-06T14:23:32.967Z</time></trkpt><trkpt lat="47.40556191187995" lon="5.294024682780806"><ele>218.0</ele><time>2026-04-06T14:23:34.967Z</time></trkpt><trkpt lat="47.4055952489756" lon="5.293864078929246"><ele>218.0</ele><time>2026-04-06T14:23:36.967Z</time></trkpt><trkpt lat="47.40563658802372" lon="5.293716093497146"><ele>218.8</ele><time>2026-04-06T14:23:38.967Z</time></trkpt><trkpt lat="47.40566829603737" lon="5.293566487302508"><ele>219.60000000000002</ele><time>2026-04-06T14:23:40.967Z</time></trkpt><trkpt lat="47.40570023396397" lon="5.293412921043224"><ele>220.39999999999998</ele><time>2026-04-06T14:23:42.967Z</time></trkpt><trkpt lat="47.405734494640924" lon="5.293260697329857"><ele>221.2</ele><time>2026-04-06T14:23:44.967Z</time></trkpt><trkpt lat="47.4057698542576" lon="5.293110710768298"><ele>222.0</ele><time>2026-04-06T14:23:46.967Z</time></trkpt><trkpt lat="47.40579864781147" lon="5.292956930809827"><ele>222.0</ele><time>2026-04-06T14:23:48.967Z</time></trkpt><trkpt lat="47.405822571046265" lon="5.292801393284374"><ele>222.0</ele><time>2026-04-06T14:23:50.967Z</time></trkpt><trkpt lat="47.40584850618962" lon="5.292645648561707"><ele>222.0</ele><time>2026-04-06T14:23:52.967Z</time></trkpt><trkpt lat="47.40587431064165" lon="5.292490797141482"><ele>222.0</ele><time>2026-04-06T14:23:54.967Z</time></trkpt><trkpt lat="47.405895184570085" lon="5.292331826074306"><ele>222.0</ele><time>2026-04-06T14:23:56.967Z</time></trkpt><trkpt lat="47.40591819735177" lon="5.292166557420871"><ele>222.0</ele><time>2026-04-06T14:23:58.967Z</time></trkpt><trkpt lat="47.40594304275819" lon="5.291992166180064"><ele>222.0</ele><time>2026-04-06T14:24:00.967Z</time></trkpt><trkpt lat="47.40596898763932" lon="5.291813134039199"><ele>222.0</ele><time>2026-04-06T14:24:02.967Z</time></trkpt><trkpt lat="47.40599745279961" lon="5.291632056982189"><ele>222.0</ele><time>2026-04-06T14:24:04.967Z</time></trkpt><trkpt lat="47.40601103373394" lon="5.291539023877707"><ele>222.0</ele><time>2026-04-06T14:24:05.967Z</time></trkpt><trkpt lat="47.40602565434935" lon="5.291447979589493"><ele>222.16666666666666</ele><time>2026-04-06T14:24:06.967Z</time></trkpt><trkpt lat="47.40605388702483" lon="5.291265202210498"><ele>222.33333333333331</ele><time>2026-04-06T14:24:08.967Z</time></trkpt><trkpt lat="47.40607162702356" lon="5.291172036036778"><ele>222.5</ele><time>2026-04-06T14:24:09.967Z</time></trkpt><trkpt lat="47.40608901570257" lon="5.291072982157094"><ele>222.66666666666666</ele><time>2026-04-06T14:24:10.967Z</time></trkpt><trkpt lat="47.40610625750013" lon="5.290976820919729"><ele>222.83333333333331</ele><time>2026-04-06T14:24:11.967Z</time></trkpt><trkpt lat="47.406121202614614" lon="5.290879346701225"><ele>223.0</ele><time>2026-04-06T14:24:12.967Z</time></trkpt><trkpt lat="47.406134159755545" lon="5.290778710400721"><ele>223.0</ele><time>2026-04-06T14:24:13.967Z</time></trkpt><trkpt lat="47.40614950165086" lon="5.290679049504105"><ele>223.0</ele><time>2026-04-06T14:24:14.967Z</time></trkpt><trkpt lat="47.4061612738696" lon="5.290572260439784"><ele>223.0</ele><time>2026-04-06T14:24:15.967Z</time></trkpt><trkpt lat="47.40617106871342" lon="5.290461671278957"><ele>223.0</ele><time>2026-04-06T14:24:16.967Z</time></trkpt><trkpt lat="47.40617013439214" lon="5.290356789758896"><ele>223.0</ele><time>2026-04-06T14:24:17.967Z</time></trkpt><trkpt lat="47.406169440368664" lon="5.29024797909318"><ele>223.0</ele><time>2026-04-06T14:24:18.967Z</time></trkpt><trkpt lat="47.40616493911524" lon="5.290138548979065"><ele>223.0</ele><time>2026-04-06T14:24:19.967Z</time></trkpt><trkpt lat="47.406156385100246" lon="5.290032722693458"><ele>222.85714285714286</ele><time>2026-04-06T14:24:20.967Z</time></trkpt><trkpt lat="47.406142155530304" lon="5.289924882543716"><ele>222.71428571428572</ele><time>2026-04-06T14:24:21.967Z</time></trkpt><trkpt lat="47.406124676019154" lon="5.289817147111902"><ele>222.57142857142856</ele><time>2026-04-06T14:24:22.967Z</time></trkpt><trkpt lat="47.4061068109741" lon="5.289712436814441"><ele>222.42857142857144</ele><time>2026-04-06T14:24:23.966Z</time></trkpt><trkpt lat="47.406084141026554" lon="5.2896069768037925"><ele>222.2857142857143</ele><time>2026-04-06T14:24:24.966Z</time></trkpt><trkpt lat="47.40606272561125" lon="5.289499689551601"><ele>222.14285714285714</ele><time>2026-04-06T14:24:25.966Z</time></trkpt><trkpt lat="47.40603705219742" lon="5.289393467841715"><ele>222.0</ele><time>2026-04-06T14:24:26.966Z</time></trkpt><trkpt lat="47.40601058433302" lon="5.289288906710629"><ele>221.85714285714286</ele><time>2026-04-06T14:24:27.966Z</time></trkpt><trkpt lat="47.40598262970203" lon="5.289186322224977"><ele>221.71428571428572</ele><time>2026-04-06T14:24:28.966Z</time></trkpt><trkpt lat="47.40595507370798" lon="5.2890798137229575"><ele>221.57142857142858</ele><time>2026-04-06T14:24:29.966Z</time></trkpt><trkpt lat="47.40592384169117" lon="5.288981013513878"><ele>221.42857142857144</ele><time>2026-04-06T14:24:30.966Z</time></trkpt><trkpt lat="47.405889129793266" lon="5.288886908445458"><ele>221.28571428571428</ele><time>2026-04-06T14:24:31.966Z</time></trkpt><trkpt lat="47.4058496296614" lon="5.288801437317132"><ele>221.14285714285717</ele><time>2026-04-06T14:24:32.966Z</time></trkpt><trkpt lat="47.40580726824486" lon="5.2887179489862435"><ele>221.0</ele><time>2026-04-06T14:24:33.966Z</time></trkpt><trkpt lat="47.405766118842564" lon="5.288633789052913"><ele>220.71428571428572</ele><time>2026-04-06T14:24:34.966Z</time></trkpt><trkpt lat="47.40572881187342" lon="5.2885510200517825"><ele>220.42857142857144</ele><time>2026-04-06T14:24:35.966Z</time></trkpt><trkpt lat="47.40568910401588" lon="5.288464272258849"><ele>220.14285714285717</ele><time>2026-04-06T14:24:36.966Z</time></trkpt><trkpt lat="47.40565530154562" lon="5.288376418292475"><ele>219.85714285714286</ele><time>2026-04-06T14:24:37.966Z</time></trkpt><trkpt lat="47.40562758199337" lon="5.28828398135947"><ele>219.57142857142856</ele><time>2026-04-06T14:24:38.966Z</time></trkpt><trkpt lat="47.40559991495369" lon="5.2881895083316275"><ele>219.2857142857143</ele><time>2026-04-06T14:24:39.966Z</time></trkpt><trkpt lat="47.40557851979575" lon="5.288093660451363"><ele>219.0</ele><time>2026-04-06T14:24:40.966Z</time></trkpt><trkpt lat="47.40556253069028" lon="5.287999559496286"><ele>219.0</ele><time>2026-04-06T14:24:41.966Z</time></trkpt><trkpt lat="47.40554826893765" lon="5.287902646102219"><ele>219.0</ele><time>2026-04-06T14:24:42.966Z</time></trkpt><trkpt lat="47.40554064232394" lon="5.287809378767931"><ele>219.0</ele><time>2026-04-06T14:24:43.966Z</time></trkpt><trkpt lat="47.40553813718558" lon="5.2877126416833935"><ele>219.0</ele><time>2026-04-06T14:24:44.966Z</time></trkpt><trkpt lat="47.405538274371324" lon="5.28761735547749"><ele>219.0</ele><time>2026-04-06T14:24:45.966Z</time></trkpt><trkpt lat="47.405540252048795" lon="5.287524189231761"><ele>219.0</ele><time>2026-04-06T14:24:46.966Z</time></trkpt><trkpt lat="47.40555360772044" lon="5.287343427255785"><ele>219.0</ele><time>2026-04-06T14:24:48.966Z</time></trkpt><trkpt lat="47.4055835016418" lon="5.287166280451628"><ele>219.5</ele><time>2026-04-06T14:24:50.966Z</time></trkpt><trkpt lat="47.40561656251471" lon="5.286992369967108"><ele>220.0</ele><time>2026-04-06T14:24:52.966Z</time></trkpt><trkpt lat="47.405660781942544" lon="5.286825878239238"><ele>220.5</ele><time>2026-04-06T14:24:54.966Z</time></trkpt><trkpt lat="47.40570774047206" lon="5.286661847744049"><ele>221.0</ele><time>2026-04-06T14:24:56.966Z</time></trkpt><trkpt lat="47.405757571180814" lon="5.286497925498856"><ele>221.75</ele><time>2026-04-06T14:24:58.966Z</time></trkpt><trkpt lat="47.405804478499086" lon="5.286336581361837"><ele>222.5</ele><time>2026-04-06T14:25:00.966Z</time></trkpt><trkpt lat="47.40584673274519" lon="5.286172359025999"><ele>223.25</ele><time>2026-04-06T14:25:02.966Z</time></trkpt><trkpt lat="47.405889052340285" lon="5.28600954608647"><ele>224.0</ele><time>2026-04-06T14:25:04.966Z</time></trkpt><trkpt lat="47.40592894933009" lon="5.285842996231477"><ele>224.0</ele><time>2026-04-06T14:25:06.966Z</time></trkpt><trkpt lat="47.405961547960445" lon="5.285679584981706"><ele>224.0</ele><time>2026-04-06T14:25:08.966Z</time></trkpt><trkpt lat="47.40598468913417" lon="5.285513555572479"><ele>224.0</ele><time>2026-04-06T14:25:10.966Z</time></trkpt><trkpt lat="47.406010851655424" lon="5.285347838796102"><ele>224.0</ele><time>2026-04-06T14:25:12.966Z</time></trkpt><trkpt lat="47.40603038548413" lon="5.285182992823226"><ele>224.6</ele><time>2026-04-06T14:25:14.966Z</time></trkpt><trkpt lat="47.40604993357475" lon="5.285027644075321"><ele>225.2</ele><time>2026-04-06T14:25:16.966Z</time></trkpt><trkpt lat="47.40606578111253" lon="5.284858800338944"><ele>225.79999999999998</ele><time>2026-04-06T14:25:18.966Z</time></trkpt><trkpt lat="47.40608183834738" lon="5.284699935930745"><ele>226.39999999999998</ele><time>2026-04-06T14:25:20.966Z</time></trkpt><trkpt lat="47.40609347537417" lon="5.2845429065857745"><ele>227.0</ele><time>2026-04-06T14:25:22.966Z</time></trkpt><trkpt lat="47.406107402111665" lon="5.284378602085128"><ele>227.2</ele><time>2026-04-06T14:25:24.966Z</time></trkpt><trkpt lat="47.406115363102415" lon="5.2842270751478"><ele>227.39999999999998</ele><time>2026-04-06T14:25:26.966Z</time></trkpt><trkpt lat="47.40612670902264" lon="5.284074707552457"><ele>227.60000000000002</ele><time>2026-04-06T14:25:28.966Z</time></trkpt><trkpt lat="47.40613371279277" lon="5.283920655416071"><ele>227.8</ele><time>2026-04-06T14:25:30.966Z</time></trkpt><trkpt lat="47.40614033392156" lon="5.283770319480484"><ele>228.0</ele><time>2026-04-06T14:25:32.966Z</time></trkpt><trkpt lat="47.40614268215686" lon="5.283618340771704"><ele>228.2</ele><time>2026-04-06T14:25:34.966Z</time></trkpt><trkpt lat="47.406151616730725" lon="5.283472355631342"><ele>228.4</ele><time>2026-04-06T14:25:36.966Z</time></trkpt><trkpt lat="47.40615468281341" lon="5.283321217023429"><ele>228.59999999999997</ele><time>2026-04-06T14:25:38.966Z</time></trkpt><trkpt lat="47.40616094184735" lon="5.283171461904519"><ele>228.79999999999998</ele><time>2026-04-06T14:25:40.966Z</time></trkpt><trkpt lat="47.40616730289548" lon="5.2830181675923145"><ele>229.0</ele><time>2026-04-06T14:25:42.966Z</time></trkpt><trkpt lat="47.40617265454917" lon="5.28286777073767"><ele>229.0</ele><time>2026-04-06T14:25:44.966Z</time></trkpt><trkpt lat="47.40618052358259" lon="5.282717668527223"><ele>228.99999999999997</ele><time>2026-04-06T14:25:46.966Z</time></trkpt><trkpt lat="47.40618800262079" lon="5.282573977520616"><ele>228.99999999999997</ele><time>2026-04-06T14:25:48.966Z</time></trkpt><trkpt lat="47.406194369822146" lon="5.282425583235223"><ele>229.0</ele><time>2026-04-06T14:25:50.966Z</time></trkpt><trkpt lat="47.406204019506255" lon="5.282276787155835"><ele>229.0</ele><time>2026-04-06T14:25:52.966Z</time></trkpt><trkpt lat="47.40621950447964" lon="5.28212270562418"><ele>229.2</ele><time>2026-04-06T14:25:54.966Z</time></trkpt><trkpt lat="47.406232683857404" lon="5.28196871460972"><ele>229.39999999999998</ele><time>2026-04-06T14:25:56.966Z</time></trkpt><trkpt lat="47.40625029814671" lon="5.281816181472682"><ele>229.6</ele><time>2026-04-06T14:25:58.966Z</time></trkpt><trkpt lat="47.40626169484291" lon="5.28166093018835"><ele>229.8</ele><time>2026-04-06T14:26:00.966Z</time></trkpt><trkpt lat="47.40627832208886" lon="5.2814992719702065"><ele>230.0</ele><time>2026-04-06T14:26:02.966Z</time></trkpt><trkpt lat="47.40629011286695" lon="5.281340570310568"><ele>230.0</ele><time>2026-04-06T14:26:04.966Z</time></trkpt><trkpt lat="47.40630530312927" lon="5.281181929183733"><ele>230.0</ele><time>2026-04-06T14:26:06.966Z</time></trkpt><trkpt lat="47.40631874488022" lon="5.281018395005787"><ele>230.0</ele><time>2026-04-06T14:26:08.966Z</time></trkpt><trkpt lat="47.40632722433194" lon="5.280863047897812"><ele>230.0</ele><time>2026-04-06T14:26:10.966Z</time></trkpt><trkpt lat="47.40634280153095" lon="5.280703573654832"><ele>230.0</ele><time>2026-04-06T14:26:12.966Z</time></trkpt><trkpt lat="47.40635139400484" lon="5.280546137735573"><ele>230.2</ele><time>2026-04-06T14:26:14.966Z</time></trkpt><trkpt lat="47.40635663149729" lon="5.2803837894562955"><ele>230.4</ele><time>2026-04-06T14:26:16.966Z</time></trkpt><trkpt lat="47.40635379735063" lon="5.280222477714065"><ele>230.60000000000002</ele><time>2026-04-06T14:26:18.966Z</time></trkpt><trkpt lat="47.406345510361604" lon="5.28006455067591"><ele>230.8</ele><time>2026-04-06T14:26:20.966Z</time></trkpt><trkpt lat="47.40634013988411" lon="5.2798987968185696"><ele>231.0</ele><time>2026-04-06T14:26:22.966Z</time></trkpt><trkpt lat="47.40633395551414" lon="5.2797377724222425"><ele>231.0</ele><time>2026-04-06T14:26:24.966Z</time></trkpt><trkpt lat="47.406335907251936" lon="5.2796410425228535"><ele>231.00000000000003</ele><time>2026-04-06T14:26:25.966Z</time></trkpt><trkpt lat="47.40632676236567" lon="5.27948289941084"><ele>231.00000000000003</ele><time>2026-04-06T14:26:27.966Z</time></trkpt><trkpt lat="47.40632253732897" lon="5.279311818690895"><ele>231.0</ele><time>2026-04-06T14:26:29.965Z</time></trkpt><trkpt lat="47.406323981359975" lon="5.279142412807174"><ele>231.0</ele><time>2026-04-06T14:26:31.966Z</time></trkpt><trkpt lat="47.40633078878551" lon="5.2789699840096995"><ele>231.20000000000002</ele><time>2026-04-06T14:26:33.965Z</time></trkpt><trkpt lat="47.406341799643116" lon="5.27879826981172"><ele>231.40000000000003</ele><time>2026-04-06T14:26:35.965Z</time></trkpt><trkpt lat="47.406361697777776" lon="5.278628498455909"><ele>231.6</ele><time>2026-04-06T14:26:37.965Z</time></trkpt><trkpt lat="47.406381862405546" lon="5.278459733454298"><ele>231.8</ele><time>2026-04-06T14:26:39.966Z</time></trkpt><trkpt lat="47.406406570495584" lon="5.278321267604393"><ele>232.0</ele><time>2026-04-06T14:26:41.965Z</time></trkpt><trkpt lat="47.40642720114191" lon="5.2782001114430885"><ele>232.0</ele><time>2026-04-06T14:26:43.965Z</time></trkpt><trkpt lat="47.40645106296615" lon="5.2780479573289245"><ele>232.0</ele><time>2026-04-06T14:26:45.965Z</time></trkpt><trkpt lat="47.406474199454784" lon="5.277886049985566"><ele>232.0</ele><time>2026-04-06T14:26:47.965Z</time></trkpt><trkpt lat="47.40649261172143" lon="5.2777269578849095"><ele>232.0</ele><time>2026-04-06T14:26:49.965Z</time></trkpt><trkpt lat="47.40651365361624" lon="5.277551491517251"><ele>232.0</ele><time>2026-04-06T14:26:51.965Z</time></trkpt><trkpt lat="47.40654672345764" lon="5.27738620421778"><ele>232.39999999999998</ele><time>2026-04-06T14:26:53.965Z</time></trkpt><trkpt lat="47.406579078143494" lon="5.277222963244112"><ele>232.79999999999998</ele><time>2026-04-06T14:26:55.965Z</time></trkpt><trkpt lat="47.40661616339661" lon="5.277066155215926"><ele>233.2</ele><time>2026-04-06T14:26:57.965Z</time></trkpt><trkpt lat="47.406652652915504" lon="5.276914559050643"><ele>233.6</ele><time>2026-04-06T14:26:59.965Z</time></trkpt><trkpt lat="47.406687875213585" lon="5.276768090804185"><ele>234.0</ele><time>2026-04-06T14:27:01.965Z</time></trkpt><trkpt lat="47.40672195146525" lon="5.276624883908609"><ele>234.0</ele><time>2026-04-06T14:27:03.965Z</time></trkpt><trkpt lat="47.40675850440323" lon="5.276485801644054"><ele>233.99999999999997</ele><time>2026-04-06T14:27:05.965Z</time></trkpt><trkpt lat="47.406789021812706" lon="5.276351718897703"><ele>233.99999999999997</ele><time>2026-04-06T14:27:07.965Z</time></trkpt><trkpt lat="47.40681780583591" lon="5.2762182764108"><ele>234.0</ele><time>2026-04-06T14:27:09.965Z</time></trkpt><trkpt lat="47.406850146548436" lon="5.2760811234722205"><ele>234.0</ele><time>2026-04-06T14:27:11.965Z</time></trkpt><trkpt lat="47.40688502434806" lon="5.275947393633885"><ele>234.6</ele><time>2026-04-06T14:27:13.965Z</time></trkpt><trkpt lat="47.406928579006255" lon="5.275829511608887"><ele>235.2</ele><time>2026-04-06T14:27:15.965Z</time></trkpt><trkpt lat="47.406951850833956" lon="5.2756924672463645"><ele>235.79999999999998</ele><time>2026-04-06T14:27:17.965Z</time></trkpt><trkpt lat="47.4069914619677" lon="5.275556594210389"><ele>236.39999999999998</ele><time>2026-04-06T14:27:19.965Z</time></trkpt><trkpt lat="47.40702960459856" lon="5.2754184644016515"><ele>237.0</ele><time>2026-04-06T14:27:21.965Z</time></trkpt><trkpt lat="47.40707132055173" lon="5.275282769846264"><ele>237.0</ele><time>2026-04-06T14:27:23.965Z</time></trkpt><trkpt lat="47.407113063501136" lon="5.275144931499322"><ele>237.0</ele><time>2026-04-06T14:27:25.965Z</time></trkpt><trkpt lat="47.407156222112064" lon="5.2750094309626245"><ele>237.0</ele><time>2026-04-06T14:27:27.965Z</time></trkpt><trkpt lat="47.40719653993016" lon="5.274877549472918"><ele>237.0</ele><time>2026-04-06T14:27:29.965Z</time></trkpt><trkpt lat="47.40724088739629" lon="5.274743132051975"><ele>237.0</ele><time>2026-04-06T14:27:31.965Z</time></trkpt><trkpt lat="47.40729160480768" lon="5.274613427628019"><ele>237.0</ele><time>2026-04-06T14:27:33.965Z</time></trkpt><trkpt lat="47.40734066459865" lon="5.274477166492896"><ele>237.0</ele><time>2026-04-06T14:27:35.965Z</time></trkpt><trkpt lat="47.40738062422222" lon="5.274354629725356"><ele>237.0</ele><time>2026-04-06T14:27:37.965Z</time></trkpt><trkpt lat="47.4074111264764" lon="5.274249486316653"><ele>237.0</ele><time>2026-04-06T14:27:39.965Z</time></trkpt><trkpt lat="47.40744564405258" lon="5.274146798992008"><ele>237.0</ele><time>2026-04-06T14:27:42.965Z</time></trkpt><trkpt lat="47.40747165733311" lon="5.274037282816852"><ele>237.0</ele><time>2026-04-06T14:27:46.965Z</time></trkpt><trkpt lat="47.40748782599606" lon="5.27389794571679"><ele>236.0</ele><time>2026-04-06T14:27:48.965Z</time></trkpt><trkpt lat="47.407522519440676" lon="5.273734725722579"><ele>235.0</ele><time>2026-04-06T14:27:50.965Z</time></trkpt><trkpt lat="47.40754277510717" lon="5.273645827159561"><ele>234.0</ele><time>2026-04-06T14:27:51.965Z</time></trkpt><trkpt lat="47.407567103297104" lon="5.273544271257951"><ele>233.0</ele><time>2026-04-06T14:27:52.965Z</time></trkpt><trkpt lat="47.407586455692474" lon="5.273435542483415"><ele>232.0</ele><time>2026-04-06T14:27:53.965Z</time></trkpt><trkpt lat="47.40760116200488" lon="5.273333739273565"><ele>231.0</ele><time>2026-04-06T14:27:54.965Z</time></trkpt><trkpt lat="47.40762539099018" lon="5.273216789127071"><ele>229.8</ele><time>2026-04-06T14:27:55.965Z</time></trkpt><trkpt lat="47.40765212640908" lon="5.273090434430527"><ele>228.60000000000002</ele><time>2026-04-06T14:27:56.965Z</time></trkpt><trkpt lat="47.407673125058494" lon="5.272962120828285"><ele>227.4</ele><time>2026-04-06T14:27:57.965Z</time></trkpt><trkpt lat="47.407703010005385" lon="5.272833451999351"><ele>226.2</ele><time>2026-04-06T14:27:58.965Z</time></trkpt><trkpt lat="47.40773234711175" lon="5.27269640332754"><ele>225.0</ele><time>2026-04-06T14:27:59.965Z</time></trkpt><trkpt lat="47.40776323117061" lon="5.272560114008137"><ele>225.0</ele><time>2026-04-06T14:28:00.965Z</time></trkpt><trkpt lat="47.407794638919576" lon="5.272420530433123"><ele>225.0</ele><time>2026-04-06T14:28:01.965Z</time></trkpt><trkpt lat="47.40781733246749" lon="5.272267871934395"><ele>225.0</ele><time>2026-04-06T14:28:02.965Z</time></trkpt><trkpt lat="47.407835359159826" lon="5.272113546070568"><ele>225.0</ele><time>2026-04-06T14:28:03.965Z</time></trkpt><trkpt lat="47.40783727232919" lon="5.271948652889224"><ele>225.0</ele><time>2026-04-06T14:28:04.965Z</time></trkpt><trkpt lat="47.407828170482425" lon="5.271785905817297"><ele>223.25</ele><time>2026-04-06T14:28:05.965Z</time></trkpt><trkpt lat="47.40779795129225" lon="5.271617653182625"><ele>221.5</ele><time>2026-04-06T14:28:06.965Z</time></trkpt><trkpt lat="47.40775394181013" lon="5.271455140334862"><ele>219.75</ele><time>2026-04-06T14:28:07.965Z</time></trkpt><trkpt lat="47.40769953053416" lon="5.2712930036551215"><ele>218.0</ele><time>2026-04-06T14:28:08.965Z</time></trkpt><trkpt lat="47.40763287489776" lon="5.2711336080697215"><ele>216.75</ele><time>2026-04-06T14:28:09.965Z</time></trkpt><trkpt lat="47.40756242046907" lon="5.2709913587802255"><ele>215.5</ele><time>2026-04-06T14:28:10.965Z</time></trkpt><trkpt lat="47.40749096656279" lon="5.270837157947071"><ele>214.25</ele><time>2026-04-06T14:28:11.965Z</time></trkpt><trkpt lat="47.407425652903655" lon="5.270684743187258"><ele>213.0</ele><time>2026-04-06T14:28:12.965Z</time></trkpt><trkpt lat="47.407363529869656" lon="5.270526814928733"><ele>212.75</ele><time>2026-04-06T14:28:13.965Z</time></trkpt><trkpt lat="47.40731043709716" lon="5.270363153967435"><ele>212.5</ele><time>2026-04-06T14:28:14.965Z</time></trkpt><trkpt lat="47.40726740867659" lon="5.270198688722687"><ele>212.25</ele><time>2026-04-06T14:28:15.965Z</time></trkpt><trkpt lat="47.40722933645228" lon="5.27004083234683"><ele>212.0</ele><time>2026-04-06T14:28:16.965Z</time></trkpt><trkpt lat="47.40719640367718" lon="5.269887211877224"><ele>212.2</ele><time>2026-04-06T14:28:17.965Z</time></trkpt><trkpt lat="47.407171580681464" lon="5.269738899625945"><ele>212.39999999999998</ele><time>2026-04-06T14:28:18.965Z</time></trkpt><trkpt lat="47.40714241485031" lon="5.269594409223924"><ele>212.60000000000002</ele><time>2026-04-06T14:28:19.965Z</time></trkpt><trkpt lat="47.40711609119615" lon="5.269455042808596"><ele>212.8</ele><time>2026-04-06T14:28:20.965Z</time></trkpt><trkpt lat="47.40709397840989" lon="5.269317522548236"><ele>213.0</ele><time>2026-04-06T14:28:21.965Z</time></trkpt><trkpt lat="47.40707504383713" lon="5.269180598038091"><ele>213.16666666666666</ele><time>2026-04-06T14:28:22.965Z</time></trkpt><trkpt lat="47.40705798713022" lon="5.269045883403291"><ele>213.33333333333331</ele><time>2026-04-06T14:28:23.965Z</time></trkpt><trkpt lat="47.40703582643106" lon="5.268913184689113"><ele>213.5</ele><time>2026-04-06T14:28:24.965Z</time></trkpt><trkpt lat="47.40701764462229" lon="5.268782582929513"><ele>213.66666666666666</ele><time>2026-04-06T14:28:25.965Z</time></trkpt><trkpt lat="47.40699923534809" lon="5.268655657938731"><ele>213.83333333333331</ele><time>2026-04-06T14:28:26.965Z</time></trkpt><trkpt lat="47.4069832244762" lon="5.268532082796534"><ele>214.0</ele><time>2026-04-06T14:28:27.965Z</time></trkpt><trkpt lat="47.40696477418442" lon="5.268412164192537"><ele>213.99999999999997</ele><time>2026-04-06T14:28:28.965Z</time></trkpt><trkpt lat="47.406949578042756" lon="5.268299791064641"><ele>214.0</ele><time>2026-04-06T14:28:29.965Z</time></trkpt><trkpt lat="47.40693517151044" lon="5.2681887938873855"><ele>214.0</ele><time>2026-04-06T14:28:30.965Z</time></trkpt><trkpt lat="47.406918621303724" lon="5.268085768835492"><ele>214.0</ele><time>2026-04-06T14:28:31.965Z</time></trkpt><trkpt lat="47.40690120231325" lon="5.267989412635043"><ele>213.99999999999997</ele><time>2026-04-06T14:28:32.965Z</time></trkpt><trkpt lat="47.40686944659695" lon="5.267815164230702"><ele>214.0</ele><time>2026-04-06T14:28:34.965Z</time></trkpt><trkpt lat="47.406844778626755" lon="5.267647235543874"><ele>214.75</ele><time>2026-04-06T14:28:36.965Z</time></trkpt><trkpt lat="47.40680905888624" lon="5.2674843693209805"><ele>215.5</ele><time>2026-04-06T14:28:38.965Z</time></trkpt><trkpt lat="47.40677377028159" lon="5.267323922725413"><ele>216.25</ele><time>2026-04-06T14:28:40.964Z</time></trkpt><trkpt lat="47.40673667972213" lon="5.267166777071044"><ele>217.0</ele><time>2026-04-06T14:28:42.964Z</time></trkpt><trkpt lat="47.40669701358304" lon="5.267014862294609"><ele>217.8</ele><time>2026-04-06T14:28:44.965Z</time></trkpt><trkpt lat="47.406655079016076" lon="5.26686733218737"><ele>218.6</ele><time>2026-04-06T14:28:46.964Z</time></trkpt><trkpt lat="47.40661758553485" lon="5.2667051773061155"><ele>219.40000000000003</ele><time>2026-04-06T14:28:48.964Z</time></trkpt><trkpt lat="47.40657374482096" lon="5.266558312457062"><ele>220.20000000000002</ele><time>2026-04-06T14:28:50.964Z</time></trkpt><trkpt lat="47.40653018530395" lon="5.266407154832604"><ele>221.0</ele><time>2026-04-06T14:28:52.964Z</time></trkpt><trkpt lat="47.40648874937545" lon="5.266251763323911"><ele>220.8</ele><time>2026-04-06T14:28:54.964Z</time></trkpt><trkpt lat="47.40644741987105" lon="5.266093298839395"><ele>220.60000000000002</ele><time>2026-04-06T14:28:56.964Z</time></trkpt><trkpt lat="47.40640672610547" lon="5.265942550568039"><ele>220.4</ele><time>2026-04-06T14:28:58.964Z</time></trkpt><trkpt lat="47.40636844819697" lon="5.265788446332177"><ele>220.2</ele><time>2026-04-06T14:29:00.964Z</time></trkpt><trkpt lat="47.40632660488331" lon="5.265632733956938"><ele>220.0</ele><time>2026-04-06T14:29:02.964Z</time></trkpt><trkpt lat="47.40628245684954" lon="5.265470218502475"><ele>220.5</ele><time>2026-04-06T14:29:04.964Z</time></trkpt><trkpt lat="47.40623821545152" lon="5.265309912791461"><ele>221.0</ele><time>2026-04-06T14:29:06.964Z</time></trkpt><trkpt lat="47.40618972533683" lon="5.265146296144255"><ele>221.5</ele><time>2026-04-06T14:29:08.964Z</time></trkpt><trkpt lat="47.406148531011034" lon="5.264979334363648"><ele>222.0</ele><time>2026-04-06T14:29:10.964Z</time></trkpt><trkpt lat="47.40610687765753" lon="5.264815535724015"><ele>223.0</ele><time>2026-04-06T14:29:12.964Z</time></trkpt><trkpt lat="47.40606658821173" lon="5.264650763836855"><ele>224.0</ele><time>2026-04-06T14:29:14.964Z</time></trkpt><trkpt lat="47.40601694473185" lon="5.26448892070191"><ele>225.0</ele><time>2026-04-06T14:29:16.964Z</time></trkpt><trkpt lat="47.405975246100844" lon="5.264326723864258"><ele>226.0</ele><time>2026-04-06T14:29:18.964Z</time></trkpt><trkpt lat="47.40593184905548" lon="5.264166353833356"><ele>226.0</ele><time>2026-04-06T14:29:20.964Z</time></trkpt><trkpt lat="47.40589247606248" lon="5.264008822848434"><ele>226.0</ele><time>2026-04-06T14:29:22.964Z</time></trkpt><trkpt lat="47.405849753913685" lon="5.263854598639055"><ele>226.0</ele><time>2026-04-06T14:29:24.964Z</time></trkpt><trkpt lat="47.405806821642535" lon="5.263692845228769"><ele>226.0</ele><time>2026-04-06T14:29:26.964Z</time></trkpt><trkpt lat="47.4057677652508" lon="5.263528824144053"><ele>226.5</ele><time>2026-04-06T14:29:28.964Z</time></trkpt><trkpt lat="47.40572565094793" lon="5.26337257507361"><ele>227.0</ele><time>2026-04-06T14:29:30.964Z</time></trkpt><trkpt lat="47.40568352266012" lon="5.263218582950782"><ele>227.5</ele><time>2026-04-06T14:29:32.964Z</time></trkpt><trkpt lat="47.405641440004054" lon="5.263055303783051"><ele>228.0</ele><time>2026-04-06T14:29:34.964Z</time></trkpt><trkpt lat="47.40559616145099" lon="5.262898050490485"><ele>228.25</ele><time>2026-04-06T14:29:36.964Z</time></trkpt><trkpt lat="47.40555476445075" lon="5.262742370938674"><ele>228.5</ele><time>2026-04-06T14:29:38.964Z</time></trkpt><trkpt lat="47.405512142198816" lon="5.262582333107776"><ele>228.75</ele><time>2026-04-06T14:29:40.964Z</time></trkpt><trkpt lat="47.40546869721712" lon="5.262423736730766"><ele>229.0</ele><time>2026-04-06T14:29:42.964Z</time></trkpt><trkpt lat="47.405429539771184" lon="5.262263579839778"><ele>229.0</ele><time>2026-04-06T14:29:44.964Z</time></trkpt><trkpt lat="47.405386056413114" lon="5.262116882657811"><ele>228.99999999999997</ele><time>2026-04-06T14:29:46.964Z</time></trkpt><trkpt lat="47.40534574426952" lon="5.261959159478667"><ele>228.99999999999997</ele><time>2026-04-06T14:29:48.964Z</time></trkpt><trkpt lat="47.40530786419663" lon="5.261805177649842"><ele>229.0</ele><time>2026-04-06T14:29:50.964Z</time></trkpt><trkpt lat="47.405265185424156" lon="5.261654210672824"><ele>229.0</ele><time>2026-04-06T14:29:52.964Z</time></trkpt><trkpt lat="47.405224719533315" lon="5.261504837457135"><ele>229.25</ele><time>2026-04-06T14:29:54.964Z</time></trkpt><trkpt lat="47.4051814115478" lon="5.261348868985843"><ele>229.5</ele><time>2026-04-06T14:29:56.964Z</time></trkpt><trkpt lat="47.40514329657829" lon="5.26119501948831"><ele>229.75</ele><time>2026-04-06T14:29:58.964Z</time></trkpt><trkpt lat="47.405094187695006" lon="5.261044233223752"><ele>230.0</ele><time>2026-04-06T14:30:00.964Z</time></trkpt><trkpt lat="47.405048350626025" lon="5.260881884912652"><ele>230.0</ele><time>2026-04-06T14:30:02.964Z</time></trkpt><trkpt lat="47.40500524911318" lon="5.260732994846243"><ele>230.0</ele><time>2026-04-06T14:30:04.964Z</time></trkpt><trkpt lat="47.40496052839338" lon="5.2605828731951245"><ele>230.0</ele><time>2026-04-06T14:30:06.964Z</time></trkpt><trkpt lat="47.404913994977846" lon="5.260428544138564"><ele>230.0</ele><time>2026-04-06T14:30:08.964Z</time></trkpt><trkpt lat="47.40486422190009" lon="5.260261187399856"><ele>229.66666666666669</ele><time>2026-04-06T14:30:10.964Z</time></trkpt><trkpt lat="47.404810609950765" lon="5.260097225670743"><ele>229.33333333333334</ele><time>2026-04-06T14:30:12.964Z</time></trkpt><trkpt lat="47.40478449905815" lon="5.260007851130903"><ele>229.0</ele><time>2026-04-06T14:30:13.964Z</time></trkpt><trkpt lat="47.40475551836921" lon="5.259924400227862"><ele>228.66666666666669</ele><time>2026-04-06T14:30:14.964Z</time></trkpt><trkpt lat="47.404720723667914" lon="5.259831845952597"><ele>228.33333333333334</ele><time>2026-04-06T14:30:15.964Z</time></trkpt><trkpt lat="47.404689359843665" lon="5.259736241263674"><ele>228.0</ele><time>2026-04-06T14:30:16.964Z</time></trkpt><trkpt lat="47.404659284980404" lon="5.259638412153721"><ele>228.0</ele><time>2026-04-06T14:30:17.964Z</time></trkpt><trkpt lat="47.40461885894194" lon="5.259539124228769"><ele>228.0</ele><time>2026-04-06T14:30:18.964Z</time></trkpt><trkpt lat="47.404582082892354" lon="5.2594379444080115"><ele>228.0</ele><time>2026-04-06T14:30:19.964Z</time></trkpt><trkpt lat="47.404542014639" lon="5.2593315002276"><ele>228.0</ele><time>2026-04-06T14:30:20.964Z</time></trkpt><trkpt lat="47.40450397659129" lon="5.259223659394797"><ele>228.0</ele><time>2026-04-06T14:30:21.964Z</time></trkpt><trkpt lat="47.40446256323302" lon="5.259112488926447"><ele>228.0</ele><time>2026-04-06T14:30:22.964Z</time></trkpt><trkpt lat="47.404423800375874" lon="5.2589954852857534"><ele>226.2</ele><time>2026-04-06T14:30:23.964Z</time></trkpt><trkpt lat="47.404374726447855" lon="5.258876862110188"><ele>224.4</ele><time>2026-04-06T14:30:24.964Z</time></trkpt><trkpt lat="47.40432947898007" lon="5.258756632334338"><ele>222.59999999999997</ele><time>2026-04-06T14:30:25.964Z</time></trkpt><trkpt lat="47.40428305906627" lon="5.2586322892518655"><ele>220.79999999999998</ele><time>2026-04-06T14:30:26.964Z</time></trkpt><trkpt lat="47.40423595339215" lon="5.258494459042948"><ele>219.0</ele><time>2026-04-06T14:30:27.964Z</time></trkpt><trkpt lat="47.40418505755632" lon="5.258363455833253"><ele>219.0</ele><time>2026-04-06T14:30:28.964Z</time></trkpt><trkpt lat="47.404132748472286" lon="5.258223850743486"><ele>219.0</ele><time>2026-04-06T14:30:29.964Z</time></trkpt><trkpt lat="47.40407870329182" lon="5.258076039376091"><ele>219.0</ele><time>2026-04-06T14:30:30.964Z</time></trkpt><trkpt lat="47.40402716045204" lon="5.257927758108714"><ele>219.0</ele><time>2026-04-06T14:30:31.964Z</time></trkpt><trkpt lat="47.4039767225875" lon="5.2577666285766425"><ele>217.75</ele><time>2026-04-06T14:30:32.964Z</time></trkpt><trkpt lat="47.40393900123849" lon="5.257590851894443"><ele>216.5</ele><time>2026-04-06T14:30:33.964Z</time></trkpt><trkpt lat="47.40390748766994" lon="5.257421987336726"><ele>215.25</ele><time>2026-04-06T14:30:34.964Z</time></trkpt><trkpt lat="47.403911478064295" lon="5.257237812023625"><ele>214.0</ele><time>2026-04-06T14:30:35.964Z</time></trkpt><trkpt lat="47.40388857602524" lon="5.257059638145286"><ele>213.5</ele><time>2026-04-06T14:30:36.964Z</time></trkpt><trkpt lat="47.403866604839656" lon="5.256881511601751"><ele>213.0</ele><time>2026-04-06T14:30:37.964Z</time></trkpt><trkpt lat="47.40384459672847" lon="5.256703085669562"><ele>212.5</ele><time>2026-04-06T14:30:38.964Z</time></trkpt><trkpt lat="47.40380917732681" lon="5.256534020328531"><ele>212.0</ele><time>2026-04-06T14:30:39.964Z</time></trkpt><trkpt lat="47.40379436896159" lon="5.256363515842321"><ele>211.8</ele><time>2026-04-06T14:30:40.964Z</time></trkpt><trkpt lat="47.403773350495264" lon="5.256199332212338"><ele>211.6</ele><time>2026-04-06T14:30:41.964Z</time></trkpt><trkpt lat="47.403753364636465" lon="5.256040763621512"><ele>211.4</ele><time>2026-04-06T14:30:42.964Z</time></trkpt><trkpt lat="47.40373468856365" lon="5.255889893123687"><ele>211.20000000000002</ele><time>2026-04-06T14:30:43.964Z</time></trkpt><trkpt lat="47.40371629299317" lon="5.255744185599862"><ele>211.0</ele><time>2026-04-06T14:30:44.964Z</time></trkpt><trkpt lat="47.403695616484775" lon="5.255606452237698"><ele>210.99999999999997</ele><time>2026-04-06T14:30:45.964Z</time></trkpt><trkpt lat="47.40368042661034" lon="5.255474591783692"><ele>211.0</ele><time>2026-04-06T14:30:46.964Z</time></trkpt><trkpt lat="47.40367344385137" lon="5.255343161090783"><ele>211.0</ele><time>2026-04-06T14:30:47.963Z</time></trkpt><trkpt lat="47.40365720087017" lon="5.255227492939009"><ele>211.0</ele><time>2026-04-06T14:30:48.964Z</time></trkpt><trkpt lat="47.40364167721424" lon="5.255117026541568"><ele>210.99999999999997</ele><time>2026-04-06T14:30:49.964Z</time></trkpt><trkpt lat="47.40362494413661" lon="5.255012058462011"><ele>211.0</ele><time>2026-04-06T14:30:50.964Z</time></trkpt><trkpt lat="47.40361325397865" lon="5.2549125883213685"><ele>211.0</ele><time>2026-04-06T14:30:51.963Z</time></trkpt><trkpt lat="47.40360223647855" lon="5.254818147525512"><ele>211.0</ele><time>2026-04-06T14:30:52.963Z</time></trkpt><trkpt lat="47.40357792699075" lon="5.254647304281238"><ele>211.0</ele><time>2026-04-06T14:30:54.963Z</time></trkpt><trkpt lat="47.403557602437296" lon="5.254479784854556"><ele>211.0</ele><time>2026-04-06T14:30:56.963Z</time></trkpt><trkpt lat="47.403534381495994" lon="5.254315786033116"><ele>211.0</ele><time>2026-04-06T14:30:58.963Z</time></trkpt><trkpt lat="47.40351462136979" lon="5.254141260772459"><ele>211.60000000000002</ele><time>2026-04-06T14:31:00.963Z</time></trkpt><trkpt lat="47.40349054583687" lon="5.2539737500137065"><ele>212.2</ele><time>2026-04-06T14:31:02.963Z</time></trkpt><trkpt lat="47.40346724547788" lon="5.2538088249159705"><ele>212.79999999999998</ele><time>2026-04-06T14:31:04.963Z</time></trkpt><trkpt lat="47.40344875610427" lon="5.253649495215283"><ele>213.39999999999998</ele><time>2026-04-06T14:31:06.963Z</time></trkpt><trkpt lat="47.40343150526584" lon="5.253492929706536"><ele>214.0</ele><time>2026-04-06T14:31:08.963Z</time></trkpt><trkpt lat="47.403413389488456" lon="5.253333570824271"><ele>214.6</ele><time>2026-04-06T14:31:10.963Z</time></trkpt><trkpt lat="47.403390733898554" lon="5.253183583674682"><ele>215.2</ele><time>2026-04-06T14:31:12.963Z</time></trkpt><trkpt lat="47.403370786744155" lon="5.253032403268867"><ele>215.79999999999998</ele><time>2026-04-06T14:31:14.963Z</time></trkpt><trkpt lat="47.403349946837565" lon="5.252881445864725"><ele>216.39999999999998</ele><time>2026-04-06T14:31:16.963Z</time></trkpt><trkpt lat="47.403325251895886" lon="5.252723133016097"><ele>217.0</ele><time>2026-04-06T14:31:18.963Z</time></trkpt><trkpt lat="47.40330055045603" lon="5.2525623280286435"><ele>217.33333333333331</ele><time>2026-04-06T14:31:20.963Z</time></trkpt><trkpt lat="47.403273805889725" lon="5.252405280079515"><ele>217.66666666666666</ele><time>2026-04-06T14:31:22.963Z</time></trkpt><trkpt lat="47.403251682547435" lon="5.2522252503541464"><ele>218.0</ele><time>2026-04-06T14:31:24.963Z</time></trkpt><trkpt lat="47.40324045840585" lon="5.25213043843284"><ele>218.33333333333331</ele><time>2026-04-06T14:31:25.963Z</time></trkpt><trkpt lat="47.403230157772015" lon="5.252029004842748"><ele>218.66666666666666</ele><time>2026-04-06T14:31:26.963Z</time></trkpt><trkpt lat="47.40321980489423" lon="5.251928828269921"><ele>219.0</ele><time>2026-04-06T14:31:27.963Z</time></trkpt><trkpt lat="47.403207068393925" lon="5.251829107475998"><ele>219.0</ele><time>2026-04-06T14:31:28.963Z</time></trkpt><trkpt lat="47.40319752426123" lon="5.2517249841212"><ele>219.0</ele><time>2026-04-06T14:31:29.963Z</time></trkpt><trkpt lat="47.403186639436335" lon="5.251628741020551"><ele>219.0</ele><time>2026-04-06T14:31:30.963Z</time></trkpt><trkpt lat="47.40318397281852" lon="5.251528233409241"><ele>219.0</ele><time>2026-04-06T14:31:31.963Z</time></trkpt><trkpt lat="47.40318273780661" lon="5.251428539082858"><ele>219.0</ele><time>2026-04-06T14:31:32.963Z</time></trkpt><trkpt lat="47.40318007129638" lon="5.251332191503054"><ele>219.0</ele><time>2026-04-06T14:31:33.963Z</time></trkpt><trkpt lat="47.40317129994992" lon="5.2511471333473425"><ele>219.0</ele><time>2026-04-06T14:31:35.963Z</time></trkpt><trkpt lat="47.40316717955489" lon="5.2510534032338825"><ele>218.99999999999997</ele><time>2026-04-06T14:31:36.963Z</time></trkpt><trkpt lat="47.403162735635355" lon="5.250960585698225"><ele>218.99999999999997</ele><time>2026-04-06T14:31:37.963Z</time></trkpt><trkpt lat="47.403159715896265" lon="5.250781958240576"><ele>219.0</ele><time>2026-04-06T14:31:39.963Z</time></trkpt><trkpt lat="47.4031623192182" lon="5.250607852266729"><ele>219.0</ele><time>2026-04-06T14:31:41.963Z</time></trkpt><trkpt lat="47.40316278460291" lon="5.250437088531697"><ele>219.5</ele><time>2026-04-06T14:31:43.963Z</time></trkpt><trkpt lat="47.40315855769499" lon="5.250268621037859"><ele>220.0</ele><time>2026-04-06T14:31:45.963Z</time></trkpt><trkpt lat="47.403159717361994" lon="5.250101525079067"><ele>220.5</ele><time>2026-04-06T14:31:47.963Z</time></trkpt><trkpt lat="47.403155731108264" lon="5.2499364909271184"><ele>221.0</ele><time>2026-04-06T14:31:49.963Z</time></trkpt><trkpt lat="47.40315044188053" lon="5.24977210569681"><ele>221.60000000000002</ele><time>2026-04-06T14:31:51.963Z</time></trkpt><trkpt lat="47.40313864132323" lon="5.249607007043089"><ele>222.20000000000002</ele><time>2026-04-06T14:31:53.963Z</time></trkpt><trkpt lat="47.40312786518401" lon="5.249440059077325"><ele>222.79999999999998</ele><time>2026-04-06T14:31:55.963Z</time></trkpt><trkpt lat="47.40310688587941" lon="5.249281429008006"><ele>223.39999999999998</ele><time>2026-04-06T14:31:57.963Z</time></trkpt><trkpt lat="47.403087058538794" lon="5.249123126683081"><ele>224.0</ele><time>2026-04-06T14:31:59.963Z</time></trkpt><trkpt lat="47.403058472808155" lon="5.248961583551429"><ele>223.66666666666669</ele><time>2026-04-06T14:32:01.963Z</time></trkpt><trkpt lat="47.40302994648559" lon="5.248793642952025"><ele>223.33333333333334</ele><time>2026-04-06T14:32:03.963Z</time></trkpt><trkpt lat="47.4029900693904" lon="5.2486305682802605"><ele>223.0</ele><time>2026-04-06T14:32:05.963Z</time></trkpt><trkpt lat="47.40297564062419" lon="5.248536147005844"><ele>222.66666666666669</ele><time>2026-04-06T14:32:06.963Z</time></trkpt><trkpt lat="47.40295767177058" lon="5.2484435702011645"><ele>222.33333333333334</ele><time>2026-04-06T14:32:07.963Z</time></trkpt><trkpt lat="47.40293747026499" lon="5.248348250129708"><ele>222.0</ele><time>2026-04-06T14:32:08.963Z</time></trkpt><trkpt lat="47.40291391389078" lon="5.248246228295727"><ele>222.0</ele><time>2026-04-06T14:32:09.963Z</time></trkpt><trkpt lat="47.402894379207424" lon="5.24814335327678"><ele>222.0</ele><time>2026-04-06T14:32:10.963Z</time></trkpt><trkpt lat="47.40286988280667" lon="5.248045881178291"><ele>222.0</ele><time>2026-04-06T14:32:11.963Z</time></trkpt><trkpt lat="47.402848361779135" lon="5.2479392235985705"><ele>222.0</ele><time>2026-04-06T14:32:12.963Z</time></trkpt><trkpt lat="47.40282561943017" lon="5.247833858734749"><ele>222.0</ele><time>2026-04-06T14:32:13.963Z</time></trkpt><trkpt lat="47.40280428279105" lon="5.247726247590753"><ele>222.0</ele><time>2026-04-06T14:32:14.963Z</time></trkpt><trkpt lat="47.40278128452373" lon="5.2476192184748305"><ele>222.0</ele><time>2026-04-06T14:32:15.963Z</time></trkpt><trkpt lat="47.40275427634386" lon="5.2475141092608855"><ele>222.0</ele><time>2026-04-06T14:32:16.963Z</time></trkpt><trkpt lat="47.40273157992525" lon="5.247409904794314"><ele>222.0</ele><time>2026-04-06T14:32:17.963Z</time></trkpt><trkpt lat="47.40271162923568" lon="5.2473048731534515"><ele>222.0</ele><time>2026-04-06T14:32:18.963Z</time></trkpt><trkpt lat="47.40269022592793" lon="5.247197203873569"><ele>222.0</ele><time>2026-04-06T14:32:19.963Z</time></trkpt><trkpt lat="47.40266538345699" lon="5.247095459411746"><ele>222.0</ele><time>2026-04-06T14:32:20.963Z</time></trkpt><trkpt lat="47.402645223048374" lon="5.246988119754128"><ele>222.0</ele><time>2026-04-06T14:32:21.963Z</time></trkpt><trkpt lat="47.402613957152575" lon="5.246899420644183"><ele>222.0</ele><time>2026-04-06T14:32:22.963Z</time></trkpt><trkpt lat="47.402592401347825" lon="5.246793410879156"><ele>222.14285714285714</ele><time>2026-04-06T14:32:23.963Z</time></trkpt><trkpt lat="47.402568298759846" lon="5.246698936351134"><ele>222.2857142857143</ele><time>2026-04-06T14:32:24.963Z</time></trkpt><trkpt lat="47.4025451507515" lon="5.246603116126404"><ele>222.42857142857144</ele><time>2026-04-06T14:32:25.963Z</time></trkpt><trkpt lat="47.40252257787907" lon="5.246507925417716"><ele>222.57142857142856</ele><time>2026-04-06T14:32:26.963Z</time></trkpt><trkpt lat="47.402500211235356" lon="5.246417357995921"><ele>222.71428571428572</ele><time>2026-04-06T14:32:27.963Z</time></trkpt><trkpt lat="47.40247600789492" lon="5.246327544489867"><ele>222.85714285714286</ele><time>2026-04-06T14:32:28.963Z</time></trkpt><trkpt lat="47.402451247135595" lon="5.2462412169487225"><ele>223.0</ele><time>2026-04-06T14:32:29.963Z</time></trkpt><trkpt lat="47.40242911580213" lon="5.246153027782618"><ele>223.16666666666666</ele><time>2026-04-06T14:32:30.963Z</time></trkpt><trkpt lat="47.402409162226256" lon="5.246062803586169"><ele>223.33333333333331</ele><time>2026-04-06T14:32:31.963Z</time></trkpt><trkpt lat="47.40239375306539" lon="5.245970145646511"><ele>223.5</ele><time>2026-04-06T14:32:32.963Z</time></trkpt><trkpt lat="47.402353126928496" lon="5.245798558139797"><ele>223.66666666666669</ele><time>2026-04-06T14:32:34.963Z</time></trkpt><trkpt lat="47.40232949233476" lon="5.245708734216982"><ele>223.83333333333334</ele><time>2026-04-06T14:32:35.963Z</time></trkpt><trkpt lat="47.402295826329244" lon="5.24553453141994"><ele>224.0</ele><time>2026-04-06T14:32:37.963Z</time></trkpt><trkpt lat="47.40224642556495" lon="5.245375031267978"><ele>225.2</ele><time>2026-04-06T14:32:39.963Z</time></trkpt><trkpt lat="47.40220240526058" lon="5.2452143316599"><ele>226.39999999999998</ele><time>2026-04-06T14:32:41.963Z</time></trkpt><trkpt lat="47.40215309013002" lon="5.245063293936363"><ele>227.6</ele><time>2026-04-06T14:32:43.963Z</time></trkpt><trkpt lat="47.40210381521267" lon="5.244934698496938"><ele>228.8</ele><time>2026-04-06T14:32:45.963Z</time></trkpt><trkpt lat="47.40204708325118" lon="5.244811631411076"><ele>230.0</ele><time>2026-04-06T14:32:47.963Z</time></trkpt><trkpt lat="47.40198978983807" lon="5.244690905261674"><ele>231.0</ele><time>2026-04-06T14:32:49.963Z</time></trkpt><trkpt lat="47.401929984094046" lon="5.244567791188282"><ele>232.0</ele><time>2026-04-06T14:32:51.963Z</time></trkpt><trkpt lat="47.40186392462686" lon="5.244477835861567"><ele>233.0</ele><time>2026-04-06T14:32:53.963Z</time></trkpt><trkpt lat="47.40180396791599" lon="5.244363667638988"><ele>234.0</ele><time>2026-04-06T14:32:55.963Z</time></trkpt><trkpt lat="47.40174548819263" lon="5.244243857480981"><ele>235.0</ele><time>2026-04-06T14:32:57.963Z</time></trkpt><trkpt lat="47.40168438045615" lon="5.24414144625216"><ele>235.0</ele><time>2026-04-06T14:32:59.963Z</time></trkpt><trkpt lat="47.40163252386228" lon="5.24403926476725"><ele>235.0</ele><time>2026-04-06T14:33:01.964Z</time></trkpt><trkpt lat="47.401573387228275" lon="5.243921043131087"><ele>235.0</ele><time>2026-04-06T14:33:03.964Z</time></trkpt><trkpt lat="47.40151958918156" lon="5.24382596467137"><ele>235.0</ele><time>2026-04-06T14:33:05.964Z</time></trkpt><trkpt lat="47.401475892319226" lon="5.243693254590754"><ele>235.0</ele><time>2026-04-06T14:33:07.964Z</time></trkpt><trkpt lat="47.40143388428052" lon="5.243566968569883"><ele>235.4</ele><time>2026-04-06T14:33:09.964Z</time></trkpt><trkpt lat="47.40138869676158" lon="5.243431662392224"><ele>235.8</ele><time>2026-04-06T14:33:11.964Z</time></trkpt><trkpt lat="47.40134522591682" lon="5.243292804600217"><ele>236.2</ele><time>2026-04-06T14:33:13.964Z</time></trkpt><trkpt lat="47.40132685641926" lon="5.243137077300388"><ele>236.6</ele><time>2026-04-06T14:33:15.965Z</time></trkpt><trkpt lat="47.40129419776836" lon="5.242980627279557"><ele>237.0</ele><time>2026-04-06T14:33:17.966Z</time></trkpt><trkpt lat="47.40127072559556" lon="5.2428400022346615"><ele>236.0</ele><time>2026-04-06T14:33:19.968Z</time></trkpt><trkpt lat="47.40123817007959" lon="5.242687663378783"><ele>235.0</ele><time>2026-04-06T14:33:21.969Z</time></trkpt><trkpt lat="47.40121022467982" lon="5.242544860995321"><ele>234.0</ele><time>2026-04-06T14:33:23.969Z</time></trkpt><trkpt lat="47.401186012610346" lon="5.242406076106669"><ele>233.0</ele><time>2026-04-06T14:33:25.97Z</time></trkpt><trkpt lat="47.401156617436065" lon="5.242245492149433"><ele>232.0</ele><time>2026-04-06T14:33:27.971Z</time></trkpt><trkpt lat="47.4011223878406" lon="5.24208464715077"><ele>231.99999999999997</ele><time>2026-04-06T14:33:29.971Z</time></trkpt><trkpt lat="47.40109649349777" lon="5.2419089764584195"><ele>232.0</ele><time>2026-04-06T14:33:31.972Z</time></trkpt><trkpt lat="47.4010563566689" lon="5.241736485501718"><ele>232.0</ele><time>2026-04-06T14:33:33.972Z</time></trkpt><trkpt lat="47.40103467069548" lon="5.241642291268177"><ele>232.0</ele><time>2026-04-06T14:33:34.973Z</time></trkpt><trkpt lat="47.401009862036226" lon="5.241556058595005"><ele>231.99999999999997</ele><time>2026-04-06T14:33:35.973Z</time></trkpt><trkpt lat="47.40099177864062" lon="5.241463732755396"><ele>232.0</ele><time>2026-04-06T14:33:36.973Z</time></trkpt><trkpt lat="47.40097264420922" lon="5.241364950923184"><ele>231.8571428571429</ele><time>2026-04-06T14:33:37.973Z</time></trkpt><trkpt lat="47.40095180697119" lon="5.241273789062365"><ele>231.71428571428572</ele><time>2026-04-06T14:33:38.973Z</time></trkpt><trkpt lat="47.400929888621185" lon="5.2411861793802546"><ele>231.57142857142858</ele><time>2026-04-06T14:33:39.973Z</time></trkpt><trkpt lat="47.40091213454863" lon="5.241081990546954"><ele>231.42857142857144</ele><time>2026-04-06T14:33:40.974Z</time></trkpt><trkpt lat="47.40088670604798" lon="5.240987578678239"><ele>231.28571428571428</ele><time>2026-04-06T14:33:41.974Z</time></trkpt><trkpt lat="47.40087439970886" lon="5.240884553896502"><ele>231.14285714285714</ele><time>2026-04-06T14:33:42.974Z</time></trkpt><trkpt lat="47.40084532452029" lon="5.240782904090697"><ele>231.0</ele><time>2026-04-06T14:33:43.974Z</time></trkpt><trkpt lat="47.400823027227766" lon="5.240675706746199"><ele>230.33333333333334</ele><time>2026-04-06T14:33:44.974Z</time></trkpt><trkpt lat="47.40080170051297" lon="5.240568588344916"><ele>229.66666666666669</ele><time>2026-04-06T14:33:45.974Z</time></trkpt><trkpt lat="47.40078537058643" lon="5.2404579083950305"><ele>229.0</ele><time>2026-04-06T14:33:46.974Z</time></trkpt><trkpt lat="47.40077647056263" lon="5.240347938695677"><ele>228.33333333333334</ele><time>2026-04-06T14:33:47.974Z</time></trkpt><trkpt lat="47.40075532183506" lon="5.240186914412888"><ele>227.66666666666669</ele><time>2026-04-06T14:33:49.974Z</time></trkpt><trkpt lat="47.40073493264322" lon="5.240073424170114"><ele>227.0</ele><time>2026-04-06T14:33:51.975Z</time></trkpt><trkpt lat="47.40067089573241" lon="5.240034538752647"><ele>227.0</ele><time>2026-04-06T14:33:54.975Z</time></trkpt><trkpt lat="47.40069335514578" lon="5.2398681680932375"><ele>227.0</ele><time>2026-04-06T14:34:24.976Z</time></trkpt><trkpt lat="47.400680690804414" lon="5.239695023613548"><ele>227.0</ele><time>2026-04-06T14:34:26.976Z</time></trkpt><trkpt lat="47.400646187739824" lon="5.239522287484145"><ele>227.0</ele><time>2026-04-06T14:34:28.976Z</time></trkpt><trkpt lat="47.400664266420335" lon="5.239428124902939"><ele>227.0</ele><time>2026-04-06T14:34:29.976Z</time></trkpt><trkpt lat="47.400643776614196" lon="5.239259815777773"><ele>226.0</ele><time>2026-04-06T14:34:31.976Z</time></trkpt><trkpt lat="47.400621808334854" lon="5.239093844066715"><ele>225.0</ele><time>2026-04-06T14:34:33.976Z</time></trkpt><trkpt lat="47.4005792496294" lon="5.238943536180611"><ele>224.0</ele><time>2026-04-06T14:34:35.976Z</time></trkpt><trkpt lat="47.40055187851792" lon="5.238781471945697"><ele>223.0</ele><time>2026-04-06T14:34:37.976Z</time></trkpt><trkpt lat="47.40053533263654" lon="5.238606715598358"><ele>223.0</ele><time>2026-04-06T14:34:39.976Z</time></trkpt><trkpt lat="47.4005213854768" lon="5.238515882775154"><ele>223.0</ele><time>2026-04-06T14:34:40.976Z</time></trkpt><trkpt lat="47.40050066504827" lon="5.2383356065939735"><ele>223.0</ele><time>2026-04-06T14:34:42.976Z</time></trkpt><trkpt lat="47.4004761089872" lon="5.238159084913319"><ele>223.0</ele><time>2026-04-06T14:34:44.976Z</time></trkpt><trkpt lat="47.40046730308127" lon="5.238063659116842"><ele>223.0</ele><time>2026-04-06T14:34:45.976Z</time></trkpt><trkpt lat="47.40044564757752" lon="5.237886045767881"><ele>223.5</ele><time>2026-04-06T14:34:47.976Z</time></trkpt><trkpt lat="47.40042141764697" lon="5.237712628562773"><ele>224.0</ele><time>2026-04-06T14:34:49.976Z</time></trkpt><trkpt lat="47.40040068182027" lon="5.237530450490909"><ele>224.5</ele><time>2026-04-06T14:34:51.976Z</time></trkpt><trkpt lat="47.40038402650079" lon="5.237349641157754"><ele>225.0</ele><time>2026-04-06T14:34:53.975Z</time></trkpt><trkpt lat="47.40036299632464" lon="5.237177323219965"><ele>225.5</ele><time>2026-04-06T14:34:55.975Z</time></trkpt><trkpt lat="47.40033451754034" lon="5.2370130160903985"><ele>226.0</ele><time>2026-04-06T14:34:57.975Z</time></trkpt><trkpt lat="47.40031698805094" lon="5.2368384323483514"><ele>226.5</ele><time>2026-04-06T14:34:59.975Z</time></trkpt><trkpt lat="47.40029767973603" lon="5.236665767464912"><ele>227.0</ele><time>2026-04-06T14:35:01.974Z</time></trkpt><trkpt lat="47.40027883597723" lon="5.236497511051501"><ele>227.5</ele><time>2026-04-06T14:35:03.974Z</time></trkpt><trkpt lat="47.400257936829895" lon="5.236329408358445"><ele>228.0</ele><time>2026-04-06T14:35:05.974Z</time></trkpt><trkpt lat="47.40023367948674" lon="5.236157229280463"><ele>228.5</ele><time>2026-04-06T14:35:07.974Z</time></trkpt><trkpt lat="47.40021194264119" lon="5.235985829638377"><ele>229.0</ele><time>2026-04-06T14:35:09.974Z</time></trkpt><trkpt lat="47.40019034038442" lon="5.235815947789992"><ele>229.0</ele><time>2026-04-06T14:35:11.974Z</time></trkpt><trkpt lat="47.400171046236736" lon="5.235646714931741"><ele>229.0</ele><time>2026-04-06T14:35:13.974Z</time></trkpt><trkpt lat="47.400145184844774" lon="5.23548057735716"><ele>229.0</ele><time>2026-04-06T14:35:15.974Z</time></trkpt><trkpt lat="47.40012314915321" lon="5.235313980982667"><ele>229.0</ele><time>2026-04-06T14:35:17.974Z</time></trkpt><trkpt lat="47.40009934807358" lon="5.235154677304122"><ele>228.79999999999998</ele><time>2026-04-06T14:35:19.974Z</time></trkpt><trkpt lat="47.40007514887408" lon="5.235005584702114"><ele>228.59999999999997</ele><time>2026-04-06T14:35:21.974Z</time></trkpt><trkpt lat="47.400058555692766" lon="5.234846257035553"><ele>228.4</ele><time>2026-04-06T14:35:23.974Z</time></trkpt><trkpt lat="47.40003062198572" lon="5.234696561794598"><ele>228.2</ele><time>2026-04-06T14:35:25.974Z</time></trkpt><trkpt lat="47.40000152150197" lon="5.234552287102582"><ele>228.0</ele><time>2026-04-06T14:35:27.975Z</time></trkpt><trkpt lat="47.39998632439083" lon="5.234393187067612"><ele>228.4</ele><time>2026-04-06T14:35:29.975Z</time></trkpt><trkpt lat="47.39996239115654" lon="5.234245716763139"><ele>228.8</ele><time>2026-04-06T14:35:31.975Z</time></trkpt><trkpt lat="47.39994577482026" lon="5.234094169135421"><ele>229.2</ele><time>2026-04-06T14:35:33.975Z</time></trkpt><trkpt lat="47.3999269624428" lon="5.233946969357329"><ele>229.6</ele><time>2026-04-06T14:35:35.975Z</time></trkpt><trkpt lat="47.39991742297712" lon="5.233806602268306"><ele>230.0</ele><time>2026-04-06T14:35:37.975Z</time></trkpt><trkpt lat="47.39990699337808" lon="5.233681148349103"><ele>231.16666666666669</ele><time>2026-04-06T14:35:39.975Z</time></trkpt><trkpt lat="47.39990399069957" lon="5.233560237682243"><ele>232.33333333333334</ele><time>2026-04-06T14:35:41.975Z</time></trkpt><trkpt lat="47.39991431946265" lon="5.233431218065878"><ele>233.5</ele><time>2026-04-06T14:35:43.975Z</time></trkpt><trkpt lat="47.399915779539164" lon="5.233315366713268"><ele>234.66666666666669</ele><time>2026-04-06T14:35:45.975Z</time></trkpt><trkpt lat="47.39993833177047" lon="5.233193003837361"><ele>235.83333333333334</ele><time>2026-04-06T14:35:47.975Z</time></trkpt><trkpt lat="47.39994651858256" lon="5.233066988629654"><ele>237.0</ele><time>2026-04-06T14:35:49.975Z</time></trkpt><trkpt lat="47.3999611334246" lon="5.232943411234863"><ele>237.83333333333334</ele><time>2026-04-06T14:35:51.975Z</time></trkpt><trkpt lat="47.399978650953216" lon="5.232815454437301"><ele>238.66666666666669</ele><time>2026-04-06T14:35:53.975Z</time></trkpt><trkpt lat="47.399987654288665" lon="5.232692851044479"><ele>239.5</ele><time>2026-04-06T14:35:55.975Z</time></trkpt><trkpt lat="47.40000359870917" lon="5.232570344094521"><ele>240.33333333333334</ele><time>2026-04-06T14:35:57.975Z</time></trkpt><trkpt lat="47.40001932957406" lon="5.232440520175591"><ele>241.16666666666669</ele><time>2026-04-06T14:35:59.975Z</time></trkpt><trkpt lat="47.40003260544422" lon="5.232311494735746"><ele>242.0</ele><time>2026-04-06T14:36:01.975Z</time></trkpt><trkpt lat="47.400052322450236" lon="5.232183388981906"><ele>243.0</ele><time>2026-04-06T14:36:03.975Z</time></trkpt><trkpt lat="47.40006730671305" lon="5.23205305979164"><ele>244.0</ele><time>2026-04-06T14:36:05.975Z</time></trkpt><trkpt lat="47.40007800774757" lon="5.231912128016267"><ele>245.0</ele><time>2026-04-06T14:36:07.975Z</time></trkpt><trkpt lat="47.400104873837755" lon="5.23177528660665"><ele>246.0</ele><time>2026-04-06T14:36:09.975Z</time></trkpt><trkpt lat="47.40013941851876" lon="5.2316299888758255"><ele>247.0</ele><time>2026-04-06T14:36:11.975Z</time></trkpt><trkpt lat="47.40017200475655" lon="5.23149480286513"><ele>246.8</ele><time>2026-04-06T14:36:13.975Z</time></trkpt><trkpt lat="47.40021109015671" lon="5.23137446291469"><ele>246.6</ele><time>2026-04-06T14:36:15.975Z</time></trkpt><trkpt lat="47.40024012837917" lon="5.2312502817467745"><ele>246.40000000000003</ele><time>2026-04-06T14:36:17.975Z</time></trkpt><trkpt lat="47.40027382039756" lon="5.231116899419502"><ele>246.20000000000002</ele><time>2026-04-06T14:36:19.975Z</time></trkpt><trkpt lat="47.40030869265792" lon="5.230989848791305"><ele>246.0</ele><time>2026-04-06T14:36:21.975Z</time></trkpt><trkpt lat="47.40034373879479" lon="5.230869614854812"><ele>246.0</ele><time>2026-04-06T14:36:23.975Z</time></trkpt><trkpt lat="47.40028752081524" lon="5.230809215164212"><ele>246.00000000000003</ele><time>2026-04-06T14:36:25.975Z</time></trkpt><trkpt lat="47.400209515870664" lon="5.230854829433512"><ele>246.00000000000003</ele><time>2026-04-06T14:36:27.975Z</time></trkpt><trkpt lat="47.40016271339989" lon="5.231003738090137"><ele>246.0</ele><time>2026-04-06T14:36:29.975Z</time></trkpt><trkpt lat="47.40009954267765" lon="5.231145163797169"><ele>246.0</ele><time>2026-04-06T14:36:31.975Z</time></trkpt><trkpt lat="47.40000913320196" lon="5.231265785424249"><ele>246.0</ele><time>2026-04-06T14:36:33.975Z</time></trkpt><trkpt lat="47.39991337120683" lon="5.231378333813762"><ele>246.00000000000003</ele><time>2026-04-06T14:36:35.975Z</time></trkpt><trkpt lat="47.39986029362439" lon="5.231430221407201"><ele>246.00000000000003</ele><time>2026-04-06T14:36:36.975Z</time></trkpt><trkpt lat="47.39975006289823" lon="5.231522198600972"><ele>246.0</ele><time>2026-04-06T14:36:38.975Z</time></trkpt><trkpt lat="47.39964232165533" lon="5.231603122664661"><ele>246.0</ele><time>2026-04-06T14:36:40.975Z</time></trkpt><trkpt lat="47.399529450812594" lon="5.231695806284974"><ele>246.5</ele><time>2026-04-06T14:36:42.975Z</time></trkpt><trkpt lat="47.39942439347848" lon="5.231774772760418"><ele>247.0</ele><time>2026-04-06T14:36:44.975Z</time></trkpt><trkpt lat="47.39931460849807" lon="5.23186606108189"><ele>247.5</ele><time>2026-04-06T14:36:46.975Z</time></trkpt><trkpt lat="47.39920726116389" lon="5.231953772917226"><ele>248.0</ele><time>2026-04-06T14:36:48.975Z</time></trkpt><trkpt lat="47.39910590301782" lon="5.232043917941719"><ele>248.0</ele><time>2026-04-06T14:36:50.975Z</time></trkpt><trkpt lat="47.39899803988927" lon="5.232133287439823"><ele>248.0</ele><time>2026-04-06T14:36:52.975Z</time></trkpt><trkpt lat="47.39890059305369" lon="5.232212334385645"><ele>248.0</ele><time>2026-04-06T14:36:54.975Z</time></trkpt><trkpt lat="47.39880585188798" lon="5.232303382924167"><ele>248.0</ele><time>2026-04-06T14:36:56.975Z</time></trkpt><trkpt lat="47.39869567647021" lon="5.232372551904204"><ele>249.8</ele><time>2026-04-06T14:36:58.975Z</time></trkpt><trkpt lat="47.39860198991818" lon="5.232458301638585"><ele>251.60000000000002</ele><time>2026-04-06T14:37:00.974Z</time></trkpt><trkpt lat="47.39851485959818" lon="5.232540962979233"><ele>253.39999999999998</ele><time>2026-04-06T14:37:02.974Z</time></trkpt><trkpt lat="47.39841641289546" lon="5.232617587709605"><ele>255.2</ele><time>2026-04-06T14:37:04.974Z</time></trkpt><trkpt lat="47.39832629461393" lon="5.232689407745022"><ele>257.0</ele><time>2026-04-06T14:37:06.974Z</time></trkpt><trkpt lat="47.39824541750343" lon="5.23275852954593"><ele>257.0</ele><time>2026-04-06T14:37:08.974Z</time></trkpt><trkpt lat="47.3981694664017" lon="5.23283021849343"><ele>257.0</ele><time>2026-04-06T14:37:10.974Z</time></trkpt><trkpt lat="47.39807028755071" lon="5.232902286612005"><ele>257.0</ele><time>2026-04-06T14:37:12.974Z</time></trkpt><trkpt lat="47.39798062827753" lon="5.232967442202318"><ele>257.0</ele><time>2026-04-06T14:37:14.974Z</time></trkpt><trkpt lat="47.39790337705124" lon="5.23303626505038"><ele>257.0</ele><time>2026-04-06T14:37:16.974Z</time></trkpt><trkpt lat="47.3978151569176" lon="5.233116704360054"><ele>257.25</ele><time>2026-04-06T14:37:18.974Z</time></trkpt><trkpt lat="47.3977232010764" lon="5.2331905354334145"><ele>257.5</ele><time>2026-04-06T14:37:20.974Z</time></trkpt><trkpt lat="47.3976198893386" lon="5.233274452993557"><ele>257.75</ele><time>2026-04-06T14:37:22.974Z</time></trkpt><trkpt lat="47.39751578415756" lon="5.233366614393309"><ele>258.0</ele><time>2026-04-06T14:37:24.974Z</time></trkpt><trkpt lat="47.39742417803511" lon="5.233465323973816"><ele>258.0</ele><time>2026-04-06T14:37:26.974Z</time></trkpt><trkpt lat="47.397321771087334" lon="5.233563102163755"><ele>258.0</ele><time>2026-04-06T14:37:28.974Z</time></trkpt><trkpt lat="47.39726742500235" lon="5.233614672343278"><ele>258.0</ele><time>2026-04-06T14:37:29.974Z</time></trkpt><trkpt lat="47.397210392608834" lon="5.233666079783521"><ele>258.0</ele><time>2026-04-06T14:37:30.974Z</time></trkpt><trkpt lat="47.397149400235314" lon="5.233716542124643"><ele>258.0</ele><time>2026-04-06T14:37:31.974Z</time></trkpt><trkpt lat="47.39709007475243" lon="5.23376752516668"><ele>258.0</ele><time>2026-04-06T14:37:32.974Z</time></trkpt><trkpt lat="47.397022049249976" lon="5.233817300543982"><ele>257.5</ele><time>2026-04-06T14:37:33.974Z</time></trkpt><trkpt lat="47.39695208829465" lon="5.233866600178342"><ele>257.0</ele><time>2026-04-06T14:37:34.974Z</time></trkpt><trkpt lat="47.39688368805832" lon="5.23391465209242"><ele>256.5</ele><time>2026-04-06T14:37:35.974Z</time></trkpt><trkpt lat="47.39681409596185" lon="5.23396562254015"><ele>256.0</ele><time>2026-04-06T14:37:36.974Z</time></trkpt><trkpt lat="47.39674437159039" lon="5.234016318026556"><ele>255.5</ele><time>2026-04-06T14:37:37.974Z</time></trkpt><trkpt lat="47.39667381278963" lon="5.2340663132614145"><ele>255.0</ele><time>2026-04-06T14:37:38.974Z</time></trkpt><trkpt lat="47.39659820331493" lon="5.234114156692821"><ele>254.5</ele><time>2026-04-06T14:37:39.974Z</time></trkpt><trkpt lat="47.39652289482425" lon="5.234162815560431"><ele>254.0</ele><time>2026-04-06T14:37:40.974Z</time></trkpt><trkpt lat="47.39644950361069" lon="5.234216141253082"><ele>253.5</ele><time>2026-04-06T14:37:41.974Z</time></trkpt><trkpt lat="47.396381399190886" lon="5.234267385214223"><ele>253.0</ele><time>2026-04-06T14:37:42.974Z</time></trkpt><trkpt lat="47.396311059008944" lon="5.23431665452189"><ele>252.5</ele><time>2026-04-06T14:37:43.974Z</time></trkpt><trkpt lat="47.396240746900524" lon="5.234363758149894"><ele>252.0</ele><time>2026-04-06T14:37:44.974Z</time></trkpt><trkpt lat="47.39617739529666" lon="5.234418932211971"><ele>252.0</ele><time>2026-04-06T14:37:45.974Z</time></trkpt><trkpt lat="47.396113002779515" lon="5.23446532827563"><ele>252.0</ele><time>2026-04-06T14:37:46.974Z</time></trkpt><trkpt lat="47.39605155554643" lon="5.234515165848116"><ele>252.0</ele><time>2026-04-06T14:37:47.974Z</time></trkpt><trkpt lat="47.39599090420434" lon="5.234562338730573"><ele>252.0</ele><time>2026-04-06T14:37:48.974Z</time></trkpt><trkpt lat="47.39593208443669" lon="5.234611983253466"><ele>252.0</ele><time>2026-04-06T14:37:49.974Z</time></trkpt><trkpt lat="47.39587350267046" lon="5.2346668531647715"><ele>252.0</ele><time>2026-04-06T14:37:50.974Z</time></trkpt><trkpt lat="47.39581999933024" lon="5.234725587175442"><ele>252.0</ele><time>2026-04-06T14:37:51.974Z</time></trkpt><trkpt lat="47.39576579345137" lon="5.234779482078906"><ele>250.83333333333334</ele><time>2026-04-06T14:37:52.974Z</time></trkpt><trkpt lat="47.39570643606949" lon="5.234841045467223"><ele>249.66666666666669</ele><time>2026-04-06T14:37:53.974Z</time></trkpt><trkpt lat="47.395645501117556" lon="5.23490399833346"><ele>248.5</ele><time>2026-04-06T14:37:54.974Z</time></trkpt><trkpt lat="47.39558426124586" lon="5.234969654784166"><ele>247.33333333333334</ele><time>2026-04-06T14:37:55.974Z</time></trkpt><trkpt lat="47.395525507037725" lon="5.2350394103706535"><ele>246.16666666666669</ele><time>2026-04-06T14:37:56.974Z</time></trkpt><trkpt lat="47.39546566783555" lon="5.235110744440178"><ele>245.0</ele><time>2026-04-06T14:37:57.974Z</time></trkpt><trkpt lat="47.39540676198782" lon="5.235191874108488"><ele>245.00000000000003</ele><time>2026-04-06T14:37:58.974Z</time></trkpt><trkpt lat="47.39534972036305" lon="5.235272545473744"><ele>245.0</ele><time>2026-04-06T14:37:59.974Z</time></trkpt><trkpt lat="47.395293977950494" lon="5.2353516982638055"><ele>245.0</ele><time>2026-04-06T14:38:00.974Z</time></trkpt><trkpt lat="47.39523370484231" lon="5.235424126744627"><ele>245.0</ele><time>2026-04-06T14:38:01.974Z</time></trkpt><trkpt lat="47.395170781485845" lon="5.23551344248461"><ele>245.00000000000003</ele><time>2026-04-06T14:38:02.974Z</time></trkpt><trkpt lat="47.3951054945713" lon="5.235601157431066"><ele>245.0</ele><time>2026-04-06T14:38:03.974Z</time></trkpt><trkpt lat="47.395036767978596" lon="5.235689113615849"><ele>244.6</ele><time>2026-04-06T14:38:04.974Z</time></trkpt><trkpt lat="47.394965414023694" lon="5.235783308074766"><ele>244.2</ele><time>2026-04-06T14:38:05.974Z</time></trkpt><trkpt lat="47.39489511782497" lon="5.235883670361518"><ele>243.8</ele><time>2026-04-06T14:38:06.974Z</time></trkpt><trkpt lat="47.39481738469036" lon="5.235982024793326"><ele>243.4</ele><time>2026-04-06T14:38:07.974Z</time></trkpt><trkpt lat="47.39473714491618" lon="5.236081667025253"><ele>243.0</ele><time>2026-04-06T14:38:08.974Z</time></trkpt><trkpt lat="47.394654017969415" lon="5.236180588350221"><ele>243.0</ele><time>2026-04-06T14:38:09.974Z</time></trkpt><trkpt lat="47.39457207866064" lon="5.236282343512617"><ele>243.0</ele><time>2026-04-06T14:38:10.974Z</time></trkpt><trkpt lat="47.39448923521171" lon="5.236385134691529"><ele>243.0</ele><time>2026-04-06T14:38:11.974Z</time></trkpt><trkpt lat="47.39440662231467" lon="5.236488840585885"><ele>243.0</ele><time>2026-04-06T14:38:12.974Z</time></trkpt><trkpt lat="47.39432695663645" lon="5.236591818032511"><ele>243.0</ele><time>2026-04-06T14:38:13.974Z</time></trkpt><trkpt lat="47.39424641293961" lon="5.236692986409393"><ele>241.2</ele><time>2026-04-06T14:38:14.974Z</time></trkpt><trkpt lat="47.394163473384744" lon="5.236794689101995"><ele>239.4</ele><time>2026-04-06T14:38:15.974Z</time></trkpt><trkpt lat="47.39408137829177" lon="5.236889089726223"><ele>237.59999999999997</ele><time>2026-04-06T14:38:16.974Z</time></trkpt><trkpt lat="47.39399918121436" lon="5.236983502450577"><ele>235.79999999999998</ele><time>2026-04-06T14:38:17.974Z</time></trkpt><trkpt lat="47.3939184154177" lon="5.237076551382812"><ele>234.0</ele><time>2026-04-06T14:38:18.974Z</time></trkpt><trkpt lat="47.39384162674131" lon="5.237171980742881"><ele>234.0</ele><time>2026-04-06T14:38:19.974Z</time></trkpt><trkpt lat="47.39376898602825" lon="5.237265314525365"><ele>233.99999999999997</ele><time>2026-04-06T14:38:20.974Z</time></trkpt><trkpt lat="47.393694548374306" lon="5.237358813407005"><ele>233.99999999999997</ele><time>2026-04-06T14:38:21.974Z</time></trkpt><trkpt lat="47.39361992139872" lon="5.2374482182424265"><ele>234.0</ele><time>2026-04-06T14:38:22.974Z</time></trkpt><trkpt lat="47.39354621379323" lon="5.237530532752377"><ele>234.0</ele><time>2026-04-06T14:38:23.974Z</time></trkpt><trkpt lat="47.393478329323926" lon="5.237618768820894"><ele>233.33333333333334</ele><time>2026-04-06T14:38:24.974Z</time></trkpt><trkpt lat="47.393409527523694" lon="5.237702727971909"><ele>232.66666666666669</ele><time>2026-04-06T14:38:25.974Z</time></trkpt><trkpt lat="47.39334194995898" lon="5.237785364154694"><ele>232.0</ele><time>2026-04-06T14:38:26.974Z</time></trkpt><trkpt lat="47.39327112429018" lon="5.237876163190896"><ele>231.33333333333334</ele><time>2026-04-06T14:38:27.974Z</time></trkpt><trkpt lat="47.393201454280764" lon="5.23795634775954"><ele>230.66666666666669</ele><time>2026-04-06T14:38:28.974Z</time></trkpt><trkpt lat="47.39313046246109" lon="5.238038303635067"><ele>230.0</ele><time>2026-04-06T14:38:29.974Z</time></trkpt><trkpt lat="47.39306218750894" lon="5.238118263176603"><ele>229.50000000000003</ele><time>2026-04-06T14:38:30.974Z</time></trkpt><trkpt lat="47.392993563616166" lon="5.2381997506150855"><ele>229.0</ele><time>2026-04-06T14:38:31.974Z</time></trkpt><trkpt lat="47.392927226409014" lon="5.238282702824539"><ele>228.5</ele><time>2026-04-06T14:38:32.974Z</time></trkpt><trkpt lat="47.39286258835109" lon="5.238364000287322"><ele>228.0</ele><time>2026-04-06T14:38:33.974Z</time></trkpt><trkpt lat="47.39279904466711" lon="5.238444768755493"><ele>227.50000000000003</ele><time>2026-04-06T14:38:34.974Z</time></trkpt><trkpt lat="47.39273146897514" lon="5.238523298401177"><ele>227.0</ele><time>2026-04-06T14:38:35.974Z</time></trkpt><trkpt lat="47.39266414722997" lon="5.238606042062327"><ele>227.00000000000003</ele><time>2026-04-06T14:38:36.974Z</time></trkpt><trkpt lat="47.39259959054782" lon="5.2386824747725536"><ele>227.0</ele><time>2026-04-06T14:38:37.974Z</time></trkpt><trkpt lat="47.392536417927396" lon="5.238759111316176"><ele>227.0</ele><time>2026-04-06T14:38:38.974Z</time></trkpt><trkpt lat="47.39247107506225" lon="5.238833165873383"><ele>227.0</ele><time>2026-04-06T14:38:39.974Z</time></trkpt><trkpt lat="47.39240604816522" lon="5.238909897920359"><ele>227.00000000000003</ele><time>2026-04-06T14:38:40.974Z</time></trkpt><trkpt lat="47.39234026564907" lon="5.238986338295093"><ele>227.0</ele><time>2026-04-06T14:38:41.974Z</time></trkpt><trkpt lat="47.39227334741291" lon="5.239064353581639"><ele>226.83333333333334</ele><time>2026-04-06T14:38:42.974Z</time></trkpt><trkpt lat="47.392211790422145" lon="5.239141493968724"><ele>226.66666666666669</ele><time>2026-04-06T14:38:43.974Z</time></trkpt><trkpt lat="47.39214838879823" lon="5.239219276099302"><ele>226.5</ele><time>2026-04-06T14:38:44.974Z</time></trkpt><trkpt lat="47.392083387883446" lon="5.239299145512087"><ele>226.33333333333331</ele><time>2026-04-06T14:38:45.974Z</time></trkpt><trkpt lat="47.392019832723435" lon="5.23937561460653"><ele>226.16666666666666</ele><time>2026-04-06T14:38:46.974Z</time></trkpt><trkpt lat="47.39195626108873" lon="5.23945289215427"><ele>226.0</ele><time>2026-04-06T14:38:47.974Z</time></trkpt><trkpt lat="47.39189350687118" lon="5.23953037343385"><ele>225.99999999999997</ele><time>2026-04-06T14:38:48.974Z</time></trkpt><trkpt lat="47.3918297811656" lon="5.239611457727808"><ele>226.0</ele><time>2026-04-06T14:38:49.974Z</time></trkpt><trkpt lat="47.391767542720174" lon="5.239686113701253"><ele>226.0</ele><time>2026-04-06T14:38:50.974Z</time></trkpt><trkpt lat="47.391703778242835" lon="5.239759100038984"><ele>226.0</ele><time>2026-04-06T14:38:51.974Z</time></trkpt><trkpt lat="47.391639710558344" lon="5.239834094105761"><ele>225.99999999999997</ele><time>2026-04-06T14:38:52.974Z</time></trkpt><trkpt lat="47.39157744301861" lon="5.239909631486496"><ele>226.0</ele><time>2026-04-06T14:38:53.974Z</time></trkpt><trkpt lat="47.39151358392077" lon="5.23998749625499"><ele>225.66666666666666</ele><time>2026-04-06T14:38:54.974Z</time></trkpt><trkpt lat="47.39145374256605" lon="5.240058846783263"><ele>225.33333333333331</ele><time>2026-04-06T14:38:55.974Z</time></trkpt><trkpt lat="47.39139722863082" lon="5.240134373879561"><ele>225.0</ele><time>2026-04-06T14:38:56.974Z</time></trkpt><trkpt lat="47.39133673855804" lon="5.24020698235221"><ele>224.66666666666669</ele><time>2026-04-06T14:38:57.974Z</time></trkpt><trkpt lat="47.39127516443144" lon="5.240277187365185"><ele>224.33333333333334</ele><time>2026-04-06T14:38:58.974Z</time></trkpt><trkpt lat="47.391217422366346" lon="5.240346526780977"><ele>224.0</ele><time>2026-04-06T14:38:59.974Z</time></trkpt><trkpt lat="47.39115857558026" lon="5.240416132178652"><ele>224.0</ele><time>2026-04-06T14:39:00.974Z</time></trkpt><trkpt lat="47.39110303754519" lon="5.240483877101286"><ele>224.0</ele><time>2026-04-06T14:39:01.974Z</time></trkpt><trkpt lat="47.391046961038754" lon="5.2405507900580846"><ele>224.0</ele><time>2026-04-06T14:39:02.974Z</time></trkpt><trkpt lat="47.39099570903843" lon="5.2406167779418515"><ele>224.0</ele><time>2026-04-06T14:39:03.974Z</time></trkpt><trkpt lat="47.39094235985801" lon="5.24067875705174"><ele>224.0</ele><time>2026-04-06T14:39:04.974Z</time></trkpt><trkpt lat="47.39088970958829" lon="5.240743678179643"><ele>224.0</ele><time>2026-04-06T14:39:05.974Z</time></trkpt><trkpt lat="47.39083935245613" lon="5.2408077033895095"><ele>224.0</ele><time>2026-04-06T14:39:06.973Z</time></trkpt><trkpt lat="47.3907885268476" lon="5.24087068382317"><ele>223.79999999999998</ele><time>2026-04-06T14:39:07.973Z</time></trkpt><trkpt lat="47.390691049208264" lon="5.2409829968258785"><ele>223.59999999999997</ele><time>2026-04-06T14:39:09.973Z</time></trkpt><trkpt lat="47.39064035954376" lon="5.241040459591078"><ele>223.4</ele><time>2026-04-06T14:39:10.973Z</time></trkpt><trkpt lat="47.39054938812304" lon="5.241163580303297"><ele>223.2</ele><time>2026-04-06T14:39:12.973Z</time></trkpt><trkpt lat="47.39049780244748" lon="5.241221491069969"><ele>223.0</ele><time>2026-04-06T14:39:13.973Z</time></trkpt><trkpt lat="47.39039756070695" lon="5.2413382276407505"><ele>223.0</ele><time>2026-04-06T14:39:15.973Z</time></trkpt><trkpt lat="47.39030946633289" lon="5.241449749257108"><ele>223.0</ele><time>2026-04-06T14:39:17.973Z</time></trkpt><trkpt lat="47.39025769680972" lon="5.241504848455172"><ele>223.0</ele><time>2026-04-06T14:39:18.973Z</time></trkpt><trkpt lat="47.39017353172112" lon="5.2416249050603385"><ele>223.0</ele><time>2026-04-06T14:39:20.973Z</time></trkpt><trkpt lat="47.39009110406741" lon="5.241738388466185"><ele>223.0</ele><time>2026-04-06T14:39:22.973Z</time></trkpt><trkpt lat="47.38999052248736" lon="5.24184339937862"><ele>223.0</ele><time>2026-04-06T14:39:24.973Z</time></trkpt><trkpt lat="47.38989659254173" lon="5.241959727550194"><ele>223.0</ele><time>2026-04-06T14:39:26.973Z</time></trkpt><trkpt lat="47.38981393637712" lon="5.2420764387636165"><ele>223.0</ele><time>2026-04-06T14:39:28.973Z</time></trkpt><trkpt lat="47.38971774699725" lon="5.242186932413685"><ele>223.0</ele><time>2026-04-06T14:39:30.973Z</time></trkpt><trkpt lat="47.3896205773947" lon="5.24229755432604"><ele>223.8</ele><time>2026-04-06T14:39:32.973Z</time></trkpt><trkpt lat="47.38952907784027" lon="5.242406801152073"><ele>224.60000000000002</ele><time>2026-04-06T14:39:34.973Z</time></trkpt><trkpt lat="47.38943298700943" lon="5.24252232228252"><ele>225.39999999999998</ele><time>2026-04-06T14:39:36.973Z</time></trkpt><trkpt lat="47.38938529467495" lon="5.242584768197223"><ele>226.2</ele><time>2026-04-06T14:39:37.973Z</time></trkpt><trkpt lat="47.3892909134834" lon="5.242696756947672"><ele>227.0</ele><time>2026-04-06T14:39:39.973Z</time></trkpt><trkpt lat="47.38919896003033" lon="5.242812640670414"><ele>227.0</ele><time>2026-04-06T14:39:41.973Z</time></trkpt><trkpt lat="47.38910477294718" lon="5.242924607266856"><ele>227.0</ele><time>2026-04-06T14:39:43.973Z</time></trkpt><trkpt lat="47.38900776758188" lon="5.243038701181591"><ele>227.0</ele><time>2026-04-06T14:39:45.973Z</time></trkpt><trkpt lat="47.38891844379226" lon="5.243149201067917"><ele>227.0</ele><time>2026-04-06T14:39:47.973Z</time></trkpt><trkpt lat="47.38882842825633" lon="5.243268297654043"><ele>227.25</ele><time>2026-04-06T14:39:49.973Z</time></trkpt><trkpt lat="47.3887345148978" lon="5.243378786755456"><ele>227.5</ele><time>2026-04-06T14:39:51.973Z</time></trkpt><trkpt lat="47.38864837941613" lon="5.243491269936301"><ele>227.75</ele><time>2026-04-06T14:39:53.973Z</time></trkpt><trkpt lat="47.388557579451145" lon="5.243609898510833"><ele>228.0</ele><time>2026-04-06T14:39:55.973Z</time></trkpt><trkpt lat="47.38846151781114" lon="5.243728253209663"><ele>228.0</ele><time>2026-04-06T14:39:57.973Z</time></trkpt><trkpt lat="47.38837062530248" lon="5.243839288407556"><ele>228.0</ele><time>2026-04-06T14:39:59.973Z</time></trkpt><trkpt lat="47.388269283512656" lon="5.243943684962818"><ele>228.0</ele><time>2026-04-06T14:40:01.973Z</time></trkpt><trkpt lat="47.38817265601222" lon="5.244060921485663"><ele>228.0</ele><time>2026-04-06T14:40:03.973Z</time></trkpt><trkpt lat="47.3880711617364" lon="5.244160757340347"><ele>228.0</ele><time>2026-04-06T14:40:05.973Z</time></trkpt><trkpt lat="47.38796902641944" lon="5.244248804179267"><ele>228.0</ele><time>2026-04-06T14:40:07.973Z</time></trkpt><trkpt lat="47.38787425085205" lon="5.244335851536416"><ele>228.0</ele><time>2026-04-06T14:40:09.973Z</time></trkpt><trkpt lat="47.387782141524625" lon="5.244412040016273"><ele>228.0</ele><time>2026-04-06T14:40:11.973Z</time></trkpt><trkpt lat="47.38769596725724" lon="5.2444928840796585"><ele>228.0</ele><time>2026-04-06T14:40:13.973Z</time></trkpt><trkpt lat="47.3876136422269" lon="5.244555742189588"><ele>228.0</ele><time>2026-04-06T14:40:15.973Z</time></trkpt><trkpt lat="47.38754903175954" lon="5.244510999256499"><ele>228.0</ele><time>2026-04-06T14:40:17.973Z</time></trkpt><trkpt lat="47.38752980979182" lon="5.244397792764911"><ele>228.0</ele><time>2026-04-06T14:40:19.974Z</time></trkpt><trkpt lat="47.3875568360916" lon="5.244273671319666"><ele>228.0</ele><time>2026-04-06T14:40:21.974Z</time></trkpt><trkpt lat="47.38757920555606" lon="5.244135427610975"><ele>228.0</ele><time>2026-04-06T14:40:23.974Z</time></trkpt><trkpt lat="47.387602913996446" lon="5.243976247014089"><ele>228.0</ele><time>2026-04-06T14:40:25.974Z</time></trkpt><trkpt lat="47.387625460099585" lon="5.24380921466421"><ele>227.60000000000002</ele><time>2026-04-06T14:40:27.974Z</time></trkpt><trkpt lat="47.38764814103973" lon="5.243632779662026"><ele>227.20000000000002</ele><time>2026-04-06T14:40:29.974Z</time></trkpt><trkpt lat="47.387664215742774" lon="5.24352595477722"><ele>226.8</ele><time>2026-04-06T14:40:30.974Z</time></trkpt><trkpt lat="47.387660168037335" lon="5.243403786383153"><ele>226.4</ele><time>2026-04-06T14:40:31.974Z</time></trkpt><trkpt lat="47.38771198658988" lon="5.243228121755822"><ele>226.0</ele><time>2026-04-06T14:40:33.974Z</time></trkpt><trkpt lat="47.387719575181684" lon="5.243116499973367"><ele>225.66666666666666</ele><time>2026-04-06T14:40:34.974Z</time></trkpt><trkpt lat="47.387717210506054" lon="5.2430167095769376"><ele>225.33333333333331</ele><time>2026-04-06T14:40:35.974Z</time></trkpt><trkpt lat="47.387752177989825" lon="5.2428750230094225"><ele>225.0</ele><time>2026-04-06T14:40:37.974Z</time></trkpt><trkpt lat="47.387764752951114" lon="5.2427730610407925"><ele>224.66666666666669</ele><time>2026-04-06T14:40:38.974Z</time></trkpt><trkpt lat="47.38777926996712" lon="5.242662265725464"><ele>224.33333333333334</ele><time>2026-04-06T14:40:39.974Z</time></trkpt><trkpt lat="47.38779607934841" lon="5.242554334856625"><ele>224.0</ele><time>2026-04-06T14:40:40.974Z</time></trkpt><trkpt lat="47.38781596094465" lon="5.242435021503924"><ele>224.00000000000003</ele><time>2026-04-06T14:40:41.974Z</time></trkpt><trkpt lat="47.38782819673004" lon="5.242313061574153"><ele>224.0</ele><time>2026-04-06T14:40:42.974Z</time></trkpt><trkpt lat="47.3878491168931" lon="5.242188142259094"><ele>224.0</ele><time>2026-04-06T14:40:43.974Z</time></trkpt><trkpt lat="47.38786608953051" lon="5.242060358922941"><ele>224.0</ele><time>2026-04-06T14:40:44.974Z</time></trkpt><trkpt lat="47.38788151063978" lon="5.241937026032966"><ele>224.00000000000003</ele><time>2026-04-06T14:40:45.974Z</time></trkpt><trkpt lat="47.38789323710911" lon="5.241805927445167"><ele>224.0</ele><time>2026-04-06T14:40:46.974Z</time></trkpt><trkpt lat="47.38790804874905" lon="5.241679906246287"><ele>223.50000000000003</ele><time>2026-04-06T14:40:47.974Z</time></trkpt><trkpt lat="47.387925499441664" lon="5.241557026158813"><ele>223.0</ele><time>2026-04-06T14:40:48.974Z</time></trkpt><trkpt lat="47.3879418637592" lon="5.24143616213771"><ele>222.5</ele><time>2026-04-06T14:40:49.974Z</time></trkpt><trkpt lat="47.38796089851879" lon="5.241318601756625"><ele>222.0</ele><time>2026-04-06T14:40:50.974Z</time></trkpt><trkpt lat="47.38797614140518" lon="5.241205030981428"><ele>221.50000000000003</ele><time>2026-04-06T14:40:51.974Z</time></trkpt><trkpt lat="47.387990036333456" lon="5.241091236884219"><ele>221.0</ele><time>2026-04-06T14:40:52.974Z</time></trkpt><trkpt lat="47.388004998237896" lon="5.240985892881736"><ele>220.83333333333334</ele><time>2026-04-06T14:40:53.974Z</time></trkpt><trkpt lat="47.38802167315806" lon="5.240880586122939"><ele>220.66666666666669</ele><time>2026-04-06T14:40:54.974Z</time></trkpt><trkpt lat="47.38803524267229" lon="5.240782212406668"><ele>220.5</ele><time>2026-04-06T14:40:55.974Z</time></trkpt><trkpt lat="47.388048343878935" lon="5.240685696781542"><ele>220.33333333333331</ele><time>2026-04-06T14:40:56.974Z</time></trkpt><trkpt lat="47.38806210082363" lon="5.240593863056723"><ele>220.16666666666666</ele><time>2026-04-06T14:40:57.974Z</time></trkpt><trkpt lat="47.3880844401865" lon="5.240421309939534"><ele>220.0</ele><time>2026-04-06T14:40:59.974Z</time></trkpt><trkpt lat="47.388108753391215" lon="5.2402580886038495"><ele>220.5</ele><time>2026-04-06T14:41:01.974Z</time></trkpt><trkpt lat="47.388131713138534" lon="5.2400848435926175"><ele>221.0</ele><time>2026-04-06T14:41:03.974Z</time></trkpt><trkpt lat="47.38815383225064" lon="5.239912035142494"><ele>221.5</ele><time>2026-04-06T14:41:05.974Z</time></trkpt><trkpt lat="47.38817864233894" lon="5.239744608537675"><ele>222.0</ele><time>2026-04-06T14:41:07.974Z</time></trkpt><trkpt lat="47.388200621356255" lon="5.239571153651419"><ele>222.5</ele><time>2026-04-06T14:41:09.974Z</time></trkpt><trkpt lat="47.38822534422772" lon="5.239405193084319"><ele>223.0</ele><time>2026-04-06T14:41:11.973Z</time></trkpt><trkpt lat="47.38824445169895" lon="5.239231248292564"><ele>223.5</ele><time>2026-04-06T14:41:13.973Z</time></trkpt><trkpt lat="47.38827099420742" lon="5.239066305678737"><ele>224.0</ele><time>2026-04-06T14:41:15.973Z</time></trkpt><trkpt lat="47.38829641746314" lon="5.238895640023855"><ele>224.39999999999998</ele><time>2026-04-06T14:41:17.973Z</time></trkpt><trkpt lat="47.388312813415396" lon="5.23874409217696"><ele>224.79999999999998</ele><time>2026-04-06T14:41:19.973Z</time></trkpt><trkpt lat="47.388335577094615" lon="5.2385830510499725"><ele>225.20000000000002</ele><time>2026-04-06T14:41:21.972Z</time></trkpt><trkpt lat="47.38835251537288" lon="5.238426396888318"><ele>225.60000000000002</ele><time>2026-04-06T14:41:23.973Z</time></trkpt><trkpt lat="47.38837834289329" lon="5.238273601111383"><ele>226.0</ele><time>2026-04-06T14:41:25.972Z</time></trkpt><trkpt lat="47.38840381010554" lon="5.238086079659148"><ele>226.20000000000002</ele><time>2026-04-06T14:41:27.972Z</time></trkpt><trkpt lat="47.38842818381951" lon="5.237974462768717"><ele>226.40000000000003</ele><time>2026-04-06T14:41:29.972Z</time></trkpt><trkpt lat="47.388448394402765" lon="5.237809885297435"><ele>226.6</ele><time>2026-04-06T14:41:31.972Z</time></trkpt><trkpt lat="47.38846225710243" lon="5.2376559772990054"><ele>226.8</ele><time>2026-04-06T14:41:33.972Z</time></trkpt><trkpt lat="47.38848815960866" lon="5.237499643163118"><ele>227.0</ele><time>2026-04-06T14:41:35.972Z</time></trkpt><trkpt lat="47.38852135477043" lon="5.237345560654763"><ele>227.6</ele><time>2026-04-06T14:41:37.972Z</time></trkpt><trkpt lat="47.38853996846028" lon="5.237203691461592"><ele>228.2</ele><time>2026-04-06T14:41:39.972Z</time></trkpt><trkpt lat="47.38856042802704" lon="5.23706552163333"><ele>228.8</ele><time>2026-04-06T14:41:41.972Z</time></trkpt><trkpt lat="47.38856459603816" lon="5.2369333685207815"><ele>229.4</ele><time>2026-04-06T14:41:43.972Z</time></trkpt><trkpt lat="47.388583572021034" lon="5.236810684561195"><ele>230.0</ele><time>2026-04-06T14:41:45.972Z</time></trkpt><trkpt lat="47.38859862729457" lon="5.236689580876681"><ele>230.00000000000003</ele><time>2026-04-06T14:41:47.972Z</time></trkpt><trkpt lat="47.3886170377507" lon="5.236570020301893"><ele>230.0</ele><time>2026-04-06T14:41:49.972Z</time></trkpt><trkpt lat="47.38863300803413" lon="5.236457132310271"><ele>230.0</ele><time>2026-04-06T14:41:51.973Z</time></trkpt><trkpt lat="47.38865781788834" lon="5.236353207139532"><ele>230.0</ele><time>2026-04-06T14:41:53.973Z</time></trkpt><trkpt lat="47.38863691793641" lon="5.236248322358552"><ele>230.00000000000003</ele><time>2026-04-06T14:41:55.973Z</time></trkpt><trkpt lat="47.38861032070336" lon="5.236158246323343"><ele>230.0</ele><time>2026-04-06T14:41:57.973Z</time></trkpt><trkpt lat="47.388585456242055" lon="5.236047340127752"><ele>230.83333333333334</ele><time>2026-04-06T14:41:59.973Z</time></trkpt><trkpt lat="47.3885712172816" lon="5.235942435222578"><ele>231.66666666666669</ele><time>2026-04-06T14:42:01.973Z</time></trkpt><trkpt lat="47.38855281279459" lon="5.235816011111121"><ele>232.5</ele><time>2026-04-06T14:42:03.973Z</time></trkpt><trkpt lat="47.38852121867086" lon="5.235709311332451"><ele>233.33333333333331</ele><time>2026-04-06T14:42:05.973Z</time></trkpt><trkpt lat="47.388501412577675" lon="5.235605067025316"><ele>234.16666666666666</ele><time>2026-04-06T14:42:07.973Z</time></trkpt><trkpt lat="47.38850733224578" lon="5.2354915071457695"><ele>235.0</ele><time>2026-04-06T14:42:09.973Z</time></trkpt><trkpt lat="47.38851714945436" lon="5.23536971392358"><ele>236.83333333333331</ele><time>2026-04-06T14:42:11.973Z</time></trkpt><trkpt lat="47.38852533035906" lon="5.23524480613537"><ele>238.66666666666666</ele><time>2026-04-06T14:42:13.973Z</time></trkpt><trkpt lat="47.388536491175955" lon="5.2351326760020775"><ele>240.5</ele><time>2026-04-06T14:42:15.973Z</time></trkpt><trkpt lat="47.38846011006395" lon="5.235144975519378"><ele>242.33333333333331</ele><time>2026-04-06T14:42:19.973Z</time></trkpt><trkpt lat="47.38837877383559" lon="5.235130118950182"><ele>244.16666666666666</ele><time>2026-04-06T14:42:22.973Z</time></trkpt><trkpt lat="47.388294865126404" lon="5.235167688009023"><ele>246.0</ele><time>2026-04-06T14:42:25.973Z</time></trkpt><trkpt lat="47.38822750981172" lon="5.235200195082549"><ele>246.0</ele><time>2026-04-06T14:42:27.973Z</time></trkpt><trkpt lat="47.38818089288705" lon="5.235280800031111"><ele>246.0</ele><time>2026-04-06T14:42:29.973Z</time></trkpt><trkpt lat="47.388127350882634" lon="5.235360090576258"><ele>246.0</ele><time>2026-04-06T14:42:31.973Z</time></trkpt><trkpt lat="47.38807413122826" lon="5.235428401323821"><ele>246.0</ele><time>2026-04-06T14:42:33.973Z</time></trkpt><trkpt lat="47.38801954527132" lon="5.2354803758755875"><ele>246.0</ele><time>2026-04-06T14:42:35.973Z</time></trkpt><trkpt lat="47.38792893947228" lon="5.235422075952776"><ele>246.0</ele><time>2026-04-06T14:42:38.973Z</time></trkpt><trkpt lat="47.38788280213902" lon="5.235332858734263"><ele>245.66666666666666</ele><time>2026-04-06T14:42:41.973Z</time></trkpt><trkpt lat="47.3878125868909" lon="5.235322438108213"><ele>245.33333333333331</ele><time>2026-04-06T14:42:43.973Z</time></trkpt><trkpt lat="47.38772841176912" lon="5.235299316565831"><ele>245.0</ele><time>2026-04-06T14:42:45.973Z</time></trkpt><trkpt lat="47.38767253367247" lon="5.235212154972389"><ele>244.66666666666666</ele><time>2026-04-06T14:42:47.973Z</time></trkpt><trkpt lat="47.38757935162769" lon="5.235242595319147"><ele>244.33333333333331</ele><time>2026-04-06T14:42:50.973Z</time></trkpt><trkpt lat="47.38748826351891" lon="5.235239233026624"><ele>244.0</ele><time>2026-04-06T14:42:52.973Z</time></trkpt><trkpt lat="47.387439689492574" lon="5.235155660704307"><ele>243.99999999999997</ele><time>2026-04-06T14:42:54.973Z</time></trkpt><trkpt lat="47.387402748441566" lon="5.235074864038945"><ele>244.0</ele><time>2026-04-06T14:42:56.973Z</time></trkpt><trkpt lat="47.38734543835218" lon="5.234998343832346"><ele>244.0</ele><time>2026-04-06T14:42:58.973Z</time></trkpt><trkpt lat="47.387244217956145" lon="5.2349828427344045"><ele>244.0</ele><time>2026-04-06T14:43:01.973Z</time></trkpt><trkpt lat="47.38717114644397" lon="5.234923835202865"><ele>243.99999999999997</ele><time>2026-04-06T14:43:03.973Z</time></trkpt><trkpt lat="47.38712346836834" lon="5.234858900664155"><ele>244.0</ele><time>2026-04-06T14:43:05.973Z</time></trkpt><trkpt lat="47.38706672489521" lon="5.234792853490022"><ele>246.16666666666666</ele><time>2026-04-06T14:43:07.973Z</time></trkpt><trkpt lat="47.38701627391586" lon="5.234730324212691"><ele>248.33333333333331</ele><time>2026-04-06T14:43:09.973Z</time></trkpt><trkpt lat="47.38694485815578" lon="5.234668281642762"><ele>250.5</ele><time>2026-04-06T14:43:11.973Z</time></trkpt><trkpt lat="47.386890313017524" lon="5.2346059349096405"><ele>252.66666666666669</ele><time>2026-04-06T14:43:13.973Z</time></trkpt><trkpt lat="47.38682314100437" lon="5.234531064574912"><ele>254.83333333333334</ele><time>2026-04-06T14:43:15.973Z</time></trkpt><trkpt lat="47.38675284867726" lon="5.234452112935727"><ele>257.0</ele><time>2026-04-06T14:43:17.972Z</time></trkpt><trkpt lat="47.386688178163105" lon="5.234375343880496"><ele>257.0</ele><time>2026-04-06T14:43:19.972Z</time></trkpt><trkpt lat="47.38661997933586" lon="5.234302378079656"><ele>257.0</ele><time>2026-04-06T14:43:21.973Z</time></trkpt><trkpt lat="47.386566755960274" lon="5.234243700793395"><ele>257.0</ele><time>2026-04-06T14:43:23.972Z</time></trkpt><trkpt lat="47.38651643342633" lon="5.234182683269564"><ele>257.0</ele><time>2026-04-06T14:43:25.972Z</time></trkpt><trkpt lat="47.38643315021644" lon="5.23411565512948"><ele>257.0</ele><time>2026-04-06T14:43:28.973Z</time></trkpt><trkpt lat="47.38637962289519" lon="5.2340525886444915"><ele>257.0</ele><time>2026-04-06T14:43:30.972Z</time></trkpt><trkpt lat="47.38631679132762" lon="5.233993773224778"><ele>258.0</ele><time>2026-04-06T14:43:32.972Z</time></trkpt><trkpt lat="47.38624238322423" lon="5.2339328427528615"><ele>259.0</ele><time>2026-04-06T14:43:35.972Z</time></trkpt><trkpt lat="47.38617245330196" lon="5.233847920866541"><ele>260.0</ele><time>2026-04-06T14:43:37.972Z</time></trkpt><trkpt lat="47.38609604182218" lon="5.233787292827815"><ele>261.0</ele><time>2026-04-06T14:43:39.972Z</time></trkpt><trkpt lat="47.386031766555284" lon="5.233728516132338"><ele>262.0</ele><time>2026-04-06T14:43:41.972Z</time></trkpt><trkpt lat="47.3859724153086" lon="5.233685343053036"><ele>263.0</ele><time>2026-04-06T14:43:43.972Z</time></trkpt><trkpt lat="47.38589360977764" lon="5.2336390212214825"><ele>263.0</ele><time>2026-04-06T14:43:45.972Z</time></trkpt><trkpt lat="47.38581104777952" lon="5.233617804617868"><ele>263.0</ele><time>2026-04-06T14:43:47.972Z</time></trkpt><trkpt lat="47.38574089351629" lon="5.233601014879531"><ele>263.0</ele><time>2026-04-06T14:43:49.972Z</time></trkpt><trkpt lat="47.385656518081" lon="5.2335320031659425"><ele>263.0</ele><time>2026-04-06T14:43:52.972Z</time></trkpt><trkpt lat="47.385635376433505" lon="5.233440093907516"><ele>263.0</ele><time>2026-04-06T14:43:54.972Z</time></trkpt><trkpt lat="47.38555403454243" lon="5.2334040961357315"><ele>263.0</ele><time>2026-04-06T14:43:56.972Z</time></trkpt><trkpt lat="47.385470602487764" lon="5.23344990653568"><ele>262.6666666666667</ele><time>2026-04-06T14:43:58.972Z</time></trkpt><trkpt lat="47.38540803721171" lon="5.2335255131650955"><ele>262.33333333333337</ele><time>2026-04-06T14:44:00.972Z</time></trkpt><trkpt lat="47.385341293451724" lon="5.233602174225335"><ele>262.0</ele><time>2026-04-06T14:44:02.972Z</time></trkpt><trkpt lat="47.38527270096461" lon="5.233681494234815"><ele>261.6666666666667</ele><time>2026-04-06T14:44:04.972Z</time></trkpt><trkpt lat="47.38524123338433" lon="5.2337967243875205"><ele>261.3333333333333</ele><time>2026-04-06T14:44:06.972Z</time></trkpt><trkpt lat="47.38518559947006" lon="5.233910293881189"><ele>261.0</ele><time>2026-04-06T14:44:08.972Z</time></trkpt><trkpt lat="47.38514597423781" lon="5.234038028762756"><ele>260.8</ele><time>2026-04-06T14:44:10.972Z</time></trkpt><trkpt lat="47.3851174924208" lon="5.234160712437011"><ele>260.6</ele><time>2026-04-06T14:44:12.972Z</time></trkpt><trkpt lat="47.38506052899939" lon="5.234276625088286"><ele>260.4</ele><time>2026-04-06T14:44:14.972Z</time></trkpt><trkpt lat="47.38501423445392" lon="5.23442636734824"><ele>260.2</ele><time>2026-04-06T14:44:16.972Z</time></trkpt><trkpt lat="47.38496474655553" lon="5.2345744947883475"><ele>260.0</ele><time>2026-04-06T14:44:18.972Z</time></trkpt><trkpt lat="47.38491892765444" lon="5.234745686455541"><ele>259.6</ele><time>2026-04-06T14:44:20.972Z</time></trkpt><trkpt lat="47.38486534106258" lon="5.234921226803421"><ele>259.2</ele><time>2026-04-06T14:44:22.972Z</time></trkpt><trkpt lat="47.38480512541045" lon="5.235060752507665"><ele>258.8</ele><time>2026-04-06T14:44:24.972Z</time></trkpt><trkpt lat="47.384763111484396" lon="5.235218104686984"><ele>258.4</ele><time>2026-04-06T14:44:26.972Z</time></trkpt><trkpt lat="47.38472963615071" lon="5.235303526123634"><ele>258.0</ele><time>2026-04-06T14:44:28.972Z</time></trkpt><trkpt lat="47.38462551624245" lon="5.235354937243611"><ele>257.8</ele><time>2026-04-06T14:44:30.972Z</time></trkpt><trkpt lat="47.384507498913266" lon="5.235376526879614"><ele>257.6</ele><time>2026-04-06T14:44:32.972Z</time></trkpt><trkpt lat="47.38440884476366" lon="5.235375085350885"><ele>257.4</ele><time>2026-04-06T14:44:34.972Z</time></trkpt><trkpt lat="47.384281031700766" lon="5.235334784396119"><ele>257.2</ele><time>2026-04-06T14:44:36.972Z</time></trkpt><trkpt lat="47.38420139914363" lon="5.235312930271945"><ele>257.0</ele><time>2026-04-06T14:44:37.972Z</time></trkpt><trkpt lat="47.38411194769398" lon="5.235275734718383"><ele>257.0</ele><time>2026-04-06T14:44:39.972Z</time></trkpt><trkpt lat="47.38400458744592" lon="5.235265004586074"><ele>257.0</ele><time>2026-04-06T14:44:41.972Z</time></trkpt><trkpt lat="47.383887786408344" lon="5.235251742273061"><ele>257.0</ele><time>2026-04-06T14:44:43.972Z</time></trkpt><trkpt lat="47.38379385193457" lon="5.235225939513515"><ele>257.0</ele><time>2026-04-06T14:44:45.972Z</time></trkpt><trkpt lat="47.38368978166271" lon="5.235205635098093"><ele>257.0</ele><time>2026-04-06T14:44:47.972Z</time></trkpt><trkpt lat="47.38356522549819" lon="5.235173094141551"><ele>256.8</ele><time>2026-04-06T14:44:49.972Z</time></trkpt><trkpt lat="47.38345372254835" lon="5.2351482767837725"><ele>256.6</ele><time>2026-04-06T14:44:51.972Z</time></trkpt><trkpt lat="47.383350338018005" lon="5.23510317224269"><ele>256.40000000000003</ele><time>2026-04-06T14:44:53.972Z</time></trkpt><trkpt lat="47.383250539816736" lon="5.235065861935413"><ele>256.2</ele><time>2026-04-06T14:44:55.972Z</time></trkpt><trkpt lat="47.383145835547644" lon="5.235039924533705"><ele>256.0</ele><time>2026-04-06T14:44:57.972Z</time></trkpt><trkpt lat="47.383033362434404" lon="5.23500993444285"><ele>255.0</ele><time>2026-04-06T14:44:59.972Z</time></trkpt><trkpt lat="47.382938302631274" lon="5.234997871106363"><ele>254.0</ele><time>2026-04-06T14:45:01.972Z</time></trkpt><trkpt lat="47.38281288449467" lon="5.234938900321011"><ele>253.0</ele><time>2026-04-06T14:45:03.972Z</time></trkpt><trkpt lat="47.38268219135676" lon="5.234906742886551"><ele>252.0</ele><time>2026-04-06T14:45:05.972Z</time></trkpt><trkpt lat="47.382577725953574" lon="5.234899701491763"><ele>252.0</ele><time>2026-04-06T14:45:07.972Z</time></trkpt><trkpt lat="47.38246148666033" lon="5.234884158185814"><ele>252.0</ele><time>2026-04-06T14:45:09.972Z</time></trkpt><trkpt lat="47.38238979993301" lon="5.234878984497691"><ele>252.0</ele><time>2026-04-06T14:45:10.972Z</time></trkpt><trkpt lat="47.38232484653724" lon="5.234884935190389"><ele>252.0</ele><time>2026-04-06T14:45:11.972Z</time></trkpt><trkpt lat="47.38220492774035" lon="5.2348647241360755"><ele>252.0</ele><time>2026-04-06T14:45:13.972Z</time></trkpt><trkpt lat="47.38209338024612" lon="5.234871072190818"><ele>252.39999999999998</ele><time>2026-04-06T14:45:15.972Z</time></trkpt><trkpt lat="47.38198284631216" lon="5.234869235519751"><ele>252.79999999999998</ele><time>2026-04-06T14:45:17.972Z</time></trkpt><trkpt lat="47.38190400874802" lon="5.2348580985414275"><ele>253.2</ele><time>2026-04-06T14:45:18.972Z</time></trkpt><trkpt lat="47.38177732218827" lon="5.2348049082518875"><ele>253.6</ele><time>2026-04-06T14:45:20.972Z</time></trkpt><trkpt lat="47.38171132404474" lon="5.234779540821743"><ele>254.0</ele><time>2026-04-06T14:45:21.972Z</time></trkpt><trkpt lat="47.38164284492919" lon="5.2347453453307375"><ele>254.0</ele><time>2026-04-06T14:45:22.972Z</time></trkpt><trkpt lat="47.381523508810304" lon="5.2346675616263445"><ele>253.99999999999997</ele><time>2026-04-06T14:45:24.972Z</time></trkpt><trkpt lat="47.38146354448871" lon="5.2346352356772865"><ele>253.99999999999997</ele><time>2026-04-06T14:45:25.972Z</time></trkpt><trkpt lat="47.38135849659801" lon="5.234580122470351"><ele>254.0</ele><time>2026-04-06T14:45:27.972Z</time></trkpt><trkpt lat="47.381285540277645" lon="5.234547854566058"><ele>254.0</ele><time>2026-04-06T14:45:28.973Z</time></trkpt><trkpt lat="47.381214143987926" lon="5.234516168925823"><ele>252.6</ele><time>2026-04-06T14:45:29.972Z</time></trkpt><trkpt lat="47.381088885523525" lon="5.234476640453619"><ele>251.2</ele><time>2026-04-06T14:45:31.972Z</time></trkpt><trkpt lat="47.38102455830805" lon="5.234438743253544"><ele>249.79999999999998</ele><time>2026-04-06T14:45:32.973Z</time></trkpt><trkpt lat="47.38090068260026" lon="5.234392155262156"><ele>248.39999999999998</ele><time>2026-04-06T14:45:34.972Z</time></trkpt><trkpt lat="47.38081856546008" lon="5.234354346481348"><ele>247.0</ele><time>2026-04-06T14:45:35.972Z</time></trkpt><trkpt lat="47.380741058659325" lon="5.234312256718847"><ele>246.99999999999997</ele><time>2026-04-06T14:45:36.972Z</time></trkpt><trkpt lat="47.38068155330302" lon="5.234260510090596"><ele>247.0</ele><time>2026-04-06T14:45:37.972Z</time></trkpt><trkpt lat="47.38062268075237" lon="5.234202284458703"><ele>247.0</ele><time>2026-04-06T14:45:38.972Z</time></trkpt><trkpt lat="47.38055755042222" lon="5.234156597338916"><ele>247.0</ele><time>2026-04-06T14:45:39.972Z</time></trkpt><trkpt lat="47.38045338974913" lon="5.23406421142285"><ele>246.99999999999997</ele><time>2026-04-06T14:45:41.972Z</time></trkpt><trkpt lat="47.38038975897066" lon="5.234021960085906"><ele>247.0</ele><time>2026-04-06T14:45:42.972Z</time></trkpt><trkpt lat="47.38032614759121" lon="5.233958171600701"><ele>247.2</ele><time>2026-04-06T14:45:43.972Z</time></trkpt><trkpt lat="47.38027455467156" lon="5.233896583249703"><ele>247.39999999999998</ele><time>2026-04-06T14:45:44.972Z</time></trkpt><trkpt lat="47.380223308610645" lon="5.2338387197476655"><ele>247.60000000000002</ele><time>2026-04-06T14:45:45.972Z</time></trkpt><trkpt lat="47.380108553549135" lon="5.233764470209737"><ele>247.8</ele><time>2026-04-06T14:45:47.972Z</time></trkpt><trkpt lat="47.38000193465712" lon="5.233642980652056"><ele>248.0</ele><time>2026-04-06T14:45:49.972Z</time></trkpt><trkpt lat="47.379913815962055" lon="5.233524111415191"><ele>248.0</ele><time>2026-04-06T14:45:51.972Z</time></trkpt><trkpt lat="47.379828077100406" lon="5.233412413302787"><ele>248.0</ele><time>2026-04-06T14:45:53.972Z</time></trkpt><trkpt lat="47.379760735599646" lon="5.233300511232371"><ele>248.0</ele><time>2026-04-06T14:45:55.972Z</time></trkpt><trkpt lat="47.37967658591865" lon="5.233198243895251"><ele>248.0</ele><time>2026-04-06T14:45:57.972Z</time></trkpt><trkpt lat="47.379585924777544" lon="5.233074622471072"><ele>248.0</ele><time>2026-04-06T14:45:59.972Z</time></trkpt><trkpt lat="47.3795273490999" lon="5.233007227553782"><ele>247.83333333333334</ele><time>2026-04-06T14:46:00.972Z</time></trkpt><trkpt lat="47.379434592058125" lon="5.232901183364757"><ele>247.66666666666669</ele><time>2026-04-06T14:46:02.972Z</time></trkpt><trkpt lat="47.379381170666086" lon="5.232851592875504"><ele>247.5</ele><time>2026-04-06T14:46:03.972Z</time></trkpt><trkpt lat="47.379301413858926" lon="5.232793474019265"><ele>247.33333333333331</ele><time>2026-04-06T14:46:05.972Z</time></trkpt><trkpt lat="47.37920101681107" lon="5.23271851632477"><ele>247.16666666666666</ele><time>2026-04-06T14:46:07.972Z</time></trkpt><trkpt lat="47.379146152156196" lon="5.2326724833865494"><ele>247.0</ele><time>2026-04-06T14:46:08.972Z</time></trkpt><trkpt lat="47.37904872125638" lon="5.23260003280688"><ele>247.0</ele><time>2026-04-06T14:46:10.972Z</time></trkpt><trkpt lat="47.378991405608865" lon="5.232552874397655"><ele>247.0</ele><time>2026-04-06T14:46:11.972Z</time></trkpt><trkpt lat="47.37890792754671" lon="5.232476416006916"><ele>247.0</ele><time>2026-04-06T14:46:13.972Z</time></trkpt><trkpt lat="47.37883001800053" lon="5.232415756836237"><ele>247.0</ele><time>2026-04-06T14:46:15.972Z</time></trkpt><trkpt lat="47.37872356748328" lon="5.23236211889886"><ele>247.0</ele><time>2026-04-06T14:46:17.972Z</time></trkpt><trkpt lat="47.37862289353997" lon="5.232315884029281"><ele>246.83333333333331</ele><time>2026-04-06T14:46:19.972Z</time></trkpt><trkpt lat="47.378550331424975" lon="5.23223094638725"><ele>246.66666666666666</ele><time>2026-04-06T14:46:21.972Z</time></trkpt><trkpt lat="47.37848508329786" lon="5.23214878658037"><ele>246.5</ele><time>2026-04-06T14:46:23.972Z</time></trkpt><trkpt lat="47.378421679609865" lon="5.232115072563356"><ele>246.33333333333331</ele><time>2026-04-06T14:46:24.972Z</time></trkpt><trkpt lat="47.3783607706353" lon="5.232068143061129"><ele>246.16666666666666</ele><time>2026-04-06T14:46:25.972Z</time></trkpt><trkpt lat="47.37829410534658" lon="5.232008399146737"><ele>246.0</ele><time>2026-04-06T14:46:26.972Z</time></trkpt><trkpt lat="47.37822086363609" lon="5.231967677762951"><ele>246.00000000000003</ele><time>2026-04-06T14:46:27.972Z</time></trkpt><trkpt lat="47.37815454160904" lon="5.231914076466249"><ele>246.0</ele><time>2026-04-06T14:46:28.972Z</time></trkpt><trkpt lat="47.37809233602093" lon="5.231866447235778"><ele>246.00000000000003</ele><time>2026-04-06T14:46:29.972Z</time></trkpt><trkpt lat="47.37803450242034" lon="5.231816432905444"><ele>246.00000000000003</ele><time>2026-04-06T14:46:30.972Z</time></trkpt><trkpt lat="47.377975214891634" lon="5.231759527398416"><ele>246.0</ele><time>2026-04-06T14:46:31.972Z</time></trkpt><trkpt lat="47.37791080688983" lon="5.231728092690777"><ele>246.00000000000003</ele><time>2026-04-06T14:46:32.972Z</time></trkpt><trkpt lat="47.37784685602477" lon="5.231702816759715"><ele>246.00000000000003</ele><time>2026-04-06T14:46:33.972Z</time></trkpt><trkpt lat="47.377790285238056" lon="5.231654015833631"><ele>244.8</ele><time>2026-04-06T14:46:34.972Z</time></trkpt><trkpt lat="47.37769604617963" lon="5.231532978077905"><ele>243.60000000000002</ele><time>2026-04-06T14:46:36.972Z</time></trkpt><trkpt lat="47.37760961325249" lon="5.231458638673821"><ele>242.4</ele><time>2026-04-06T14:46:38.972Z</time></trkpt><trkpt lat="47.37754080748697" lon="5.2314421514403655"><ele>241.2</ele><time>2026-04-06T14:46:39.972Z</time></trkpt><trkpt lat="47.37745066902374" lon="5.231372795572077"><ele>240.0</ele><time>2026-04-06T14:46:41.972Z</time></trkpt><trkpt lat="47.37736132965556" lon="5.231276869229905"><ele>240.0</ele><time>2026-04-06T14:46:43.972Z</time></trkpt><trkpt lat="47.377272085587954" lon="5.231182360157674"><ele>240.0</ele><time>2026-04-06T14:46:45.972Z</time></trkpt><trkpt lat="47.37722460685066" lon="5.231109269309716"><ele>240.0</ele><time>2026-04-06T14:46:46.972Z</time></trkpt><trkpt lat="47.37717007437609" lon="5.2310618031286795"><ele>240.0</ele><time>2026-04-06T14:46:47.972Z</time></trkpt><trkpt lat="47.37712137490437" lon="5.2309984204861975"><ele>240.0</ele><time>2026-04-06T14:46:48.972Z</time></trkpt><trkpt lat="47.37706828152655" lon="5.230932768384069"><ele>240.0</ele><time>2026-04-06T14:46:49.972Z</time></trkpt><trkpt lat="47.37700722382219" lon="5.230858294540795"><ele>239.33333333333334</ele><time>2026-04-06T14:46:50.972Z</time></trkpt><trkpt lat="47.37691526251761" lon="5.230741868385241"><ele>238.66666666666669</ele><time>2026-04-06T14:46:52.972Z</time></trkpt><trkpt lat="47.37687055088987" lon="5.230668444401298"><ele>238.0</ele><time>2026-04-06T14:46:53.972Z</time></trkpt><trkpt lat="47.37682115834746" lon="5.230598061648855"><ele>237.33333333333334</ele><time>2026-04-06T14:46:54.972Z</time></trkpt><trkpt lat="47.37676732519012" lon="5.2305314798852525"><ele>236.66666666666669</ele><time>2026-04-06T14:46:55.972Z</time></trkpt><trkpt lat="47.376714595903486" lon="5.2304665696975885"><ele>236.0</ele><time>2026-04-06T14:46:56.972Z</time></trkpt><trkpt lat="47.376658889721234" lon="5.230399595968839"><ele>236.0</ele><time>2026-04-06T14:46:57.972Z</time></trkpt><trkpt lat="47.37660783393765" lon="5.230341833293472"><ele>236.0</ele><time>2026-04-06T14:46:58.972Z</time></trkpt><trkpt lat="47.37655653189519" lon="5.230282616516121"><ele>236.0</ele><time>2026-04-06T14:46:59.972Z</time></trkpt><trkpt lat="47.376498365074575" lon="5.230208848852938"><ele>236.0</ele><time>2026-04-06T14:47:00.972Z</time></trkpt><trkpt lat="47.37643561574095" lon="5.230146889473304"><ele>236.0</ele><time>2026-04-06T14:47:01.972Z</time></trkpt><trkpt lat="47.37638093944273" lon="5.230092754546854"><ele>236.0</ele><time>2026-04-06T14:47:02.972Z</time></trkpt><trkpt lat="47.37633862990882" lon="5.230022137001163"><ele>236.0</ele><time>2026-04-06T14:47:03.972Z</time></trkpt><trkpt lat="47.37629599950524" lon="5.229945871357756"><ele>234.66666666666669</ele><time>2026-04-06T14:47:04.972Z</time></trkpt><trkpt lat="47.37625585278519" lon="5.22986165455629"><ele>233.33333333333334</ele><time>2026-04-06T14:47:05.972Z</time></trkpt><trkpt lat="47.37617354857084" lon="5.229702244037083"><ele>232.0</ele><time>2026-04-06T14:47:07.972Z</time></trkpt><trkpt lat="47.3761332713983" lon="5.2296218046285485"><ele>230.66666666666669</ele><time>2026-04-06T14:47:08.972Z</time></trkpt><trkpt lat="47.376090826388406" lon="5.229527213335621"><ele>229.33333333333334</ele><time>2026-04-06T14:47:09.972Z</time></trkpt><trkpt lat="47.37605078293268" lon="5.229449158643728"><ele>228.0</ele><time>2026-04-06T14:47:10.972Z</time></trkpt><trkpt lat="47.376006973535034" lon="5.22937933563513"><ele>228.0</ele><time>2026-04-06T14:47:11.972Z</time></trkpt><trkpt lat="47.37595705813571" lon="5.2293105455544495"><ele>228.0</ele><time>2026-04-06T14:47:12.972Z</time></trkpt><trkpt lat="47.375901130287694" lon="5.229251159031041"><ele>228.0</ele><time>2026-04-06T14:47:13.972Z</time></trkpt><trkpt lat="47.37581667457838" lon="5.229118782992737"><ele>228.0</ele><time>2026-04-06T14:47:15.972Z</time></trkpt><trkpt lat="47.375716306177935" lon="5.228953507079088"><ele>228.0</ele><time>2026-04-06T14:47:17.972Z</time></trkpt><trkpt lat="47.37567013399148" lon="5.228869545240236"><ele>227.8</ele><time>2026-04-06T14:47:18.972Z</time></trkpt><trkpt lat="47.375578892787125" lon="5.2287584811156655"><ele>227.60000000000002</ele><time>2026-04-06T14:47:20.972Z</time></trkpt><trkpt lat="47.37547858472821" lon="5.22868688002487"><ele>227.39999999999998</ele><time>2026-04-06T14:47:22.972Z</time></trkpt><trkpt lat="47.375400044549934" lon="5.22856894606236"><ele>227.2</ele><time>2026-04-06T14:47:24.972Z</time></trkpt><trkpt lat="47.375341211338394" lon="5.228499739577111"><ele>227.0</ele><time>2026-04-06T14:47:25.972Z</time></trkpt><trkpt lat="47.37529666266441" lon="5.228429742152234"><ele>227.0</ele><time>2026-04-06T14:47:26.972Z</time></trkpt><trkpt lat="47.37521370215678" lon="5.228330302700643"><ele>227.0</ele><time>2026-04-06T14:47:28.972Z</time></trkpt><trkpt lat="47.37511563892244" lon="5.228219147047467"><ele>227.0</ele><time>2026-04-06T14:47:30.972Z</time></trkpt><trkpt lat="47.37506173060167" lon="5.2281619208249595"><ele>227.0</ele><time>2026-04-06T14:47:31.972Z</time></trkpt><trkpt lat="47.37498500781942" lon="5.228058150157091"><ele>227.0</ele><time>2026-04-06T14:47:33.971Z</time></trkpt><trkpt lat="47.37490673163192" lon="5.227956899546875"><ele>227.83333333333334</ele><time>2026-04-06T14:47:35.972Z</time></trkpt><trkpt lat="47.374862072103994" lon="5.227850118080017"><ele>228.66666666666669</ele><time>2026-04-06T14:47:37.972Z</time></trkpt><trkpt lat="47.37482516579461" lon="5.227754729289089"><ele>229.5</ele><time>2026-04-06T14:47:39.972Z</time></trkpt><trkpt lat="47.3747730627043" lon="5.227636013930396"><ele>230.33333333333331</ele><time>2026-04-06T14:47:41.972Z</time></trkpt><trkpt lat="47.3747299178755" lon="5.227510940509434"><ele>231.16666666666666</ele><time>2026-04-06T14:47:43.972Z</time></trkpt><trkpt lat="47.37469989129906" lon="5.2274292147306625"><ele>232.0</ele><time>2026-04-06T14:47:45.972Z</time></trkpt><trkpt lat="47.37464062201178" lon="5.227379176184981"><ele>232.49999999999997</ele><time>2026-04-06T14:47:47.972Z</time></trkpt><trkpt lat="47.37453740492282" lon="5.227391926532425"><ele>233.0</ele><time>2026-04-06T14:47:49.972Z</time></trkpt><trkpt lat="47.374453313488125" lon="5.227413070057414"><ele>233.5</ele><time>2026-04-06T14:47:51.972Z</time></trkpt><trkpt lat="47.374375230568674" lon="5.227442772937647"><ele>234.0</ele><time>2026-04-06T14:47:53.972Z</time></trkpt><trkpt lat="47.37427121322945" lon="5.227382022036417"><ele>234.49999999999997</ele><time>2026-04-06T14:47:55.972Z</time></trkpt><trkpt lat="47.37420455428354" lon="5.2273976695220075"><ele>235.0</ele><time>2026-04-06T14:47:57.972Z</time></trkpt><trkpt lat="47.374125028326596" lon="5.227433688247359"><ele>235.0</ele><time>2026-04-06T14:47:59.972Z</time></trkpt><trkpt lat="47.37403037283614" lon="5.227448563908102"><ele>235.0</ele><time>2026-04-06T14:48:01.972Z</time></trkpt><trkpt lat="47.373967489771445" lon="5.227468608769897"><ele>235.0</ele><time>2026-04-06T14:48:02.972Z</time></trkpt><trkpt lat="47.37389134125111" lon="5.227510149956717"><ele>235.0</ele><time>2026-04-06T14:48:04.972Z</time></trkpt><trkpt lat="47.37379029830879" lon="5.227547486172956"><ele>235.0</ele><time>2026-04-06T14:48:06.972Z</time></trkpt><trkpt lat="47.37368266174232" lon="5.227525655242871"><ele>234.83333333333331</ele><time>2026-04-06T14:48:08.972Z</time></trkpt><trkpt lat="47.373597712047946" lon="5.2276051579138"><ele>234.66666666666666</ele><time>2026-04-06T14:48:10.972Z</time></trkpt><trkpt lat="47.373510180228664" lon="5.227680372526192"><ele>234.5</ele><time>2026-04-06T14:48:12.972Z</time></trkpt><trkpt lat="47.37343357248037" lon="5.227809841257391"><ele>234.33333333333331</ele><time>2026-04-06T14:48:14.972Z</time></trkpt><trkpt lat="47.37339028246243" lon="5.227878217992946"><ele>234.16666666666666</ele><time>2026-04-06T14:48:15.972Z</time></trkpt><trkpt lat="47.37334578298342" lon="5.227951006683103"><ele>234.0</ele><time>2026-04-06T14:48:16.972Z</time></trkpt><trkpt lat="47.37325999210826" lon="5.228051228317798"><ele>234.0</ele><time>2026-04-06T14:48:18.972Z</time></trkpt><trkpt lat="47.37319971782942" lon="5.22810669131705"><ele>233.99999999999997</ele><time>2026-04-06T14:48:19.972Z</time></trkpt><trkpt lat="47.3730965660444" lon="5.228154213875734"><ele>233.99999999999997</ele><time>2026-04-06T14:48:21.972Z</time></trkpt><trkpt lat="47.37303222217754" lon="5.228174899735103"><ele>234.0</ele><time>2026-04-06T14:48:22.972Z</time></trkpt><trkpt lat="47.37291957713656" lon="5.228211190781114"><ele>234.0</ele><time>2026-04-06T14:48:24.972Z</time></trkpt><trkpt lat="47.37281158144972" lon="5.2282449590426285"><ele>233.2</ele><time>2026-04-06T14:48:26.972Z</time></trkpt><trkpt lat="47.37271456220264" lon="5.228303765881195"><ele>232.39999999999998</ele><time>2026-04-06T14:48:28.972Z</time></trkpt><trkpt lat="47.372624065737746" lon="5.2284167654392455"><ele>231.6</ele><time>2026-04-06T14:48:30.972Z</time></trkpt><trkpt lat="47.372503696435146" lon="5.228465557123958"><ele>230.8</ele><time>2026-04-06T14:48:32.972Z</time></trkpt><trkpt lat="47.372420782623585" lon="5.228496692685637"><ele>230.0</ele><time>2026-04-06T14:48:34.972Z</time></trkpt><trkpt lat="47.37235771274962" lon="5.228509227531579"><ele>230.00000000000003</ele><time>2026-04-06T14:48:37.972Z</time></trkpt><trkpt lat="47.372286008242945" lon="5.228498094027068"><ele>230.0</ele><time>2026-04-06T14:48:43.972Z</time></trkpt><trkpt lat="47.37219990332156" lon="5.228502221550598"><ele>230.0</ele><time>2026-04-06T14:48:51.972Z</time></trkpt><trkpt lat="47.372113776773126" lon="5.228482635397085"><ele>230.0</ele><time>2026-04-06T14:48:54.972Z</time></trkpt><trkpt lat="47.37203942255547" lon="5.228465814960462"><ele>230.00000000000003</ele><time>2026-04-06T14:48:56.972Z</time></trkpt><trkpt lat="47.37196606185102" lon="5.228458128729587"><ele>230.0</ele><time>2026-04-06T14:48:58.972Z</time></trkpt><trkpt lat="47.37188600333528" lon="5.228437869237736"><ele>230.2</ele><time>2026-04-06T14:49:00.972Z</time></trkpt><trkpt lat="47.371819718373686" lon="5.228425109387594"><ele>230.4</ele><time>2026-04-06T14:49:02.972Z</time></trkpt><trkpt lat="47.371730238869134" lon="5.228465306272487"><ele>230.60000000000002</ele><time>2026-04-06T14:49:04.972Z</time></trkpt><trkpt lat="47.37164489581256" lon="5.22856513519638"><ele>230.8</ele><time>2026-04-06T14:49:06.972Z</time></trkpt><trkpt lat="47.37154516822815" lon="5.228651328505426"><ele>231.0</ele><time>2026-04-06T14:49:08.972Z</time></trkpt><trkpt lat="47.371457294264374" lon="5.228730658533932"><ele>231.0</ele><time>2026-04-06T14:49:10.972Z</time></trkpt><trkpt lat="47.371390065677545" lon="5.2288068083540375"><ele>231.00000000000003</ele><time>2026-04-06T14:49:12.972Z</time></trkpt><trkpt lat="47.37129771451676" lon="5.228898707325473"><ele>231.00000000000003</ele><time>2026-04-06T14:49:14.972Z</time></trkpt><trkpt lat="47.37117001777694" lon="5.228990227699354"><ele>231.0</ele><time>2026-04-06T14:49:16.972Z</time></trkpt><trkpt lat="47.3711208199101" lon="5.229058344293046"><ele>231.0</ele><time>2026-04-06T14:49:17.972Z</time></trkpt><trkpt lat="47.37106626186037" lon="5.229125547965727"><ele>230.33333333333334</ele><time>2026-04-06T14:49:18.972Z</time></trkpt><trkpt lat="47.37099180106078" lon="5.229233923198886"><ele>229.66666666666669</ele><time>2026-04-06T14:49:20.972Z</time></trkpt><trkpt lat="47.370891396191084" lon="5.229345103190515"><ele>229.0</ele><time>2026-04-06T14:49:22.972Z</time></trkpt><trkpt lat="47.37084146961518" lon="5.229403703183366"><ele>228.33333333333334</ele><time>2026-04-06T14:49:23.972Z</time></trkpt><trkpt lat="47.37078343761354" lon="5.229444578561332"><ele>227.66666666666669</ele><time>2026-04-06T14:49:24.972Z</time></trkpt><trkpt lat="47.370735129665306" lon="5.229507568789468"><ele>227.0</ele><time>2026-04-06T14:49:25.972Z</time></trkpt><trkpt lat="47.37064467356723" lon="5.229593220352372"><ele>227.0</ele><time>2026-04-06T14:49:27.972Z</time></trkpt><trkpt lat="47.3705469564129" lon="5.229686917700443"><ele>227.0</ele><time>2026-04-06T14:49:29.972Z</time></trkpt><trkpt lat="47.3704491803037" lon="5.229785133367753"><ele>227.0</ele><time>2026-04-06T14:49:31.972Z</time></trkpt><trkpt lat="47.37035143336419" lon="5.229867075499918"><ele>227.0</ele><time>2026-04-06T14:49:33.972Z</time></trkpt><trkpt lat="47.37029116557454" lon="5.229949549217156"><ele>227.0</ele><time>2026-04-06T14:49:35.972Z</time></trkpt><trkpt lat="47.37024486026753" lon="5.230037319609994"><ele>226.33333333333334</ele><time>2026-04-06T14:49:37.972Z</time></trkpt><trkpt lat="47.37020748107212" lon="5.23013351389902"><ele>225.66666666666669</ele><time>2026-04-06T14:49:39.972Z</time></trkpt><trkpt lat="47.37020720267522" lon="5.230246612786199"><ele>225.0</ele><time>2026-04-06T14:49:42.972Z</time></trkpt><trkpt lat="47.3701499167494" lon="5.230318567185019"><ele>224.33333333333331</ele><time>2026-04-06T14:49:45.972Z</time></trkpt><trkpt lat="47.37006938147817" lon="5.230347117833753"><ele>223.66666666666666</ele><time>2026-04-06T14:49:47.972Z</time></trkpt><trkpt lat="47.36997656626261" lon="5.230389163652689"><ele>223.0</ele><time>2026-04-06T14:49:49.972Z</time></trkpt><trkpt lat="47.369860957871936" lon="5.230411551628548"><ele>223.0</ele><time>2026-04-06T14:49:51.972Z</time></trkpt><trkpt lat="47.36975039393728" lon="5.230383601487801"><ele>223.0</ele><time>2026-04-06T14:49:53.972Z</time></trkpt><trkpt lat="47.36964193650339" lon="5.230372065656746"><ele>223.0</ele><time>2026-04-06T14:49:55.972Z</time></trkpt><trkpt lat="47.36952944771546" lon="5.230376461083564"><ele>223.0</ele><time>2026-04-06T14:49:57.972Z</time></trkpt><trkpt lat="47.36942194817209" lon="5.230366600282331"><ele>223.0</ele><time>2026-04-06T14:49:59.972Z</time></trkpt><trkpt lat="47.36931035182478" lon="5.2303455698478185"><ele>223.4</ele><time>2026-04-06T14:50:01.972Z</time></trkpt><trkpt lat="47.369200814894405" lon="5.2303096161977125"><ele>223.8</ele><time>2026-04-06T14:50:03.972Z</time></trkpt><trkpt lat="47.36909664289265" lon="5.23024962242992"><ele>224.2</ele><time>2026-04-06T14:50:05.972Z</time></trkpt><trkpt lat="47.369009190934456" lon="5.23018186482415"><ele>224.6</ele><time>2026-04-06T14:50:07.972Z</time></trkpt><trkpt lat="47.368935142098486" lon="5.230094081320995"><ele>225.0</ele><time>2026-04-06T14:50:09.972Z</time></trkpt><trkpt lat="47.36885569518059" lon="5.230013641729672"><ele>225.0</ele><time>2026-04-06T14:50:11.972Z</time></trkpt><trkpt lat="47.36877525591761" lon="5.229929668870252"><ele>225.0</ele><time>2026-04-06T14:50:13.972Z</time></trkpt><trkpt lat="47.368703917832065" lon="5.229840559133774"><ele>225.0</ele><time>2026-04-06T14:50:15.972Z</time></trkpt><trkpt lat="47.368636420150104" lon="5.229748607311138"><ele>225.0</ele><time>2026-04-06T14:50:17.972Z</time></trkpt><trkpt lat="47.36856092336112" lon="5.229742049502287"><ele>225.0</ele><time>2026-04-06T14:50:19.972Z</time></trkpt><trkpt lat="47.368523334414235" lon="5.2298445039606145"><ele>225.0</ele><time>2026-04-06T14:50:21.972Z</time></trkpt><trkpt lat="47.36849315302238" lon="5.229949752672199"><ele>225.0</ele><time>2026-04-06T14:50:23.972Z</time></trkpt><trkpt lat="47.36846155746508" lon="5.230039067424553"><ele>225.0</ele><time>2026-04-06T14:50:25.972Z</time></trkpt><trkpt lat="47.36844560037111" lon="5.23017701673876"><ele>225.0</ele><time>2026-04-06T14:50:27.972Z</time></trkpt><trkpt lat="47.368427300302315" lon="5.230295454989483"><ele>225.0</ele><time>2026-04-06T14:50:29.972Z</time></trkpt><trkpt lat="47.36839668291139" lon="5.230425331552888"><ele>225.0</ele><time>2026-04-06T14:50:31.972Z</time></trkpt><trkpt lat="47.36836829892355" lon="5.230551921332937"><ele>225.0</ele><time>2026-04-06T14:50:33.972Z</time></trkpt><trkpt lat="47.36833937512912" lon="5.23067519223272"><ele>224.6</ele><time>2026-04-06T14:50:35.972Z</time></trkpt><trkpt lat="47.36830937790893" lon="5.230792238217116"><ele>224.2</ele><time>2026-04-06T14:50:37.972Z</time></trkpt><trkpt lat="47.36828310274442" lon="5.230922016757946"><ele>223.8</ele><time>2026-04-06T14:50:39.972Z</time></trkpt><trkpt lat="47.36826343575911" lon="5.2310662272216994"><ele>223.4</ele><time>2026-04-06T14:50:41.972Z</time></trkpt><trkpt lat="47.36822885633344" lon="5.2312017193907785"><ele>223.0</ele><time>2026-04-06T14:50:43.972Z</time></trkpt><trkpt lat="47.36819759474125" lon="5.231338189036996"><ele>222.2</ele><time>2026-04-06T14:50:45.972Z</time></trkpt><trkpt lat="47.368156735361055" lon="5.231486154208741"><ele>221.4</ele><time>2026-04-06T14:50:47.972Z</time></trkpt><trkpt lat="47.36812994254769" lon="5.231633877851788"><ele>220.59999999999997</ele><time>2026-04-06T14:50:49.972Z</time></trkpt><trkpt lat="47.368112722513445" lon="5.23177437491431"><ele>219.79999999999998</ele><time>2026-04-06T14:50:51.972Z</time></trkpt><trkpt lat="47.36807489443514" lon="5.231908464395931"><ele>219.0</ele><time>2026-04-06T14:50:53.972Z</time></trkpt><trkpt lat="47.36804743740675" lon="5.232051748052194"><ele>220.39999999999998</ele><time>2026-04-06T14:50:55.972Z</time></trkpt><trkpt lat="47.36800623582031" lon="5.232189485492886"><ele>221.79999999999998</ele><time>2026-04-06T14:50:57.972Z</time></trkpt><trkpt lat="47.36798355536793" lon="5.232334538302835"><ele>223.20000000000002</ele><time>2026-04-06T14:50:59.972Z</time></trkpt><trkpt lat="47.367950441377225" lon="5.2324826752238485"><ele>224.60000000000002</ele><time>2026-04-06T14:51:01.972Z</time></trkpt><trkpt lat="47.36789326665333" lon="5.232619954652521"><ele>226.0</ele><time>2026-04-06T14:51:03.972Z</time></trkpt><trkpt lat="47.36783375622923" lon="5.232732021490459"><ele>226.0</ele><time>2026-04-06T14:51:05.972Z</time></trkpt><trkpt lat="47.36776340177903" lon="5.232831234672284"><ele>226.00000000000003</ele><time>2026-04-06T14:51:07.972Z</time></trkpt><trkpt lat="47.36766444210063" lon="5.2329149434555"><ele>226.00000000000003</ele><time>2026-04-06T14:51:09.972Z</time></trkpt><trkpt lat="47.367563760489766" lon="5.232985729996591"><ele>226.0</ele><time>2026-04-06T14:51:11.972Z</time></trkpt><trkpt lat="47.367493992646935" lon="5.233058875287942"><ele>226.0</ele><time>2026-04-06T14:51:13.972Z</time></trkpt><trkpt lat="47.3674612908277" lon="5.233178112516848"><ele>226.66666666666666</ele><time>2026-04-06T14:51:16.972Z</time></trkpt><trkpt lat="47.36737124996889" lon="5.233175421083277"><ele>227.33333333333331</ele><time>2026-04-06T14:51:20.972Z</time></trkpt><trkpt lat="47.367294197742396" lon="5.233150643477798"><ele>228.0</ele><time>2026-04-06T14:51:23.972Z</time></trkpt><trkpt lat="47.367224672039896" lon="5.233183723916271"><ele>228.66666666666669</ele><time>2026-04-06T14:51:25.972Z</time></trkpt><trkpt lat="47.367163470065215" lon="5.233240790332447"><ele>229.33333333333334</ele><time>2026-04-06T14:51:27.972Z</time></trkpt><trkpt lat="47.367087046925256" lon="5.233310035178532"><ele>230.0</ele><time>2026-04-06T14:51:29.972Z</time></trkpt><trkpt lat="47.367028598610005" lon="5.233392054774902"><ele>230.0</ele><time>2026-04-06T14:51:31.972Z</time></trkpt><trkpt lat="47.36697843071782" lon="5.233504320203848"><ele>230.0</ele><time>2026-04-06T14:51:33.972Z</time></trkpt><trkpt lat="47.36693036407885" lon="5.2336186563697575"><ele>230.0</ele><time>2026-04-06T14:51:35.972Z</time></trkpt><trkpt lat="47.366847920476104" lon="5.233716039047059"><ele>230.0</ele><time>2026-04-06T14:51:37.972Z</time></trkpt><trkpt lat="47.36680319793963" lon="5.233828432527124"><ele>230.0</ele><time>2026-04-06T14:51:39.972Z</time></trkpt><trkpt lat="47.36675264785493" lon="5.233951732049247"><ele>230.2</ele><time>2026-04-06T14:51:41.972Z</time></trkpt><trkpt lat="47.36668710425029" lon="5.234080590179549"><ele>230.4</ele><time>2026-04-06T14:51:43.972Z</time></trkpt><trkpt lat="47.36658387942431" lon="5.234173911602109"><ele>230.60000000000002</ele><time>2026-04-06T14:51:45.972Z</time></trkpt><trkpt lat="47.36647244001698" lon="5.234197415332632"><ele>230.8</ele><time>2026-04-06T14:51:47.972Z</time></trkpt><trkpt lat="47.366370516616364" lon="5.234242347726217"><ele>231.0</ele><time>2026-04-06T14:51:49.972Z</time></trkpt><trkpt lat="47.36627156724062" lon="5.234271389679354"><ele>231.0</ele><time>2026-04-06T14:51:51.972Z</time></trkpt><trkpt lat="47.36616297259209" lon="5.234309855251957"><ele>231.00000000000003</ele><time>2026-04-06T14:51:53.971Z</time></trkpt><trkpt lat="47.3660610654676" lon="5.23434570193609"><ele>231.00000000000003</ele><time>2026-04-06T14:51:55.972Z</time></trkpt><trkpt lat="47.3659651678506" lon="5.234380088741831"><ele>231.0</ele><time>2026-04-06T14:51:57.972Z</time></trkpt><trkpt lat="47.36586593131936" lon="5.2344216736609575"><ele>231.0</ele><time>2026-04-06T14:51:59.972Z</time></trkpt><trkpt lat="47.36577316693138" lon="5.234444508744729"><ele>231.0</ele><time>2026-04-06T14:52:01.972Z</time></trkpt><trkpt lat="47.36568824838235" lon="5.234467862807315"><ele>231.00000000000003</ele><time>2026-04-06T14:52:03.972Z</time></trkpt><trkpt lat="47.36560071176154" lon="5.234477444034479"><ele>231.00000000000003</ele><time>2026-04-06T14:52:05.972Z</time></trkpt><trkpt lat="47.36550247170865" lon="5.234538980635114"><ele>231.0</ele><time>2026-04-06T14:52:07.972Z</time></trkpt><trkpt lat="47.36541667862481" lon="5.234584963049914"><ele>231.0</ele><time>2026-04-06T14:52:09.972Z</time></trkpt><trkpt lat="47.365312583812255" lon="5.2346079705575335"><ele>231.60000000000002</ele><time>2026-04-06T14:52:11.972Z</time></trkpt><trkpt lat="47.365208540113834" lon="5.2346227914778956"><ele>232.20000000000002</ele><time>2026-04-06T14:52:13.972Z</time></trkpt><trkpt lat="47.365119485732436" lon="5.234654008217459"><ele>232.79999999999998</ele><time>2026-04-06T14:52:15.972Z</time></trkpt><trkpt lat="47.365025688910066" lon="5.2346818924172025"><ele>233.39999999999998</ele><time>2026-04-06T14:52:17.972Z</time></trkpt><trkpt lat="47.36492366454052" lon="5.234701619743341"><ele>234.0</ele><time>2026-04-06T14:52:19.972Z</time></trkpt><trkpt lat="47.3648333477719" lon="5.234740284517796"><ele>234.0</ele><time>2026-04-06T14:52:21.972Z</time></trkpt><trkpt lat="47.36474010292501" lon="5.234776078773526"><ele>233.99999999999997</ele><time>2026-04-06T14:52:23.972Z</time></trkpt><trkpt lat="47.36463285318158" lon="5.234816052404469"><ele>233.99999999999997</ele><time>2026-04-06T14:52:25.972Z</time></trkpt><trkpt lat="47.36452187657896" lon="5.234826013221819"><ele>234.0</ele><time>2026-04-06T14:52:27.972Z</time></trkpt><trkpt lat="47.364457463036246" lon="5.234844562555357"><ele>234.0</ele><time>2026-04-06T14:52:28.973Z</time></trkpt><trkpt lat="47.364348208656445" lon="5.23485697119904"><ele>233.2</ele><time>2026-04-06T14:52:30.973Z</time></trkpt><trkpt lat="47.36423660175805" lon="5.2348889282613635"><ele>232.39999999999998</ele><time>2026-04-06T14:52:32.973Z</time></trkpt><trkpt lat="47.364132940324495" lon="5.234923180213536"><ele>231.6</ele><time>2026-04-06T14:52:34.973Z</time></trkpt><trkpt lat="47.364027343409774" lon="5.234936090863107"><ele>230.8</ele><time>2026-04-06T14:52:36.974Z</time></trkpt><trkpt lat="47.363923909130875" lon="5.234933221059319"><ele>230.0</ele><time>2026-04-06T14:52:38.974Z</time></trkpt><trkpt lat="47.36385350982044" lon="5.234958757623541"><ele>230.00000000000003</ele><time>2026-04-06T14:52:41.974Z</time></trkpt><trkpt lat="47.363784184141984" lon="5.234993883212299"><ele>230.0</ele><time>2026-04-06T14:52:48.975Z</time></trkpt><trkpt lat="47.36372509455423" lon="5.235031120645125"><ele>230.0</ele><time>2026-04-06T14:52:52.975Z</time></trkpt><trkpt lat="47.36365536044629" lon="5.235065563262363"><ele>230.0</ele><time>2026-04-06T14:53:04.975Z</time></trkpt><trkpt lat="47.36356548827062" lon="5.235073057985092"><ele>230.00000000000003</ele><time>2026-04-06T14:53:07.975Z</time></trkpt><trkpt lat="47.36348005810797" lon="5.235082616919676"><ele>230.0</ele><time>2026-04-06T14:53:09.975Z</time></trkpt><trkpt lat="47.36340298287795" lon="5.235108494269676"><ele>230.0</ele><time>2026-04-06T14:53:11.975Z</time></trkpt><trkpt lat="47.36330948110097" lon="5.235133714560628"><ele>230.0</ele><time>2026-04-06T14:53:13.975Z</time></trkpt><trkpt lat="47.36322423295605" lon="5.23514098628703"><ele>230.0</ele><time>2026-04-06T14:53:15.975Z</time></trkpt><trkpt lat="47.36313233052306" lon="5.235154684897728"><ele>230.0</ele><time>2026-04-06T14:53:17.975Z</time></trkpt><trkpt lat="47.363050685228146" lon="5.235178530853278"><ele>230.0</ele><time>2026-04-06T14:53:19.975Z</time></trkpt><trkpt lat="47.36296615418209" lon="5.235247339981355"><ele>230.2</ele><time>2026-04-06T14:53:21.975Z</time></trkpt><trkpt lat="47.36287784247943" lon="5.23526824235753"><ele>230.4</ele><time>2026-04-06T14:53:23.975Z</time></trkpt><trkpt lat="47.362781024054435" lon="5.2352593527502265"><ele>230.60000000000002</ele><time>2026-04-06T14:53:25.975Z</time></trkpt><trkpt lat="47.36269683964916" lon="5.235194980605023"><ele>230.8</ele><time>2026-04-06T14:53:27.975Z</time></trkpt><trkpt lat="47.36268066932641" lon="5.235065764676741"><ele>231.0</ele><time>2026-04-06T14:53:29.975Z</time></trkpt><trkpt lat="47.362697052140994" lon="5.234930362162614"><ele>231.0</ele><time>2026-04-06T14:53:31.975Z</time></trkpt><trkpt lat="47.362653203375494" lon="5.234863049874922"><ele>231.0</ele><time>2026-04-06T14:53:35.975Z</time></trkpt><trkpt lat="47.36267881373747" lon="5.234767987597611"><ele>231.0</ele><time>2026-04-06T14:53:41.975Z</time></trkpt><trkpt lat="47.36265367645061" lon="5.23485358906239"><ele>231.0</ele><time>2026-04-06T14:53:50.976Z</time></trkpt><trkpt lat="47.36263760964" lon="5.23498180700392"><ele>231.0</ele><time>2026-04-06T14:53:52.975Z</time></trkpt><trkpt lat="47.36262776683711" lon="5.235124797021122"><ele>231.0</ele><time>2026-04-06T14:53:54.975Z</time></trkpt><trkpt lat="47.3626006609747" lon="5.235266437726449"><ele>231.0</ele><time>2026-04-06T14:53:56.975Z</time></trkpt><trkpt lat="47.36258841764182" lon="5.235420342726585"><ele>231.00000000000003</ele><time>2026-04-06T14:53:58.976Z</time></trkpt><trkpt lat="47.36257065315011" lon="5.235576126789047"><ele>231.00000000000003</ele><time>2026-04-06T14:54:00.975Z</time></trkpt><trkpt lat="47.36255131443966" lon="5.235720960087111"><ele>231.0</ele><time>2026-04-06T14:54:02.975Z</time></trkpt><trkpt lat="47.36252804580851" lon="5.235876643534924"><ele>231.0</ele><time>2026-04-06T14:54:04.975Z</time></trkpt><trkpt lat="47.36251765516177" lon="5.235973436612417"><ele>230.85714285714286</ele><time>2026-04-06T14:54:05.975Z</time></trkpt><trkpt lat="47.36250550519534" lon="5.236070391752785"><ele>230.71428571428572</ele><time>2026-04-06T14:54:06.975Z</time></trkpt><trkpt lat="47.36249198566424" lon="5.236168014350692"><ele>230.57142857142856</ele><time>2026-04-06T14:54:07.975Z</time></trkpt><trkpt lat="47.362479342977224" lon="5.2362639006883"><ele>230.42857142857142</ele><time>2026-04-06T14:54:08.975Z</time></trkpt><trkpt lat="47.36247215052903" lon="5.23635876320381"><ele>230.28571428571428</ele><time>2026-04-06T14:54:09.975Z</time></trkpt><trkpt lat="47.36245579357239" lon="5.2364545054270675"><ele>230.1428571428571</ele><time>2026-04-06T14:54:10.975Z</time></trkpt><trkpt lat="47.36243934200117" lon="5.236555290506309"><ele>229.99999999999997</ele><time>2026-04-06T14:54:11.975Z</time></trkpt><trkpt lat="47.362422239989364" lon="5.236659796497046"><ele>229.71428571428567</ele><time>2026-04-06T14:54:12.975Z</time></trkpt><trkpt lat="47.36240373794065" lon="5.236760444746724"><ele>229.42857142857142</ele><time>2026-04-06T14:54:13.975Z</time></trkpt><trkpt lat="47.36239214037551" lon="5.236856638867873"><ele>229.1428571428571</ele><time>2026-04-06T14:54:14.975Z</time></trkpt><trkpt lat="47.362376595483525" lon="5.236960577005234"><ele>228.85714285714283</ele><time>2026-04-06T14:54:15.975Z</time></trkpt><trkpt lat="47.36236044458524" lon="5.237061098070981"><ele>228.57142857142856</ele><time>2026-04-06T14:54:16.975Z</time></trkpt><trkpt lat="47.362349035835045" lon="5.237162415186608"><ele>228.28571428571428</ele><time>2026-04-06T14:54:17.975Z</time></trkpt><trkpt lat="47.362332860563555" lon="5.237258259420714"><ele>228.0</ele><time>2026-04-06T14:54:18.975Z</time></trkpt><trkpt lat="47.362317282366256" lon="5.237352995296483"><ele>228.0</ele><time>2026-04-06T14:54:19.975Z</time></trkpt><trkpt lat="47.36230110964942" lon="5.237448892395404"><ele>228.0</ele><time>2026-04-06T14:54:20.975Z</time></trkpt><trkpt lat="47.362267031832694" lon="5.237624554213024"><ele>228.0</ele><time>2026-04-06T14:54:22.975Z</time></trkpt><trkpt lat="47.36225015572435" lon="5.237721441259552"><ele>228.0</ele><time>2026-04-06T14:54:23.975Z</time></trkpt><trkpt lat="47.36222937556015" lon="5.237883554379994"><ele>228.0</ele><time>2026-04-06T14:54:25.975Z</time></trkpt><trkpt lat="47.362197593952544" lon="5.238048780726733"><ele>227.8</ele><time>2026-04-06T14:54:27.975Z</time></trkpt><trkpt lat="47.362163895130216" lon="5.23821050056554"><ele>227.60000000000002</ele><time>2026-04-06T14:54:29.975Z</time></trkpt><trkpt lat="47.362149473183756" lon="5.2383603084733545"><ele>227.39999999999998</ele><time>2026-04-06T14:54:31.975Z</time></trkpt><trkpt lat="47.362128085648514" lon="5.238518835750995"><ele>227.2</ele><time>2026-04-06T14:54:33.975Z</time></trkpt><trkpt lat="47.36210919699723" lon="5.238688789901094"><ele>227.0</ele><time>2026-04-06T14:54:35.975Z</time></trkpt><trkpt lat="47.36207887005774" lon="5.238840642717749"><ele>226.39999999999998</ele><time>2026-04-06T14:54:37.975Z</time></trkpt><trkpt lat="47.36207231319557" lon="5.238976624805226"><ele>225.79999999999998</ele><time>2026-04-06T14:54:39.975Z</time></trkpt><trkpt lat="47.36205035899005" lon="5.239102869818702"><ele>225.2</ele><time>2026-04-06T14:54:41.975Z</time></trkpt><trkpt lat="47.36201112562678" lon="5.239253736423956"><ele>224.6</ele><time>2026-04-06T14:54:43.975Z</time></trkpt><trkpt lat="47.361997629795226" lon="5.23939253853476"><ele>224.0</ele><time>2026-04-06T14:54:45.975Z</time></trkpt><trkpt lat="47.361982444321164" lon="5.239534632853074"><ele>224.0</ele><time>2026-04-06T14:54:47.975Z</time></trkpt><trkpt lat="47.36195719481892" lon="5.239688288793801"><ele>223.99999999999997</ele><time>2026-04-06T14:54:49.975Z</time></trkpt><trkpt lat="47.36195461075989" lon="5.239822350530642"><ele>223.99999999999997</ele><time>2026-04-06T14:54:51.975Z</time></trkpt><trkpt lat="47.36192813666266" lon="5.23995300820468"><ele>224.0</ele><time>2026-04-06T14:54:53.975Z</time></trkpt><trkpt lat="47.36189653608171" lon="5.2400995675505015"><ele>224.0</ele><time>2026-04-06T14:54:55.975Z</time></trkpt><trkpt lat="47.36186277128522" lon="5.240252589409968"><ele>223.83333333333334</ele><time>2026-04-06T14:54:57.975Z</time></trkpt><trkpt lat="47.36183606450628" lon="5.240399493551901"><ele>223.66666666666669</ele><time>2026-04-06T14:54:59.975Z</time></trkpt><trkpt lat="47.361818554542985" lon="5.24052586117003"><ele>223.5</ele><time>2026-04-06T14:55:01.975Z</time></trkpt><trkpt lat="47.36180019730751" lon="5.24063926934533"><ele>223.33333333333331</ele><time>2026-04-06T14:55:03.975Z</time></trkpt><trkpt lat="47.36178243254417" lon="5.240783558486721"><ele>223.16666666666666</ele><time>2026-04-06T14:55:05.975Z</time></trkpt><trkpt lat="47.36176656972562" lon="5.240894456850986"><ele>223.0</ele><time>2026-04-06T14:55:07.975Z</time></trkpt><trkpt lat="47.36175088406342" lon="5.24104886266709"><ele>222.99999999999997</ele><time>2026-04-06T14:55:09.975Z</time></trkpt><trkpt lat="47.36171894963813" lon="5.2411847174714765"><ele>223.0</ele><time>2026-04-06T14:55:12.975Z</time></trkpt><trkpt lat="47.36172125762128" lon="5.24132476026838"><ele>223.0</ele><time>2026-04-06T14:55:14.975Z</time></trkpt><trkpt lat="47.361706635960516" lon="5.2414429950266275"><ele>223.0</ele><time>2026-04-06T14:55:16.975Z</time></trkpt><trkpt lat="47.36169693650717" lon="5.241561953196686"><ele>222.99999999999997</ele><time>2026-04-06T14:55:18.975Z</time></trkpt><trkpt lat="47.36168363129664" lon="5.241688181289751"><ele>223.0</ele><time>2026-04-06T14:55:20.975Z</time></trkpt><trkpt lat="47.361653746729644" lon="5.241789211635065"><ele>223.66666666666666</ele><time>2026-04-06T14:55:22.975Z</time></trkpt><trkpt lat="47.36163582479478" lon="5.241892561331955"><ele>224.33333333333331</ele><time>2026-04-06T14:55:24.975Z</time></trkpt><trkpt lat="47.36163109692243" lon="5.242008194603125"><ele>225.0</ele><time>2026-04-06T14:55:27.975Z</time></trkpt><trkpt lat="47.36160388001098" lon="5.242109141720019"><ele>225.66666666666669</ele><time>2026-04-06T14:55:32.975Z</time></trkpt><trkpt lat="47.36158620449052" lon="5.242198423694515"><ele>226.33333333333334</ele><time>2026-04-06T14:55:38.975Z</time></trkpt><trkpt lat="47.36151450842371" lon="5.2422500083976065"><ele>227.0</ele><time>2026-04-06T14:55:49.975Z</time></trkpt><trkpt lat="47.36142782655051" lon="5.242243549688907"><ele>226.50000000000003</ele><time>2026-04-06T14:55:52.975Z</time></trkpt><trkpt lat="47.361347002430804" lon="5.242217604481766"><ele>226.0</ele><time>2026-04-06T14:55:55.975Z</time></trkpt><trkpt lat="47.36127155915262" lon="5.242195736329026"><ele>225.5</ele><time>2026-04-06T14:55:57.976Z</time></trkpt><trkpt lat="47.36117971321127" lon="5.242166033342688"><ele>225.0</ele><time>2026-04-06T14:56:00.975Z</time></trkpt><trkpt lat="47.36110888341012" lon="5.242116469775162"><ele>224.50000000000003</ele><time>2026-04-06T14:56:02.975Z</time></trkpt><trkpt lat="47.36101364129376" lon="5.242070569344089"><ele>224.0</ele><time>2026-04-06T14:56:04.975Z</time></trkpt><trkpt lat="47.36091615460143" lon="5.242049179850922"><ele>224.00000000000003</ele><time>2026-04-06T14:56:06.976Z</time></trkpt><trkpt lat="47.360843851207555" lon="5.242018997866276"><ele>224.0</ele><time>2026-04-06T14:56:08.976Z</time></trkpt><trkpt lat="47.360781673118645" lon="5.242000052202286"><ele>224.0</ele><time>2026-04-06T14:56:10.976Z</time></trkpt><trkpt lat="47.36070353837522" lon="5.241962289234224"><ele>224.0</ele><time>2026-04-06T14:56:12.976Z</time></trkpt><trkpt lat="47.36062976955868" lon="5.2419419805631895"><ele>224.00000000000003</ele><time>2026-04-06T14:56:14.976Z</time></trkpt><trkpt lat="47.36056461453108" lon="5.241912826348229"><ele>224.0</ele><time>2026-04-06T14:56:16.976Z</time></trkpt><trkpt lat="47.360477501725384" lon="5.241858480598805"><ele>224.33333333333334</ele><time>2026-04-06T14:56:18.976Z</time></trkpt><trkpt lat="47.36039894072368" lon="5.241841054463851"><ele>224.66666666666669</ele><time>2026-04-06T14:56:20.976Z</time></trkpt><trkpt lat="47.36032234529022" lon="5.241830261616565"><ele>225.0</ele><time>2026-04-06T14:56:22.976Z</time></trkpt><trkpt lat="47.36022015185158" lon="5.241810390536239"><ele>225.33333333333331</ele><time>2026-04-06T14:56:24.976Z</time></trkpt><trkpt lat="47.36012861429259" lon="5.241784177338681"><ele>225.66666666666666</ele><time>2026-04-06T14:56:26.976Z</time></trkpt><trkpt lat="47.36004633503989" lon="5.241764249141594"><ele>226.0</ele><time>2026-04-06T14:56:28.976Z</time></trkpt><trkpt lat="47.35996271115975" lon="5.241736351145656"><ele>225.99999999999997</ele><time>2026-04-06T14:56:30.976Z</time></trkpt><trkpt lat="47.35989034538862" lon="5.241723074726222"><ele>226.0</ele><time>2026-04-06T14:56:32.976Z</time></trkpt><trkpt lat="47.35982111349046" lon="5.241704374033288"><ele>226.0</ele><time>2026-04-06T14:56:34.976Z</time></trkpt><trkpt lat="47.35974562999574" lon="5.241649963162342"><ele>226.0</ele><time>2026-04-06T14:56:36.976Z</time></trkpt><trkpt lat="47.35965016657863" lon="5.241590157262862"><ele>225.99999999999997</ele><time>2026-04-06T14:56:38.976Z</time></trkpt><trkpt lat="47.35956226955584" lon="5.241554354645534"><ele>226.0</ele><time>2026-04-06T14:56:40.976Z</time></trkpt><trkpt lat="47.35947387128048" lon="5.241554516307003"><ele>226.49999999999997</ele><time>2026-04-06T14:56:42.976Z</time></trkpt><trkpt lat="47.35938939626419" lon="5.241566123409674"><ele>227.0</ele><time>2026-04-06T14:56:44.976Z</time></trkpt><trkpt lat="47.35928801043399" lon="5.241569621714917"><ele>227.5</ele><time>2026-04-06T14:56:46.976Z</time></trkpt><trkpt lat="47.359208794943086" lon="5.2415656794714165"><ele>228.0</ele><time>2026-04-06T14:56:48.976Z</time></trkpt><trkpt lat="47.35911432870932" lon="5.24156912777843"><ele>228.49999999999997</ele><time>2026-04-06T14:56:50.976Z</time></trkpt><trkpt lat="47.35904841528487" lon="5.241577185838165"><ele>229.0</ele><time>2026-04-06T14:56:51.976Z</time></trkpt><trkpt lat="47.35896253611619" lon="5.241592306030339"><ele>229.6</ele><time>2026-04-06T14:56:53.976Z</time></trkpt><trkpt lat="47.35886612368307" lon="5.241594213661559"><ele>230.2</ele><time>2026-04-06T14:56:55.976Z</time></trkpt><trkpt lat="47.35876902274582" lon="5.241578545131961"><ele>230.79999999999998</ele><time>2026-04-06T14:56:57.976Z</time></trkpt><trkpt lat="47.35867198996448" lon="5.241568061726277"><ele>231.39999999999998</ele><time>2026-04-06T14:56:59.976Z</time></trkpt><trkpt lat="47.35858643859832" lon="5.241584254073409"><ele>232.0</ele><time>2026-04-06T14:57:01.976Z</time></trkpt><trkpt lat="47.358511307599635" lon="5.241626694781801"><ele>232.0</ele><time>2026-04-06T14:57:03.976Z</time></trkpt><trkpt lat="47.35842667326122" lon="5.241644092263431"><ele>232.0</ele><time>2026-04-06T14:57:05.976Z</time></trkpt><trkpt lat="47.35835568986181" lon="5.241674941877859"><ele>232.0</ele><time>2026-04-06T14:57:07.976Z</time></trkpt><trkpt lat="47.35825815562421" lon="5.241728976968084"><ele>232.0</ele><time>2026-04-06T14:57:09.976Z</time></trkpt><trkpt lat="47.358147788275154" lon="5.241746922680922"><ele>232.0</ele><time>2026-04-06T14:57:11.976Z</time></trkpt><trkpt lat="47.35803800426975" lon="5.241761436074922"><ele>232.0</ele><time>2026-04-06T14:57:13.976Z</time></trkpt><trkpt lat="47.35793030689279" lon="5.241770461378573"><ele>232.0</ele><time>2026-04-06T14:57:15.976Z</time></trkpt><trkpt lat="47.357820565843866" lon="5.241789001461305"><ele>232.0</ele><time>2026-04-06T14:57:17.976Z</time></trkpt><trkpt lat="47.35772899592971" lon="5.241819437430172"><ele>232.0</ele><time>2026-04-06T14:57:19.976Z</time></trkpt><trkpt lat="47.35763926614227" lon="5.241822369064208"><ele>232.0</ele><time>2026-04-06T14:57:21.976Z</time></trkpt><trkpt lat="47.35755490179406" lon="5.241821006294971"><ele>232.0</ele><time>2026-04-06T14:57:23.976Z</time></trkpt><trkpt lat="47.357453208631085" lon="5.24181556002804"><ele>232.0</ele><time>2026-04-06T14:57:25.976Z</time></trkpt><trkpt lat="47.35737909485585" lon="5.24169084739252"><ele>232.0</ele><time>2026-04-06T14:57:27.976Z</time></trkpt><trkpt lat="47.357381183152654" lon="5.2415361956742075"><ele>232.0</ele><time>2026-04-06T14:57:29.976Z</time></trkpt><trkpt lat="47.35738712828729" lon="5.241379555714569"><ele>232.0</ele><time>2026-04-06T14:57:31.976Z</time></trkpt><trkpt lat="47.3573858649476" lon="5.241221915138492"><ele>232.25</ele><time>2026-04-06T14:57:33.976Z</time></trkpt><trkpt lat="47.357383641026146" lon="5.2410616746848255"><ele>232.5</ele><time>2026-04-06T14:57:35.976Z</time></trkpt><trkpt lat="47.35740169913927" lon="5.24089462855085"><ele>232.75</ele><time>2026-04-06T14:57:37.976Z</time></trkpt><trkpt lat="47.35740499901664" lon="5.240719110907597"><ele>233.0</ele><time>2026-04-06T14:57:39.976Z</time></trkpt><trkpt lat="47.35741079832147" lon="5.240543871039239"><ele>233.2</ele><time>2026-04-06T14:57:41.976Z</time></trkpt><trkpt lat="47.35741315822536" lon="5.2404492330488015"><ele>233.4</ele><time>2026-04-06T14:57:42.976Z</time></trkpt><trkpt lat="47.35741839327601" lon="5.240271065879054"><ele>233.59999999999997</ele><time>2026-04-06T14:57:44.976Z</time></trkpt><trkpt lat="47.3574311574345" lon="5.2401081221388965"><ele>233.79999999999998</ele><time>2026-04-06T14:57:46.976Z</time></trkpt><trkpt lat="47.3574379402278" lon="5.240014567487235"><ele>234.0</ele><time>2026-04-06T14:57:47.976Z</time></trkpt><trkpt lat="47.35744451214205" lon="5.239860579677198"><ele>233.39999999999998</ele><time>2026-04-06T14:57:49.976Z</time></trkpt><trkpt lat="47.357451638647944" lon="5.239698102594681"><ele>232.79999999999998</ele><time>2026-04-06T14:57:51.976Z</time></trkpt><trkpt lat="47.35747082239922" lon="5.23960263057718"><ele>232.20000000000002</ele><time>2026-04-06T14:57:52.976Z</time></trkpt><trkpt lat="47.3574899033151" lon="5.239425938978071"><ele>231.60000000000002</ele><time>2026-04-06T14:57:54.976Z</time></trkpt><trkpt lat="47.357509810496694" lon="5.239247619904435"><ele>231.0</ele><time>2026-04-06T14:57:56.976Z</time></trkpt><trkpt lat="47.357523067908836" lon="5.239071280240713"><ele>230.8</ele><time>2026-04-06T14:57:58.976Z</time></trkpt><trkpt lat="47.357531435180064" lon="5.238898307672955"><ele>230.60000000000002</ele><time>2026-04-06T14:58:00.975Z</time></trkpt><trkpt lat="47.35755786317425" lon="5.238718999562069"><ele>230.4</ele><time>2026-04-06T14:58:02.975Z</time></trkpt><trkpt lat="47.357566382539254" lon="5.23862616959754"><ele>230.2</ele><time>2026-04-06T14:58:03.975Z</time></trkpt><trkpt lat="47.35758453508445" lon="5.238449141543163"><ele>230.0</ele><time>2026-04-06T14:58:05.975Z</time></trkpt><trkpt lat="47.3576014703276" lon="5.238275232561538"><ele>230.4</ele><time>2026-04-06T14:58:07.975Z</time></trkpt><trkpt lat="47.3576030922559" lon="5.238100532643014"><ele>230.8</ele><time>2026-04-06T14:58:09.976Z</time></trkpt><trkpt lat="47.35761745488078" lon="5.237932737175756"><ele>231.2</ele><time>2026-04-06T14:58:11.975Z</time></trkpt><trkpt lat="47.35763864115128" lon="5.237787369728075"><ele>231.6</ele><time>2026-04-06T14:58:13.976Z</time></trkpt><trkpt lat="47.357654100850326" lon="5.2376796831331385"><ele>232.0</ele><time>2026-04-06T14:58:14.976Z</time></trkpt><trkpt lat="47.357675380278415" lon="5.237503220030758"><ele>232.0</ele><time>2026-04-06T14:58:16.976Z</time></trkpt><trkpt lat="47.357681508163296" lon="5.23732334780753"><ele>232.0</ele><time>2026-04-06T14:58:18.976Z</time></trkpt><trkpt lat="47.35769597439361" lon="5.237157388260692"><ele>232.0</ele><time>2026-04-06T14:58:20.976Z</time></trkpt><trkpt lat="47.35770657210066" lon="5.237063919378852"><ele>232.0</ele><time>2026-04-06T14:58:21.976Z</time></trkpt><trkpt lat="47.35770092559141" lon="5.236891034840181"><ele>232.0</ele><time>2026-04-06T14:58:23.976Z</time></trkpt><trkpt lat="47.35759689599829" lon="5.236788299421417"><ele>232.0</ele><time>2026-04-06T14:58:25.976Z</time></trkpt><trkpt lat="47.35748172692359" lon="5.23682216216956"><ele>232.0</ele><time>2026-04-06T14:58:27.976Z</time></trkpt><trkpt lat="47.35736756670562" lon="5.236865229798119"><ele>232.0</ele><time>2026-04-06T14:58:29.976Z</time></trkpt><trkpt lat="47.35726349747718" lon="5.236904913167132"><ele>232.0</ele><time>2026-04-06T14:58:31.976Z</time></trkpt><trkpt lat="47.357166108924915" lon="5.236939987820072"><ele>232.0</ele><time>2026-04-06T14:58:33.976Z</time></trkpt><trkpt lat="47.35707050742607" lon="5.236970274481665"><ele>231.99999999999997</ele><time>2026-04-06T14:58:35.976Z</time></trkpt><trkpt lat="47.35699399748185" lon="5.237007332148022"><ele>232.0</ele><time>2026-04-06T14:58:37.976Z</time></trkpt><trkpt lat="47.356918192843516" lon="5.236999977223129"><ele>232.0</ele><time>2026-04-06T14:58:39.976Z</time></trkpt><trkpt lat="47.35681505735802" lon="5.237032136685241"><ele>232.0</ele><time>2026-04-06T14:58:42.976Z</time></trkpt><trkpt lat="47.356886901099315" lon="5.237012671027419"><ele>231.99999999999997</ele><time>2026-04-06T14:58:51.976Z</time></trkpt><trkpt lat="47.356965704617004" lon="5.2369787312422265"><ele>232.0</ele><time>2026-04-06T14:58:53.976Z</time></trkpt><trkpt lat="47.35706253103473" lon="5.236945705645819"><ele>232.0</ele><time>2026-04-06T14:58:55.976Z</time></trkpt><trkpt lat="47.3571549793426" lon="5.2368872678959155"><ele>232.0</ele><time>2026-04-06T14:58:57.976Z</time></trkpt><trkpt lat="47.35726266749773" lon="5.236859362324148"><ele>232.0</ele><time>2026-04-06T14:58:59.976Z</time></trkpt><trkpt lat="47.357365780745496" lon="5.236836355774795"><ele>232.0</ele><time>2026-04-06T14:59:01.976Z</time></trkpt><trkpt lat="47.35746761841531" lon="5.2367960585284745"><ele>232.0</ele><time>2026-04-06T14:59:03.976Z</time></trkpt><trkpt lat="47.357555049157874" lon="5.236788692561031"><ele>232.0</ele><time>2026-04-06T14:59:05.976Z</time></trkpt><trkpt lat="47.35763222553079" lon="5.2367780900100485"><ele>232.0</ele><time>2026-04-06T14:59:07.976Z</time></trkpt><trkpt lat="47.357677699851955" lon="5.236710496800434"><ele>232.0</ele><time>2026-04-06T14:59:09.976Z</time></trkpt><trkpt lat="47.357711515045594" lon="5.236579155291425"><ele>232.0</ele><time>2026-04-06T14:59:11.976Z</time></trkpt><trkpt lat="47.357734166744535" lon="5.236409132330374"><ele>232.0</ele><time>2026-04-06T14:59:13.976Z</time></trkpt><trkpt lat="47.357739383048866" lon="5.236235759902402"><ele>232.0</ele><time>2026-04-06T14:59:15.976Z</time></trkpt><trkpt lat="47.35773329150493" lon="5.23605939740339"><ele>232.0</ele><time>2026-04-06T14:59:17.976Z</time></trkpt><trkpt lat="47.35773014235521" lon="5.2359661521481415"><ele>232.0</ele><time>2026-04-06T14:59:18.976Z</time></trkpt><trkpt lat="47.3577244687106" lon="5.235804642639505"><ele>232.0</ele><time>2026-04-06T14:59:20.976Z</time></trkpt><trkpt lat="47.357712628404244" lon="5.235640031615871"><ele>232.0</ele><time>2026-04-06T14:59:22.976Z</time></trkpt><trkpt lat="47.35771680953696" lon="5.2355423256814015"><ele>231.8</ele><time>2026-04-06T14:59:23.976Z</time></trkpt><trkpt lat="47.35771624308643" lon="5.235360186818744"><ele>231.6</ele><time>2026-04-06T14:59:25.976Z</time></trkpt><trkpt lat="47.357723256265466" lon="5.235160180651423"><ele>231.40000000000003</ele><time>2026-04-06T14:59:27.976Z</time></trkpt><trkpt lat="47.35776884843686" lon="5.234991011480351"><ele>231.20000000000002</ele><time>2026-04-06T14:59:29.976Z</time></trkpt><trkpt lat="47.357786765531124" lon="5.234895725532933"><ele>231.0</ele><time>2026-04-06T14:59:30.976Z</time></trkpt><trkpt lat="47.35781129050888" lon="5.234713997024073"><ele>231.33333333333334</ele><time>2026-04-06T14:59:32.976Z</time></trkpt><trkpt lat="47.357826937556354" lon="5.23462316444805"><ele>231.66666666666669</ele><time>2026-04-06T14:59:33.976Z</time></trkpt><trkpt lat="47.357844850074414" lon="5.2345287297537535"><ele>232.0</ele><time>2026-04-06T14:59:34.976Z</time></trkpt><trkpt lat="47.35786231132932" lon="5.23443775961256"><ele>232.33333333333334</ele><time>2026-04-06T14:59:35.976Z</time></trkpt><trkpt lat="47.3578984084115" lon="5.234253437859955"><ele>232.66666666666669</ele><time>2026-04-06T14:59:37.976Z</time></trkpt><trkpt lat="47.357934703558975" lon="5.23407976596923"><ele>233.0</ele><time>2026-04-06T14:59:39.976Z</time></trkpt><trkpt lat="47.35796669301175" lon="5.2339021899350024"><ele>233.0</ele><time>2026-04-06T14:59:41.976Z</time></trkpt><trkpt lat="47.358005598784494" lon="5.233736365365661"><ele>233.0</ele><time>2026-04-06T14:59:43.976Z</time></trkpt><trkpt lat="47.35803925472732" lon="5.233566115570601"><ele>233.0</ele><time>2026-04-06T14:59:45.976Z</time></trkpt><trkpt lat="47.35807481749287" lon="5.233404457526006"><ele>233.0</ele><time>2026-04-06T14:59:47.976Z</time></trkpt><trkpt lat="47.35810584332425" lon="5.233244104466417"><ele>233.8</ele><time>2026-04-06T14:59:49.976Z</time></trkpt><trkpt lat="47.358143344997636" lon="5.233081977994984"><ele>234.60000000000002</ele><time>2026-04-06T14:59:51.976Z</time></trkpt><trkpt lat="47.35815477073587" lon="5.232989268695831"><ele>235.39999999999998</ele><time>2026-04-06T14:59:52.976Z</time></trkpt><trkpt lat="47.35819249933493" lon="5.232829212536322"><ele>236.2</ele><time>2026-04-06T14:59:54.976Z</time></trkpt><trkpt lat="47.35822596463363" lon="5.232659516358651"><ele>237.0</ele><time>2026-04-06T14:59:56.976Z</time></trkpt><trkpt lat="47.35826274756712" lon="5.232501157946834"><ele>237.0</ele><time>2026-04-06T14:59:58.976Z</time></trkpt><trkpt lat="47.35829666774451" lon="5.232334405462896"><ele>237.0</ele><time>2026-04-06T15:00:00.976Z</time></trkpt><trkpt lat="47.35833350279602" lon="5.232170362233924"><ele>237.0</ele><time>2026-04-06T15:00:02.976Z</time></trkpt><trkpt lat="47.35836673756843" lon="5.232004796297665"><ele>237.0</ele><time>2026-04-06T15:00:04.976Z</time></trkpt><trkpt lat="47.358396713776386" lon="5.231845028445448"><ele>237.0</ele><time>2026-04-06T15:00:06.975Z</time></trkpt><trkpt lat="47.35842753679923" lon="5.231684470664287"><ele>237.0</ele><time>2026-04-06T15:00:08.976Z</time></trkpt><trkpt lat="47.35845162041687" lon="5.231507687462745"><ele>237.0</ele><time>2026-04-06T15:00:10.975Z</time></trkpt><trkpt lat="47.35848357240158" lon="5.231344909677487"><ele>237.0</ele><time>2026-04-06T15:00:12.975Z</time></trkpt><trkpt lat="47.35850908785716" lon="5.2311791519614195"><ele>237.0</ele><time>2026-04-06T15:00:14.976Z</time></trkpt><trkpt lat="47.35851431082039" lon="5.231003881997458"><ele>237.0</ele><time>2026-04-06T15:00:16.976Z</time></trkpt><trkpt lat="47.35850898695808" lon="5.230829348321673"><ele>237.0</ele><time>2026-04-06T15:00:18.975Z</time></trkpt><trkpt lat="47.358522471368794" lon="5.23065460133998"><ele>237.0</ele><time>2026-04-06T15:00:20.975Z</time></trkpt><trkpt lat="47.35847077030915" lon="5.23049788682268"><ele>237.16666666666666</ele><time>2026-04-06T15:00:22.975Z</time></trkpt><trkpt lat="47.35836940403511" lon="5.230428451777612"><ele>237.33333333333331</ele><time>2026-04-06T15:00:24.975Z</time></trkpt><trkpt lat="47.35830474970611" lon="5.230425622356183"><ele>237.5</ele><time>2026-04-06T15:00:26.975Z</time></trkpt><trkpt lat="47.35823682413601" lon="5.230423721682193"><ele>237.66666666666666</ele><time>2026-04-06T15:00:44.975Z</time></trkpt><trkpt lat="47.35814730008995" lon="5.2303894055825175"><ele>237.83333333333331</ele><time>2026-04-06T15:00:47.975Z</time></trkpt><trkpt lat="47.358051246818796" lon="5.230360950701255"><ele>238.0</ele><time>2026-04-06T15:00:49.975Z</time></trkpt><trkpt lat="47.35793948054684" lon="5.230332489682021"><ele>238.0</ele><time>2026-04-06T15:00:51.975Z</time></trkpt><trkpt lat="47.35782305659723" lon="5.230298440013012"><ele>238.0</ele><time>2026-04-06T15:00:53.975Z</time></trkpt><trkpt lat="47.3577062088441" lon="5.230270158675698"><ele>238.0</ele><time>2026-04-06T15:00:55.975Z</time></trkpt><trkpt lat="47.35759248581821" lon="5.23024762252667"><ele>238.0</ele><time>2026-04-06T15:00:57.976Z</time></trkpt><trkpt lat="47.35747667889957" lon="5.230203538865054"><ele>238.0</ele><time>2026-04-06T15:00:59.976Z</time></trkpt><trkpt lat="47.35741345822768" lon="5.230185689879505"><ele>238.0</ele><time>2026-04-06T15:01:00.976Z</time></trkpt><trkpt lat="47.35729862528103" lon="5.230150504321387"><ele>238.0</ele><time>2026-04-06T15:01:02.976Z</time></trkpt><trkpt lat="47.357176719202826" lon="5.2301173764696305"><ele>238.0</ele><time>2026-04-06T15:01:04.976Z</time></trkpt><trkpt lat="47.357064572177954" lon="5.230085537255062"><ele>238.0</ele><time>2026-04-06T15:01:06.976Z</time></trkpt><trkpt lat="47.35695903603817" lon="5.230065522498325"><ele>237.4</ele><time>2026-04-06T15:01:08.976Z</time></trkpt><trkpt lat="47.356838313113194" lon="5.230026709622514"><ele>236.8</ele><time>2026-04-06T15:01:10.976Z</time></trkpt><trkpt lat="47.35677634178892" lon="5.230009844421841"><ele>236.2</ele><time>2026-04-06T15:01:11.976Z</time></trkpt><trkpt lat="47.35666870421957" lon="5.229978239457019"><ele>235.6</ele><time>2026-04-06T15:01:13.976Z</time></trkpt><trkpt lat="47.35656458767598" lon="5.229952769748577"><ele>235.0</ele><time>2026-04-06T15:01:15.976Z</time></trkpt><trkpt lat="47.35644649900453" lon="5.229914054636762"><ele>235.0</ele><time>2026-04-06T15:01:17.976Z</time></trkpt><trkpt lat="47.35637877219309" lon="5.229884705438543"><ele>234.99999999999997</ele><time>2026-04-06T15:01:18.976Z</time></trkpt><trkpt lat="47.35631573569269" lon="5.229873172900388"><ele>235.0</ele><time>2026-04-06T15:01:19.976Z</time></trkpt><trkpt lat="47.35625226768423" lon="5.22984833397855"><ele>235.0</ele><time>2026-04-06T15:01:20.976Z</time></trkpt><trkpt lat="47.35619015139722" lon="5.229831574489083"><ele>234.99999999999997</ele><time>2026-04-06T15:01:21.976Z</time></trkpt><trkpt lat="47.356078854413234" lon="5.229798903966106"><ele>235.0</ele><time>2026-04-06T15:01:23.976Z</time></trkpt><trkpt lat="47.356010314513355" lon="5.229779394637614"><ele>235.0</ele><time>2026-04-06T15:01:24.976Z</time></trkpt><trkpt lat="47.355903725281635" lon="5.229748841916466"><ele>235.8</ele><time>2026-04-06T15:01:26.976Z</time></trkpt><trkpt lat="47.35577953929512" lon="5.2297005326694075"><ele>236.6</ele><time>2026-04-06T15:01:28.976Z</time></trkpt><trkpt lat="47.35566643143816" lon="5.229670563739332"><ele>237.39999999999998</ele><time>2026-04-06T15:01:30.976Z</time></trkpt><trkpt lat="47.35553923401418" lon="5.229639388540858"><ele>238.2</ele><time>2026-04-06T15:01:32.976Z</time></trkpt><trkpt lat="47.35547235337779" lon="5.229615368954897"><ele>239.0</ele><time>2026-04-06T15:01:33.976Z</time></trkpt><trkpt lat="47.35540804124012" lon="5.229589681742022"><ele>239.39999999999998</ele><time>2026-04-06T15:01:34.976Z</time></trkpt><trkpt lat="47.355341957203144" lon="5.229570962260612"><ele>239.79999999999998</ele><time>2026-04-06T15:01:35.976Z</time></trkpt><trkpt lat="47.355220453362875" lon="5.229533589088042"><ele>240.20000000000002</ele><time>2026-04-06T15:01:37.976Z</time></trkpt><trkpt lat="47.35510277784474" lon="5.229494680241987"><ele>240.60000000000002</ele><time>2026-04-06T15:01:39.976Z</time></trkpt><trkpt lat="47.35499878294329" lon="5.229462085191554"><ele>241.0</ele><time>2026-04-06T15:01:41.976Z</time></trkpt><trkpt lat="47.35489377433369" lon="5.229428666338306"><ele>240.99999999999997</ele><time>2026-04-06T15:01:43.976Z</time></trkpt><trkpt lat="47.35483145215344" lon="5.229411515537409"><ele>241.0</ele><time>2026-04-06T15:01:44.976Z</time></trkpt><trkpt lat="47.35472623563658" lon="5.229392729903965"><ele>241.0</ele><time>2026-04-06T15:01:46.976Z</time></trkpt><trkpt lat="47.354652031948596" lon="5.22937863491336"><ele>241.0</ele><time>2026-04-06T15:01:47.976Z</time></trkpt><trkpt lat="47.35458240011875" lon="5.229348740106924"><ele>240.99999999999997</ele><time>2026-04-06T15:01:48.976Z</time></trkpt><trkpt lat="47.3544729790111" lon="5.229318006324983"><ele>241.0</ele><time>2026-04-06T15:01:50.976Z</time></trkpt><trkpt lat="47.35435779297515" lon="5.229288656882745"><ele>240.25</ele><time>2026-04-06T15:01:52.976Z</time></trkpt><trkpt lat="47.35423707704467" lon="5.22925937081989"><ele>239.5</ele><time>2026-04-06T15:01:54.976Z</time></trkpt><trkpt lat="47.35413342580919" lon="5.229211350348537"><ele>238.75</ele><time>2026-04-06T15:01:56.976Z</time></trkpt><trkpt lat="47.35401881784097" lon="5.2291896857662215"><ele>238.0</ele><time>2026-04-06T15:01:58.976Z</time></trkpt><trkpt lat="47.353910452493594" lon="5.229157677789748"><ele>237.8</ele><time>2026-04-06T15:02:00.976Z</time></trkpt><trkpt lat="47.353794203996934" lon="5.229120862942157"><ele>237.60000000000002</ele><time>2026-04-06T15:02:02.976Z</time></trkpt><trkpt lat="47.35372839194831" lon="5.229103789267703"><ele>237.39999999999998</ele><time>2026-04-06T15:02:03.976Z</time></trkpt><trkpt lat="47.35361335091923" lon="5.229059738287228"><ele>237.2</ele><time>2026-04-06T15:02:05.976Z</time></trkpt><trkpt lat="47.35349308826596" lon="5.22903829569895"><ele>237.0</ele><time>2026-04-06T15:02:07.976Z</time></trkpt><trkpt lat="47.35343172610088" lon="5.229016925518148"><ele>237.0</ele><time>2026-04-06T15:02:08.976Z</time></trkpt><trkpt lat="47.35336764383569" lon="5.228992246056181"><ele>237.0</ele><time>2026-04-06T15:02:09.976Z</time></trkpt><trkpt lat="47.353300222530564" lon="5.228988432614208"><ele>237.0</ele><time>2026-04-06T15:02:10.976Z</time></trkpt><trkpt lat="47.35318515426156" lon="5.228949507111826"><ele>237.0</ele><time>2026-04-06T15:02:12.975Z</time></trkpt><trkpt lat="47.353064601058065" lon="5.22889565978553"><ele>237.0</ele><time>2026-04-06T15:02:14.976Z</time></trkpt><trkpt lat="47.35296585050681" lon="5.228877672117752"><ele>237.0</ele><time>2026-04-06T15:02:16.975Z</time></trkpt><trkpt lat="47.35286004703582" lon="5.228824408023795"><ele>237.0</ele><time>2026-04-06T15:02:18.976Z</time></trkpt><trkpt lat="47.352786084782394" lon="5.228784204794694"><ele>237.0</ele><time>2026-04-06T15:02:20.976Z</time></trkpt><trkpt lat="47.35271973864231" lon="5.228779776458308"><ele>237.0</ele><time>2026-04-06T15:02:22.975Z</time></trkpt><trkpt lat="47.3526555975348" lon="5.228762573748655"><ele>237.0</ele><time>2026-04-06T15:02:24.976Z</time></trkpt><trkpt lat="47.352562209481746" lon="5.228735912765309"><ele>237.0</ele><time>2026-04-06T15:02:26.976Z</time></trkpt><trkpt lat="47.352469429561026" lon="5.228727212170389"><ele>237.0</ele><time>2026-04-06T15:02:28.976Z</time></trkpt><trkpt lat="47.35238304924083" lon="5.228712973384075"><ele>237.0</ele><time>2026-04-06T15:02:30.976Z</time></trkpt><trkpt lat="47.352296587490535" lon="5.228682651355103"><ele>237.0</ele><time>2026-04-06T15:02:32.976Z</time></trkpt><trkpt lat="47.35223043813544" lon="5.228665093266085"><ele>237.0</ele><time>2026-04-06T15:02:34.976Z</time></trkpt><trkpt lat="47.35213535920449" lon="5.228646035031537"><ele>237.0</ele><time>2026-04-06T15:02:36.976Z</time></trkpt><trkpt lat="47.35205306766711" lon="5.22862102928332"><ele>237.0</ele><time>2026-04-06T15:02:38.976Z</time></trkpt><trkpt lat="47.35198284718349" lon="5.22861236183552"><ele>237.33333333333334</ele><time>2026-04-06T15:02:40.976Z</time></trkpt><trkpt lat="47.35188939955997" lon="5.228608453898282"><ele>237.66666666666669</ele><time>2026-04-06T15:02:42.976Z</time></trkpt><trkpt lat="47.35182386611013" lon="5.22863355484441"><ele>238.0</ele><time>2026-04-06T15:02:44.976Z</time></trkpt><trkpt lat="47.351760103104525" lon="5.22868900754177"><ele>238.33333333333334</ele><time>2026-04-06T15:02:46.976Z</time></trkpt><trkpt lat="47.3516966187575" lon="5.228752004252325"><ele>238.66666666666669</ele><time>2026-04-06T15:02:49.976Z</time></trkpt><trkpt lat="47.351622302026534" lon="5.228792875973753"><ele>239.0</ele><time>2026-04-06T15:02:53.976Z</time></trkpt><trkpt lat="47.35155784941605" lon="5.228816745130966"><ele>239.00000000000003</ele><time>2026-04-06T15:02:55.976Z</time></trkpt><trkpt lat="47.351500899123344" lon="5.228862419511338"><ele>239.0</ele><time>2026-04-06T15:02:57.976Z</time></trkpt><trkpt lat="47.3514113059339" lon="5.228911713414164"><ele>239.0</ele><time>2026-04-06T15:03:00.976Z</time></trkpt><trkpt lat="47.351338106376026" lon="5.228948146254668"><ele>239.0</ele><time>2026-04-06T15:03:02.976Z</time></trkpt><trkpt lat="47.35124780778083" lon="5.228932111155494"><ele>239.00000000000003</ele><time>2026-04-06T15:03:04.976Z</time></trkpt><trkpt lat="47.35116883100524" lon="5.2289060317038185"><ele>239.0</ele><time>2026-04-06T15:03:06.976Z</time></trkpt><trkpt lat="47.35109775216235" lon="5.2288650139406325"><ele>240.39999999999998</ele><time>2026-04-06T15:03:08.976Z</time></trkpt><trkpt lat="47.35100545642766" lon="5.228800497583595"><ele>241.79999999999998</ele><time>2026-04-06T15:03:10.976Z</time></trkpt><trkpt lat="47.35090906800906" lon="5.228735374925938"><ele>243.20000000000002</ele><time>2026-04-06T15:03:12.976Z</time></trkpt><trkpt lat="47.3508267961833" lon="5.2286804825894615"><ele>244.60000000000002</ele><time>2026-04-06T15:03:14.976Z</time></trkpt><trkpt lat="47.350755169548286" lon="5.228635545993494"><ele>246.0</ele><time>2026-04-06T15:03:16.976Z</time></trkpt><trkpt lat="47.35067091081894" lon="5.228589757815355"><ele>246.0</ele><time>2026-04-06T15:03:18.976Z</time></trkpt><trkpt lat="47.35060101071279" lon="5.228561333133866"><ele>246.0</ele><time>2026-04-06T15:03:20.976Z</time></trkpt><trkpt lat="47.35051041680076" lon="5.2285424585615035"><ele>246.0</ele><time>2026-04-06T15:03:22.976Z</time></trkpt><trkpt lat="47.35043109233207" lon="5.228496105616969"><ele>246.0</ele><time>2026-04-06T15:03:24.976Z</time></trkpt><trkpt lat="47.35037712597371" lon="5.2284155658204545"><ele>246.0</ele><time>2026-04-06T15:03:26.976Z</time></trkpt><trkpt lat="47.35028513702738" lon="5.228336536281303"><ele>246.0</ele><time>2026-04-06T15:03:28.976Z</time></trkpt><trkpt lat="47.35021792374034" lon="5.228286021132008"><ele>246.0</ele><time>2026-04-06T15:03:30.976Z</time></trkpt><trkpt lat="47.35012671203452" lon="5.228193111554235"><ele>246.0</ele><time>2026-04-06T15:03:32.976Z</time></trkpt><trkpt lat="47.35004700656819" lon="5.228117661280146"><ele>246.0</ele><time>2026-04-06T15:03:34.976Z</time></trkpt><trkpt lat="47.349985558175014" lon="5.228092221452299"><ele>246.0</ele><time>2026-04-06T15:03:35.976Z</time></trkpt><trkpt lat="47.34988786384191" lon="5.228046380964916"><ele>246.0</ele><time>2026-04-06T15:03:37.976Z</time></trkpt><trkpt lat="47.34982742463563" lon="5.228019899512542"><ele>246.0</ele><time>2026-04-06T15:03:38.976Z</time></trkpt><trkpt lat="47.34976215129976" lon="5.2279137323038025"><ele>246.0</ele><time>2026-04-06T15:03:40.976Z</time></trkpt><trkpt lat="47.34971135395896" lon="5.227773986349103"><ele>246.00000000000003</ele><time>2026-04-06T15:03:42.976Z</time></trkpt><trkpt lat="47.34972039991056" lon="5.227640419624323"><ele>246.00000000000003</ele><time>2026-04-06T15:03:44.976Z</time></trkpt><trkpt lat="47.34971965952355" lon="5.227488017543676"><ele>246.0</ele><time>2026-04-06T15:03:46.976Z</time></trkpt><trkpt lat="47.349685949776244" lon="5.227354139089132"><ele>246.0</ele><time>2026-04-06T15:03:48.976Z</time></trkpt><trkpt lat="47.349646032113746" lon="5.227229429759008"><ele>244.8</ele><time>2026-04-06T15:03:50.976Z</time></trkpt><trkpt lat="47.34959893999419" lon="5.227064737277118"><ele>243.60000000000002</ele><time>2026-04-06T15:03:52.976Z</time></trkpt><trkpt lat="47.34956680369473" lon="5.2269809374353695"><ele>242.4</ele><time>2026-04-06T15:03:53.976Z</time></trkpt><trkpt lat="47.349494752859336" lon="5.2268459698982115"><ele>241.2</ele><time>2026-04-06T15:03:55.976Z</time></trkpt><trkpt lat="47.349418420033935" lon="5.226726425407795"><ele>240.0</ele><time>2026-04-06T15:03:57.976Z</time></trkpt><trkpt lat="47.3493460633679" lon="5.22662614804796"><ele>240.0</ele><time>2026-04-06T15:03:59.976Z</time></trkpt><trkpt lat="47.34929289736971" lon="5.226495327722579"><ele>240.0</ele><time>2026-04-06T15:04:01.976Z</time></trkpt><trkpt lat="47.34926900554833" lon="5.226394615126384"><ele>240.0</ele><time>2026-04-06T15:04:03.976Z</time></trkpt><trkpt lat="47.349271836552724" lon="5.226293412587738"><ele>240.0</ele><time>2026-04-06T15:04:11.976Z</time></trkpt><trkpt lat="47.34923336707646" lon="5.22621469695867"><ele>240.0</ele><time>2026-04-06T15:04:15.976Z</time></trkpt><trkpt lat="47.349167199849106" lon="5.226129807886078"><ele>240.0</ele><time>2026-04-06T15:04:17.975Z</time></trkpt><trkpt lat="47.34908497913339" lon="5.2260594225902715"><ele>239.2</ele><time>2026-04-06T15:04:19.975Z</time></trkpt><trkpt lat="47.349007413365634" lon="5.225988150561116"><ele>238.4</ele><time>2026-04-06T15:04:21.975Z</time></trkpt><trkpt lat="47.34892011132056" lon="5.226022253270939"><ele>237.60000000000002</ele><time>2026-04-06T15:04:23.975Z</time></trkpt><trkpt lat="47.34888254583336" lon="5.2261623987913"><ele>236.8</ele><time>2026-04-06T15:04:25.975Z</time></trkpt><trkpt lat="47.34883595049911" lon="5.2262980351764625"><ele>236.0</ele><time>2026-04-06T15:04:27.975Z</time></trkpt><trkpt lat="47.34877727429686" lon="5.226432535434076"><ele>236.0</ele><time>2026-04-06T15:04:29.975Z</time></trkpt><trkpt lat="47.34871935532906" lon="5.226566960658835"><ele>236.00000000000003</ele><time>2026-04-06T15:04:31.976Z</time></trkpt><trkpt lat="47.348651414043616" lon="5.226689330913513"><ele>236.00000000000003</ele><time>2026-04-06T15:04:33.976Z</time></trkpt><trkpt lat="47.348547033531034" lon="5.2267591611346695"><ele>236.0</ele><time>2026-04-06T15:04:35.976Z</time></trkpt><trkpt lat="47.34843423804061" lon="5.226734443700439"><ele>236.0</ele><time>2026-04-06T15:04:37.976Z</time></trkpt><trkpt lat="47.34832176670356" lon="5.226664942065929"><ele>236.0</ele><time>2026-04-06T15:04:39.976Z</time></trkpt><trkpt lat="47.348209017630744" lon="5.226614283909141"><ele>236.0</ele><time>2026-04-06T15:04:41.976Z</time></trkpt><trkpt lat="47.348090574611945" lon="5.22656940934158"><ele>236.0</ele><time>2026-04-06T15:04:43.976Z</time></trkpt><trkpt lat="47.347969364088584" lon="5.226519411879626"><ele>236.0</ele><time>2026-04-06T15:04:45.976Z</time></trkpt><trkpt lat="47.34785158517008" lon="5.226457821748572"><ele>235.66666666666669</ele><time>2026-04-06T15:04:47.976Z</time></trkpt><trkpt lat="47.34779179013452" lon="5.226421666327305"><ele>235.33333333333334</ele><time>2026-04-06T15:04:48.976Z</time></trkpt><trkpt lat="47.34767318301122" lon="5.226371204753408"><ele>235.0</ele><time>2026-04-06T15:04:50.976Z</time></trkpt><trkpt lat="47.3476125837321" lon="5.226339773000281"><ele>234.66666666666669</ele><time>2026-04-06T15:04:51.976Z</time></trkpt><trkpt lat="47.34749507236215" lon="5.226286576583652"><ele>234.33333333333334</ele><time>2026-04-06T15:04:53.976Z</time></trkpt><trkpt lat="47.347433668253124" lon="5.226262345104517"><ele>234.0</ele><time>2026-04-06T15:04:54.976Z</time></trkpt><trkpt lat="47.34731475935474" lon="5.226206189528212"><ele>234.25</ele><time>2026-04-06T15:04:56.976Z</time></trkpt><trkpt lat="47.34719450598184" lon="5.2261593545827685"><ele>234.5</ele><time>2026-04-06T15:04:58.976Z</time></trkpt><trkpt lat="47.34707665933726" lon="5.226111806277259"><ele>234.75</ele><time>2026-04-06T15:05:00.976Z</time></trkpt><trkpt lat="47.34696026818261" lon="5.226060839908401"><ele>235.0</ele><time>2026-04-06T15:05:02.976Z</time></trkpt><trkpt lat="47.34684262990844" lon="5.226009751948247"><ele>235.0</ele><time>2026-04-06T15:05:04.976Z</time></trkpt><trkpt lat="47.3467804411528" lon="5.225990351085325"><ele>235.0</ele><time>2026-04-06T15:05:05.976Z</time></trkpt><trkpt lat="47.34671972884825" lon="5.225962380562797"><ele>235.0</ele><time>2026-04-06T15:05:06.976Z</time></trkpt><trkpt lat="47.34660164063912" lon="5.225907930666397"><ele>235.0</ele><time>2026-04-06T15:05:08.976Z</time></trkpt><trkpt lat="47.34648320431822" lon="5.225860663795632"><ele>235.0</ele><time>2026-04-06T15:05:10.976Z</time></trkpt><trkpt lat="47.34636611692434" lon="5.2258123375596215"><ele>235.25</ele><time>2026-04-06T15:05:12.976Z</time></trkpt><trkpt lat="47.34625495159671" lon="5.225766139919539"><ele>235.5</ele><time>2026-04-06T15:05:14.976Z</time></trkpt><trkpt lat="47.346144981940306" lon="5.2257146155473935"><ele>235.75</ele><time>2026-04-06T15:05:16.976Z</time></trkpt><trkpt lat="47.34602498264708" lon="5.225671556836271"><ele>236.0</ele><time>2026-04-06T15:05:18.976Z</time></trkpt><trkpt lat="47.345912045998986" lon="5.2256209800066795"><ele>235.60000000000002</ele><time>2026-04-06T15:05:20.976Z</time></trkpt><trkpt lat="47.34579700660354" lon="5.2255718489820095"><ele>235.20000000000002</ele><time>2026-04-06T15:05:22.976Z</time></trkpt><trkpt lat="47.345676578201186" lon="5.225520202379117"><ele>234.79999999999998</ele><time>2026-04-06T15:05:24.976Z</time></trkpt><trkpt lat="47.34561534153774" lon="5.225493096662521"><ele>234.39999999999998</ele><time>2026-04-06T15:05:25.976Z</time></trkpt><trkpt lat="47.345494362608406" lon="5.2254460957645295"><ele>234.0</ele><time>2026-04-06T15:05:27.976Z</time></trkpt><trkpt lat="47.34543243847025" lon="5.225416865982171"><ele>234.0</ele><time>2026-04-06T15:05:28.976Z</time></trkpt><trkpt lat="47.34531687135262" lon="5.225360492011722"><ele>234.0</ele><time>2026-04-06T15:05:30.976Z</time></trkpt><trkpt lat="47.34525464134066" lon="5.225337104278393"><ele>234.0</ele><time>2026-04-06T15:05:31.976Z</time></trkpt><trkpt lat="47.345133807187814" lon="5.225289177125071"><ele>234.0</ele><time>2026-04-06T15:05:33.976Z</time></trkpt><trkpt lat="47.34507326191235" lon="5.225262018734993"><ele>234.0</ele><time>2026-04-06T15:05:34.976Z</time></trkpt><trkpt lat="47.34500793805151" lon="5.225236040995831"><ele>234.0</ele><time>2026-04-06T15:05:35.976Z</time></trkpt><trkpt lat="47.34494364833783" lon="5.225207792068547"><ele>234.0</ele><time>2026-04-06T15:05:36.976Z</time></trkpt><trkpt lat="47.34487773131224" lon="5.225180390389479"><ele>234.00000000000003</ele><time>2026-04-06T15:05:37.976Z</time></trkpt><trkpt lat="47.34481120146145" lon="5.225148583378981"><ele>234.0</ele><time>2026-04-06T15:05:38.976Z</time></trkpt><trkpt lat="47.34474814154913" lon="5.225127520348602"><ele>234.0</ele><time>2026-04-06T15:05:39.976Z</time></trkpt><trkpt lat="47.34468036864832" lon="5.22509742347765"><ele>234.00000000000003</ele><time>2026-04-06T15:05:40.976Z</time></trkpt><trkpt lat="47.344612056122735" lon="5.225062869463424"><ele>234.0</ele><time>2026-04-06T15:05:41.976Z</time></trkpt><trkpt lat="47.3445437289606" lon="5.225032908203206"><ele>234.0</ele><time>2026-04-06T15:05:42.976Z</time></trkpt><trkpt lat="47.344474926489774" lon="5.225000293891404"><ele>233.71428571428572</ele><time>2026-04-06T15:05:43.976Z</time></trkpt><trkpt lat="47.34440580963265" lon="5.224973030057182"><ele>233.42857142857144</ele><time>2026-04-06T15:05:44.976Z</time></trkpt><trkpt lat="47.34433905130785" lon="5.22495059345049"><ele>233.14285714285717</ele><time>2026-04-06T15:05:45.976Z</time></trkpt><trkpt lat="47.34426643872375" lon="5.224921142406225"><ele>232.8571428571429</ele><time>2026-04-06T15:05:46.976Z</time></trkpt><trkpt lat="47.344194050159984" lon="5.224885212030165"><ele>232.57142857142858</ele><time>2026-04-06T15:05:47.976Z</time></trkpt><trkpt lat="47.344122119417314" lon="5.2248500356961864"><ele>232.28571428571433</ele><time>2026-04-06T15:05:48.976Z</time></trkpt><trkpt lat="47.344053953796" lon="5.224822021077712"><ele>232.00000000000003</ele><time>2026-04-06T15:05:49.976Z</time></trkpt><trkpt lat="47.34397805745456" lon="5.224791483412298"><ele>231.8571428571429</ele><time>2026-04-06T15:05:50.976Z</time></trkpt><trkpt lat="47.34390717313266" lon="5.224761745495634"><ele>231.71428571428572</ele><time>2026-04-06T15:05:51.976Z</time></trkpt><trkpt lat="47.34383498000285" lon="5.224733684599187"><ele>231.57142857142858</ele><time>2026-04-06T15:05:52.976Z</time></trkpt><trkpt lat="47.34376445368675" lon="5.2247015883887755"><ele>231.42857142857144</ele><time>2026-04-06T15:05:53.976Z</time></trkpt><trkpt lat="47.343694925902675" lon="5.224672285037968"><ele>231.28571428571428</ele><time>2026-04-06T15:05:54.976Z</time></trkpt><trkpt lat="47.34362472782048" lon="5.2246402230445685"><ele>231.14285714285714</ele><time>2026-04-06T15:05:55.976Z</time></trkpt><trkpt lat="47.34355743599602" lon="5.224607345856911"><ele>231.0</ele><time>2026-04-06T15:05:56.976Z</time></trkpt><trkpt lat="47.34348776195573" lon="5.224577907248413"><ele>230.8</ele><time>2026-04-06T15:05:57.976Z</time></trkpt><trkpt lat="47.34335953863681" lon="5.224530982256805"><ele>230.60000000000002</ele><time>2026-04-06T15:05:59.976Z</time></trkpt><trkpt lat="47.343240720898464" lon="5.224488408983348"><ele>230.4</ele><time>2026-04-06T15:06:01.976Z</time></trkpt><trkpt lat="47.34318071808915" lon="5.224458705975367"><ele>230.2</ele><time>2026-04-06T15:06:02.976Z</time></trkpt><trkpt lat="47.34306837185587" lon="5.224426241259255"><ele>230.0</ele><time>2026-04-06T15:06:04.976Z</time></trkpt><trkpt lat="47.3429853640668" lon="5.224352057729421"><ele>229.8</ele><time>2026-04-06T15:06:06.976Z</time></trkpt><trkpt lat="47.342951279749116" lon="5.224202635782701"><ele>229.6</ele><time>2026-04-06T15:06:08.976Z</time></trkpt><trkpt lat="47.342976548608" lon="5.224038495721642"><ele>229.39999999999998</ele><time>2026-04-06T15:06:10.976Z</time></trkpt><trkpt lat="47.343013343376406" lon="5.223880538466285"><ele>229.2</ele><time>2026-04-06T15:06:12.976Z</time></trkpt><trkpt lat="47.34299817597244" lon="5.22373120976964"><ele>229.0</ele><time>2026-04-06T15:06:14.976Z</time></trkpt><trkpt lat="47.34294160293509" lon="5.223674985392794"><ele>228.85714285714283</ele><time>2026-04-06T15:06:15.976Z</time></trkpt><trkpt lat="47.34287529669902" lon="5.223623121103992"><ele>228.71428571428572</ele><time>2026-04-06T15:06:16.976Z</time></trkpt><trkpt lat="47.34281804691784" lon="5.223561116944815"><ele>228.57142857142856</ele><time>2026-04-06T15:06:17.976Z</time></trkpt><trkpt lat="47.34276702669133" lon="5.223494067618558"><ele>228.42857142857142</ele><time>2026-04-06T15:06:18.976Z</time></trkpt><trkpt lat="47.34272448594949" lon="5.223422994781317"><ele>228.28571428571428</ele><time>2026-04-06T15:06:19.976Z</time></trkpt><trkpt lat="47.34267352062465" lon="5.2233570890953995"><ele>228.14285714285714</ele><time>2026-04-06T15:06:20.976Z</time></trkpt><trkpt lat="47.342627007287255" lon="5.223292448575935"><ele>228.0</ele><time>2026-04-06T15:06:21.976Z</time></trkpt><trkpt lat="47.342575407404745" lon="5.223231119667592"><ele>228.0</ele><time>2026-04-06T15:06:22.976Z</time></trkpt><trkpt lat="47.342531722261946" lon="5.223160967845171"><ele>227.99999999999997</ele><time>2026-04-06T15:06:23.975Z</time></trkpt><trkpt lat="47.342482982229605" lon="5.223100423775854"><ele>228.0</ele><time>2026-04-06T15:06:24.975Z</time></trkpt><trkpt lat="47.342434828803896" lon="5.22303604385912"><ele>228.0</ele><time>2026-04-06T15:06:25.976Z</time></trkpt><trkpt lat="47.3423854005461" lon="5.222977357780257"><ele>227.99999999999997</ele><time>2026-04-06T15:06:26.976Z</time></trkpt><trkpt lat="47.342334991423996" lon="5.222919669728549"><ele>228.0</ele><time>2026-04-06T15:06:27.976Z</time></trkpt><trkpt lat="47.34224395780354" lon="5.2227870530153915"><ele>228.0</ele><time>2026-04-06T15:06:29.975Z</time></trkpt><trkpt lat="47.34219970773397" lon="5.222720591323271"><ele>228.25</ele><time>2026-04-06T15:06:30.975Z</time></trkpt><trkpt lat="47.34210698082869" lon="5.2225968791710065"><ele>228.5</ele><time>2026-04-06T15:06:32.975Z</time></trkpt><trkpt lat="47.3420105826207" lon="5.222480455825432"><ele>228.75</ele><time>2026-04-06T15:06:34.975Z</time></trkpt><trkpt lat="47.34191212124115" lon="5.222366338869468"><ele>229.0</ele><time>2026-04-06T15:06:36.975Z</time></trkpt><trkpt lat="47.34180885426228" lon="5.222261239447085"><ele>228.49999999999997</ele><time>2026-04-06T15:06:38.975Z</time></trkpt><trkpt lat="47.34170225352371" lon="5.222165155988218"><ele>228.0</ele><time>2026-04-06T15:06:40.975Z</time></trkpt><trkpt lat="47.34164705865708" lon="5.222119958696869"><ele>227.5</ele><time>2026-04-06T15:06:41.975Z</time></trkpt><trkpt lat="47.341589859090654" lon="5.222073974426634"><ele>227.0</ele><time>2026-04-06T15:06:42.975Z</time></trkpt><trkpt lat="47.34148132554737" lon="5.22198328628476"><ele>226.49999999999997</ele><time>2026-04-06T15:06:44.975Z</time></trkpt><trkpt lat="47.34142270540119" lon="5.221939411103501"><ele>226.0</ele><time>2026-04-06T15:06:45.975Z</time></trkpt><trkpt lat="47.34131476822645" lon="5.221849692307998"><ele>226.0</ele><time>2026-04-06T15:06:47.975Z</time></trkpt><trkpt lat="47.34120741319977" lon="5.2217628552596675"><ele>226.0</ele><time>2026-04-06T15:06:49.975Z</time></trkpt><trkpt lat="47.34110466345758" lon="5.221669569338918"><ele>226.0</ele><time>2026-04-06T15:06:51.975Z</time></trkpt><trkpt lat="47.34100403270014" lon="5.22157127710217"><ele>226.0</ele><time>2026-04-06T15:06:53.975Z</time></trkpt><trkpt lat="47.340898581144195" lon="5.221482196190198"><ele>226.20000000000002</ele><time>2026-04-06T15:06:55.975Z</time></trkpt><trkpt lat="47.340795372934075" lon="5.221386256642503"><ele>226.40000000000003</ele><time>2026-04-06T15:06:57.975Z</time></trkpt><trkpt lat="47.34069024054926" lon="5.221291405800148"><ele>226.6</ele><time>2026-04-06T15:06:59.975Z</time></trkpt><trkpt lat="47.34063494881263" lon="5.22124249985547"><ele>226.8</ele><time>2026-04-06T15:07:00.975Z</time></trkpt><trkpt lat="47.340531318801034" lon="5.22113535649806"><ele>227.0</ele><time>2026-04-06T15:07:02.975Z</time></trkpt><trkpt lat="47.34042320913965" lon="5.221052864931689"><ele>227.0</ele><time>2026-04-06T15:07:04.975Z</time></trkpt><trkpt lat="47.340321225312664" lon="5.220952368753739"><ele>227.0</ele><time>2026-04-06T15:07:06.975Z</time></trkpt><trkpt lat="47.34021126809017" lon="5.220853479067673"><ele>227.0</ele><time>2026-04-06T15:07:08.975Z</time></trkpt><trkpt lat="47.34010175048589" lon="5.220759114239826"><ele>227.0</ele><time>2026-04-06T15:07:10.975Z</time></trkpt><trkpt lat="47.34000073920033" lon="5.2206783960972665"><ele>226.6</ele><time>2026-04-06T15:07:12.975Z</time></trkpt><trkpt lat="47.339895321728726" lon="5.220583722831481"><ele>226.2</ele><time>2026-04-06T15:07:14.975Z</time></trkpt><trkpt lat="47.33983990627613" lon="5.220537759487095"><ele>225.8</ele><time>2026-04-06T15:07:15.975Z</time></trkpt><trkpt lat="47.33973875202334" lon="5.220442946413209"><ele>225.4</ele><time>2026-04-06T15:07:17.975Z</time></trkpt><trkpt lat="47.3396344103306" lon="5.2203595936598"><ele>225.0</ele><time>2026-04-06T15:07:19.975Z</time></trkpt><trkpt lat="47.339529021872806" lon="5.220272265902734"><ele>225.0</ele><time>2026-04-06T15:07:21.975Z</time></trkpt><trkpt lat="47.33942585055294" lon="5.220186753797793"><ele>225.0</ele><time>2026-04-06T15:07:23.975Z</time></trkpt><trkpt lat="47.339324207599475" lon="5.220090868150796"><ele>225.0</ele><time>2026-04-06T15:07:25.975Z</time></trkpt><trkpt lat="47.33922068288153" lon="5.219997577272518"><ele>225.0</ele><time>2026-04-06T15:07:27.975Z</time></trkpt><trkpt lat="47.33911179525322" lon="5.219916919684642"><ele>225.0</ele><time>2026-04-06T15:07:29.975Z</time></trkpt><trkpt lat="47.339003047046894" lon="5.219843814258409"><ele>225.0</ele><time>2026-04-06T15:07:31.975Z</time></trkpt><trkpt lat="47.338908838258725" lon="5.219760401868547"><ele>225.0</ele><time>2026-04-06T15:07:33.975Z</time></trkpt><trkpt lat="47.33881370709752" lon="5.219702622027176"><ele>225.0</ele><time>2026-04-06T15:07:35.975Z</time></trkpt><trkpt lat="47.338708674921904" lon="5.219618301202817"><ele>224.8571428571429</ele><time>2026-04-06T15:07:37.975Z</time></trkpt><trkpt lat="47.33865121202547" lon="5.219574131026658"><ele>224.71428571428572</ele><time>2026-04-06T15:07:38.975Z</time></trkpt><trkpt lat="47.33859621443066" lon="5.2195277036735375"><ele>224.57142857142858</ele><time>2026-04-06T15:07:39.975Z</time></trkpt><trkpt lat="47.338535514110475" lon="5.219483063502163"><ele>224.42857142857144</ele><time>2026-04-06T15:07:40.975Z</time></trkpt><trkpt lat="47.338476104871255" lon="5.219435318840694"><ele>224.28571428571428</ele><time>2026-04-06T15:07:41.975Z</time></trkpt><trkpt lat="47.33841770682593" lon="5.21939407804654"><ele>224.14285714285714</ele><time>2026-04-06T15:07:42.975Z</time></trkpt><trkpt lat="47.33835818578478" lon="5.219351195977422"><ele>224.0</ele><time>2026-04-06T15:07:43.975Z</time></trkpt><trkpt lat="47.33825350054599" lon="5.219252380922224"><ele>224.0</ele><time>2026-04-06T15:07:45.975Z</time></trkpt><trkpt lat="47.338195520706854" lon="5.219212665948802"><ele>223.99999999999997</ele><time>2026-04-06T15:07:46.975Z</time></trkpt><trkpt lat="47.33808479431234" lon="5.219127254456257"><ele>223.99999999999997</ele><time>2026-04-06T15:07:48.975Z</time></trkpt><trkpt lat="47.33797557196992" lon="5.219040292160865"><ele>224.0</ele><time>2026-04-06T15:07:50.975Z</time></trkpt><trkpt lat="47.33788493015273" lon="5.218952208000721"><ele>224.0</ele><time>2026-04-06T15:07:52.975Z</time></trkpt><trkpt lat="47.33788816613079" lon="5.2187660904060555"><ele>223.71428571428572</ele><time>2026-04-06T15:07:54.975Z</time></trkpt><trkpt lat="47.33791311973349" lon="5.2186758143345395"><ele>223.42857142857144</ele><time>2026-04-06T15:07:55.975Z</time></trkpt><trkpt lat="47.33793989699148" lon="5.218582241895228"><ele>223.14285714285714</ele><time>2026-04-06T15:07:56.975Z</time></trkpt><trkpt lat="47.33796448669277" lon="5.218482189036342"><ele>222.85714285714286</ele><time>2026-04-06T15:07:57.975Z</time></trkpt><trkpt lat="47.33798695925384" lon="5.218381175716875"><ele>222.57142857142858</ele><time>2026-04-06T15:07:58.975Z</time></trkpt><trkpt lat="47.33801014308021" lon="5.2182803110120535"><ele>222.28571428571428</ele><time>2026-04-06T15:07:59.975Z</time></trkpt><trkpt lat="47.33803217386177" lon="5.218176960905344"><ele>222.0</ele><time>2026-04-06T15:08:00.975Z</time></trkpt><trkpt lat="47.33804965215718" lon="5.218075409783649"><ele>221.85714285714286</ele><time>2026-04-06T15:08:01.975Z</time></trkpt><trkpt lat="47.33807284649755" lon="5.21796551529923"><ele>221.71428571428572</ele><time>2026-04-06T15:08:02.975Z</time></trkpt><trkpt lat="47.33809082695079" lon="5.217866923413436"><ele>221.57142857142858</ele><time>2026-04-06T15:08:03.975Z</time></trkpt><trkpt lat="47.338110525063044" lon="5.217764827407961"><ele>221.42857142857144</ele><time>2026-04-06T15:08:04.975Z</time></trkpt><trkpt lat="47.33813235172301" lon="5.217663102389551"><ele>221.28571428571428</ele><time>2026-04-06T15:08:05.975Z</time></trkpt><trkpt lat="47.33815234714287" lon="5.217561633269826"><ele>221.14285714285717</ele><time>2026-04-06T15:08:06.975Z</time></trkpt><trkpt lat="47.33817384320252" lon="5.217458028940354"><ele>221.0</ele><time>2026-04-06T15:08:07.975Z</time></trkpt><trkpt lat="47.338198569979824" lon="5.217356076598678"><ele>220.71428571428572</ele><time>2026-04-06T15:08:08.975Z</time></trkpt><trkpt lat="47.33822113538088" lon="5.2172547885520055"><ele>220.42857142857144</ele><time>2026-04-06T15:08:09.975Z</time></trkpt><trkpt lat="47.33824088291309" lon="5.2171509214293685"><ele>220.14285714285717</ele><time>2026-04-06T15:08:10.975Z</time></trkpt><trkpt lat="47.33826103222653" lon="5.217046477659205"><ele>219.85714285714286</ele><time>2026-04-06T15:08:11.975Z</time></trkpt><trkpt lat="47.33828407135913" lon="5.216941242682782"><ele>219.57142857142856</ele><time>2026-04-06T15:08:12.975Z</time></trkpt><trkpt lat="47.33830741256168" lon="5.216833416547418"><ele>219.2857142857143</ele><time>2026-04-06T15:08:13.975Z</time></trkpt><trkpt lat="47.33832810145837" lon="5.216733312732852"><ele>219.0</ele><time>2026-04-06T15:08:14.975Z</time></trkpt><trkpt lat="47.33834818747277" lon="5.2166341705258015"><ele>219.0</ele><time>2026-04-06T15:08:15.975Z</time></trkpt><trkpt lat="47.33836992810328" lon="5.216534574757629"><ele>219.0</ele><time>2026-04-06T15:08:16.975Z</time></trkpt><trkpt lat="47.33839159143319" lon="5.216435366732945"><ele>219.0</ele><time>2026-04-06T15:08:17.975Z</time></trkpt><trkpt lat="47.33841040544778" lon="5.216338563250866"><ele>219.0</ele><time>2026-04-06T15:08:18.975Z</time></trkpt><trkpt lat="47.33842868664515" lon="5.216238355733998"><ele>219.0</ele><time>2026-04-06T15:08:19.975Z</time></trkpt><trkpt lat="47.338445766403936" lon="5.216148363441308"><ele>219.0</ele><time>2026-04-06T15:08:20.975Z</time></trkpt><trkpt lat="47.33848167480259" lon="5.2159784512169916"><ele>219.0</ele><time>2026-04-06T15:08:22.975Z</time></trkpt><trkpt lat="47.33850400721111" lon="5.215888260213911"><ele>219.0</ele><time>2026-04-06T15:08:23.975Z</time></trkpt><trkpt lat="47.338539795002475" lon="5.215713608466338"><ele>219.0</ele><time>2026-04-06T15:08:25.975Z</time></trkpt><trkpt lat="47.338555368380675" lon="5.215621803033063"><ele>219.0</ele><time>2026-04-06T15:08:26.975Z</time></trkpt><trkpt lat="47.33859322037178" lon="5.215450035847643"><ele>219.0</ele><time>2026-04-06T15:08:28.976Z</time></trkpt><trkpt lat="47.338610222488924" lon="5.215358881050597"><ele>219.0</ele><time>2026-04-06T15:08:29.976Z</time></trkpt><trkpt lat="47.33862684573436" lon="5.215268792606183"><ele>219.0</ele><time>2026-04-06T15:08:30.976Z</time></trkpt><trkpt lat="47.33866535469959" lon="5.215103728794526"><ele>218.99999999999997</ele><time>2026-04-06T15:08:32.976Z</time></trkpt><trkpt lat="47.338697071488696" lon="5.2149320711627976"><ele>218.99999999999997</ele><time>2026-04-06T15:08:34.976Z</time></trkpt><trkpt lat="47.33871202679551" lon="5.214838738077762"><ele>219.0</ele><time>2026-04-06T15:08:35.976Z</time></trkpt><trkpt lat="47.338752210321516" lon="5.214680367429457"><ele>219.0</ele><time>2026-04-06T15:08:37.976Z</time></trkpt><trkpt lat="47.33877157097596" lon="5.214589020353102"><ele>218.75</ele><time>2026-04-06T15:08:38.976Z</time></trkpt><trkpt lat="47.33880861984459" lon="5.214425608701457"><ele>218.5</ele><time>2026-04-06T15:08:40.976Z</time></trkpt><trkpt lat="47.338845691723144" lon="5.21425409070855"><ele>218.25</ele><time>2026-04-06T15:08:42.977Z</time></trkpt><trkpt lat="47.3388762349382" lon="5.214076739986047"><ele>218.0</ele><time>2026-04-06T15:08:44.977Z</time></trkpt><trkpt lat="47.33890995253673" lon="5.21391518147793"><ele>218.75</ele><time>2026-04-06T15:08:46.977Z</time></trkpt><trkpt lat="47.33895049421445" lon="5.213754337533962"><ele>219.5</ele><time>2026-04-06T15:08:48.977Z</time></trkpt><trkpt lat="47.33897448350036" lon="5.213586220214795"><ele>220.25</ele><time>2026-04-06T15:08:50.977Z</time></trkpt><trkpt lat="47.33901000742443" lon="5.213417847433366"><ele>221.0</ele><time>2026-04-06T15:08:52.977Z</time></trkpt><trkpt lat="47.33904569063218" lon="5.213253525758155"><ele>221.0</ele><time>2026-04-06T15:08:54.977Z</time></trkpt><trkpt lat="47.339071817122736" lon="5.213087908777815"><ele>221.0</ele><time>2026-04-06T15:08:56.977Z</time></trkpt><trkpt lat="47.33910908213145" lon="5.212925563153925"><ele>221.0</ele><time>2026-04-06T15:08:58.977Z</time></trkpt><trkpt lat="47.3391545770075" lon="5.212766919897164"><ele>221.0</ele><time>2026-04-06T15:09:00.977Z</time></trkpt><trkpt lat="47.33918321404965" lon="5.212595191084834"><ele>221.0</ele><time>2026-04-06T15:09:02.977Z</time></trkpt><trkpt lat="47.33921463040614" lon="5.21242395245687"><ele>221.0</ele><time>2026-04-06T15:09:04.977Z</time></trkpt><trkpt lat="47.33925168099965" lon="5.212256584571158"><ele>221.0</ele><time>2026-04-06T15:09:06.977Z</time></trkpt><trkpt lat="47.33929026039836" lon="5.212087976855167"><ele>221.0</ele><time>2026-04-06T15:09:08.977Z</time></trkpt><trkpt lat="47.33932968760636" lon="5.211899618421782"><ele>220.66666666666669</ele><time>2026-04-06T15:09:10.977Z</time></trkpt><trkpt lat="47.33935923500161" lon="5.211722386651206"><ele>220.33333333333334</ele><time>2026-04-06T15:09:12.977Z</time></trkpt><trkpt lat="47.33938215252718" lon="5.21162363575894"><ele>220.0</ele><time>2026-04-06T15:09:13.977Z</time></trkpt><trkpt lat="47.339400632177046" lon="5.211518837687796"><ele>219.66666666666669</ele><time>2026-04-06T15:09:14.977Z</time></trkpt><trkpt lat="47.3394227362189" lon="5.211417092377631"><ele>219.33333333333334</ele><time>2026-04-06T15:09:15.977Z</time></trkpt><trkpt lat="47.33944084668974" lon="5.2113095416081014"><ele>219.0</ele><time>2026-04-06T15:09:16.977Z</time></trkpt><trkpt lat="47.33946053046644" lon="5.211201279581441"><ele>218.5</ele><time>2026-04-06T15:09:17.977Z</time></trkpt><trkpt lat="47.33947803902139" lon="5.21108873870881"><ele>218.0</ele><time>2026-04-06T15:09:18.977Z</time></trkpt><trkpt lat="47.339499805876805" lon="5.210979966815635"><ele>217.5</ele><time>2026-04-06T15:09:19.977Z</time></trkpt><trkpt lat="47.33952003124483" lon="5.210881097495009"><ele>217.0</ele><time>2026-04-06T15:09:20.977Z</time></trkpt><trkpt lat="47.33954184373176" lon="5.210789271616811"><ele>216.5</ele><time>2026-04-06T15:09:21.977Z</time></trkpt><trkpt lat="47.339646597332305" lon="5.210671172085821"><ele>216.0</ele><time>2026-04-06T15:09:23.977Z</time></trkpt><trkpt lat="47.339712328631144" lon="5.210665289198755"><ele>216.0</ele><time>2026-04-06T15:09:24.977Z</time></trkpt><trkpt lat="47.339783545456456" lon="5.210682255444635"><ele>216.00000000000003</ele><time>2026-04-06T15:09:25.977Z</time></trkpt><trkpt lat="47.33985069524012" lon="5.210700956977319"><ele>216.00000000000003</ele><time>2026-04-06T15:09:26.977Z</time></trkpt><trkpt lat="47.33997179924694" lon="5.21075338715407"><ele>216.0</ele><time>2026-04-06T15:09:28.977Z</time></trkpt><trkpt lat="47.34003533508835" lon="5.210773340975014"><ele>216.0</ele><time>2026-04-06T15:09:29.978Z</time></trkpt><trkpt lat="47.34015686325864" lon="5.210820458237488"><ele>216.0</ele><time>2026-04-06T15:09:31.978Z</time></trkpt><trkpt lat="47.340265780972615" lon="5.210868487191293"><ele>216.0</ele><time>2026-04-06T15:09:33.978Z</time></trkpt><trkpt lat="47.340379316375" lon="5.210838869651412"><ele>216.0</ele><time>2026-04-06T15:09:35.978Z</time></trkpt><trkpt lat="47.340426212696194" lon="5.210763976178461"><ele>216.0</ele><time>2026-04-06T15:09:36.979Z</time></trkpt><trkpt lat="47.34045151767241" lon="5.210675618611652"><ele>216.0</ele><time>2026-04-06T15:09:37.979Z</time></trkpt><trkpt lat="47.340465907783766" lon="5.210582033985062"><ele>216.0</ele><time>2026-04-06T15:09:38.979Z</time></trkpt><trkpt lat="47.34048160186143" lon="5.210491468345581"><ele>215.85714285714286</ele><time>2026-04-06T15:09:39.979Z</time></trkpt><trkpt lat="47.340502388844676" lon="5.210400955566027"><ele>215.71428571428572</ele><time>2026-04-06T15:09:40.979Z</time></trkpt><trkpt lat="47.34051792612605" lon="5.210308927112527"><ele>215.57142857142856</ele><time>2026-04-06T15:09:41.979Z</time></trkpt><trkpt lat="47.34052865303584" lon="5.210124712355839"><ele>215.42857142857144</ele><time>2026-04-06T15:09:43.979Z</time></trkpt><trkpt lat="47.34052985824567" lon="5.210027239168703"><ele>215.2857142857143</ele><time>2026-04-06T15:09:44.979Z</time></trkpt><trkpt lat="47.340531100925524" lon="5.209933408018875"><ele>215.14285714285714</ele><time>2026-04-06T15:09:45.979Z</time></trkpt><trkpt lat="47.3405328323402" lon="5.209838449255007"><ele>215.0</ele><time>2026-04-06T15:09:46.979Z</time></trkpt><trkpt lat="47.34053588673662" lon="5.209655286464624"><ele>214.75</ele><time>2026-04-06T15:09:48.98Z</time></trkpt><trkpt lat="47.34053581364058" lon="5.209480049332077"><ele>214.5</ele><time>2026-04-06T15:09:50.98Z</time></trkpt><trkpt lat="47.34053000041568" lon="5.209295185873461"><ele>214.25</ele><time>2026-04-06T15:09:52.98Z</time></trkpt><trkpt lat="47.340540587890054" lon="5.209109967317891"><ele>214.0</ele><time>2026-04-06T15:09:54.98Z</time></trkpt><trkpt lat="47.34054362302941" lon="5.208928718699109"><ele>214.0</ele><time>2026-04-06T15:09:56.98Z</time></trkpt><trkpt lat="47.34054048443697" lon="5.208745501494736"><ele>214.0</ele><time>2026-04-06T15:09:58.98Z</time></trkpt><trkpt lat="47.340533474759" lon="5.208569800284733"><ele>214.0</ele><time>2026-04-06T15:10:00.98Z</time></trkpt><trkpt lat="47.34053417062624" lon="5.208390231702094"><ele>214.0</ele><time>2026-04-06T15:10:02.98Z</time></trkpt><trkpt lat="47.34053689833278" lon="5.208212340862547"><ele>214.2</ele><time>2026-04-06T15:10:04.98Z</time></trkpt><trkpt lat="47.340537226644" lon="5.20802899124392"><ele>214.39999999999998</ele><time>2026-04-06T15:10:06.98Z</time></trkpt><trkpt lat="47.34053402386018" lon="5.2078546676804365"><ele>214.6</ele><time>2026-04-06T15:10:08.98Z</time></trkpt><trkpt lat="47.34053557496407" lon="5.207760209138208"><ele>214.8</ele><time>2026-04-06T15:10:09.98Z</time></trkpt><trkpt lat="47.3405453867791" lon="5.207581366515505"><ele>215.0</ele><time>2026-04-06T15:10:11.98Z</time></trkpt><trkpt lat="47.34054302506635" lon="5.20740544727439"><ele>215.5</ele><time>2026-04-06T15:10:13.98Z</time></trkpt><trkpt lat="47.340538360267736" lon="5.20723087929704"><ele>216.0</ele><time>2026-04-06T15:10:15.98Z</time></trkpt><trkpt lat="47.34054816272017" lon="5.207057027832317"><ele>216.5</ele><time>2026-04-06T15:10:17.98Z</time></trkpt><trkpt lat="47.3405500243613" lon="5.206888485303528"><ele>217.0</ele><time>2026-04-06T15:10:19.98Z</time></trkpt><trkpt lat="47.34055190116474" lon="5.2067172458044455"><ele>217.0</ele><time>2026-04-06T15:10:21.98Z</time></trkpt><trkpt lat="47.34054944375151" lon="5.206556813197924"><ele>217.0</ele><time>2026-04-06T15:10:23.98Z</time></trkpt><trkpt lat="47.34054176906418" lon="5.2063869743544515"><ele>217.0</ele><time>2026-04-06T15:10:25.98Z</time></trkpt><trkpt lat="47.340546121663586" lon="5.206219511604463"><ele>217.0</ele><time>2026-04-06T15:10:27.98Z</time></trkpt><trkpt lat="47.34054986757835" lon="5.206046274360283"><ele>217.0</ele><time>2026-04-06T15:10:29.98Z</time></trkpt><trkpt lat="47.3405555809533" lon="5.205878530130821"><ele>217.0</ele><time>2026-04-06T15:10:31.98Z</time></trkpt><trkpt lat="47.34054959473204" lon="5.205713085864383"><ele>217.0</ele><time>2026-04-06T15:10:33.98Z</time></trkpt><trkpt lat="47.340542831860645" lon="5.205551992662714"><ele>217.0</ele><time>2026-04-06T15:10:35.98Z</time></trkpt><trkpt lat="47.34054476470701" lon="5.205383782854324"><ele>217.0</ele><time>2026-04-06T15:10:37.98Z</time></trkpt><trkpt lat="47.34054398905705" lon="5.2052207704267595"><ele>217.25</ele><time>2026-04-06T15:10:39.981Z</time></trkpt><trkpt lat="47.34053668503043" lon="5.205050081524935"><ele>217.5</ele><time>2026-04-06T15:10:41.981Z</time></trkpt><trkpt lat="47.34053941276581" lon="5.204873182477103"><ele>217.75</ele><time>2026-04-06T15:10:43.981Z</time></trkpt><trkpt lat="47.340537043420795" lon="5.2047005256823615"><ele>218.0</ele><time>2026-04-06T15:10:45.981Z</time></trkpt><trkpt lat="47.34054735318188" lon="5.204530130928223"><ele>218.0</ele><time>2026-04-06T15:10:47.98Z</time></trkpt><trkpt lat="47.34054644054983" lon="5.204436344524018"><ele>218.0</ele><time>2026-04-06T15:10:48.98Z</time></trkpt><trkpt lat="47.340549660466955" lon="5.204260942275583"><ele>218.0</ele><time>2026-04-06T15:10:50.98Z</time></trkpt><trkpt lat="47.34055074115403" lon="5.204082989659054"><ele>218.0</ele><time>2026-04-06T15:10:52.98Z</time></trkpt><trkpt lat="47.34055094547126" lon="5.2039019951359595"><ele>218.0</ele><time>2026-04-06T15:10:54.98Z</time></trkpt><trkpt lat="47.34054905473828" lon="5.2037229923565755"><ele>218.5</ele><time>2026-04-06T15:10:56.98Z</time></trkpt><trkpt lat="47.340551559657875" lon="5.203545279112359"><ele>219.0</ele><time>2026-04-06T15:10:58.98Z</time></trkpt><trkpt lat="47.3405542434403" lon="5.203363208352981"><ele>219.5</ele><time>2026-04-06T15:11:00.98Z</time></trkpt><trkpt lat="47.34055540892935" lon="5.203178592243707"><ele>220.0</ele><time>2026-04-06T15:11:02.98Z</time></trkpt><trkpt lat="47.340555765643266" lon="5.202994534331017"><ele>220.0</ele><time>2026-04-06T15:11:04.98Z</time></trkpt><trkpt lat="47.340556452000314" lon="5.202812293861895"><ele>220.0</ele><time>2026-04-06T15:11:06.98Z</time></trkpt><trkpt lat="47.340553988590685" lon="5.202640047349422"><ele>220.0</ele><time>2026-04-06T15:11:08.98Z</time></trkpt><trkpt lat="47.34055511377104" lon="5.202459811949618"><ele>220.0</ele><time>2026-04-06T15:11:10.98Z</time></trkpt><trkpt lat="47.34055595238229" lon="5.202286401507033"><ele>220.25</ele><time>2026-04-06T15:11:12.98Z</time></trkpt><trkpt lat="47.34055755178741" lon="5.2021104602047235"><ele>220.5</ele><time>2026-04-06T15:11:14.98Z</time></trkpt><trkpt lat="47.34055727391786" lon="5.201929650249039"><ele>220.75</ele><time>2026-04-06T15:11:16.98Z</time></trkpt><trkpt lat="47.340557134136674" lon="5.20175921883085"><ele>221.0</ele><time>2026-04-06T15:11:18.98Z</time></trkpt><trkpt lat="47.340555953039015" lon="5.201585817636711"><ele>221.0</ele><time>2026-04-06T15:11:20.98Z</time></trkpt><trkpt lat="47.34054956995013" lon="5.201416026803702"><ele>221.00000000000003</ele><time>2026-04-06T15:11:22.98Z</time></trkpt><trkpt lat="47.3405479132056" lon="5.201247412961595"><ele>221.00000000000003</ele><time>2026-04-06T15:11:24.98Z</time></trkpt><trkpt lat="47.34054860658749" lon="5.201081926697038"><ele>221.0</ele><time>2026-04-06T15:11:26.98Z</time></trkpt><trkpt lat="47.340547023598575" lon="5.200928919598657"><ele>221.0</ele><time>2026-04-06T15:11:28.98Z</time></trkpt><trkpt lat="47.34051564852778" lon="5.200811962427147"><ele>221.0</ele><time>2026-04-06T15:11:30.98Z</time></trkpt><trkpt lat="47.34043777819194" lon="5.2007632248567095"><ele>221.00000000000003</ele><time>2026-04-06T15:11:32.98Z</time></trkpt><trkpt lat="47.34034279833321" lon="5.200783976744551"><ele>221.00000000000003</ele><time>2026-04-06T15:11:34.98Z</time></trkpt><trkpt lat="47.340242831414564" lon="5.20078977329205"><ele>221.0</ele><time>2026-04-06T15:11:36.98Z</time></trkpt><trkpt lat="47.34013887502393" lon="5.200783631309869"><ele>221.0</ele><time>2026-04-06T15:11:38.98Z</time></trkpt><trkpt lat="47.340031730825295" lon="5.200791498886657"><ele>221.0</ele><time>2026-04-06T15:11:40.98Z</time></trkpt><trkpt lat="47.339925066324106" lon="5.200787437170545"><ele>221.0</ele><time>2026-04-06T15:11:42.98Z</time></trkpt><trkpt lat="47.339808841301256" lon="5.200786994385856"><ele>221.0</ele><time>2026-04-06T15:11:44.98Z</time></trkpt><trkpt lat="47.339691360030706" lon="5.2007963043953565"><ele>221.0</ele><time>2026-04-06T15:11:46.98Z</time></trkpt><trkpt lat="47.339572622890174" lon="5.2008205119593995"><ele>220.75</ele><time>2026-04-06T15:11:48.98Z</time></trkpt><trkpt lat="47.339457614749044" lon="5.200863247586136"><ele>220.5</ele><time>2026-04-06T15:11:50.98Z</time></trkpt><trkpt lat="47.33934261774909" lon="5.20090273536915"><ele>220.25</ele><time>2026-04-06T15:11:52.98Z</time></trkpt><trkpt lat="47.33922755338762" lon="5.200949322097339"><ele>220.0</ele><time>2026-04-06T15:11:54.98Z</time></trkpt><trkpt lat="47.3391105693569" lon="5.2009890686071065"><ele>220.0</ele><time>2026-04-06T15:11:56.98Z</time></trkpt><trkpt lat="47.33899467970357" lon="5.201029103204645"><ele>220.0</ele><time>2026-04-06T15:11:58.98Z</time></trkpt><trkpt lat="47.33887183778669" lon="5.201070411615302"><ele>220.0</ele><time>2026-04-06T15:12:00.98Z</time></trkpt><trkpt lat="47.33875332869046" lon="5.201110255945264"><ele>220.0</ele><time>2026-04-06T15:12:02.98Z</time></trkpt><trkpt lat="47.338630701318635" lon="5.20114990075536"><ele>219.8</ele><time>2026-04-06T15:12:04.98Z</time></trkpt><trkpt lat="47.338569590651325" lon="5.201172630187564"><ele>219.6</ele><time>2026-04-06T15:12:05.98Z</time></trkpt><trkpt lat="47.33844934803805" lon="5.201214448070714"><ele>219.39999999999998</ele><time>2026-04-06T15:12:07.98Z</time></trkpt><trkpt lat="47.33833159364955" lon="5.201254659472275"><ele>219.2</ele><time>2026-04-06T15:12:09.98Z</time></trkpt><trkpt lat="47.33821548552541" lon="5.201305307914282"><ele>219.0</ele><time>2026-04-06T15:12:11.98Z</time></trkpt><trkpt lat="47.33810468101911" lon="5.201349822063624"><ele>218.79999999999998</ele><time>2026-04-06T15:12:13.98Z</time></trkpt><trkpt lat="47.33799625518566" lon="5.201352290332366"><ele>218.59999999999997</ele><time>2026-04-06T15:12:15.98Z</time></trkpt><trkpt lat="47.33791586127677" lon="5.201231501140311"><ele>218.4</ele><time>2026-04-06T15:12:17.98Z</time></trkpt><trkpt lat="47.337898120970536" lon="5.201128430483452"><ele>218.2</ele><time>2026-04-06T15:12:18.98Z</time></trkpt><trkpt lat="47.33788947370304" lon="5.200945859101673"><ele>218.0</ele><time>2026-04-06T15:12:20.98Z</time></trkpt><trkpt lat="47.33786677533489" lon="5.200769909294918"><ele>217.5</ele><time>2026-04-06T15:12:22.98Z</time></trkpt><trkpt lat="47.33784637022887" lon="5.200598876791627"><ele>217.0</ele><time>2026-04-06T15:12:24.98Z</time></trkpt><trkpt lat="47.33782617147025" lon="5.200428173359215"><ele>216.5</ele><time>2026-04-06T15:12:26.98Z</time></trkpt><trkpt lat="47.33780201391583" lon="5.20025834574596"><ele>216.0</ele><time>2026-04-06T15:12:28.98Z</time></trkpt><trkpt lat="47.33777910759229" lon="5.200092767060667"><ele>216.0</ele><time>2026-04-06T15:12:30.98Z</time></trkpt><trkpt lat="47.337761768819355" lon="5.199925396893401"><ele>216.0</ele><time>2026-04-06T15:12:32.98Z</time></trkpt><trkpt lat="47.337741015125054" lon="5.199759153821883"><ele>216.0</ele><time>2026-04-06T15:12:34.98Z</time></trkpt><trkpt lat="47.337715869091696" lon="5.199600281270883"><ele>216.0</ele><time>2026-04-06T15:12:36.98Z</time></trkpt><trkpt lat="47.33769700107773" lon="5.199430154446484"><ele>215.75</ele><time>2026-04-06T15:12:38.98Z</time></trkpt><trkpt lat="47.33766606449698" lon="5.199264876580958"><ele>215.5</ele><time>2026-04-06T15:12:40.982Z</time></trkpt><trkpt lat="47.33764458533765" lon="5.199097674488625"><ele>215.25</ele><time>2026-04-06T15:12:42.982Z</time></trkpt><trkpt lat="47.3376226243238" lon="5.198931459495417"><ele>215.0</ele><time>2026-04-06T15:12:44.981Z</time></trkpt><trkpt lat="47.33760405026474" lon="5.198764277643053"><ele>215.0</ele><time>2026-04-06T15:12:46.982Z</time></trkpt><trkpt lat="47.33758257088042" lon="5.198595095036601"><ele>215.0</ele><time>2026-04-06T15:12:48.981Z</time></trkpt><trkpt lat="47.337558428801536" lon="5.198428923853183"><ele>215.0</ele><time>2026-04-06T15:12:50.982Z</time></trkpt><trkpt lat="47.33754552169046" lon="5.198275284779654"><ele>215.0</ele><time>2026-04-06T15:12:52.982Z</time></trkpt><trkpt lat="47.33752555309167" lon="5.198130266164352"><ele>215.0</ele><time>2026-04-06T15:12:54.982Z</time></trkpt><trkpt lat="47.3375096240853" lon="5.197995569429458"><ele>215.16666666666669</ele><time>2026-04-06T15:12:56.982Z</time></trkpt><trkpt lat="47.33749314502531" lon="5.197859319605304"><ele>215.33333333333334</ele><time>2026-04-06T15:12:58.982Z</time></trkpt><trkpt lat="47.33748109338433" lon="5.197733056614538"><ele>215.5</ele><time>2026-04-06T15:13:00.982Z</time></trkpt><trkpt lat="47.33746539808197" lon="5.197597288436043"><ele>215.66666666666669</ele><time>2026-04-06T15:13:02.982Z</time></trkpt><trkpt lat="47.337457215109175" lon="5.197480003442166"><ele>215.83333333333334</ele><time>2026-04-06T15:13:04.982Z</time></trkpt><trkpt lat="47.3374446707209" lon="5.197357869209482"><ele>216.0</ele><time>2026-04-06T15:13:06.982Z</time></trkpt><trkpt lat="47.33742055925764" lon="5.197216911100646"><ele>216.0</ele><time>2026-04-06T15:13:08.982Z</time></trkpt><trkpt lat="47.33737600590294" lon="5.19709031819045"><ele>216.00000000000003</ele><time>2026-04-06T15:13:10.982Z</time></trkpt><trkpt lat="47.337313322110525" lon="5.196961457699093"><ele>216.00000000000003</ele><time>2026-04-06T15:13:12.982Z</time></trkpt><trkpt lat="47.337242900466435" lon="5.196839555536497"><ele>216.0</ele><time>2026-04-06T15:13:14.982Z</time></trkpt><trkpt lat="47.33717449434173" lon="5.196723218056286"><ele>216.0</ele><time>2026-04-06T15:13:16.982Z</time></trkpt><trkpt lat="47.33710333596309" lon="5.196608284889594"><ele>215.60000000000002</ele><time>2026-04-06T15:13:18.982Z</time></trkpt><trkpt lat="47.33703757162038" lon="5.196485494097039"><ele>215.20000000000002</ele><time>2026-04-06T15:13:20.982Z</time></trkpt><trkpt lat="47.336979063496486" lon="5.196345101008958"><ele>214.79999999999998</ele><time>2026-04-06T15:13:22.982Z</time></trkpt><trkpt lat="47.33693528732748" lon="5.1961937176280895"><ele>214.39999999999998</ele><time>2026-04-06T15:13:24.982Z</time></trkpt><trkpt lat="47.33691082525189" lon="5.196040901691679"><ele>214.0</ele><time>2026-04-06T15:13:26.982Z</time></trkpt><trkpt lat="47.33688210950738" lon="5.195881837379938"><ele>214.0</ele><time>2026-04-06T15:13:28.982Z</time></trkpt><trkpt lat="47.33685118338347" lon="5.195716257425045"><ele>213.99999999999997</ele><time>2026-04-06T15:13:30.982Z</time></trkpt><trkpt lat="47.33682721593936" lon="5.19555729497338"><ele>213.99999999999997</ele><time>2026-04-06T15:13:32.982Z</time></trkpt><trkpt lat="47.33680182630527" lon="5.195402148046568"><ele>214.0</ele><time>2026-04-06T15:13:34.982Z</time></trkpt><trkpt lat="47.33679908149115" lon="5.1952505094192825"><ele>214.0</ele><time>2026-04-06T15:13:36.982Z</time></trkpt><trkpt lat="47.33684452504431" lon="5.195112973302256"><ele>214.25</ele><time>2026-04-06T15:13:38.982Z</time></trkpt><trkpt lat="47.336937403427065" lon="5.195027885819946"><ele>214.5</ele><time>2026-04-06T15:13:40.982Z</time></trkpt><trkpt lat="47.3370486286571" lon="5.1949926208863175"><ele>214.75</ele><time>2026-04-06T15:13:42.982Z</time></trkpt><trkpt lat="47.33714100868676" lon="5.194895356508006"><ele>215.0</ele><time>2026-04-06T15:13:44.982Z</time></trkpt><trkpt lat="47.337202975254726" lon="5.19474313404811"><ele>215.75</ele><time>2026-04-06T15:13:46.982Z</time></trkpt><trkpt lat="47.337266031772685" lon="5.194596083990196"><ele>216.5</ele><time>2026-04-06T15:13:48.982Z</time></trkpt><trkpt lat="47.33730720394547" lon="5.194433496736131"><ele>217.25</ele><time>2026-04-06T15:13:50.982Z</time></trkpt><trkpt lat="47.3373184015943" lon="5.194268091670994"><ele>218.0</ele><time>2026-04-06T15:13:52.982Z</time></trkpt><trkpt lat="47.33732060146535" lon="5.194101358953244"><ele>217.5</ele><time>2026-04-06T15:13:54.982Z</time></trkpt><trkpt lat="47.33732212828966" lon="5.193918842606886"><ele>217.0</ele><time>2026-04-06T15:13:56.982Z</time></trkpt><trkpt lat="47.337329515233385" lon="5.193748704150714"><ele>216.5</ele><time>2026-04-06T15:13:58.982Z</time></trkpt><trkpt lat="47.3373356042263" lon="5.193575176057513"><ele>216.0</ele><time>2026-04-06T15:14:00.982Z</time></trkpt><trkpt lat="47.33736883221103" lon="5.193399767346922"><ele>216.0</ele><time>2026-04-06T15:14:02.982Z</time></trkpt><trkpt lat="47.33739751680043" lon="5.193316580334709"><ele>216.00000000000003</ele><time>2026-04-06T15:14:03.982Z</time></trkpt><trkpt lat="47.33747775185062" lon="5.1931797257052015"><ele>216.00000000000003</ele><time>2026-04-06T15:14:05.982Z</time></trkpt><trkpt lat="47.33758068174309" lon="5.193085141093925"><ele>216.0</ele><time>2026-04-06T15:14:07.982Z</time></trkpt><trkpt lat="47.33768310817196" lon="5.192988599685901"><ele>216.0</ele><time>2026-04-06T15:14:09.982Z</time></trkpt><trkpt lat="47.33778845606716" lon="5.192891502874505"><ele>216.25</ele><time>2026-04-06T15:14:11.982Z</time></trkpt><trkpt lat="47.337888242338686" lon="5.19279299510756"><ele>216.5</ele><time>2026-04-06T15:14:13.982Z</time></trkpt><trkpt lat="47.33799005220201" lon="5.192691550232247"><ele>216.75</ele><time>2026-04-06T15:14:15.982Z</time></trkpt><trkpt lat="47.33808872097216" lon="5.192603448472153"><ele>217.0</ele><time>2026-04-06T15:14:17.982Z</time></trkpt><trkpt lat="47.33819437171633" lon="5.192510715773657"><ele>217.0</ele><time>2026-04-06T15:14:19.982Z</time></trkpt><trkpt lat="47.33829990232037" lon="5.192428384717838"><ele>217.0</ele><time>2026-04-06T15:14:21.982Z</time></trkpt><trkpt lat="47.33841042148747" lon="5.192361373159066"><ele>217.0</ele><time>2026-04-06T15:14:23.982Z</time></trkpt><trkpt lat="47.33852044197221" lon="5.192298674697414"><ele>217.0</ele><time>2026-04-06T15:14:25.982Z</time></trkpt><trkpt lat="47.33863483981587" lon="5.192248433195804"><ele>217.0</ele><time>2026-04-06T15:14:27.982Z</time></trkpt><trkpt lat="47.338751044786136" lon="5.192209659650086"><ele>217.0</ele><time>2026-04-06T15:14:29.982Z</time></trkpt><trkpt lat="47.33886850569852" lon="5.192174741297951"><ele>217.0</ele><time>2026-04-06T15:14:31.982Z</time></trkpt><trkpt lat="47.33898817516304" lon="5.1921637181894384"><ele>217.0</ele><time>2026-04-06T15:14:33.982Z</time></trkpt><trkpt lat="47.339106347570976" lon="5.19215376310103"><ele>217.0</ele><time>2026-04-06T15:14:35.982Z</time></trkpt><trkpt lat="47.33922466657898" lon="5.192155707396009"><ele>217.0</ele><time>2026-04-06T15:14:37.982Z</time></trkpt><trkpt lat="47.33934339647604" lon="5.192136714228225"><ele>217.0</ele><time>2026-04-06T15:14:39.982Z</time></trkpt><trkpt lat="47.339464873758835" lon="5.192135872197234"><ele>217.0</ele><time>2026-04-06T15:14:41.982Z</time></trkpt><trkpt lat="47.339586056932106" lon="5.192131314317264"><ele>217.0</ele><time>2026-04-06T15:14:43.982Z</time></trkpt><trkpt lat="47.33970710387412" lon="5.192118393424332"><ele>217.0</ele><time>2026-04-06T15:14:45.982Z</time></trkpt><trkpt lat="47.339834306748614" lon="5.192121986501115"><ele>217.0</ele><time>2026-04-06T15:14:47.983Z</time></trkpt><trkpt lat="47.339953169700635" lon="5.1920924115605205"><ele>217.0</ele><time>2026-04-06T15:14:49.983Z</time></trkpt><trkpt lat="47.340020504710594" lon="5.192078779349956"><ele>217.0</ele><time>2026-04-06T15:14:50.982Z</time></trkpt><trkpt lat="47.34013308484185" lon="5.192035143730406"><ele>217.0</ele><time>2026-04-06T15:14:52.983Z</time></trkpt><trkpt lat="47.340243057293634" lon="5.191971300175677"><ele>217.0</ele><time>2026-04-06T15:14:54.982Z</time></trkpt><trkpt lat="47.340353737171775" lon="5.191907479095393"><ele>217.0</ele><time>2026-04-06T15:14:56.983Z</time></trkpt><trkpt lat="47.3404597687181" lon="5.1918376105134065"><ele>217.0</ele><time>2026-04-06T15:14:58.982Z</time></trkpt><trkpt lat="47.34057026214675" lon="5.191770489495522"><ele>217.0</ele><time>2026-04-06T15:15:00.983Z</time></trkpt><trkpt lat="47.34067671379693" lon="5.191698556248773"><ele>217.0</ele><time>2026-04-06T15:15:02.983Z</time></trkpt><trkpt lat="47.34078937904397" lon="5.191644940860705"><ele>217.0</ele><time>2026-04-06T15:15:04.983Z</time></trkpt><trkpt lat="47.34089471845339" lon="5.191587070447181"><ele>217.0</ele><time>2026-04-06T15:15:06.983Z</time></trkpt><trkpt lat="47.340987535466425" lon="5.191544331272952"><ele>217.0</ele><time>2026-04-06T15:15:08.983Z</time></trkpt><trkpt lat="47.34105983527975" lon="5.19148105752753"><ele>216.8</ele><time>2026-04-06T15:15:10.983Z</time></trkpt><trkpt lat="47.34104000264384" lon="5.191355733748901"><ele>216.6</ele><time>2026-04-06T15:15:12.983Z</time></trkpt><trkpt lat="47.34100588337945" lon="5.191232098868336"><ele>216.40000000000003</ele><time>2026-04-06T15:15:14.983Z</time></trkpt><trkpt lat="47.34099386787505" lon="5.191083378235736"><ele>216.20000000000002</ele><time>2026-04-06T15:15:16.983Z</time></trkpt><trkpt lat="47.34097854312806" lon="5.190922255689979"><ele>216.0</ele><time>2026-04-06T15:15:18.983Z</time></trkpt><trkpt lat="47.34096537907181" lon="5.190830407827959"><ele>216.20000000000002</ele><time>2026-04-06T15:15:19.983Z</time></trkpt><trkpt lat="47.340938335214915" lon="5.190671711720004"><ele>216.40000000000003</ele><time>2026-04-06T15:15:21.983Z</time></trkpt><trkpt lat="47.34092428343824" lon="5.1905800577659855"><ele>216.6</ele><time>2026-04-06T15:15:22.983Z</time></trkpt><trkpt lat="47.340894480814065" lon="5.19041211961067"><ele>216.8</ele><time>2026-04-06T15:15:24.983Z</time></trkpt><trkpt lat="47.340880788721634" lon="5.190321058486343"><ele>217.0</ele><time>2026-04-06T15:15:25.983Z</time></trkpt><trkpt lat="47.34084239384492" lon="5.190152758072595"><ele>217.0</ele><time>2026-04-06T15:15:27.983Z</time></trkpt><trkpt lat="47.34080792528273" lon="5.189988666459414"><ele>217.0</ele><time>2026-04-06T15:15:29.983Z</time></trkpt><trkpt lat="47.3407787757192" lon="5.189818005539726"><ele>217.0</ele><time>2026-04-06T15:15:31.983Z</time></trkpt><trkpt lat="47.340749084594556" lon="5.1896622576946125"><ele>217.0</ele><time>2026-04-06T15:15:33.983Z</time></trkpt><trkpt lat="47.34072197069331" lon="5.1895052421474706"><ele>217.0</ele><time>2026-04-06T15:15:35.983Z</time></trkpt><trkpt lat="47.34070147311176" lon="5.189350928559333"><ele>217.0</ele><time>2026-04-06T15:15:37.983Z</time></trkpt><trkpt lat="47.340677414539435" lon="5.189186307778974"><ele>217.0</ele><time>2026-04-06T15:15:39.983Z</time></trkpt><trkpt lat="47.340645109426625" lon="5.189018433898308"><ele>217.0</ele><time>2026-04-06T15:15:41.983Z</time></trkpt><trkpt lat="47.3406215090652" lon="5.1888367839250105"><ele>216.8</ele><time>2026-04-06T15:15:43.983Z</time></trkpt><trkpt lat="47.34059991139637" lon="5.188664637826943"><ele>216.6</ele><time>2026-04-06T15:15:45.983Z</time></trkpt><trkpt lat="47.34058934792682" lon="5.188569298696784"><ele>216.40000000000003</ele><time>2026-04-06T15:15:46.983Z</time></trkpt><trkpt lat="47.340570726126415" lon="5.18839525168655"><ele>216.20000000000002</ele><time>2026-04-06T15:15:48.983Z</time></trkpt><trkpt lat="47.340562798328584" lon="5.188301886107655"><ele>216.0</ele><time>2026-04-06T15:15:49.983Z</time></trkpt><trkpt lat="47.340543228823066" lon="5.188132975577558"><ele>216.0</ele><time>2026-04-06T15:15:51.983Z</time></trkpt><trkpt lat="47.34053103646923" lon="5.187956815592068"><ele>216.0</ele><time>2026-04-06T15:15:53.983Z</time></trkpt><trkpt lat="47.34051431772372" lon="5.187788434722026"><ele>216.0</ele><time>2026-04-06T15:15:55.983Z</time></trkpt><trkpt lat="47.34050697723291" lon="5.187618725461437"><ele>216.0</ele><time>2026-04-06T15:15:57.983Z</time></trkpt><trkpt lat="47.340491800132" lon="5.1874439567624435"><ele>215.8</ele><time>2026-04-06T15:15:59.983Z</time></trkpt><trkpt lat="47.34048522294688" lon="5.187271659296435"><ele>215.60000000000002</ele><time>2026-04-06T15:16:01.983Z</time></trkpt><trkpt lat="47.34048744262096" lon="5.187105136904301"><ele>215.4</ele><time>2026-04-06T15:16:03.983Z</time></trkpt><trkpt lat="47.34051439279189" lon="5.186950024924963"><ele>215.2</ele><time>2026-04-06T15:16:05.983Z</time></trkpt><trkpt lat="47.340540807518664" lon="5.18679844415056"><ele>215.0</ele><time>2026-04-06T15:16:07.983Z</time></trkpt><trkpt lat="47.34056656017391" lon="5.186660384612301"><ele>215.6</ele><time>2026-04-06T15:16:09.983Z</time></trkpt><trkpt lat="47.34061772780186" lon="5.186558956085662"><ele>216.2</ele><time>2026-04-06T15:16:11.983Z</time></trkpt><trkpt lat="47.34072057224904" lon="5.186562459482974"><ele>216.8</ele><time>2026-04-06T15:16:13.983Z</time></trkpt><trkpt lat="47.34083180375373" lon="5.186601225572992"><ele>217.4</ele><time>2026-04-06T15:16:15.983Z</time></trkpt><trkpt lat="47.340943185029076" lon="5.186622010987382"><ele>218.0</ele><time>2026-04-06T15:16:17.983Z</time></trkpt><trkpt lat="47.341055357251754" lon="5.18665061993201"><ele>218.0</ele><time>2026-04-06T15:16:19.983Z</time></trkpt><trkpt lat="47.34116660106491" lon="5.186689987724125"><ele>218.0</ele><time>2026-04-06T15:16:21.983Z</time></trkpt><trkpt lat="47.34128228021415" lon="5.18673259772706"><ele>218.0</ele><time>2026-04-06T15:16:23.983Z</time></trkpt><trkpt lat="47.34139016776551" lon="5.1867599653418335"><ele>218.0</ele><time>2026-04-06T15:16:25.983Z</time></trkpt><trkpt lat="47.34150037200345" lon="5.1868028553074845"><ele>217.75</ele><time>2026-04-06T15:16:27.983Z</time></trkpt><trkpt lat="47.341606693489375" lon="5.186867059911053"><ele>217.5</ele><time>2026-04-06T15:16:29.983Z</time></trkpt><trkpt lat="47.341711527678754" lon="5.18694376541583"><ele>217.25</ele><time>2026-04-06T15:16:31.983Z</time></trkpt><trkpt lat="47.34180013128279" lon="5.187061260533409"><ele>217.0</ele><time>2026-04-06T15:16:33.983Z</time></trkpt><trkpt lat="47.341883437751484" lon="5.187183890629784"><ele>217.0</ele><time>2026-04-06T15:16:35.983Z</time></trkpt><trkpt lat="47.34196741754125" lon="5.187313370967929"><ele>217.0</ele><time>2026-04-06T15:16:37.983Z</time></trkpt><trkpt lat="47.34203934109568" lon="5.187442834562556"><ele>217.0</ele><time>2026-04-06T15:16:39.983Z</time></trkpt><trkpt lat="47.34212110121303" lon="5.187573605628328"><ele>217.0</ele><time>2026-04-06T15:16:41.983Z</time></trkpt><trkpt lat="47.34220187360829" lon="5.18770630313725"><ele>217.0</ele><time>2026-04-06T15:16:43.983Z</time></trkpt><trkpt lat="47.342286757645056" lon="5.187832829252751"><ele>217.0</ele><time>2026-04-06T15:16:45.983Z</time></trkpt><trkpt lat="47.34236678588906" lon="5.187959849508596"><ele>217.0</ele><time>2026-04-06T15:16:47.983Z</time></trkpt><trkpt lat="47.342448037937764" lon="5.188073197901782"><ele>217.0</ele><time>2026-04-06T15:16:49.983Z</time></trkpt><trkpt lat="47.342534171070696" lon="5.188174338610416"><ele>217.0</ele><time>2026-04-06T15:16:51.983Z</time></trkpt><trkpt lat="47.34262326191046" lon="5.188256593367517"><ele>217.0</ele><time>2026-04-06T15:16:53.983Z</time></trkpt><trkpt lat="47.34273982575167" lon="5.188231079557481"><ele>217.0</ele><time>2026-04-06T15:16:55.984Z</time></trkpt><trkpt lat="47.34284270992891" lon="5.188179122875019"><ele>217.0</ele><time>2026-04-06T15:16:57.984Z</time></trkpt><trkpt lat="47.342943549603504" lon="5.188138667140336"><ele>217.0</ele><time>2026-04-06T15:16:59.984Z</time></trkpt><trkpt lat="47.343030142768626" lon="5.188079926911972"><ele>217.0</ele><time>2026-04-06T15:17:01.984Z</time></trkpt><trkpt lat="47.343043616782566" lon="5.187920418919337"><ele>217.0</ele><time>2026-04-06T15:17:03.984Z</time></trkpt><trkpt lat="47.34304363048521" lon="5.187761541682203"><ele>217.0</ele><time>2026-04-06T15:17:05.984Z</time></trkpt><trkpt lat="47.34305982577537" lon="5.187626308079063"><ele>217.0</ele><time>2026-04-06T15:17:07.984Z</time></trkpt><trkpt lat="47.34307154040551" lon="5.18747229300535"><ele>217.0</ele><time>2026-04-06T15:17:09.984Z</time></trkpt><trkpt lat="47.34309281633681" lon="5.187323950085105"><ele>217.33333333333331</ele><time>2026-04-06T15:17:11.984Z</time></trkpt><trkpt lat="47.34311116310361" lon="5.187189380949154"><ele>217.66666666666666</ele><time>2026-04-06T15:17:13.984Z</time></trkpt><trkpt lat="47.34311888803751" lon="5.187056692390034"><ele>218.0</ele><time>2026-04-06T15:17:15.984Z</time></trkpt><trkpt lat="47.34314991403672" lon="5.186950814954553"><ele>218.33333333333331</ele><time>2026-04-06T15:17:17.984Z</time></trkpt><trkpt lat="47.34319862937657" lon="5.1868716393406125"><ele>218.66666666666666</ele><time>2026-04-06T15:17:19.984Z</time></trkpt><trkpt lat="47.343265926303914" lon="5.186854197357164"><ele>219.0</ele><time>2026-04-06T15:17:21.984Z</time></trkpt><trkpt lat="47.34334640379637" lon="5.186879399350682"><ele>219.0</ele><time>2026-04-06T15:17:24.984Z</time></trkpt><trkpt lat="47.343407635683384" lon="5.186833689565295"><ele>218.99999999999997</ele><time>2026-04-06T15:17:26.984Z</time></trkpt><trkpt lat="47.34341280819966" lon="5.186717627760618"><ele>218.99999999999997</ele><time>2026-04-06T15:17:28.984Z</time></trkpt><trkpt lat="47.343452450657026" lon="5.186587372658185"><ele>219.0</ele><time>2026-04-06T15:17:30.984Z</time></trkpt><trkpt lat="47.343519912285316" lon="5.18645728380972"><ele>219.0</ele><time>2026-04-06T15:17:32.984Z</time></trkpt><trkpt lat="47.34360289208822" lon="5.186346550356661"><ele>218.79999999999998</ele><time>2026-04-06T15:17:34.984Z</time></trkpt><trkpt lat="47.34365674007414" lon="5.186220285030695"><ele>218.59999999999997</ele><time>2026-04-06T15:17:36.984Z</time></trkpt><trkpt lat="47.3437019938971" lon="5.186154743202781"><ele>218.4</ele><time>2026-04-06T15:17:37.984Z</time></trkpt><trkpt lat="47.34377375489581" lon="5.186041876666046"><ele>218.2</ele><time>2026-04-06T15:17:39.984Z</time></trkpt><trkpt lat="47.34383887811962" lon="5.185930723523005"><ele>218.0</ele><time>2026-04-06T15:17:41.984Z</time></trkpt><trkpt lat="47.34390917924436" lon="5.185822106803077"><ele>217.66666666666669</ele><time>2026-04-06T15:17:43.984Z</time></trkpt><trkpt lat="47.343993639537885" lon="5.185786437974248"><ele>217.33333333333334</ele><time>2026-04-06T15:17:45.984Z</time></trkpt><trkpt lat="47.34406814777151" lon="5.185851604186589"><ele>217.0</ele><time>2026-04-06T15:17:47.984Z</time></trkpt><trkpt lat="47.344152505706234" lon="5.185897519412343"><ele>216.66666666666669</ele><time>2026-04-06T15:17:49.984Z</time></trkpt><trkpt lat="47.344224948033094" lon="5.185940213463448"><ele>216.33333333333334</ele><time>2026-04-06T15:17:51.984Z</time></trkpt><trkpt lat="47.344294249437304" lon="5.18599084348045"><ele>216.0</ele><time>2026-04-06T15:17:53.984Z</time></trkpt><trkpt lat="47.34436380789287" lon="5.186016847104351"><ele>216.0</ele><time>2026-04-06T15:17:55.984Z</time></trkpt><trkpt lat="47.3444441864702" lon="5.185975157971567"><ele>216.0</ele><time>2026-04-06T15:17:57.984Z</time></trkpt><trkpt lat="47.34450273427534" lon="5.185914623391304"><ele>216.0</ele><time>2026-04-06T15:17:59.984Z</time></trkpt><trkpt lat="47.34454843785701" lon="5.185848796781527"><ele>216.0</ele><time>2026-04-06T15:18:01.984Z</time></trkpt><trkpt lat="47.344618035853564" lon="5.185804053638938"><ele>216.0</ele><time>2026-04-06T15:18:04.984Z</time></trkpt></trkseg></trk></gpx>